<?xml version="1.0" encoding="UTF-8"?>
<gpx
  version="1.0"
  creator="pymavlink"
  xmlns:xsi="http://www.w3.org/2001/XMLSchema-instance"
  xmlns="http://www.topografix.com/GPX/1/0"
  xsi:schemaLocation="http://www.topografix.com/GPX/1/0 http://www.topografix.com/GPX/1/0/gpx.xsd">
<trk>
<trkseg>
<trkpt lat="-27.274439" lon="151.290064">
  <ele>343.0</ele>
  <time>2026-08-29T20:43:47Z</time>
  <course>264.84</course>
  <speed>0.16401219466856726</speed>
  <fix>3d</fix>
</trkpt>
<trkpt lat="-27.274439" lon="151.290064">
  <ele>343.0</ele>
  <time>2026-08-29T20:43:47Z</time>
  <course>0.0</course>
  <speed>0.0</speed>
  <fix>3d</fix>
</trkpt>
<trkpt lat="-27.274439" lon="151.290064">
  <ele>343.0</ele>
  <time>2026-08-29T20:43:47Z</time>
  <course>258.75</course>
  <speed>0.1664331697709324</speed>
  <fix>3d</fix>
</trkpt>
<trkpt lat="-27.274439" lon="151.290064">
  <ele>343.0</ele>
  <time>2026-08-29T20:43:47Z</time>
  <course>0.0</course>
  <speed>0.0</speed>
  <fix>3d</fix>
</trkpt>
<trkpt lat="-27.274439" lon="151.290064">
  <ele>343.0</ele>
  <time>2026-08-29T20:43:47Z</time>
  <course>325.88</course>
  <speed>0.0</speed>
  <fix>3d</fix>
</trkpt>
<trkpt lat="-27.274439" lon="151.290064">
  <ele>343.0</ele>
  <time>2026-08-29T20:43:47Z</time>
  <course>324.43</course>
  <speed>0.0</speed>
  <fix>3d</fix>
</trkpt>
<trkpt lat="-27.274439" lon="151.290064">
  <ele>343.0</ele>
  <time>2026-08-29T20:43:47Z</time>
  <course>321.86</course>
  <speed>0.0</speed>
  <fix>3d</fix>
</trkpt>
<trkpt lat="-27.274439" lon="151.290064">
  <ele>343.0</ele>
  <time>2026-08-29T20:43:47Z</time>
  <course>295.0</course>
  <speed>0.0</speed>
  <fix>3d</fix>
</trkpt>
<trkpt lat="-27.274439" lon="151.290064">
  <ele>343.0</ele>
  <time>2026-08-29T20:43:47Z</time>
  <course>290.72</course>
  <speed>0.0</speed>
  <fix>3d</fix>
</trkpt>
<trkpt lat="-27.274439" lon="151.290064">
  <ele>343.0</ele>
  <time>2026-08-29T20:43:47Z</time>
  <course>284.84</course>
  <speed>0.0</speed>
  <fix>3d</fix>
</trkpt>
<trkpt lat="-27.274439" lon="151.290064">
  <ele>343.0</ele>
  <time>2026-08-29T20:43:47Z</time>
  <course>277.79</course>
  <speed>0.0</speed>
  <fix>3d</fix>
</trkpt>
<trkpt lat="-27.274439" lon="151.290064">
  <ele>343.0</ele>
  <time>2026-08-29T20:43:47Z</time>
  <course>269.55</course>
  <speed>0.0</speed>
  <fix>3d</fix>
</trkpt>
<trkpt lat="-27.274439" lon="151.290064">
  <ele>343.0</ele>
  <time>2026-08-29T20:43:47Z</time>
  <course>262.16</course>
  <speed>0.9176055797563569</speed>
  <fix>3d</fix>
</trkpt>
<trkpt lat="-27.274439" lon="151.290064">
  <ele>343.0</ele>
  <time>2026-08-29T20:43:47Z</time>
  <course>0.0</course>
  <speed>0.0</speed>
  <fix>3d</fix>
</trkpt>
<trkpt lat="-27.274439" lon="151.290064">
  <ele>343.0</ele>
  <time>2026-08-29T20:43:47Z</time>
  <course>256.4</course>
  <speed>0.9403190947758107</speed>
  <fix>3d</fix>
</trkpt>
<trkpt lat="-27.274439" lon="151.290064">
  <ele>343.0</ele>
  <time>2026-08-29T20:43:47Z</time>
  <course>0.0</course>
  <speed>0.0</speed>
  <fix>3d</fix>
</trkpt>
<trkpt lat="-27.274439" lon="151.290064">
  <ele>343.0</ele>
  <time>2026-08-29T20:43:47Z</time>
  <course>249.45</course>
  <speed>0.756042326857432</speed>
  <fix>3d</fix>
</trkpt>
<trkpt lat="-27.274439" lon="151.290064">
  <ele>343.0</ele>
  <time>2026-08-29T20:43:47Z</time>
  <course>0.0</course>
  <speed>0.0</speed>
  <fix>3d</fix>
</trkpt>
<trkpt lat="-27.274439" lon="151.290064">
  <ele>343.0</ele>
  <time>2026-08-29T20:43:47Z</time>
  <course>241.79</course>
  <speed>0.6596969000988256</speed>
  <fix>3d</fix>
</trkpt>
<trkpt lat="-27.274439" lon="151.290064">
  <ele>343.0</ele>
  <time>2026-08-29T20:43:47Z</time>
  <course>0.0</course>
  <speed>0.0</speed>
  <fix>3d</fix>
</trkpt>
<trkpt lat="-27.274439" lon="151.290064">
  <ele>343.0</ele>
  <time>2026-08-29T20:43:47Z</time>
  <course>233.59</course>
  <speed>0.6618912297349165</speed>
  <fix>3d</fix>
</trkpt>
<trkpt lat="-27.274439" lon="151.290064">
  <ele>343.0</ele>
  <time>2026-08-29T20:43:47Z</time>
  <course>0.0</course>
  <speed>0.0</speed>
  <fix>3d</fix>
</trkpt>
<trkpt lat="-27.274439" lon="151.290064">
  <ele>343.0</ele>
  <time>2026-08-29T20:43:47Z</time>
  <course>225.02</course>
  <speed>0.7034202158027589</speed>
  <fix>3d</fix>
</trkpt>
<trkpt lat="-27.274439" lon="151.290064">
  <ele>343.0</ele>
  <time>2026-08-29T20:43:47Z</time>
  <course>0.0</course>
  <speed>0.0</speed>
  <fix>3d</fix>
</trkpt>
<trkpt lat="-27.274439" lon="151.290064">
  <ele>343.0</ele>
  <time>2026-08-29T20:43:47Z</time>
  <course>216.17</course>
  <speed>0.7539230729988305</speed>
  <fix>3d</fix>
</trkpt>
<trkpt lat="-27.274439" lon="151.290064">
  <ele>343.0</ele>
  <time>2026-08-29T20:43:47Z</time>
  <course>0.0</course>
  <speed>0.0</speed>
  <fix>3d</fix>
</trkpt>
<trkpt lat="-27.274439" lon="151.290064">
  <ele>343.0</ele>
  <time>2026-08-29T20:43:47Z</time>
  <course>207.13</course>
  <speed>0.8052949770115296</speed>
  <fix>3d</fix>
</trkpt>
<trkpt lat="-27.274439" lon="151.290064">
  <ele>343.0</ele>
  <time>2026-08-29T20:43:47Z</time>
  <course>197.95</course>
  <speed>0.8453401682163222</speed>
  <fix>3d</fix>
</trkpt>
<trkpt lat="-27.274439" lon="151.290064">
  <ele>343.0</ele>
  <time>2026-08-29T20:43:47Z</time>
  <course>0.0</course>
  <speed>0.0</speed>
  <fix>3d</fix>
</trkpt>
<trkpt lat="-27.274439" lon="151.290064">
  <ele>343.0</ele>
  <time>2026-08-29T20:43:47Z</time>
  <course>188.67</course>
  <speed>0.878179936004006</speed>
  <fix>3d</fix>
</trkpt>
<trkpt lat="-27.274439" lon="151.290064">
  <ele>343.0</ele>
  <time>2026-08-29T20:43:47Z</time>
  <course>0.0</course>
  <speed>0.0</speed>
  <fix>3d</fix>
</trkpt>
<trkpt lat="-27.274439" lon="151.290064">
  <ele>343.0</ele>
  <time>2026-08-29T20:43:47Z</time>
  <course>179.31</course>
  <speed>0.8848163651289458</speed>
  <fix>3d</fix>
</trkpt>
<trkpt lat="-27.274439" lon="151.290064">
  <ele>343.0</ele>
  <time>2026-08-29T20:43:47Z</time>
  <course>0.0</course>
  <speed>0.0</speed>
  <fix>3d</fix>
</trkpt>
<trkpt lat="-27.274439" lon="151.290064">
  <ele>343.0</ele>
  <time>2026-08-29T20:43:47Z</time>
  <course>169.93</course>
  <speed>0.9140021881811882</speed>
  <fix>3d</fix>
</trkpt>
<trkpt lat="-27.274439" lon="151.290064">
  <ele>343.0</ele>
  <time>2026-08-29T20:43:47Z</time>
  <course>0.0</course>
  <speed>0.0</speed>
  <fix>3d</fix>
</trkpt>
<trkpt lat="-27.274439" lon="151.290064">
  <ele>343.0</ele>
  <time>2026-08-29T20:43:47Z</time>
  <course>161.9</course>
  <speed>0.9219544457292888</speed>
  <fix>3d</fix>
</trkpt>
<trkpt lat="-27.274439" lon="151.290064">
  <ele>343.0</ele>
  <time>2026-08-29T20:43:47Z</time>
  <course>0.0</course>
  <speed>0.0</speed>
  <fix>3d</fix>
</trkpt>
<trkpt lat="-27.274439" lon="151.290064">
  <ele>343.0</ele>
  <time>2026-08-29T20:43:47Z</time>
  <course>158.55</course>
  <speed>0.9411163583744573</speed>
  <fix>3d</fix>
</trkpt>
<trkpt lat="-27.274439" lon="151.290064">
  <ele>343.0</ele>
  <time>2026-08-29T20:43:47Z</time>
  <course>0.0</course>
  <speed>0.0</speed>
  <fix>3d</fix>
</trkpt>
<trkpt lat="-27.274439" lon="151.290064">
  <ele>343.0</ele>
  <time>2026-08-29T20:43:47Z</time>
  <course>157.2</course>
  <speed>0.9546203433826455</speed>
  <fix>3d</fix>
</trkpt>
<trkpt lat="-27.274439" lon="151.290064">
  <ele>343.0</ele>
  <time>2026-08-29T20:43:47Z</time>
  <course>0.0</course>
  <speed>0.0</speed>
  <fix>3d</fix>
</trkpt>
<trkpt lat="-27.274439" lon="151.290064">
  <ele>343.0</ele>
  <time>2026-08-29T20:43:47Z</time>
  <course>156.57</course>
  <speed>0.9642613753542137</speed>
  <fix>3d</fix>
</trkpt>
<trkpt lat="-27.274439" lon="151.290064">
  <ele>343.0</ele>
  <time>2026-08-29T20:43:47Z</time>
  <course>0.0</course>
  <speed>0.0</speed>
  <fix>3d</fix>
</trkpt>
<trkpt lat="-27.274439" lon="151.290064">
  <ele>343.0</ele>
  <time>2026-08-29T20:43:47Z</time>
  <course>156.21</course>
  <speed>0.9602083107326242</speed>
  <fix>3d</fix>
</trkpt>
<trkpt lat="-27.274439" lon="151.290064">
  <ele>343.0</ele>
  <time>2026-08-29T20:43:47Z</time>
  <course>0.0</course>
  <speed>0.0</speed>
  <fix>3d</fix>
</trkpt>
<trkpt lat="-27.274439" lon="151.290064">
  <ele>343.0</ele>
  <time>2026-08-29T20:43:47Z</time>
  <course>155.95</course>
  <speed>0.9689685237405805</speed>
  <fix>3d</fix>
</trkpt>
<trkpt lat="-27.274439" lon="151.290064">
  <ele>343.0</ele>
  <time>2026-08-29T20:43:47Z</time>
  <course>0.0</course>
  <speed>0.0</speed>
  <fix>3d</fix>
</trkpt>
<trkpt lat="-27.274439" lon="151.290064">
  <ele>343.0</ele>
  <time>2026-08-29T20:43:47Z</time>
  <course>155.71</course>
  <speed>0.9800510190801294</speed>
  <fix>3d</fix>
</trkpt>
<trkpt lat="-27.274439" lon="151.290064">
  <ele>343.0</ele>
  <time>2026-08-29T20:43:47Z</time>
  <course>0.0</course>
  <speed>0.0</speed>
  <fix>3d</fix>
</trkpt>
<trkpt lat="-27.274439" lon="151.290064">
  <ele>343.0</ele>
  <time>2026-08-29T20:43:47Z</time>
  <course>155.49</course>
  <speed>0.9972963451251589</speed>
  <fix>3d</fix>
</trkpt>
<trkpt lat="-27.274439" lon="151.290064">
  <ele>343.0</ele>
  <time>2026-08-29T20:43:47Z</time>
  <course>0.0</course>
  <speed>0.0</speed>
  <fix>3d</fix>
</trkpt>
<trkpt lat="-27.274439" lon="151.290064">
  <ele>343.0</ele>
  <time>2026-08-29T20:43:47Z</time>
  <course>155.27</course>
  <speed>1.0113357503816425</speed>
  <fix>3d</fix>
</trkpt>
<trkpt lat="-27.274439" lon="151.290064">
  <ele>343.0</ele>
  <time>2026-08-29T20:43:47Z</time>
  <course>0.0</course>
  <speed>0.0</speed>
  <fix>3d</fix>
</trkpt>
<trkpt lat="-27.274439" lon="151.290064">
  <ele>343.0</ele>
  <time>2026-08-29T20:43:47Z</time>
  <course>155.07</course>
  <speed>1.010198000393982</speed>
  <fix>3d</fix>
</trkpt>
<trkpt lat="-27.274439" lon="151.290064">
  <ele>343.0</ele>
  <time>2026-08-29T20:43:47Z</time>
  <course>0.0</course>
  <speed>0.0</speed>
  <fix>3d</fix>
</trkpt>
<trkpt lat="-27.274439" lon="151.290064">
  <ele>343.0</ele>
  <time>2026-08-29T20:43:47Z</time>
  <course>154.88</course>
  <speed>0.9962429422585637</speed>
  <fix>3d</fix>
</trkpt>
<trkpt lat="-27.274439" lon="151.290064">
  <ele>343.0</ele>
  <time>2026-08-29T20:43:47Z</time>
  <course>0.0</course>
  <speed>0.0</speed>
  <fix>3d</fix>
</trkpt>
<trkpt lat="-27.274439" lon="151.290064">
  <ele>343.0</ele>
  <time>2026-08-29T20:43:47Z</time>
  <course>154.68</course>
  <speed>0.9751410154434076</speed>
  <fix>3d</fix>
</trkpt>
<trkpt lat="-27.274439" lon="151.290064">
  <ele>343.0</ele>
  <time>2026-08-29T20:43:47Z</time>
  <course>0.0</course>
  <speed>0.0</speed>
  <fix>3d</fix>
</trkpt>
<trkpt lat="-27.274439" lon="151.290064">
  <ele>343.0</ele>
  <time>2026-08-29T20:43:47Z</time>
  <course>154.49</course>
  <speed>0.951892851112981</speed>
  <fix>3d</fix>
</trkpt>
<trkpt lat="-27.274439" lon="151.290064">
  <ele>343.0</ele>
  <time>2026-08-29T20:43:47Z</time>
  <course>0.0</course>
  <speed>0.0</speed>
  <fix>3d</fix>
</trkpt>
<trkpt lat="-27.274439" lon="151.290064">
  <ele>343.0</ele>
  <time>2026-08-29T20:43:47Z</time>
  <course>154.29</course>
  <speed>0.9243916918709297</speed>
  <fix>3d</fix>
</trkpt>
<trkpt lat="-27.274439" lon="151.290064">
  <ele>343.0</ele>
  <time>2026-08-29T20:43:47Z</time>
  <course>0.0</course>
  <speed>0.0</speed>
  <fix>3d</fix>
</trkpt>
<trkpt lat="-27.274439" lon="151.290064">
  <ele>343.0</ele>
  <time>2026-08-29T20:43:47Z</time>
  <course>154.09</course>
  <speed>0.8900561780022652</speed>
  <fix>3d</fix>
</trkpt>
<trkpt lat="-27.274439" lon="151.290064">
  <ele>343.0</ele>
  <time>2026-08-29T20:43:47Z</time>
  <course>0.0</course>
  <speed>0.0</speed>
  <fix>3d</fix>
</trkpt>
<trkpt lat="-27.274439" lon="151.290064">
  <ele>343.0</ele>
  <time>2026-08-29T20:43:47Z</time>
  <course>153.88</course>
  <speed>0.8514693182963201</speed>
  <fix>3d</fix>
</trkpt>
<trkpt lat="-27.274439" lon="151.290064">
  <ele>343.0</ele>
  <time>2026-08-29T20:43:47Z</time>
  <course>0.0</course>
  <speed>0.0</speed>
  <fix>3d</fix>
</trkpt>
<trkpt lat="-27.274439" lon="151.290064">
  <ele>343.0</ele>
  <time>2026-08-29T20:43:47Z</time>
  <course>153.67</course>
  <speed>0.8174350127074322</speed>
  <fix>3d</fix>
</trkpt>
<trkpt lat="-27.274439" lon="151.290064">
  <ele>343.0</ele>
  <time>2026-08-29T20:43:47Z</time>
  <course>0.0</course>
  <speed>0.0</speed>
  <fix>3d</fix>
</trkpt>
<trkpt lat="-27.274439" lon="151.290064">
  <ele>343.0</ele>
  <time>2026-08-29T20:43:47Z</time>
  <course>153.46</course>
  <speed>0.7962411694957753</speed>
  <fix>3d</fix>
</trkpt>
<trkpt lat="-27.274439" lon="151.290064">
  <ele>343.0</ele>
  <time>2026-08-29T20:43:47Z</time>
  <course>0.0</course>
  <speed>0.0</speed>
  <fix>3d</fix>
</trkpt>
<trkpt lat="-27.274439" lon="151.290064">
  <ele>343.0</ele>
  <time>2026-08-29T20:43:47Z</time>
  <course>153.24</course>
  <speed>0.7569015788066504</speed>
  <fix>3d</fix>
</trkpt>
<trkpt lat="-27.274439" lon="151.290064">
  <ele>343.0</ele>
  <time>2026-08-29T20:43:47Z</time>
  <course>0.0</course>
  <speed>0.0</speed>
  <fix>3d</fix>
</trkpt>
<trkpt lat="-27.274439" lon="151.2900646">
  <ele>343.04</ele>
  <time>2026-08-29T20:43:47Z</time>
  <course>153.03</course>
  <speed>0.0</speed>
  <fix>3d</fix>
</trkpt>
<trkpt lat="-27.274439" lon="151.290064">
  <ele>343.0</ele>
  <time>2026-08-29T20:43:47Z</time>
  <course>0.0</course>
  <speed>0.0</speed>
  <fix>3d</fix>
</trkpt>
<trkpt lat="-27.2744392" lon="151.2900653">
  <ele>343.03</ele>
  <time>2026-08-29T20:43:47Z</time>
  <course>152.83</course>
  <speed>0.0848528137423857</speed>
  <fix>3d</fix>
</trkpt>
<trkpt lat="-27.274439" lon="151.290064">
  <ele>343.0</ele>
  <time>2026-08-29T20:43:47Z</time>
  <course>0.0</course>
  <speed>0.0</speed>
  <fix>3d</fix>
</trkpt>
<trkpt lat="-27.2744393" lon="151.2900645">
  <ele>343.02</ele>
  <time>2026-08-29T20:43:47Z</time>
  <course>152.57</course>
  <speed>0.08602325267042626</speed>
  <fix>3d</fix>
</trkpt>
<trkpt lat="-27.274439" lon="151.290064">
  <ele>343.0</ele>
  <time>2026-08-29T20:43:47Z</time>
  <course>0.0</course>
  <speed>0.0</speed>
  <fix>3d</fix>
</trkpt>
<trkpt lat="-27.2744392" lon="151.2900642">
  <ele>343.03</ele>
  <time>2026-08-29T20:43:47Z</time>
  <course>152.29</course>
  <speed>0.05830951894845301</speed>
  <fix>3d</fix>
</trkpt>
<trkpt lat="-27.274439" lon="151.290064">
  <ele>343.0</ele>
  <time>2026-08-29T20:43:47Z</time>
  <course>0.0</course>
  <speed>0.0</speed>
  <fix>3d</fix>
</trkpt>
<trkpt lat="-27.2744391" lon="151.2900641">
  <ele>343.06</ele>
  <time>2026-08-29T20:43:47Z</time>
  <course>152.03</course>
  <speed>0.02</speed>
  <fix>3d</fix>
</trkpt>
<trkpt lat="-27.274439" lon="151.290064">
  <ele>343.0</ele>
  <time>2026-08-29T20:43:47Z</time>
  <course>0.0</course>
  <speed>0.0</speed>
  <fix>3d</fix>
</trkpt>
<trkpt lat="-27.274439" lon="151.290064">
  <ele>343.05</ele>
  <time>2026-08-29T20:43:47Z</time>
  <course>151.79</course>
  <speed>0.01</speed>
  <fix>3d</fix>
</trkpt>
<trkpt lat="-27.274439" lon="151.290064">
  <ele>343.0</ele>
  <time>2026-08-29T20:43:47Z</time>
  <course>0.0</course>
  <speed>0.0</speed>
  <fix>3d</fix>
</trkpt>
<trkpt lat="-27.274439" lon="151.290064">
  <ele>343.04</ele>
  <time>2026-08-29T20:43:47Z</time>
  <course>151.57</course>
  <speed>0.01414213562373095</speed>
  <fix>3d</fix>
</trkpt>
<trkpt lat="-27.274439" lon="151.290064">
  <ele>343.0</ele>
  <time>2026-08-29T20:43:47Z</time>
  <course>0.0</course>
  <speed>0.0</speed>
  <fix>3d</fix>
</trkpt>
<trkpt lat="-27.2744389" lon="151.2900639">
  <ele>343.04</ele>
  <time>2026-08-29T20:43:47Z</time>
  <course>151.37</course>
  <speed>0.01414213562373095</speed>
  <fix>3d</fix>
</trkpt>
<trkpt lat="-27.274439" lon="151.290064">
  <ele>343.0</ele>
  <time>2026-08-29T20:43:47Z</time>
  <course>0.0</course>
  <speed>0.0</speed>
  <fix>3d</fix>
</trkpt>
<trkpt lat="-27.2744389" lon="151.2900638">
  <ele>343.05</ele>
  <time>2026-08-29T20:43:47Z</time>
  <course>151.18</course>
  <speed>0.0282842712474619</speed>
  <fix>3d</fix>
</trkpt>
<trkpt lat="-27.274439" lon="151.290064">
  <ele>343.0</ele>
  <time>2026-08-29T20:43:47Z</time>
  <course>0.0</course>
  <speed>0.0</speed>
  <fix>3d</fix>
</trkpt>
<trkpt lat="-27.2744389" lon="151.2900638">
  <ele>343.06</ele>
  <time>2026-08-29T20:43:47Z</time>
  <course>151.01</course>
  <speed>0.0282842712474619</speed>
  <fix>3d</fix>
</trkpt>
<trkpt lat="-27.274439" lon="151.290064">
  <ele>343.0</ele>
  <time>2026-08-29T20:43:47Z</time>
  <course>0.0</course>
  <speed>0.0</speed>
  <fix>3d</fix>
</trkpt>
<trkpt lat="-27.2744389" lon="151.2900638">
  <ele>343.03</ele>
  <time>2026-08-29T20:43:47Z</time>
  <course>150.84</course>
  <speed>0.0282842712474619</speed>
  <fix>3d</fix>
</trkpt>
<trkpt lat="-27.274439" lon="151.290064">
  <ele>343.0</ele>
  <time>2026-08-29T20:43:47Z</time>
  <course>0.0</course>
  <speed>0.0</speed>
  <fix>3d</fix>
</trkpt>
<trkpt lat="-27.2744389" lon="151.2900638">
  <ele>343.04</ele>
  <time>2026-08-29T20:43:47Z</time>
  <course>150.68</course>
  <speed>0.0282842712474619</speed>
  <fix>3d</fix>
</trkpt>
<trkpt lat="-27.274439" lon="151.290064">
  <ele>343.0</ele>
  <time>2026-08-29T20:43:47Z</time>
  <course>0.0</course>
  <speed>0.0</speed>
  <fix>3d</fix>
</trkpt>
<trkpt lat="-27.2744389" lon="151.2900638">
  <ele>343.03</ele>
  <time>2026-08-29T20:43:47Z</time>
  <course>150.52</course>
  <speed>0.022360679774997897</speed>
  <fix>3d</fix>
</trkpt>
<trkpt lat="-27.274439" lon="151.290064">
  <ele>343.0</ele>
  <time>2026-08-29T20:43:47Z</time>
  <course>0.0</course>
  <speed>0.0</speed>
  <fix>3d</fix>
</trkpt>
<trkpt lat="-27.2744389" lon="151.2900638">
  <ele>343.04</ele>
  <time>2026-08-29T20:43:47Z</time>
  <course>150.38</course>
  <speed>0.022360679774997897</speed>
  <fix>3d</fix>
</trkpt>
<trkpt lat="-27.274439" lon="151.290064">
  <ele>343.0</ele>
  <time>2026-08-29T20:43:47Z</time>
  <course>0.0</course>
  <speed>0.0</speed>
  <fix>3d</fix>
</trkpt>
<trkpt lat="-27.2744389" lon="151.2900638">
  <ele>343.03</ele>
  <time>2026-08-29T20:43:48Z</time>
  <course>150.24</course>
  <speed>0.022360679774997897</speed>
  <fix>3d</fix>
</trkpt>
<trkpt lat="-27.274439" lon="151.290064">
  <ele>343.0</ele>
  <time>2026-08-29T20:43:48Z</time>
  <course>0.0</course>
  <speed>0.0</speed>
  <fix>3d</fix>
</trkpt>
<trkpt lat="-27.2744389" lon="151.2900638">
  <ele>343.02</ele>
  <time>2026-08-29T20:43:48Z</time>
  <course>150.11</course>
  <speed>0.022360679774997897</speed>
  <fix>3d</fix>
</trkpt>
<trkpt lat="-27.274439" lon="151.290064">
  <ele>343.0</ele>
  <time>2026-08-29T20:43:48Z</time>
  <course>0.0</course>
  <speed>0.0</speed>
  <fix>3d</fix>
</trkpt>
<trkpt lat="-27.2744389" lon="151.2900638">
  <ele>343.0</ele>
  <time>2026-08-29T20:43:48Z</time>
  <course>149.98</course>
  <speed>0.022360679774997897</speed>
  <fix>3d</fix>
</trkpt>
<trkpt lat="-27.274439" lon="151.290064">
  <ele>343.0</ele>
  <time>2026-08-29T20:43:48Z</time>
  <course>0.0</course>
  <speed>0.0</speed>
  <fix>3d</fix>
</trkpt>
<trkpt lat="-27.2744389" lon="151.2900638">
  <ele>343.01</ele>
  <time>2026-08-29T20:43:48Z</time>
  <course>149.86</course>
  <speed>0.022360679774997897</speed>
  <fix>3d</fix>
</trkpt>
<trkpt lat="-27.274439" lon="151.290064">
  <ele>343.0</ele>
  <time>2026-08-29T20:43:48Z</time>
  <course>0.0</course>
  <speed>0.0</speed>
  <fix>3d</fix>
</trkpt>
<trkpt lat="-27.2744389" lon="151.2900638">
  <ele>343.04</ele>
  <time>2026-08-29T20:43:48Z</time>
  <course>149.75</course>
  <speed>0.022360679774997897</speed>
  <fix>3d</fix>
</trkpt>
<trkpt lat="-27.274439" lon="151.290064">
  <ele>343.0</ele>
  <time>2026-08-29T20:43:48Z</time>
  <course>0.0</course>
  <speed>0.0</speed>
  <fix>3d</fix>
</trkpt>
<trkpt lat="-27.2744389" lon="151.2900638">
  <ele>343.04</ele>
  <time>2026-08-29T20:43:48Z</time>
  <course>149.64</course>
  <speed>0.022360679774997897</speed>
  <fix>3d</fix>
</trkpt>
<trkpt lat="-27.274439" lon="151.290064">
  <ele>343.0</ele>
  <time>2026-08-29T20:43:48Z</time>
  <course>0.0</course>
  <speed>0.0</speed>
  <fix>3d</fix>
</trkpt>
<trkpt lat="-27.2744389" lon="151.2900638">
  <ele>343.04</ele>
  <time>2026-08-29T20:43:48Z</time>
  <course>149.53</course>
  <speed>0.022360679774997897</speed>
  <fix>3d</fix>
</trkpt>
<trkpt lat="-27.274439" lon="151.290064">
  <ele>343.0</ele>
  <time>2026-08-29T20:43:48Z</time>
  <course>0.0</course>
  <speed>0.0</speed>
  <fix>3d</fix>
</trkpt>
<trkpt lat="-27.2744389" lon="151.2900638">
  <ele>343.04</ele>
  <time>2026-08-29T20:43:48Z</time>
  <course>149.44</course>
  <speed>0.022360679774997897</speed>
  <fix>3d</fix>
</trkpt>
<trkpt lat="-27.274439" lon="151.290064">
  <ele>343.0</ele>
  <time>2026-08-29T20:43:48Z</time>
  <course>0.0</course>
  <speed>0.0</speed>
  <fix>3d</fix>
</trkpt>
<trkpt lat="-27.2744389" lon="151.2900638">
  <ele>343.03</ele>
  <time>2026-08-29T20:43:48Z</time>
  <course>149.34</course>
  <speed>0.022360679774997897</speed>
  <fix>3d</fix>
</trkpt>
<trkpt lat="-27.274439" lon="151.290064">
  <ele>343.0</ele>
  <time>2026-08-29T20:43:48Z</time>
  <course>0.0</course>
  <speed>0.0</speed>
  <fix>3d</fix>
</trkpt>
<trkpt lat="-27.2744389" lon="151.2900638">
  <ele>343.02</ele>
  <time>2026-08-29T20:43:48Z</time>
  <course>149.25</course>
  <speed>0.022360679774997897</speed>
  <fix>3d</fix>
</trkpt>
<trkpt lat="-27.274439" lon="151.290064">
  <ele>343.0</ele>
  <time>2026-08-29T20:43:48Z</time>
  <course>0.0</course>
  <speed>0.0</speed>
  <fix>3d</fix>
</trkpt>
<trkpt lat="-27.2744389" lon="151.2900638">
  <ele>343.05</ele>
  <time>2026-08-29T20:43:48Z</time>
  <course>149.17</course>
  <speed>0.022360679774997897</speed>
  <fix>3d</fix>
</trkpt>
<trkpt lat="-27.274439" lon="151.290064">
  <ele>343.0</ele>
  <time>2026-08-29T20:43:48Z</time>
  <course>0.0</course>
  <speed>0.0</speed>
  <fix>3d</fix>
</trkpt>
<trkpt lat="-27.2744389" lon="151.2900638">
  <ele>343.04</ele>
  <time>2026-08-29T20:43:48Z</time>
  <course>149.09</course>
  <speed>0.02</speed>
  <fix>3d</fix>
</trkpt>
<trkpt lat="-27.274439" lon="151.290064">
  <ele>343.0</ele>
  <time>2026-08-29T20:43:48Z</time>
  <course>0.0</course>
  <speed>0.0</speed>
  <fix>3d</fix>
</trkpt>
<trkpt lat="-27.2744389" lon="151.2900638">
  <ele>343.05</ele>
  <time>2026-08-29T20:43:48Z</time>
  <course>149.01</course>
  <speed>0.022360679774997897</speed>
  <fix>3d</fix>
</trkpt>
<trkpt lat="-27.274439" lon="151.290064">
  <ele>343.0</ele>
  <time>2026-08-29T20:43:48Z</time>
  <course>0.0</course>
  <speed>0.0</speed>
  <fix>3d</fix>
</trkpt>
<trkpt lat="-27.2744389" lon="151.2900638">
  <ele>343.03</ele>
  <time>2026-08-29T20:43:48Z</time>
  <course>148.94</course>
  <speed>0.02</speed>
  <fix>3d</fix>
</trkpt>
<trkpt lat="-27.274439" lon="151.290064">
  <ele>343.0</ele>
  <time>2026-08-29T20:43:48Z</time>
  <course>0.0</course>
  <speed>0.0</speed>
  <fix>3d</fix>
</trkpt>
<trkpt lat="-27.2744389" lon="151.2900638">
  <ele>343.02</ele>
  <time>2026-08-29T20:43:48Z</time>
  <course>148.87</course>
  <speed>0.022360679774997897</speed>
  <fix>3d</fix>
</trkpt>
<trkpt lat="-27.274439" lon="151.290064">
  <ele>343.0</ele>
  <time>2026-08-29T20:43:48Z</time>
  <course>0.0</course>
  <speed>0.0</speed>
  <fix>3d</fix>
</trkpt>
<trkpt lat="-27.2744389" lon="151.2900638">
  <ele>343.02</ele>
  <time>2026-08-29T20:43:48Z</time>
  <course>148.8</course>
  <speed>0.02</speed>
  <fix>3d</fix>
</trkpt>
<trkpt lat="-27.274439" lon="151.290064">
  <ele>343.0</ele>
  <time>2026-08-29T20:43:48Z</time>
  <course>0.0</course>
  <speed>0.0</speed>
  <fix>3d</fix>
</trkpt>
<trkpt lat="-27.2744389" lon="151.2900638">
  <ele>343.02</ele>
  <time>2026-08-29T20:43:48Z</time>
  <course>148.74</course>
  <speed>0.02</speed>
  <fix>3d</fix>
</trkpt>
<trkpt lat="-27.274439" lon="151.290064">
  <ele>343.0</ele>
  <time>2026-08-29T20:43:48Z</time>
  <course>0.0</course>
  <speed>0.0</speed>
  <fix>3d</fix>
</trkpt>
<trkpt lat="-27.2744389" lon="151.2900638">
  <ele>343.0</ele>
  <time>2026-08-29T20:43:48Z</time>
  <course>148.67</course>
  <speed>0.02</speed>
  <fix>3d</fix>
</trkpt>
<trkpt lat="-27.274439" lon="151.290064">
  <ele>343.0</ele>
  <time>2026-08-29T20:43:48Z</time>
  <course>0.0</course>
  <speed>0.0</speed>
  <fix>3d</fix>
</trkpt>
<trkpt lat="-27.2744389" lon="151.2900638">
  <ele>343.0</ele>
  <time>2026-08-29T20:43:48Z</time>
  <course>148.62</course>
  <speed>0.02</speed>
  <fix>3d</fix>
</trkpt>
<trkpt lat="-27.274439" lon="151.290064">
  <ele>343.0</ele>
  <time>2026-08-29T20:43:48Z</time>
  <course>0.0</course>
  <speed>0.0</speed>
  <fix>3d</fix>
</trkpt>
<trkpt lat="-27.2744389" lon="151.2900638">
  <ele>343.01</ele>
  <time>2026-08-29T20:43:48Z</time>
  <course>148.56</course>
  <speed>0.02</speed>
  <fix>3d</fix>
</trkpt>
<trkpt lat="-27.274439" lon="151.290064">
  <ele>343.0</ele>
  <time>2026-08-29T20:43:48Z</time>
  <course>0.0</course>
  <speed>0.0</speed>
  <fix>3d</fix>
</trkpt>
<trkpt lat="-27.2744389" lon="151.2900638">
  <ele>342.99</ele>
  <time>2026-08-29T20:43:48Z</time>
  <course>148.51</course>
  <speed>0.02</speed>
  <fix>3d</fix>
</trkpt>
<trkpt lat="-27.274439" lon="151.290064">
  <ele>343.0</ele>
  <time>2026-08-29T20:43:48Z</time>
  <course>0.0</course>
  <speed>0.0</speed>
  <fix>3d</fix>
</trkpt>
<trkpt lat="-27.2744389" lon="151.2900638">
  <ele>342.99</ele>
  <time>2026-08-29T20:43:48Z</time>
  <course>148.46</course>
  <speed>0.02</speed>
  <fix>3d</fix>
</trkpt>
<trkpt lat="-27.274439" lon="151.290064">
  <ele>343.0</ele>
  <time>2026-08-29T20:43:48Z</time>
  <course>0.0</course>
  <speed>0.0</speed>
  <fix>3d</fix>
</trkpt>
<trkpt lat="-27.2744389" lon="151.2900638">
  <ele>342.99</ele>
  <time>2026-08-29T20:43:48Z</time>
  <course>148.41</course>
  <speed>0.02</speed>
  <fix>3d</fix>
</trkpt>
<trkpt lat="-27.274439" lon="151.290064">
  <ele>343.0</ele>
  <time>2026-08-29T20:43:48Z</time>
  <course>0.0</course>
  <speed>0.0</speed>
  <fix>3d</fix>
</trkpt>
<trkpt lat="-27.2744389" lon="151.2900638">
  <ele>343.01</ele>
  <time>2026-08-29T20:43:48Z</time>
  <course>148.36</course>
  <speed>0.02</speed>
  <fix>3d</fix>
</trkpt>
<trkpt lat="-27.274439" lon="151.290064">
  <ele>343.0</ele>
  <time>2026-08-29T20:43:48Z</time>
  <course>0.0</course>
  <speed>0.0</speed>
  <fix>3d</fix>
</trkpt>
<trkpt lat="-27.2744389" lon="151.2900638">
  <ele>343.01</ele>
  <time>2026-08-29T20:43:48Z</time>
  <course>148.32</course>
  <speed>0.02</speed>
  <fix>3d</fix>
</trkpt>
<trkpt lat="-27.274439" lon="151.290064">
  <ele>343.0</ele>
  <time>2026-08-29T20:43:48Z</time>
  <course>0.0</course>
  <speed>0.0</speed>
  <fix>3d</fix>
</trkpt>
<trkpt lat="-27.2744389" lon="151.2900638">
  <ele>343.02</ele>
  <time>2026-08-29T20:43:48Z</time>
  <course>148.27</course>
  <speed>0.02</speed>
  <fix>3d</fix>
</trkpt>
<trkpt lat="-27.274439" lon="151.290064">
  <ele>343.0</ele>
  <time>2026-08-29T20:43:48Z</time>
  <course>0.0</course>
  <speed>0.0</speed>
  <fix>3d</fix>
</trkpt>
<trkpt lat="-27.2744389" lon="151.2900638">
  <ele>343.01</ele>
  <time>2026-08-29T20:43:48Z</time>
  <course>148.23</course>
  <speed>0.02</speed>
  <fix>3d</fix>
</trkpt>
<trkpt lat="-27.274439" lon="151.290064">
  <ele>343.0</ele>
  <time>2026-08-29T20:43:48Z</time>
  <course>0.0</course>
  <speed>0.0</speed>
  <fix>3d</fix>
</trkpt>
<trkpt lat="-27.2744389" lon="151.2900638">
  <ele>343.02</ele>
  <time>2026-08-29T20:43:48Z</time>
  <course>148.19</course>
  <speed>0.02</speed>
  <fix>3d</fix>
</trkpt>
<trkpt lat="-27.274439" lon="151.290064">
  <ele>343.0</ele>
  <time>2026-08-29T20:43:48Z</time>
  <course>0.0</course>
  <speed>0.0</speed>
  <fix>3d</fix>
</trkpt>
<trkpt lat="-27.2744389" lon="151.2900638">
  <ele>343.05</ele>
  <time>2026-08-29T20:43:48Z</time>
  <course>148.15</course>
  <speed>0.02</speed>
  <fix>3d</fix>
</trkpt>
<trkpt lat="-27.274439" lon="151.290064">
  <ele>343.0</ele>
  <time>2026-08-29T20:43:48Z</time>
  <course>0.0</course>
  <speed>0.0</speed>
  <fix>3d</fix>
</trkpt>
<trkpt lat="-27.2744389" lon="151.2900638">
  <ele>343.03</ele>
  <time>2026-08-29T20:43:48Z</time>
  <course>148.12</course>
  <speed>0.02</speed>
  <fix>3d</fix>
</trkpt>
<trkpt lat="-27.274439" lon="151.290064">
  <ele>343.0</ele>
  <time>2026-08-29T20:43:48Z</time>
  <course>0.0</course>
  <speed>0.0</speed>
  <fix>3d</fix>
</trkpt>
<trkpt lat="-27.2744389" lon="151.2900638">
  <ele>343.04</ele>
  <time>2026-08-29T20:43:48Z</time>
  <course>148.08</course>
  <speed>0.02</speed>
  <fix>3d</fix>
</trkpt>
<trkpt lat="-27.274439" lon="151.290064">
  <ele>343.0</ele>
  <time>2026-08-29T20:43:48Z</time>
  <course>0.0</course>
  <speed>0.0</speed>
  <fix>3d</fix>
</trkpt>
<trkpt lat="-27.2744389" lon="151.2900638">
  <ele>343.03</ele>
  <time>2026-08-29T20:43:48Z</time>
  <course>148.05</course>
  <speed>0.02</speed>
  <fix>3d</fix>
</trkpt>
<trkpt lat="-27.274439" lon="151.290064">
  <ele>343.0</ele>
  <time>2026-08-29T20:43:48Z</time>
  <course>0.0</course>
  <speed>0.0</speed>
  <fix>3d</fix>
</trkpt>
<trkpt lat="-27.2744389" lon="151.2900638">
  <ele>343.03</ele>
  <time>2026-08-29T20:43:48Z</time>
  <course>148.02</course>
  <speed>0.02</speed>
  <fix>3d</fix>
</trkpt>
<trkpt lat="-27.274439" lon="151.290064">
  <ele>343.0</ele>
  <time>2026-08-29T20:43:48Z</time>
  <course>0.0</course>
  <speed>0.0</speed>
  <fix>3d</fix>
</trkpt>
<trkpt lat="-27.2744389" lon="151.2900638">
  <ele>343.03</ele>
  <time>2026-08-29T20:43:48Z</time>
  <course>147.98</course>
  <speed>0.02</speed>
  <fix>3d</fix>
</trkpt>
<trkpt lat="-27.274439" lon="151.290064">
  <ele>343.0</ele>
  <time>2026-08-29T20:43:48Z</time>
  <course>0.0</course>
  <speed>0.0</speed>
  <fix>3d</fix>
</trkpt>
<trkpt lat="-27.2744389" lon="151.2900638">
  <ele>343.02</ele>
  <time>2026-08-29T20:43:48Z</time>
  <course>147.95</course>
  <speed>0.02</speed>
  <fix>3d</fix>
</trkpt>
<trkpt lat="-27.274439" lon="151.290064">
  <ele>343.0</ele>
  <time>2026-08-29T20:43:48Z</time>
  <course>0.0</course>
  <speed>0.0</speed>
  <fix>3d</fix>
</trkpt>
<trkpt lat="-27.2744389" lon="151.2900638">
  <ele>343.03</ele>
  <time>2026-08-29T20:43:48Z</time>
  <course>147.93</course>
  <speed>0.02</speed>
  <fix>3d</fix>
</trkpt>
<trkpt lat="-27.274439" lon="151.290064">
  <ele>343.0</ele>
  <time>2026-08-29T20:43:48Z</time>
  <course>0.0</course>
  <speed>0.0</speed>
  <fix>3d</fix>
</trkpt>
<trkpt lat="-27.2744389" lon="151.2900638">
  <ele>343.03</ele>
  <time>2026-08-29T20:43:48Z</time>
  <course>147.89</course>
  <speed>0.02</speed>
  <fix>3d</fix>
</trkpt>
<trkpt lat="-27.274439" lon="151.290064">
  <ele>343.0</ele>
  <time>2026-08-29T20:43:48Z</time>
  <course>0.0</course>
  <speed>0.0</speed>
  <fix>3d</fix>
</trkpt>
<trkpt lat="-27.2744389" lon="151.2900638">
  <ele>343.02</ele>
  <time>2026-08-29T20:43:48Z</time>
  <course>147.87</course>
  <speed>0.02</speed>
  <fix>3d</fix>
</trkpt>
<trkpt lat="-27.274439" lon="151.290064">
  <ele>343.0</ele>
  <time>2026-08-29T20:43:48Z</time>
  <course>0.0</course>
  <speed>0.0</speed>
  <fix>3d</fix>
</trkpt>
<trkpt lat="-27.2744389" lon="151.2900638">
  <ele>343.05</ele>
  <time>2026-08-29T20:43:48Z</time>
  <course>147.84</course>
  <speed>0.02</speed>
  <fix>3d</fix>
</trkpt>
<trkpt lat="-27.274439" lon="151.290064">
  <ele>343.0</ele>
  <time>2026-08-29T20:43:48Z</time>
  <course>0.0</course>
  <speed>0.0</speed>
  <fix>3d</fix>
</trkpt>
<trkpt lat="-27.2744389" lon="151.2900638">
  <ele>343.03</ele>
  <time>2026-08-29T20:43:48Z</time>
  <course>147.82</course>
  <speed>0.02</speed>
  <fix>3d</fix>
</trkpt>
<trkpt lat="-27.274439" lon="151.290064">
  <ele>343.0</ele>
  <time>2026-08-29T20:43:48Z</time>
  <course>0.0</course>
  <speed>0.0</speed>
  <fix>3d</fix>
</trkpt>
<trkpt lat="-27.2744389" lon="151.2900638">
  <ele>343.02</ele>
  <time>2026-08-29T20:43:48Z</time>
  <course>147.79</course>
  <speed>0.02</speed>
  <fix>3d</fix>
</trkpt>
<trkpt lat="-27.274439" lon="151.290064">
  <ele>343.0</ele>
  <time>2026-08-29T20:43:48Z</time>
  <course>0.0</course>
  <speed>0.0</speed>
  <fix>3d</fix>
</trkpt>
<trkpt lat="-27.2744389" lon="151.2900638">
  <ele>343.01</ele>
  <time>2026-08-29T20:43:48Z</time>
  <course>147.77</course>
  <speed>0.02</speed>
  <fix>3d</fix>
</trkpt>
<trkpt lat="-27.274439" lon="151.290064">
  <ele>343.0</ele>
  <time>2026-08-29T20:43:48Z</time>
  <course>0.0</course>
  <speed>0.0</speed>
  <fix>3d</fix>
</trkpt>
<trkpt lat="-27.2744389" lon="151.2900638">
  <ele>343.0</ele>
  <time>2026-08-29T20:43:48Z</time>
  <course>147.74</course>
  <speed>0.02</speed>
  <fix>3d</fix>
</trkpt>
<trkpt lat="-27.274439" lon="151.290064">
  <ele>343.0</ele>
  <time>2026-08-29T20:43:48Z</time>
  <course>0.0</course>
  <speed>0.0</speed>
  <fix>3d</fix>
</trkpt>
<trkpt lat="-27.2744389" lon="151.2900638">
  <ele>343.01</ele>
  <time>2026-08-29T20:43:48Z</time>
  <course>147.73</course>
  <speed>0.02</speed>
  <fix>3d</fix>
</trkpt>
<trkpt lat="-27.274439" lon="151.290064">
  <ele>343.0</ele>
  <time>2026-08-29T20:43:48Z</time>
  <course>0.0</course>
  <speed>0.0</speed>
  <fix>3d</fix>
</trkpt>
<trkpt lat="-27.2744389" lon="151.2900638">
  <ele>343.0</ele>
  <time>2026-08-29T20:43:48Z</time>
  <course>147.7</course>
  <speed>0.02</speed>
  <fix>3d</fix>
</trkpt>
<trkpt lat="-27.274439" lon="151.290064">
  <ele>343.0</ele>
  <time>2026-08-29T20:43:48Z</time>
  <course>0.0</course>
  <speed>0.0</speed>
  <fix>3d</fix>
</trkpt>
<trkpt lat="-27.2744389" lon="151.2900638">
  <ele>342.99</ele>
  <time>2026-08-29T20:43:48Z</time>
  <course>147.69</course>
  <speed>0.02</speed>
  <fix>3d</fix>
</trkpt>
<trkpt lat="-27.274439" lon="151.290064">
  <ele>343.0</ele>
  <time>2026-08-29T20:43:48Z</time>
  <course>0.0</course>
  <speed>0.0</speed>
  <fix>3d</fix>
</trkpt>
<trkpt lat="-27.2744389" lon="151.2900638">
  <ele>342.99</ele>
  <time>2026-08-29T20:43:48Z</time>
  <course>147.66</course>
  <speed>0.02</speed>
  <fix>3d</fix>
</trkpt>
<trkpt lat="-27.274439" lon="151.290064">
  <ele>343.0</ele>
  <time>2026-08-29T20:43:48Z</time>
  <course>0.0</course>
  <speed>0.0</speed>
  <fix>3d</fix>
</trkpt>
<trkpt lat="-27.2744389" lon="151.2900638">
  <ele>343.0</ele>
  <time>2026-08-29T20:43:48Z</time>
  <course>147.65</course>
  <speed>0.02</speed>
  <fix>3d</fix>
</trkpt>
<trkpt lat="-27.274439" lon="151.290064">
  <ele>343.0</ele>
  <time>2026-08-29T20:43:48Z</time>
  <course>0.0</course>
  <speed>0.0</speed>
  <fix>3d</fix>
</trkpt>
<trkpt lat="-27.2744389" lon="151.2900638">
  <ele>343.01</ele>
  <time>2026-08-29T20:43:48Z</time>
  <course>147.63</course>
  <speed>0.02</speed>
  <fix>3d</fix>
</trkpt>
<trkpt lat="-27.274439" lon="151.290064">
  <ele>343.0</ele>
  <time>2026-08-29T20:43:48Z</time>
  <course>0.0</course>
  <speed>0.0</speed>
  <fix>3d</fix>
</trkpt>
<trkpt lat="-27.2744389" lon="151.2900638">
  <ele>343.0</ele>
  <time>2026-08-29T20:43:48Z</time>
  <course>147.61</course>
  <speed>0.02</speed>
  <fix>3d</fix>
</trkpt>
<trkpt lat="-27.274439" lon="151.290064">
  <ele>343.0</ele>
  <time>2026-08-29T20:43:48Z</time>
  <course>0.0</course>
  <speed>0.0</speed>
  <fix>3d</fix>
</trkpt>
<trkpt lat="-27.2744389" lon="151.2900638">
  <ele>342.99</ele>
  <time>2026-08-29T20:43:48Z</time>
  <course>147.6</course>
  <speed>0.02</speed>
  <fix>3d</fix>
</trkpt>
<trkpt lat="-27.274439" lon="151.290064">
  <ele>343.0</ele>
  <time>2026-08-29T20:43:48Z</time>
  <course>0.0</course>
  <speed>0.0</speed>
  <fix>3d</fix>
</trkpt>
<trkpt lat="-27.2744389" lon="151.2900638">
  <ele>342.99</ele>
  <time>2026-08-29T20:43:48Z</time>
  <course>147.58</course>
  <speed>0.02</speed>
  <fix>3d</fix>
</trkpt>
<trkpt lat="-27.274439" lon="151.290064">
  <ele>343.0</ele>
  <time>2026-08-29T20:43:48Z</time>
  <course>0.0</course>
  <speed>0.0</speed>
  <fix>3d</fix>
</trkpt>
<trkpt lat="-27.2744389" lon="151.2900638">
  <ele>343.0</ele>
  <time>2026-08-29T20:43:48Z</time>
  <course>147.56</course>
  <speed>0.02</speed>
  <fix>3d</fix>
</trkpt>
<trkpt lat="-27.274439" lon="151.290064">
  <ele>343.0</ele>
  <time>2026-08-29T20:43:48Z</time>
  <course>0.0</course>
  <speed>0.0</speed>
  <fix>3d</fix>
</trkpt>
<trkpt lat="-27.2744389" lon="151.2900638">
  <ele>343.02</ele>
  <time>2026-08-29T20:43:48Z</time>
  <course>147.55</course>
  <speed>0.02</speed>
  <fix>3d</fix>
</trkpt>
<trkpt lat="-27.274439" lon="151.290064">
  <ele>343.0</ele>
  <time>2026-08-29T20:43:48Z</time>
  <course>0.0</course>
  <speed>0.0</speed>
  <fix>3d</fix>
</trkpt>
<trkpt lat="-27.2744389" lon="151.2900638">
  <ele>343.01</ele>
  <time>2026-08-29T20:43:48Z</time>
  <course>147.53</course>
  <speed>0.02</speed>
  <fix>3d</fix>
</trkpt>
<trkpt lat="-27.274439" lon="151.290064">
  <ele>343.0</ele>
  <time>2026-08-29T20:43:48Z</time>
  <course>0.0</course>
  <speed>0.0</speed>
  <fix>3d</fix>
</trkpt>
<trkpt lat="-27.2744389" lon="151.2900638">
  <ele>343.01</ele>
  <time>2026-08-29T20:43:48Z</time>
  <course>147.52</course>
  <speed>0.02</speed>
  <fix>3d</fix>
</trkpt>
<trkpt lat="-27.274439" lon="151.290064">
  <ele>343.0</ele>
  <time>2026-08-29T20:43:48Z</time>
  <course>0.0</course>
  <speed>0.0</speed>
  <fix>3d</fix>
</trkpt>
<trkpt lat="-27.2744389" lon="151.2900638">
  <ele>343.02</ele>
  <time>2026-08-29T20:43:48Z</time>
  <course>147.51</course>
  <speed>0.02</speed>
  <fix>3d</fix>
</trkpt>
<trkpt lat="-27.274439" lon="151.290064">
  <ele>343.0</ele>
  <time>2026-08-29T20:43:48Z</time>
  <course>0.0</course>
  <speed>0.0</speed>
  <fix>3d</fix>
</trkpt>
<trkpt lat="-27.2744389" lon="151.2900638">
  <ele>343.01</ele>
  <time>2026-08-29T20:43:48Z</time>
  <course>147.49</course>
  <speed>0.02</speed>
  <fix>3d</fix>
</trkpt>
<trkpt lat="-27.274439" lon="151.290064">
  <ele>343.0</ele>
  <time>2026-08-29T20:43:48Z</time>
  <course>0.0</course>
  <speed>0.0</speed>
  <fix>3d</fix>
</trkpt>
<trkpt lat="-27.2744389" lon="151.2900638">
  <ele>343.0</ele>
  <time>2026-08-29T20:43:48Z</time>
  <course>147.48</course>
  <speed>0.02</speed>
  <fix>3d</fix>
</trkpt>
<trkpt lat="-27.274439" lon="151.290064">
  <ele>343.0</ele>
  <time>2026-08-29T20:43:48Z</time>
  <course>0.0</course>
  <speed>0.0</speed>
  <fix>3d</fix>
</trkpt>
<trkpt lat="-27.2744389" lon="151.2900638">
  <ele>343.04</ele>
  <time>2026-08-29T20:43:48Z</time>
  <course>147.47</course>
  <speed>0.02</speed>
  <fix>3d</fix>
</trkpt>
<trkpt lat="-27.274439" lon="151.290064">
  <ele>343.0</ele>
  <time>2026-08-29T20:43:48Z</time>
  <course>0.0</course>
  <speed>0.0</speed>
  <fix>3d</fix>
</trkpt>
<trkpt lat="-27.2744389" lon="151.2900638">
  <ele>343.04</ele>
  <time>2026-08-29T20:43:48Z</time>
  <course>147.46</course>
  <speed>0.02</speed>
  <fix>3d</fix>
</trkpt>
<trkpt lat="-27.274439" lon="151.290064">
  <ele>343.0</ele>
  <time>2026-08-29T20:43:48Z</time>
  <course>0.0</course>
  <speed>0.0</speed>
  <fix>3d</fix>
</trkpt>
<trkpt lat="-27.2744389" lon="151.2900638">
  <ele>343.01</ele>
  <time>2026-08-29T20:43:48Z</time>
  <course>147.44</course>
  <speed>0.02</speed>
  <fix>3d</fix>
</trkpt>
<trkpt lat="-27.274439" lon="151.290064">
  <ele>343.0</ele>
  <time>2026-08-29T20:43:48Z</time>
  <course>0.0</course>
  <speed>0.0</speed>
  <fix>3d</fix>
</trkpt>
<trkpt lat="-27.2744389" lon="151.2900638">
  <ele>343.01</ele>
  <time>2026-08-29T20:43:48Z</time>
  <course>147.43</course>
  <speed>0.02</speed>
  <fix>3d</fix>
</trkpt>
<trkpt lat="-27.274439" lon="151.290064">
  <ele>343.0</ele>
  <time>2026-08-29T20:43:48Z</time>
  <course>0.0</course>
  <speed>0.0</speed>
  <fix>3d</fix>
</trkpt>
<trkpt lat="-27.2744389" lon="151.2900638">
  <ele>343.02</ele>
  <time>2026-08-29T20:43:48Z</time>
  <course>147.42</course>
  <speed>0.02</speed>
  <fix>3d</fix>
</trkpt>
<trkpt lat="-27.274439" lon="151.290064">
  <ele>343.0</ele>
  <time>2026-08-29T20:43:48Z</time>
  <course>0.0</course>
  <speed>0.0</speed>
  <fix>3d</fix>
</trkpt>
<trkpt lat="-27.2744389" lon="151.2900638">
  <ele>343.04</ele>
  <time>2026-08-29T20:43:48Z</time>
  <course>147.41</course>
  <speed>0.02</speed>
  <fix>3d</fix>
</trkpt>
<trkpt lat="-27.274439" lon="151.290064">
  <ele>343.0</ele>
  <time>2026-08-29T20:43:48Z</time>
  <course>0.0</course>
  <speed>0.0</speed>
  <fix>3d</fix>
</trkpt>
<trkpt lat="-27.2744389" lon="151.2900638">
  <ele>343.03</ele>
  <time>2026-08-29T20:43:48Z</time>
  <course>147.4</course>
  <speed>0.02</speed>
  <fix>3d</fix>
</trkpt>
<trkpt lat="-27.274439" lon="151.290064">
  <ele>343.0</ele>
  <time>2026-08-29T20:43:48Z</time>
  <course>0.0</course>
  <speed>0.0</speed>
  <fix>3d</fix>
</trkpt>
<trkpt lat="-27.2744389" lon="151.2900638">
  <ele>343.01</ele>
  <time>2026-08-29T20:43:48Z</time>
  <course>147.39</course>
  <speed>0.02</speed>
  <fix>3d</fix>
</trkpt>
<trkpt lat="-27.274439" lon="151.290064">
  <ele>343.0</ele>
  <time>2026-08-29T20:43:48Z</time>
  <course>0.0</course>
  <speed>0.0</speed>
  <fix>3d</fix>
</trkpt>
<trkpt lat="-27.2744389" lon="151.2900638">
  <ele>343.02</ele>
  <time>2026-08-29T20:43:48Z</time>
  <course>147.38</course>
  <speed>0.02</speed>
  <fix>3d</fix>
</trkpt>
<trkpt lat="-27.274439" lon="151.290064">
  <ele>343.0</ele>
  <time>2026-08-29T20:43:48Z</time>
  <course>0.0</course>
  <speed>0.0</speed>
  <fix>3d</fix>
</trkpt>
<trkpt lat="-27.2744389" lon="151.2900638">
  <ele>343.01</ele>
  <time>2026-08-29T20:43:49Z</time>
  <course>147.38</course>
  <speed>0.02</speed>
  <fix>3d</fix>
</trkpt>
<trkpt lat="-27.274439" lon="151.290064">
  <ele>343.0</ele>
  <time>2026-08-29T20:43:49Z</time>
  <course>0.0</course>
  <speed>0.0</speed>
  <fix>3d</fix>
</trkpt>
<trkpt lat="-27.2744389" lon="151.2900638">
  <ele>343.01</ele>
  <time>2026-08-29T20:43:49Z</time>
  <course>147.36</course>
  <speed>0.02</speed>
  <fix>3d</fix>
</trkpt>
<trkpt lat="-27.274439" lon="151.290064">
  <ele>343.0</ele>
  <time>2026-08-29T20:43:49Z</time>
  <course>0.0</course>
  <speed>0.0</speed>
  <fix>3d</fix>
</trkpt>
<trkpt lat="-27.2744389" lon="151.2900638">
  <ele>343.01</ele>
  <time>2026-08-29T20:43:49Z</time>
  <course>147.36</course>
  <speed>0.02</speed>
  <fix>3d</fix>
</trkpt>
<trkpt lat="-27.274439" lon="151.290064">
  <ele>343.0</ele>
  <time>2026-08-29T20:43:49Z</time>
  <course>0.0</course>
  <speed>0.0</speed>
  <fix>3d</fix>
</trkpt>
<trkpt lat="-27.2744389" lon="151.2900638">
  <ele>343.01</ele>
  <time>2026-08-29T20:43:49Z</time>
  <course>147.35</course>
  <speed>0.02</speed>
  <fix>3d</fix>
</trkpt>
<trkpt lat="-27.274439" lon="151.290064">
  <ele>343.0</ele>
  <time>2026-08-29T20:43:49Z</time>
  <course>0.0</course>
  <speed>0.0</speed>
  <fix>3d</fix>
</trkpt>
<trkpt lat="-27.2744389" lon="151.2900638">
  <ele>343.03</ele>
  <time>2026-08-29T20:43:49Z</time>
  <course>147.34</course>
  <speed>0.02</speed>
  <fix>3d</fix>
</trkpt>
<trkpt lat="-27.274439" lon="151.290064">
  <ele>343.0</ele>
  <time>2026-08-29T20:43:49Z</time>
  <course>0.0</course>
  <speed>0.0</speed>
  <fix>3d</fix>
</trkpt>
<trkpt lat="-27.2744389" lon="151.2900638">
  <ele>343.03</ele>
  <time>2026-08-29T20:43:49Z</time>
  <course>147.33</course>
  <speed>0.02</speed>
  <fix>3d</fix>
</trkpt>
<trkpt lat="-27.274439" lon="151.290064">
  <ele>343.0</ele>
  <time>2026-08-29T20:43:49Z</time>
  <course>0.0</course>
  <speed>0.0</speed>
  <fix>3d</fix>
</trkpt>
<trkpt lat="-27.2744389" lon="151.2900638">
  <ele>343.04</ele>
  <time>2026-08-29T20:43:49Z</time>
  <course>147.32</course>
  <speed>0.02</speed>
  <fix>3d</fix>
</trkpt>
<trkpt lat="-27.274439" lon="151.290064">
  <ele>343.0</ele>
  <time>2026-08-29T20:43:49Z</time>
  <course>0.0</course>
  <speed>0.0</speed>
  <fix>3d</fix>
</trkpt>
<trkpt lat="-27.2744389" lon="151.2900638">
  <ele>343.03</ele>
  <time>2026-08-29T20:43:49Z</time>
  <course>147.32</course>
  <speed>0.02</speed>
  <fix>3d</fix>
</trkpt>
<trkpt lat="-27.274439" lon="151.290064">
  <ele>343.0</ele>
  <time>2026-08-29T20:43:49Z</time>
  <course>0.0</course>
  <speed>0.0</speed>
  <fix>3d</fix>
</trkpt>
<trkpt lat="-27.2744389" lon="151.2900638">
  <ele>343.01</ele>
  <time>2026-08-29T20:43:49Z</time>
  <course>147.31</course>
  <speed>0.02</speed>
  <fix>3d</fix>
</trkpt>
<trkpt lat="-27.274439" lon="151.290064">
  <ele>343.0</ele>
  <time>2026-08-29T20:43:49Z</time>
  <course>0.0</course>
  <speed>0.0</speed>
  <fix>3d</fix>
</trkpt>
<trkpt lat="-27.2744389" lon="151.2900638">
  <ele>343.01</ele>
  <time>2026-08-29T20:43:49Z</time>
  <course>147.3</course>
  <speed>0.02</speed>
  <fix>3d</fix>
</trkpt>
<trkpt lat="-27.274439" lon="151.290064">
  <ele>343.0</ele>
  <time>2026-08-29T20:43:49Z</time>
  <course>0.0</course>
  <speed>0.0</speed>
  <fix>3d</fix>
</trkpt>
<trkpt lat="-27.2744389" lon="151.2900638">
  <ele>343.03</ele>
  <time>2026-08-29T20:43:49Z</time>
  <course>147.3</course>
  <speed>0.02</speed>
  <fix>3d</fix>
</trkpt>
<trkpt lat="-27.274439" lon="151.290064">
  <ele>343.0</ele>
  <time>2026-08-29T20:43:49Z</time>
  <course>0.0</course>
  <speed>0.0</speed>
  <fix>3d</fix>
</trkpt>
<trkpt lat="-27.2744389" lon="151.2900638">
  <ele>343.02</ele>
  <time>2026-08-29T20:43:49Z</time>
  <course>147.29</course>
  <speed>0.02</speed>
  <fix>3d</fix>
</trkpt>
<trkpt lat="-27.274439" lon="151.290064">
  <ele>343.0</ele>
  <time>2026-08-29T20:43:49Z</time>
  <course>0.0</course>
  <speed>0.0</speed>
  <fix>3d</fix>
</trkpt>
<trkpt lat="-27.2744389" lon="151.2900638">
  <ele>343.02</ele>
  <time>2026-08-29T20:43:49Z</time>
  <course>147.28</course>
  <speed>0.02</speed>
  <fix>3d</fix>
</trkpt>
<trkpt lat="-27.274439" lon="151.290064">
  <ele>343.0</ele>
  <time>2026-08-29T20:43:49Z</time>
  <course>0.0</course>
  <speed>0.0</speed>
  <fix>3d</fix>
</trkpt>
<trkpt lat="-27.2744389" lon="151.2900638">
  <ele>343.01</ele>
  <time>2026-08-29T20:43:49Z</time>
  <course>147.28</course>
  <speed>0.02</speed>
  <fix>3d</fix>
</trkpt>
<trkpt lat="-27.274439" lon="151.290064">
  <ele>343.0</ele>
  <time>2026-08-29T20:43:49Z</time>
  <course>0.0</course>
  <speed>0.0</speed>
  <fix>3d</fix>
</trkpt>
<trkpt lat="-27.2744389" lon="151.2900638">
  <ele>343.02</ele>
  <time>2026-08-29T20:43:49Z</time>
  <course>147.27</course>
  <speed>0.02</speed>
  <fix>3d</fix>
</trkpt>
<trkpt lat="-27.274439" lon="151.290064">
  <ele>343.0</ele>
  <time>2026-08-29T20:43:49Z</time>
  <course>0.0</course>
  <speed>0.0</speed>
  <fix>3d</fix>
</trkpt>
<trkpt lat="-27.2744389" lon="151.2900638">
  <ele>343.02</ele>
  <time>2026-08-29T20:43:49Z</time>
  <course>147.27</course>
  <speed>0.02</speed>
  <fix>3d</fix>
</trkpt>
<trkpt lat="-27.274439" lon="151.290064">
  <ele>343.0</ele>
  <time>2026-08-29T20:43:49Z</time>
  <course>0.0</course>
  <speed>0.0</speed>
  <fix>3d</fix>
</trkpt>
<trkpt lat="-27.2744389" lon="151.2900638">
  <ele>343.04</ele>
  <time>2026-08-29T20:43:49Z</time>
  <course>147.26</course>
  <speed>0.02</speed>
  <fix>3d</fix>
</trkpt>
<trkpt lat="-27.274439" lon="151.290064">
  <ele>343.0</ele>
  <time>2026-08-29T20:43:49Z</time>
  <course>0.0</course>
  <speed>0.0</speed>
  <fix>3d</fix>
</trkpt>
<trkpt lat="-27.2744389" lon="151.2900638">
  <ele>343.04</ele>
  <time>2026-08-29T20:43:49Z</time>
  <course>147.25</course>
  <speed>0.02</speed>
  <fix>3d</fix>
</trkpt>
<trkpt lat="-27.274439" lon="151.290064">
  <ele>343.0</ele>
  <time>2026-08-29T20:43:49Z</time>
  <course>0.0</course>
  <speed>0.0</speed>
  <fix>3d</fix>
</trkpt>
<trkpt lat="-27.2744389" lon="151.2900638">
  <ele>343.01</ele>
  <time>2026-08-29T20:43:49Z</time>
  <course>147.25</course>
  <speed>0.02</speed>
  <fix>3d</fix>
</trkpt>
<trkpt lat="-27.274439" lon="151.290064">
  <ele>343.0</ele>
  <time>2026-08-29T20:43:49Z</time>
  <course>0.0</course>
  <speed>0.0</speed>
  <fix>3d</fix>
</trkpt>
<trkpt lat="-27.2744389" lon="151.2900638">
  <ele>343.01</ele>
  <time>2026-08-29T20:43:49Z</time>
  <course>147.24</course>
  <speed>0.02</speed>
  <fix>3d</fix>
</trkpt>
<trkpt lat="-27.274439" lon="151.290064">
  <ele>343.0</ele>
  <time>2026-08-29T20:43:49Z</time>
  <course>0.0</course>
  <speed>0.0</speed>
  <fix>3d</fix>
</trkpt>
<trkpt lat="-27.2744389" lon="151.2900638">
  <ele>343.04</ele>
  <time>2026-08-29T20:43:49Z</time>
  <course>147.24</course>
  <speed>0.02</speed>
  <fix>3d</fix>
</trkpt>
<trkpt lat="-27.274439" lon="151.290064">
  <ele>343.0</ele>
  <time>2026-08-29T20:43:49Z</time>
  <course>0.0</course>
  <speed>0.0</speed>
  <fix>3d</fix>
</trkpt>
<trkpt lat="-27.2744389" lon="151.2900638">
  <ele>343.03</ele>
  <time>2026-08-29T20:43:49Z</time>
  <course>147.24</course>
  <speed>0.02</speed>
  <fix>3d</fix>
</trkpt>
<trkpt lat="-27.274439" lon="151.290064">
  <ele>343.0</ele>
  <time>2026-08-29T20:43:49Z</time>
  <course>0.0</course>
  <speed>0.0</speed>
  <fix>3d</fix>
</trkpt>
<trkpt lat="-27.2744389" lon="151.2900638">
  <ele>343.02</ele>
  <time>2026-08-29T20:43:49Z</time>
  <course>147.23</course>
  <speed>0.02</speed>
  <fix>3d</fix>
</trkpt>
<trkpt lat="-27.274439" lon="151.290064">
  <ele>343.0</ele>
  <time>2026-08-29T20:43:49Z</time>
  <course>0.0</course>
  <speed>0.0</speed>
  <fix>3d</fix>
</trkpt>
<trkpt lat="-27.2744389" lon="151.2900638">
  <ele>343.02</ele>
  <time>2026-08-29T20:43:49Z</time>
  <course>147.23</course>
  <speed>0.02</speed>
  <fix>3d</fix>
</trkpt>
<trkpt lat="-27.274439" lon="151.290064">
  <ele>343.0</ele>
  <time>2026-08-29T20:43:49Z</time>
  <course>0.0</course>
  <speed>0.0</speed>
  <fix>3d</fix>
</trkpt>
<trkpt lat="-27.2744389" lon="151.2900638">
  <ele>343.02</ele>
  <time>2026-08-29T20:43:49Z</time>
  <course>147.22</course>
  <speed>0.02</speed>
  <fix>3d</fix>
</trkpt>
<trkpt lat="-27.274439" lon="151.290064">
  <ele>343.0</ele>
  <time>2026-08-29T20:43:49Z</time>
  <course>0.0</course>
  <speed>0.0</speed>
  <fix>3d</fix>
</trkpt>
<trkpt lat="-27.2744389" lon="151.2900638">
  <ele>343.03</ele>
  <time>2026-08-29T20:43:49Z</time>
  <course>147.22</course>
  <speed>0.02</speed>
  <fix>3d</fix>
</trkpt>
<trkpt lat="-27.274439" lon="151.290064">
  <ele>343.0</ele>
  <time>2026-08-29T20:43:49Z</time>
  <course>0.0</course>
  <speed>0.0</speed>
  <fix>3d</fix>
</trkpt>
<trkpt lat="-27.2744389" lon="151.2900638">
  <ele>343.03</ele>
  <time>2026-08-29T20:43:49Z</time>
  <course>147.21</course>
  <speed>0.02</speed>
  <fix>3d</fix>
</trkpt>
<trkpt lat="-27.274439" lon="151.290064">
  <ele>343.0</ele>
  <time>2026-08-29T20:43:49Z</time>
  <course>0.0</course>
  <speed>0.0</speed>
  <fix>3d</fix>
</trkpt>
<trkpt lat="-27.2744389" lon="151.2900638">
  <ele>343.05</ele>
  <time>2026-08-29T20:43:49Z</time>
  <course>147.21</course>
  <speed>0.02</speed>
  <fix>3d</fix>
</trkpt>
<trkpt lat="-27.274439" lon="151.290064">
  <ele>343.0</ele>
  <time>2026-08-29T20:43:49Z</time>
  <course>0.0</course>
  <speed>0.0</speed>
  <fix>3d</fix>
</trkpt>
<trkpt lat="-27.2744389" lon="151.2900638">
  <ele>343.06</ele>
  <time>2026-08-29T20:43:49Z</time>
  <course>147.21</course>
  <speed>0.02</speed>
  <fix>3d</fix>
</trkpt>
<trkpt lat="-27.274439" lon="151.290064">
  <ele>343.0</ele>
  <time>2026-08-29T20:43:49Z</time>
  <course>0.0</course>
  <speed>0.0</speed>
  <fix>3d</fix>
</trkpt>
<trkpt lat="-27.2744389" lon="151.2900638">
  <ele>343.04</ele>
  <time>2026-08-29T20:43:49Z</time>
  <course>147.2</course>
  <speed>0.02</speed>
  <fix>3d</fix>
</trkpt>
<trkpt lat="-27.274439" lon="151.290064">
  <ele>343.0</ele>
  <time>2026-08-29T20:43:49Z</time>
  <course>0.0</course>
  <speed>0.0</speed>
  <fix>3d</fix>
</trkpt>
<trkpt lat="-27.2744389" lon="151.2900638">
  <ele>343.03</ele>
  <time>2026-08-29T20:43:49Z</time>
  <course>147.2</course>
  <speed>0.02</speed>
  <fix>3d</fix>
</trkpt>
<trkpt lat="-27.274439" lon="151.290064">
  <ele>343.0</ele>
  <time>2026-08-29T20:43:49Z</time>
  <course>0.0</course>
  <speed>0.0</speed>
  <fix>3d</fix>
</trkpt>
<trkpt lat="-27.2744389" lon="151.2900638">
  <ele>343.02</ele>
  <time>2026-08-29T20:43:49Z</time>
  <course>147.2</course>
  <speed>0.02</speed>
  <fix>3d</fix>
</trkpt>
<trkpt lat="-27.274439" lon="151.290064">
  <ele>343.0</ele>
  <time>2026-08-29T20:43:49Z</time>
  <course>0.0</course>
  <speed>0.0</speed>
  <fix>3d</fix>
</trkpt>
<trkpt lat="-27.2744389" lon="151.2900638">
  <ele>343.01</ele>
  <time>2026-08-29T20:43:49Z</time>
  <course>147.19</course>
  <speed>0.02</speed>
  <fix>3d</fix>
</trkpt>
<trkpt lat="-27.274439" lon="151.290064">
  <ele>343.0</ele>
  <time>2026-08-29T20:43:49Z</time>
  <course>0.0</course>
  <speed>0.0</speed>
  <fix>3d</fix>
</trkpt>
<trkpt lat="-27.2744389" lon="151.2900638">
  <ele>342.99</ele>
  <time>2026-08-29T20:43:49Z</time>
  <course>147.19</course>
  <speed>0.02</speed>
  <fix>3d</fix>
</trkpt>
<trkpt lat="-27.274439" lon="151.290064">
  <ele>343.0</ele>
  <time>2026-08-29T20:43:49Z</time>
  <course>0.0</course>
  <speed>0.0</speed>
  <fix>3d</fix>
</trkpt>
<trkpt lat="-27.2744389" lon="151.2900638">
  <ele>342.98</ele>
  <time>2026-08-29T20:43:49Z</time>
  <course>147.19</course>
  <speed>0.02</speed>
  <fix>3d</fix>
</trkpt>
<trkpt lat="-27.274439" lon="151.290064">
  <ele>343.0</ele>
  <time>2026-08-29T20:43:49Z</time>
  <course>0.0</course>
  <speed>0.0</speed>
  <fix>3d</fix>
</trkpt>
<trkpt lat="-27.2744389" lon="151.2900638">
  <ele>342.99</ele>
  <time>2026-08-29T20:43:49Z</time>
  <course>147.19</course>
  <speed>0.02</speed>
  <fix>3d</fix>
</trkpt>
<trkpt lat="-27.274439" lon="151.290064">
  <ele>343.0</ele>
  <time>2026-08-29T20:43:49Z</time>
  <course>0.0</course>
  <speed>0.0</speed>
  <fix>3d</fix>
</trkpt>
<trkpt lat="-27.2744389" lon="151.2900638">
  <ele>343.0</ele>
  <time>2026-08-29T20:43:49Z</time>
  <course>147.18</course>
  <speed>0.02</speed>
  <fix>3d</fix>
</trkpt>
<trkpt lat="-27.274439" lon="151.290064">
  <ele>343.0</ele>
  <time>2026-08-29T20:43:49Z</time>
  <course>0.0</course>
  <speed>0.0</speed>
  <fix>3d</fix>
</trkpt>
<trkpt lat="-27.2744389" lon="151.2900638">
  <ele>343.01</ele>
  <time>2026-08-29T20:43:49Z</time>
  <course>147.18</course>
  <speed>0.02</speed>
  <fix>3d</fix>
</trkpt>
<trkpt lat="-27.274439" lon="151.290064">
  <ele>343.0</ele>
  <time>2026-08-29T20:43:49Z</time>
  <course>0.0</course>
  <speed>0.0</speed>
  <fix>3d</fix>
</trkpt>
<trkpt lat="-27.2744389" lon="151.2900638">
  <ele>343.03</ele>
  <time>2026-08-29T20:43:49Z</time>
  <course>147.18</course>
  <speed>0.02</speed>
  <fix>3d</fix>
</trkpt>
<trkpt lat="-27.274439" lon="151.290064">
  <ele>343.0</ele>
  <time>2026-08-29T20:43:49Z</time>
  <course>0.0</course>
  <speed>0.0</speed>
  <fix>3d</fix>
</trkpt>
<trkpt lat="-27.2744389" lon="151.2900638">
  <ele>343.02</ele>
  <time>2026-08-29T20:43:49Z</time>
  <course>147.17</course>
  <speed>0.02</speed>
  <fix>3d</fix>
</trkpt>
<trkpt lat="-27.274439" lon="151.290064">
  <ele>343.0</ele>
  <time>2026-08-29T20:43:49Z</time>
  <course>0.0</course>
  <speed>0.0</speed>
  <fix>3d</fix>
</trkpt>
<trkpt lat="-27.2744389" lon="151.2900638">
  <ele>343.02</ele>
  <time>2026-08-29T20:43:49Z</time>
  <course>147.17</course>
  <speed>0.02</speed>
  <fix>3d</fix>
</trkpt>
<trkpt lat="-27.274439" lon="151.290064">
  <ele>343.0</ele>
  <time>2026-08-29T20:43:49Z</time>
  <course>0.0</course>
  <speed>0.0</speed>
  <fix>3d</fix>
</trkpt>
<trkpt lat="-27.2744389" lon="151.2900638">
  <ele>343.01</ele>
  <time>2026-08-29T20:43:49Z</time>
  <course>147.17</course>
  <speed>0.02</speed>
  <fix>3d</fix>
</trkpt>
<trkpt lat="-27.274439" lon="151.290064">
  <ele>343.0</ele>
  <time>2026-08-29T20:43:49Z</time>
  <course>0.0</course>
  <speed>0.0</speed>
  <fix>3d</fix>
</trkpt>
<trkpt lat="-27.2744389" lon="151.2900638">
  <ele>343.0</ele>
  <time>2026-08-29T20:43:49Z</time>
  <course>147.17</course>
  <speed>0.02</speed>
  <fix>3d</fix>
</trkpt>
<trkpt lat="-27.274439" lon="151.290064">
  <ele>343.0</ele>
  <time>2026-08-29T20:43:49Z</time>
  <course>0.0</course>
  <speed>0.0</speed>
  <fix>3d</fix>
</trkpt>
<trkpt lat="-27.2744389" lon="151.2900638">
  <ele>343.01</ele>
  <time>2026-08-29T20:43:49Z</time>
  <course>147.16</course>
  <speed>0.02</speed>
  <fix>3d</fix>
</trkpt>
<trkpt lat="-27.274439" lon="151.290064">
  <ele>343.0</ele>
  <time>2026-08-29T20:43:49Z</time>
  <course>0.0</course>
  <speed>0.0</speed>
  <fix>3d</fix>
</trkpt>
<trkpt lat="-27.2744389" lon="151.2900638">
  <ele>343.01</ele>
  <time>2026-08-29T20:43:49Z</time>
  <course>147.16</course>
  <speed>0.02</speed>
  <fix>3d</fix>
</trkpt>
<trkpt lat="-27.274439" lon="151.290064">
  <ele>343.0</ele>
  <time>2026-08-29T20:43:49Z</time>
  <course>0.0</course>
  <speed>0.0</speed>
  <fix>3d</fix>
</trkpt>
<trkpt lat="-27.2744389" lon="151.2900638">
  <ele>343.03</ele>
  <time>2026-08-29T20:43:49Z</time>
  <course>147.16</course>
  <speed>0.02</speed>
  <fix>3d</fix>
</trkpt>
<trkpt lat="-27.274439" lon="151.290064">
  <ele>343.0</ele>
  <time>2026-08-29T20:43:49Z</time>
  <course>0.0</course>
  <speed>0.0</speed>
  <fix>3d</fix>
</trkpt>
<trkpt lat="-27.2744389" lon="151.2900638">
  <ele>343.05</ele>
  <time>2026-08-29T20:43:49Z</time>
  <course>147.16</course>
  <speed>0.02</speed>
  <fix>3d</fix>
</trkpt>
<trkpt lat="-27.274439" lon="151.290064">
  <ele>343.0</ele>
  <time>2026-08-29T20:43:49Z</time>
  <course>0.0</course>
  <speed>0.0</speed>
  <fix>3d</fix>
</trkpt>
<trkpt lat="-27.2744389" lon="151.2900638">
  <ele>343.05</ele>
  <time>2026-08-29T20:43:49Z</time>
  <course>147.16</course>
  <speed>0.02</speed>
  <fix>3d</fix>
</trkpt>
<trkpt lat="-27.274439" lon="151.290064">
  <ele>343.0</ele>
  <time>2026-08-29T20:43:49Z</time>
  <course>0.0</course>
  <speed>0.0</speed>
  <fix>3d</fix>
</trkpt>
<trkpt lat="-27.2744389" lon="151.2900638">
  <ele>343.04</ele>
  <time>2026-08-29T20:43:49Z</time>
  <course>147.16</course>
  <speed>0.02</speed>
  <fix>3d</fix>
</trkpt>
<trkpt lat="-27.274439" lon="151.290064">
  <ele>343.0</ele>
  <time>2026-08-29T20:43:49Z</time>
  <course>0.0</course>
  <speed>0.0</speed>
  <fix>3d</fix>
</trkpt>
<trkpt lat="-27.2744389" lon="151.2900638">
  <ele>343.02</ele>
  <time>2026-08-29T20:43:49Z</time>
  <course>147.15</course>
  <speed>0.02</speed>
  <fix>3d</fix>
</trkpt>
<trkpt lat="-27.274439" lon="151.290064">
  <ele>343.0</ele>
  <time>2026-08-29T20:43:49Z</time>
  <course>0.0</course>
  <speed>0.0</speed>
  <fix>3d</fix>
</trkpt>
<trkpt lat="-27.2744389" lon="151.2900638">
  <ele>343.01</ele>
  <time>2026-08-29T20:43:49Z</time>
  <course>147.15</course>
  <speed>0.02</speed>
  <fix>3d</fix>
</trkpt>
<trkpt lat="-27.274439" lon="151.290064">
  <ele>343.0</ele>
  <time>2026-08-29T20:43:49Z</time>
  <course>0.0</course>
  <speed>0.0</speed>
  <fix>3d</fix>
</trkpt>
<trkpt lat="-27.2744389" lon="151.2900638">
  <ele>343.0</ele>
  <time>2026-08-29T20:43:49Z</time>
  <course>147.15</course>
  <speed>0.02</speed>
  <fix>3d</fix>
</trkpt>
<trkpt lat="-27.274439" lon="151.290064">
  <ele>343.0</ele>
  <time>2026-08-29T20:43:49Z</time>
  <course>0.0</course>
  <speed>0.0</speed>
  <fix>3d</fix>
</trkpt>
<trkpt lat="-27.2744389" lon="151.2900638">
  <ele>342.99</ele>
  <time>2026-08-29T20:43:49Z</time>
  <course>147.15</course>
  <speed>0.02</speed>
  <fix>3d</fix>
</trkpt>
<trkpt lat="-27.274439" lon="151.290064">
  <ele>343.0</ele>
  <time>2026-08-29T20:43:49Z</time>
  <course>0.0</course>
  <speed>0.0</speed>
  <fix>3d</fix>
</trkpt>
<trkpt lat="-27.2744389" lon="151.2900638">
  <ele>343.0</ele>
  <time>2026-08-29T20:43:49Z</time>
  <course>147.15</course>
  <speed>0.02</speed>
  <fix>3d</fix>
</trkpt>
<trkpt lat="-27.274439" lon="151.290064">
  <ele>343.0</ele>
  <time>2026-08-29T20:43:49Z</time>
  <course>0.0</course>
  <speed>0.0</speed>
  <fix>3d</fix>
</trkpt>
<trkpt lat="-27.2744389" lon="151.2900638">
  <ele>343.03</ele>
  <time>2026-08-29T20:43:49Z</time>
  <course>147.15</course>
  <speed>0.02</speed>
  <fix>3d</fix>
</trkpt>
<trkpt lat="-27.274439" lon="151.290064">
  <ele>343.0</ele>
  <time>2026-08-29T20:43:49Z</time>
  <course>0.0</course>
  <speed>0.0</speed>
  <fix>3d</fix>
</trkpt>
<trkpt lat="-27.2744389" lon="151.2900638">
  <ele>343.01</ele>
  <time>2026-08-29T20:43:49Z</time>
  <course>147.14</course>
  <speed>0.02</speed>
  <fix>3d</fix>
</trkpt>
<trkpt lat="-27.274439" lon="151.290064">
  <ele>343.0</ele>
  <time>2026-08-29T20:43:49Z</time>
  <course>0.0</course>
  <speed>0.0</speed>
  <fix>3d</fix>
</trkpt>
<trkpt lat="-27.2744389" lon="151.2900638">
  <ele>343.02</ele>
  <time>2026-08-29T20:43:49Z</time>
  <course>147.14</course>
  <speed>0.02</speed>
  <fix>3d</fix>
</trkpt>
<trkpt lat="-27.274439" lon="151.290064">
  <ele>343.0</ele>
  <time>2026-08-29T20:43:49Z</time>
  <course>0.0</course>
  <speed>0.0</speed>
  <fix>3d</fix>
</trkpt>
<trkpt lat="-27.2744389" lon="151.2900638">
  <ele>343.02</ele>
  <time>2026-08-29T20:43:49Z</time>
  <course>147.14</course>
  <speed>0.02</speed>
  <fix>3d</fix>
</trkpt>
<trkpt lat="-27.274439" lon="151.290064">
  <ele>343.0</ele>
  <time>2026-08-29T20:43:49Z</time>
  <course>0.0</course>
  <speed>0.0</speed>
  <fix>3d</fix>
</trkpt>
<trkpt lat="-27.2744389" lon="151.2900638">
  <ele>343.03</ele>
  <time>2026-08-29T20:43:49Z</time>
  <course>147.14</course>
  <speed>0.02</speed>
  <fix>3d</fix>
</trkpt>
<trkpt lat="-27.274439" lon="151.290064">
  <ele>343.0</ele>
  <time>2026-08-29T20:43:49Z</time>
  <course>0.0</course>
  <speed>0.0</speed>
  <fix>3d</fix>
</trkpt>
<trkpt lat="-27.2744389" lon="151.2900638">
  <ele>343.02</ele>
  <time>2026-08-29T20:43:49Z</time>
  <course>147.14</course>
  <speed>0.02</speed>
  <fix>3d</fix>
</trkpt>
<trkpt lat="-27.274439" lon="151.290064">
  <ele>343.0</ele>
  <time>2026-08-29T20:43:49Z</time>
  <course>0.0</course>
  <speed>0.0</speed>
  <fix>3d</fix>
</trkpt>
<trkpt lat="-27.2744389" lon="151.2900638">
  <ele>343.04</ele>
  <time>2026-08-29T20:43:49Z</time>
  <course>147.14</course>
  <speed>0.02</speed>
  <fix>3d</fix>
</trkpt>
<trkpt lat="-27.274439" lon="151.290064">
  <ele>343.0</ele>
  <time>2026-08-29T20:43:49Z</time>
  <course>0.0</course>
  <speed>0.0</speed>
  <fix>3d</fix>
</trkpt>
<trkpt lat="-27.2744389" lon="151.2900638">
  <ele>343.04</ele>
  <time>2026-08-29T20:43:49Z</time>
  <course>147.14</course>
  <speed>0.02</speed>
  <fix>3d</fix>
</trkpt>
<trkpt lat="-27.274439" lon="151.290064">
  <ele>343.0</ele>
  <time>2026-08-29T20:43:49Z</time>
  <course>0.0</course>
  <speed>0.0</speed>
  <fix>3d</fix>
</trkpt>
<trkpt lat="-27.2744389" lon="151.2900638">
  <ele>343.02</ele>
  <time>2026-08-29T20:43:49Z</time>
  <course>147.14</course>
  <speed>0.02</speed>
  <fix>3d</fix>
</trkpt>
<trkpt lat="-27.274439" lon="151.290064">
  <ele>343.0</ele>
  <time>2026-08-29T20:43:49Z</time>
  <course>0.0</course>
  <speed>0.0</speed>
  <fix>3d</fix>
</trkpt>
<trkpt lat="-27.2744389" lon="151.2900638">
  <ele>343.01</ele>
  <time>2026-08-29T20:43:49Z</time>
  <course>147.14</course>
  <speed>0.02</speed>
  <fix>3d</fix>
</trkpt>
<trkpt lat="-27.274439" lon="151.290064">
  <ele>343.0</ele>
  <time>2026-08-29T20:43:49Z</time>
  <course>0.0</course>
  <speed>0.0</speed>
  <fix>3d</fix>
</trkpt>
<trkpt lat="-27.2744389" lon="151.2900638">
  <ele>343.01</ele>
  <time>2026-08-29T20:43:49Z</time>
  <course>147.13</course>
  <speed>0.02</speed>
  <fix>3d</fix>
</trkpt>
<trkpt lat="-27.274439" lon="151.290064">
  <ele>343.0</ele>
  <time>2026-08-29T20:43:49Z</time>
  <course>0.0</course>
  <speed>0.0</speed>
  <fix>3d</fix>
</trkpt>
<trkpt lat="-27.2744389" lon="151.2900638">
  <ele>343.02</ele>
  <time>2026-08-29T20:43:49Z</time>
  <course>147.13</course>
  <speed>0.02</speed>
  <fix>3d</fix>
</trkpt>
<trkpt lat="-27.274439" lon="151.290064">
  <ele>343.0</ele>
  <time>2026-08-29T20:43:49Z</time>
  <course>0.0</course>
  <speed>0.0</speed>
  <fix>3d</fix>
</trkpt>
<trkpt lat="-27.2744389" lon="151.2900638">
  <ele>343.03</ele>
  <time>2026-08-29T20:43:49Z</time>
  <course>147.13</course>
  <speed>0.02</speed>
  <fix>3d</fix>
</trkpt>
<trkpt lat="-27.274439" lon="151.290064">
  <ele>343.0</ele>
  <time>2026-08-29T20:43:49Z</time>
  <course>0.0</course>
  <speed>0.0</speed>
  <fix>3d</fix>
</trkpt>
<trkpt lat="-27.2744389" lon="151.2900638">
  <ele>343.04</ele>
  <time>2026-08-29T20:43:49Z</time>
  <course>147.13</course>
  <speed>0.02</speed>
  <fix>3d</fix>
</trkpt>
<trkpt lat="-27.274439" lon="151.290064">
  <ele>343.0</ele>
  <time>2026-08-29T20:43:49Z</time>
  <course>0.0</course>
  <speed>0.0</speed>
  <fix>3d</fix>
</trkpt>
<trkpt lat="-27.2744389" lon="151.2900638">
  <ele>343.06</ele>
  <time>2026-08-29T20:43:50Z</time>
  <course>147.13</course>
  <speed>0.02</speed>
  <fix>3d</fix>
</trkpt>
<trkpt lat="-27.274439" lon="151.290064">
  <ele>343.0</ele>
  <time>2026-08-29T20:43:50Z</time>
  <course>0.0</course>
  <speed>0.0</speed>
  <fix>3d</fix>
</trkpt>
<trkpt lat="-27.2744389" lon="151.2900638">
  <ele>343.06</ele>
  <time>2026-08-29T20:43:50Z</time>
  <course>147.13</course>
  <speed>0.02</speed>
  <fix>3d</fix>
</trkpt>
<trkpt lat="-27.274439" lon="151.290064">
  <ele>343.0</ele>
  <time>2026-08-29T20:43:50Z</time>
  <course>0.0</course>
  <speed>0.0</speed>
  <fix>3d</fix>
</trkpt>
<trkpt lat="-27.2744389" lon="151.2900638">
  <ele>343.06</ele>
  <time>2026-08-29T20:43:50Z</time>
  <course>147.13</course>
  <speed>0.02</speed>
  <fix>3d</fix>
</trkpt>
<trkpt lat="-27.274439" lon="151.290064">
  <ele>343.0</ele>
  <time>2026-08-29T20:43:50Z</time>
  <course>0.0</course>
  <speed>0.0</speed>
  <fix>3d</fix>
</trkpt>
<trkpt lat="-27.2744389" lon="151.2900638">
  <ele>343.04</ele>
  <time>2026-08-29T20:43:50Z</time>
  <course>147.13</course>
  <speed>0.02</speed>
  <fix>3d</fix>
</trkpt>
<trkpt lat="-27.274439" lon="151.290064">
  <ele>343.0</ele>
  <time>2026-08-29T20:43:50Z</time>
  <course>0.0</course>
  <speed>0.0</speed>
  <fix>3d</fix>
</trkpt>
<trkpt lat="-27.2744389" lon="151.2900638">
  <ele>343.03</ele>
  <time>2026-08-29T20:43:50Z</time>
  <course>147.13</course>
  <speed>0.02</speed>
  <fix>3d</fix>
</trkpt>
<trkpt lat="-27.274439" lon="151.290064">
  <ele>343.0</ele>
  <time>2026-08-29T20:43:50Z</time>
  <course>0.0</course>
  <speed>0.0</speed>
  <fix>3d</fix>
</trkpt>
<trkpt lat="-27.2744389" lon="151.2900638">
  <ele>343.02</ele>
  <time>2026-08-29T20:43:50Z</time>
  <course>147.13</course>
  <speed>0.02</speed>
  <fix>3d</fix>
</trkpt>
<trkpt lat="-27.274439" lon="151.290064">
  <ele>343.0</ele>
  <time>2026-08-29T20:43:50Z</time>
  <course>0.0</course>
  <speed>0.0</speed>
  <fix>3d</fix>
</trkpt>
<trkpt lat="-27.2744389" lon="151.2900638">
  <ele>343.03</ele>
  <time>2026-08-29T20:43:50Z</time>
  <course>147.13</course>
  <speed>0.02</speed>
  <fix>3d</fix>
</trkpt>
<trkpt lat="-27.274439" lon="151.290064">
  <ele>343.0</ele>
  <time>2026-08-29T20:43:50Z</time>
  <course>0.0</course>
  <speed>0.0</speed>
  <fix>3d</fix>
</trkpt>
<trkpt lat="-27.2744389" lon="151.2900638">
  <ele>343.01</ele>
  <time>2026-08-29T20:43:50Z</time>
  <course>147.13</course>
  <speed>0.02</speed>
  <fix>3d</fix>
</trkpt>
<trkpt lat="-27.274439" lon="151.290064">
  <ele>343.0</ele>
  <time>2026-08-29T20:43:50Z</time>
  <course>0.0</course>
  <speed>0.0</speed>
  <fix>3d</fix>
</trkpt>
<trkpt lat="-27.2744389" lon="151.2900638">
  <ele>343.01</ele>
  <time>2026-08-29T20:43:50Z</time>
  <course>147.12</course>
  <speed>0.02</speed>
  <fix>3d</fix>
</trkpt>
<trkpt lat="-27.274439" lon="151.290064">
  <ele>343.0</ele>
  <time>2026-08-29T20:43:50Z</time>
  <course>0.0</course>
  <speed>0.0</speed>
  <fix>3d</fix>
</trkpt>
<trkpt lat="-27.2744389" lon="151.2900638">
  <ele>343.02</ele>
  <time>2026-08-29T20:43:50Z</time>
  <course>147.13</course>
  <speed>0.02</speed>
  <fix>3d</fix>
</trkpt>
<trkpt lat="-27.274439" lon="151.290064">
  <ele>343.0</ele>
  <time>2026-08-29T20:43:50Z</time>
  <course>0.0</course>
  <speed>0.0</speed>
  <fix>3d</fix>
</trkpt>
<trkpt lat="-27.2744389" lon="151.2900638">
  <ele>343.01</ele>
  <time>2026-08-29T20:43:50Z</time>
  <course>147.12</course>
  <speed>0.02</speed>
  <fix>3d</fix>
</trkpt>
<trkpt lat="-27.274439" lon="151.290064">
  <ele>343.0</ele>
  <time>2026-08-29T20:43:50Z</time>
  <course>0.0</course>
  <speed>0.0</speed>
  <fix>3d</fix>
</trkpt>
<trkpt lat="-27.2744389" lon="151.2900638">
  <ele>343.0</ele>
  <time>2026-08-29T20:43:50Z</time>
  <course>147.13</course>
  <speed>0.02</speed>
  <fix>3d</fix>
</trkpt>
<trkpt lat="-27.274439" lon="151.290064">
  <ele>343.0</ele>
  <time>2026-08-29T20:43:50Z</time>
  <course>0.0</course>
  <speed>0.0</speed>
  <fix>3d</fix>
</trkpt>
<trkpt lat="-27.2744389" lon="151.2900638">
  <ele>343.02</ele>
  <time>2026-08-29T20:43:50Z</time>
  <course>147.12</course>
  <speed>0.02</speed>
  <fix>3d</fix>
</trkpt>
<trkpt lat="-27.274439" lon="151.290064">
  <ele>343.0</ele>
  <time>2026-08-29T20:43:50Z</time>
  <course>0.0</course>
  <speed>0.0</speed>
  <fix>3d</fix>
</trkpt>
<trkpt lat="-27.2744389" lon="151.2900638">
  <ele>343.02</ele>
  <time>2026-08-29T20:43:50Z</time>
  <course>147.13</course>
  <speed>0.02</speed>
  <fix>3d</fix>
</trkpt>
<trkpt lat="-27.274439" lon="151.290064">
  <ele>343.0</ele>
  <time>2026-08-29T20:43:50Z</time>
  <course>0.0</course>
  <speed>0.0</speed>
  <fix>3d</fix>
</trkpt>
<trkpt lat="-27.2744389" lon="151.2900638">
  <ele>343.01</ele>
  <time>2026-08-29T20:43:50Z</time>
  <course>147.12</course>
  <speed>0.02</speed>
  <fix>3d</fix>
</trkpt>
<trkpt lat="-27.274439" lon="151.290064">
  <ele>343.0</ele>
  <time>2026-08-29T20:43:50Z</time>
  <course>0.0</course>
  <speed>0.0</speed>
  <fix>3d</fix>
</trkpt>
<trkpt lat="-27.2744389" lon="151.2900638">
  <ele>343.04</ele>
  <time>2026-08-29T20:43:50Z</time>
  <course>147.13</course>
  <speed>0.02</speed>
  <fix>3d</fix>
</trkpt>
<trkpt lat="-27.274439" lon="151.290064">
  <ele>343.0</ele>
  <time>2026-08-29T20:43:50Z</time>
  <course>0.0</course>
  <speed>0.0</speed>
  <fix>3d</fix>
</trkpt>
<trkpt lat="-27.2744389" lon="151.2900638">
  <ele>343.05</ele>
  <time>2026-08-29T20:43:50Z</time>
  <course>147.12</course>
  <speed>0.02</speed>
  <fix>3d</fix>
</trkpt>
<trkpt lat="-27.274439" lon="151.290064">
  <ele>343.0</ele>
  <time>2026-08-29T20:43:50Z</time>
  <course>0.0</course>
  <speed>0.0</speed>
  <fix>3d</fix>
</trkpt>
<trkpt lat="-27.2744389" lon="151.2900638">
  <ele>343.05</ele>
  <time>2026-08-29T20:43:50Z</time>
  <course>147.13</course>
  <speed>0.02</speed>
  <fix>3d</fix>
</trkpt>
<trkpt lat="-27.274439" lon="151.290064">
  <ele>343.0</ele>
  <time>2026-08-29T20:43:50Z</time>
  <course>0.0</course>
  <speed>0.0</speed>
  <fix>3d</fix>
</trkpt>
<trkpt lat="-27.2744389" lon="151.2900638">
  <ele>343.04</ele>
  <time>2026-08-29T20:43:50Z</time>
  <course>147.12</course>
  <speed>0.02</speed>
  <fix>3d</fix>
</trkpt>
<trkpt lat="-27.274439" lon="151.290064">
  <ele>343.0</ele>
  <time>2026-08-29T20:43:50Z</time>
  <course>0.0</course>
  <speed>0.0</speed>
  <fix>3d</fix>
</trkpt>
<trkpt lat="-27.2744389" lon="151.2900638">
  <ele>343.03</ele>
  <time>2026-08-29T20:43:50Z</time>
  <course>147.13</course>
  <speed>0.02</speed>
  <fix>3d</fix>
</trkpt>
<trkpt lat="-27.274439" lon="151.290064">
  <ele>343.0</ele>
  <time>2026-08-29T20:43:50Z</time>
  <course>0.0</course>
  <speed>0.0</speed>
  <fix>3d</fix>
</trkpt>
<trkpt lat="-27.2744389" lon="151.2900638">
  <ele>343.03</ele>
  <time>2026-08-29T20:43:50Z</time>
  <course>147.13</course>
  <speed>0.02</speed>
  <fix>3d</fix>
</trkpt>
<trkpt lat="-27.274439" lon="151.290064">
  <ele>343.0</ele>
  <time>2026-08-29T20:43:50Z</time>
  <course>0.0</course>
  <speed>0.0</speed>
  <fix>3d</fix>
</trkpt>
<trkpt lat="-27.2744389" lon="151.2900638">
  <ele>343.03</ele>
  <time>2026-08-29T20:43:50Z</time>
  <course>147.13</course>
  <speed>0.02</speed>
  <fix>3d</fix>
</trkpt>
<trkpt lat="-27.274439" lon="151.290064">
  <ele>343.0</ele>
  <time>2026-08-29T20:43:50Z</time>
  <course>0.0</course>
  <speed>0.0</speed>
  <fix>3d</fix>
</trkpt>
<trkpt lat="-27.2744389" lon="151.2900638">
  <ele>343.01</ele>
  <time>2026-08-29T20:43:50Z</time>
  <course>147.13</course>
  <speed>0.02</speed>
  <fix>3d</fix>
</trkpt>
<trkpt lat="-27.274439" lon="151.290064">
  <ele>343.0</ele>
  <time>2026-08-29T20:43:50Z</time>
  <course>0.0</course>
  <speed>0.0</speed>
  <fix>3d</fix>
</trkpt>
<trkpt lat="-27.2744389" lon="151.2900638">
  <ele>343.01</ele>
  <time>2026-08-29T20:43:50Z</time>
  <course>147.12</course>
  <speed>0.02</speed>
  <fix>3d</fix>
</trkpt>
<trkpt lat="-27.274439" lon="151.290064">
  <ele>343.0</ele>
  <time>2026-08-29T20:43:50Z</time>
  <course>0.0</course>
  <speed>0.0</speed>
  <fix>3d</fix>
</trkpt>
<trkpt lat="-27.2744389" lon="151.2900638">
  <ele>343.01</ele>
  <time>2026-08-29T20:43:50Z</time>
  <course>147.13</course>
  <speed>0.02</speed>
  <fix>3d</fix>
</trkpt>
<trkpt lat="-27.274439" lon="151.290064">
  <ele>343.0</ele>
  <time>2026-08-29T20:43:50Z</time>
  <course>0.0</course>
  <speed>0.0</speed>
  <fix>3d</fix>
</trkpt>
<trkpt lat="-27.2744389" lon="151.2900638">
  <ele>343.03</ele>
  <time>2026-08-29T20:43:50Z</time>
  <course>147.12</course>
  <speed>0.02</speed>
  <fix>3d</fix>
</trkpt>
<trkpt lat="-27.274439" lon="151.290064">
  <ele>343.0</ele>
  <time>2026-08-29T20:43:50Z</time>
  <course>0.0</course>
  <speed>0.0</speed>
  <fix>3d</fix>
</trkpt>
<trkpt lat="-27.2744389" lon="151.2900638">
  <ele>343.03</ele>
  <time>2026-08-29T20:43:50Z</time>
  <course>147.12</course>
  <speed>0.02</speed>
  <fix>3d</fix>
</trkpt>
<trkpt lat="-27.274439" lon="151.290064">
  <ele>343.0</ele>
  <time>2026-08-29T20:43:50Z</time>
  <course>0.0</course>
  <speed>0.0</speed>
  <fix>3d</fix>
</trkpt>
<trkpt lat="-27.2744389" lon="151.2900638">
  <ele>343.03</ele>
  <time>2026-08-29T20:43:50Z</time>
  <course>147.12</course>
  <speed>0.02</speed>
  <fix>3d</fix>
</trkpt>
<trkpt lat="-27.274439" lon="151.290064">
  <ele>343.0</ele>
  <time>2026-08-29T20:43:50Z</time>
  <course>0.0</course>
  <speed>0.0</speed>
  <fix>3d</fix>
</trkpt>
<trkpt lat="-27.2744389" lon="151.2900638">
  <ele>343.03</ele>
  <time>2026-08-29T20:43:50Z</time>
  <course>147.13</course>
  <speed>0.02</speed>
  <fix>3d</fix>
</trkpt>
<trkpt lat="-27.274439" lon="151.290064">
  <ele>343.0</ele>
  <time>2026-08-29T20:43:50Z</time>
  <course>0.0</course>
  <speed>0.0</speed>
  <fix>3d</fix>
</trkpt>
<trkpt lat="-27.2744389" lon="151.2900638">
  <ele>343.0</ele>
  <time>2026-08-29T20:43:50Z</time>
  <course>147.12</course>
  <speed>0.02</speed>
  <fix>3d</fix>
</trkpt>
<trkpt lat="-27.274439" lon="151.290064">
  <ele>343.0</ele>
  <time>2026-08-29T20:43:50Z</time>
  <course>0.0</course>
  <speed>0.0</speed>
  <fix>3d</fix>
</trkpt>
<trkpt lat="-27.2744389" lon="151.2900638">
  <ele>343.03</ele>
  <time>2026-08-29T20:43:50Z</time>
  <course>147.13</course>
  <speed>0.02</speed>
  <fix>3d</fix>
</trkpt>
<trkpt lat="-27.274439" lon="151.290064">
  <ele>343.0</ele>
  <time>2026-08-29T20:43:50Z</time>
  <course>0.0</course>
  <speed>0.0</speed>
  <fix>3d</fix>
</trkpt>
<trkpt lat="-27.2744389" lon="151.2900638">
  <ele>343.03</ele>
  <time>2026-08-29T20:43:50Z</time>
  <course>147.12</course>
  <speed>0.02</speed>
  <fix>3d</fix>
</trkpt>
<trkpt lat="-27.274439" lon="151.290064">
  <ele>343.0</ele>
  <time>2026-08-29T20:43:50Z</time>
  <course>0.0</course>
  <speed>0.0</speed>
  <fix>3d</fix>
</trkpt>
<trkpt lat="-27.2744389" lon="151.2900638">
  <ele>343.01</ele>
  <time>2026-08-29T20:43:50Z</time>
  <course>147.13</course>
  <speed>0.02</speed>
  <fix>3d</fix>
</trkpt>
<trkpt lat="-27.274439" lon="151.290064">
  <ele>343.0</ele>
  <time>2026-08-29T20:43:50Z</time>
  <course>0.0</course>
  <speed>0.0</speed>
  <fix>3d</fix>
</trkpt>
<trkpt lat="-27.2744389" lon="151.2900638">
  <ele>343.0</ele>
  <time>2026-08-29T20:43:50Z</time>
  <course>147.12</course>
  <speed>0.02</speed>
  <fix>3d</fix>
</trkpt>
<trkpt lat="-27.274439" lon="151.290064">
  <ele>343.0</ele>
  <time>2026-08-29T20:43:50Z</time>
  <course>0.0</course>
  <speed>0.0</speed>
  <fix>3d</fix>
</trkpt>
<trkpt lat="-27.2744389" lon="151.2900638">
  <ele>343.0</ele>
  <time>2026-08-29T20:43:50Z</time>
  <course>147.13</course>
  <speed>0.02</speed>
  <fix>3d</fix>
</trkpt>
<trkpt lat="-27.274439" lon="151.290064">
  <ele>343.0</ele>
  <time>2026-08-29T20:43:50Z</time>
  <course>0.0</course>
  <speed>0.0</speed>
  <fix>3d</fix>
</trkpt>
<trkpt lat="-27.2744389" lon="151.2900638">
  <ele>342.99</ele>
  <time>2026-08-29T20:43:50Z</time>
  <course>147.12</course>
  <speed>0.02</speed>
  <fix>3d</fix>
</trkpt>
<trkpt lat="-27.274439" lon="151.290064">
  <ele>343.0</ele>
  <time>2026-08-29T20:43:50Z</time>
  <course>0.0</course>
  <speed>0.0</speed>
  <fix>3d</fix>
</trkpt>
<trkpt lat="-27.2744389" lon="151.2900638">
  <ele>342.99</ele>
  <time>2026-08-29T20:43:50Z</time>
  <course>147.13</course>
  <speed>0.02</speed>
  <fix>3d</fix>
</trkpt>
<trkpt lat="-27.274439" lon="151.290064">
  <ele>343.0</ele>
  <time>2026-08-29T20:43:50Z</time>
  <course>0.0</course>
  <speed>0.0</speed>
  <fix>3d</fix>
</trkpt>
<trkpt lat="-27.2744389" lon="151.2900638">
  <ele>343.01</ele>
  <time>2026-08-29T20:43:50Z</time>
  <course>147.13</course>
  <speed>0.02</speed>
  <fix>3d</fix>
</trkpt>
<trkpt lat="-27.274439" lon="151.290064">
  <ele>343.0</ele>
  <time>2026-08-29T20:43:50Z</time>
  <course>0.0</course>
  <speed>0.0</speed>
  <fix>3d</fix>
</trkpt>
<trkpt lat="-27.2744389" lon="151.2900638">
  <ele>343.02</ele>
  <time>2026-08-29T20:43:50Z</time>
  <course>147.13</course>
  <speed>0.02</speed>
  <fix>3d</fix>
</trkpt>
<trkpt lat="-27.274439" lon="151.290064">
  <ele>343.0</ele>
  <time>2026-08-29T20:43:50Z</time>
  <course>0.0</course>
  <speed>0.0</speed>
  <fix>3d</fix>
</trkpt>
<trkpt lat="-27.2744389" lon="151.2900638">
  <ele>343.02</ele>
  <time>2026-08-29T20:43:50Z</time>
  <course>147.13</course>
  <speed>0.02</speed>
  <fix>3d</fix>
</trkpt>
<trkpt lat="-27.274439" lon="151.290064">
  <ele>343.0</ele>
  <time>2026-08-29T20:43:50Z</time>
  <course>0.0</course>
  <speed>0.0</speed>
  <fix>3d</fix>
</trkpt>
<trkpt lat="-27.2744389" lon="151.2900638">
  <ele>343.03</ele>
  <time>2026-08-29T20:43:50Z</time>
  <course>147.13</course>
  <speed>0.02</speed>
  <fix>3d</fix>
</trkpt>
<trkpt lat="-27.274439" lon="151.290064">
  <ele>343.0</ele>
  <time>2026-08-29T20:43:50Z</time>
  <course>0.0</course>
  <speed>0.0</speed>
  <fix>3d</fix>
</trkpt>
<trkpt lat="-27.2744389" lon="151.2900638">
  <ele>342.99</ele>
  <time>2026-08-29T20:43:50Z</time>
  <course>147.13</course>
  <speed>0.02</speed>
  <fix>3d</fix>
</trkpt>
<trkpt lat="-27.274439" lon="151.290064">
  <ele>343.0</ele>
  <time>2026-08-29T20:43:50Z</time>
  <course>0.0</course>
  <speed>0.0</speed>
  <fix>3d</fix>
</trkpt>
<trkpt lat="-27.2744389" lon="151.2900638">
  <ele>342.96</ele>
  <time>2026-08-29T20:43:50Z</time>
  <course>147.13</course>
  <speed>0.02</speed>
  <fix>3d</fix>
</trkpt>
<trkpt lat="-27.274439" lon="151.290064">
  <ele>343.0</ele>
  <time>2026-08-29T20:43:50Z</time>
  <course>0.0</course>
  <speed>0.0</speed>
  <fix>3d</fix>
</trkpt>
<trkpt lat="-27.2744389" lon="151.2900638">
  <ele>342.97</ele>
  <time>2026-08-29T20:43:50Z</time>
  <course>147.13</course>
  <speed>0.02</speed>
  <fix>3d</fix>
</trkpt>
<trkpt lat="-27.274439" lon="151.290064">
  <ele>343.0</ele>
  <time>2026-08-29T20:43:50Z</time>
  <course>0.0</course>
  <speed>0.0</speed>
  <fix>3d</fix>
</trkpt>
<trkpt lat="-27.2744389" lon="151.2900638">
  <ele>342.96</ele>
  <time>2026-08-29T20:43:50Z</time>
  <course>147.13</course>
  <speed>0.02</speed>
  <fix>3d</fix>
</trkpt>
<trkpt lat="-27.274439" lon="151.290064">
  <ele>343.0</ele>
  <time>2026-08-29T20:43:50Z</time>
  <course>0.0</course>
  <speed>0.0</speed>
  <fix>3d</fix>
</trkpt>
<trkpt lat="-27.2744389" lon="151.2900638">
  <ele>342.97</ele>
  <time>2026-08-29T20:43:50Z</time>
  <course>147.13</course>
  <speed>0.02</speed>
  <fix>3d</fix>
</trkpt>
<trkpt lat="-27.274439" lon="151.290064">
  <ele>343.0</ele>
  <time>2026-08-29T20:43:50Z</time>
  <course>0.0</course>
  <speed>0.0</speed>
  <fix>3d</fix>
</trkpt>
<trkpt lat="-27.2744389" lon="151.2900638">
  <ele>342.99</ele>
  <time>2026-08-29T20:43:50Z</time>
  <course>147.13</course>
  <speed>0.02</speed>
  <fix>3d</fix>
</trkpt>
<trkpt lat="-27.274439" lon="151.290064">
  <ele>343.0</ele>
  <time>2026-08-29T20:43:50Z</time>
  <course>0.0</course>
  <speed>0.0</speed>
  <fix>3d</fix>
</trkpt>
<trkpt lat="-27.2744389" lon="151.2900638">
  <ele>342.99</ele>
  <time>2026-08-29T20:43:50Z</time>
  <course>147.13</course>
  <speed>0.02</speed>
  <fix>3d</fix>
</trkpt>
<trkpt lat="-27.274439" lon="151.290064">
  <ele>343.0</ele>
  <time>2026-08-29T20:43:50Z</time>
  <course>0.0</course>
  <speed>0.0</speed>
  <fix>3d</fix>
</trkpt>
<trkpt lat="-27.2744389" lon="151.2900638">
  <ele>342.98</ele>
  <time>2026-08-29T20:43:50Z</time>
  <course>147.13</course>
  <speed>0.02</speed>
  <fix>3d</fix>
</trkpt>
<trkpt lat="-27.274439" lon="151.290064">
  <ele>343.0</ele>
  <time>2026-08-29T20:43:50Z</time>
  <course>0.0</course>
  <speed>0.0</speed>
  <fix>3d</fix>
</trkpt>
<trkpt lat="-27.2744389" lon="151.2900638">
  <ele>343.01</ele>
  <time>2026-08-29T20:43:50Z</time>
  <course>147.13</course>
  <speed>0.02</speed>
  <fix>3d</fix>
</trkpt>
<trkpt lat="-27.274439" lon="151.290064">
  <ele>343.0</ele>
  <time>2026-08-29T20:43:50Z</time>
  <course>0.0</course>
  <speed>0.0</speed>
  <fix>3d</fix>
</trkpt>
<trkpt lat="-27.2744389" lon="151.2900638">
  <ele>343.03</ele>
  <time>2026-08-29T20:43:50Z</time>
  <course>147.13</course>
  <speed>0.02</speed>
  <fix>3d</fix>
</trkpt>
<trkpt lat="-27.274439" lon="151.290064">
  <ele>343.0</ele>
  <time>2026-08-29T20:43:50Z</time>
  <course>0.0</course>
  <speed>0.0</speed>
  <fix>3d</fix>
</trkpt>
<trkpt lat="-27.2744389" lon="151.2900638">
  <ele>343.03</ele>
  <time>2026-08-29T20:43:50Z</time>
  <course>147.13</course>
  <speed>0.02</speed>
  <fix>3d</fix>
</trkpt>
<trkpt lat="-27.274439" lon="151.290064">
  <ele>343.0</ele>
  <time>2026-08-29T20:43:50Z</time>
  <course>0.0</course>
  <speed>0.0</speed>
  <fix>3d</fix>
</trkpt>
<trkpt lat="-27.2744389" lon="151.2900638">
  <ele>343.0</ele>
  <time>2026-08-29T20:43:50Z</time>
  <course>147.13</course>
  <speed>0.02</speed>
  <fix>3d</fix>
</trkpt>
<trkpt lat="-27.274439" lon="151.290064">
  <ele>343.0</ele>
  <time>2026-08-29T20:43:50Z</time>
  <course>0.0</course>
  <speed>0.0</speed>
  <fix>3d</fix>
</trkpt>
<trkpt lat="-27.2744389" lon="151.2900638">
  <ele>342.99</ele>
  <time>2026-08-29T20:43:50Z</time>
  <course>147.13</course>
  <speed>0.02</speed>
  <fix>3d</fix>
</trkpt>
<trkpt lat="-27.274439" lon="151.290064">
  <ele>343.0</ele>
  <time>2026-08-29T20:43:50Z</time>
  <course>0.0</course>
  <speed>0.0</speed>
  <fix>3d</fix>
</trkpt>
<trkpt lat="-27.2744389" lon="151.2900638">
  <ele>343.01</ele>
  <time>2026-08-29T20:43:50Z</time>
  <course>147.13</course>
  <speed>0.02</speed>
  <fix>3d</fix>
</trkpt>
<trkpt lat="-27.274439" lon="151.290064">
  <ele>343.0</ele>
  <time>2026-08-29T20:43:50Z</time>
  <course>0.0</course>
  <speed>0.0</speed>
  <fix>3d</fix>
</trkpt>
<trkpt lat="-27.2744389" lon="151.2900638">
  <ele>343.01</ele>
  <time>2026-08-29T20:43:50Z</time>
  <course>147.13</course>
  <speed>0.02</speed>
  <fix>3d</fix>
</trkpt>
<trkpt lat="-27.274439" lon="151.290064">
  <ele>343.0</ele>
  <time>2026-08-29T20:43:50Z</time>
  <course>0.0</course>
  <speed>0.0</speed>
  <fix>3d</fix>
</trkpt>
<trkpt lat="-27.2744389" lon="151.2900638">
  <ele>343.02</ele>
  <time>2026-08-29T20:43:50Z</time>
  <course>147.13</course>
  <speed>0.02</speed>
  <fix>3d</fix>
</trkpt>
<trkpt lat="-27.274439" lon="151.290064">
  <ele>343.0</ele>
  <time>2026-08-29T20:43:50Z</time>
  <course>0.0</course>
  <speed>0.0</speed>
  <fix>3d</fix>
</trkpt>
<trkpt lat="-27.2744389" lon="151.2900638">
  <ele>343.02</ele>
  <time>2026-08-29T20:43:50Z</time>
  <course>147.13</course>
  <speed>0.02</speed>
  <fix>3d</fix>
</trkpt>
<trkpt lat="-27.274439" lon="151.290064">
  <ele>343.0</ele>
  <time>2026-08-29T20:43:50Z</time>
  <course>0.0</course>
  <speed>0.0</speed>
  <fix>3d</fix>
</trkpt>
<trkpt lat="-27.2744389" lon="151.2900638">
  <ele>343.02</ele>
  <time>2026-08-29T20:43:50Z</time>
  <course>147.13</course>
  <speed>0.02</speed>
  <fix>3d</fix>
</trkpt>
<trkpt lat="-27.274439" lon="151.290064">
  <ele>343.0</ele>
  <time>2026-08-29T20:43:50Z</time>
  <course>0.0</course>
  <speed>0.0</speed>
  <fix>3d</fix>
</trkpt>
<trkpt lat="-27.2744389" lon="151.2900638">
  <ele>343.01</ele>
  <time>2026-08-29T20:43:50Z</time>
  <course>147.13</course>
  <speed>0.02</speed>
  <fix>3d</fix>
</trkpt>
<trkpt lat="-27.274439" lon="151.290064">
  <ele>343.0</ele>
  <time>2026-08-29T20:43:50Z</time>
  <course>0.0</course>
  <speed>0.0</speed>
  <fix>3d</fix>
</trkpt>
<trkpt lat="-27.2744389" lon="151.2900638">
  <ele>343.0</ele>
  <time>2026-08-29T20:43:50Z</time>
  <course>147.13</course>
  <speed>0.02</speed>
  <fix>3d</fix>
</trkpt>
<trkpt lat="-27.274439" lon="151.290064">
  <ele>343.0</ele>
  <time>2026-08-29T20:43:50Z</time>
  <course>0.0</course>
  <speed>0.0</speed>
  <fix>3d</fix>
</trkpt>
<trkpt lat="-27.2744389" lon="151.2900638">
  <ele>343.0</ele>
  <time>2026-08-29T20:43:50Z</time>
  <course>147.13</course>
  <speed>0.02</speed>
  <fix>3d</fix>
</trkpt>
<trkpt lat="-27.274439" lon="151.290064">
  <ele>343.0</ele>
  <time>2026-08-29T20:43:50Z</time>
  <course>0.0</course>
  <speed>0.0</speed>
  <fix>3d</fix>
</trkpt>
<trkpt lat="-27.2744389" lon="151.2900638">
  <ele>343.01</ele>
  <time>2026-08-29T20:43:50Z</time>
  <course>147.13</course>
  <speed>0.02</speed>
  <fix>3d</fix>
</trkpt>
<trkpt lat="-27.274439" lon="151.290064">
  <ele>343.0</ele>
  <time>2026-08-29T20:43:50Z</time>
  <course>0.0</course>
  <speed>0.0</speed>
  <fix>3d</fix>
</trkpt>
<trkpt lat="-27.2744389" lon="151.2900638">
  <ele>343.0</ele>
  <time>2026-08-29T20:43:50Z</time>
  <course>147.14</course>
  <speed>0.02</speed>
  <fix>3d</fix>
</trkpt>
<trkpt lat="-27.274439" lon="151.290064">
  <ele>343.0</ele>
  <time>2026-08-29T20:43:50Z</time>
  <course>0.0</course>
  <speed>0.0</speed>
  <fix>3d</fix>
</trkpt>
<trkpt lat="-27.2744389" lon="151.2900638">
  <ele>343.01</ele>
  <time>2026-08-29T20:43:50Z</time>
  <course>147.13</course>
  <speed>0.02</speed>
  <fix>3d</fix>
</trkpt>
<trkpt lat="-27.274439" lon="151.290064">
  <ele>343.0</ele>
  <time>2026-08-29T20:43:50Z</time>
  <course>0.0</course>
  <speed>0.0</speed>
  <fix>3d</fix>
</trkpt>
<trkpt lat="-27.2744389" lon="151.2900638">
  <ele>343.02</ele>
  <time>2026-08-29T20:43:50Z</time>
  <course>147.14</course>
  <speed>0.02</speed>
  <fix>3d</fix>
</trkpt>
<trkpt lat="-27.274439" lon="151.290064">
  <ele>343.0</ele>
  <time>2026-08-29T20:43:50Z</time>
  <course>0.0</course>
  <speed>0.0</speed>
  <fix>3d</fix>
</trkpt>
<trkpt lat="-27.2744389" lon="151.2900638">
  <ele>343.04</ele>
  <time>2026-08-29T20:43:50Z</time>
  <course>147.13</course>
  <speed>0.02</speed>
  <fix>3d</fix>
</trkpt>
<trkpt lat="-27.274439" lon="151.290064">
  <ele>343.0</ele>
  <time>2026-08-29T20:43:50Z</time>
  <course>0.0</course>
  <speed>0.0</speed>
  <fix>3d</fix>
</trkpt>
<trkpt lat="-27.2744389" lon="151.2900638">
  <ele>343.04</ele>
  <time>2026-08-29T20:43:50Z</time>
  <course>147.14</course>
  <speed>0.02</speed>
  <fix>3d</fix>
</trkpt>
<trkpt lat="-27.274439" lon="151.290064">
  <ele>343.0</ele>
  <time>2026-08-29T20:43:50Z</time>
  <course>0.0</course>
  <speed>0.0</speed>
  <fix>3d</fix>
</trkpt>
<trkpt lat="-27.2744389" lon="151.2900638">
  <ele>343.04</ele>
  <time>2026-08-29T20:43:50Z</time>
  <course>147.13</course>
  <speed>0.02</speed>
  <fix>3d</fix>
</trkpt>
<trkpt lat="-27.274439" lon="151.290064">
  <ele>343.0</ele>
  <time>2026-08-29T20:43:50Z</time>
  <course>0.0</course>
  <speed>0.0</speed>
  <fix>3d</fix>
</trkpt>
<trkpt lat="-27.2744389" lon="151.2900638">
  <ele>343.06</ele>
  <time>2026-08-29T20:43:50Z</time>
  <course>147.13</course>
  <speed>0.02</speed>
  <fix>3d</fix>
</trkpt>
<trkpt lat="-27.274439" lon="151.290064">
  <ele>343.0</ele>
  <time>2026-08-29T20:43:50Z</time>
  <course>0.0</course>
  <speed>0.0</speed>
  <fix>3d</fix>
</trkpt>
<trkpt lat="-27.2744389" lon="151.2900638">
  <ele>343.05</ele>
  <time>2026-08-29T20:43:50Z</time>
  <course>147.13</course>
  <speed>0.02</speed>
  <fix>3d</fix>
</trkpt>
<trkpt lat="-27.274439" lon="151.290064">
  <ele>343.0</ele>
  <time>2026-08-29T20:43:50Z</time>
  <course>0.0</course>
  <speed>0.0</speed>
  <fix>3d</fix>
</trkpt>
<trkpt lat="-27.2744389" lon="151.2900638">
  <ele>343.04</ele>
  <time>2026-08-29T20:43:51Z</time>
  <course>147.14</course>
  <speed>0.02</speed>
  <fix>3d</fix>
</trkpt>
<trkpt lat="-27.274439" lon="151.290064">
  <ele>343.0</ele>
  <time>2026-08-29T20:43:51Z</time>
  <course>0.0</course>
  <speed>0.0</speed>
  <fix>3d</fix>
</trkpt>
<trkpt lat="-27.2744389" lon="151.2900638">
  <ele>343.03</ele>
  <time>2026-08-29T20:43:51Z</time>
  <course>147.14</course>
  <speed>0.02</speed>
  <fix>3d</fix>
</trkpt>
<trkpt lat="-27.274439" lon="151.290064">
  <ele>343.0</ele>
  <time>2026-08-29T20:43:51Z</time>
  <course>0.0</course>
  <speed>0.0</speed>
  <fix>3d</fix>
</trkpt>
<trkpt lat="-27.2744389" lon="151.2900638">
  <ele>343.03</ele>
  <time>2026-08-29T20:43:51Z</time>
  <course>147.14</course>
  <speed>0.02</speed>
  <fix>3d</fix>
</trkpt>
<trkpt lat="-27.274439" lon="151.290064">
  <ele>343.0</ele>
  <time>2026-08-29T20:43:51Z</time>
  <course>0.0</course>
  <speed>0.0</speed>
  <fix>3d</fix>
</trkpt>
<trkpt lat="-27.2744389" lon="151.2900638">
  <ele>343.04</ele>
  <time>2026-08-29T20:43:51Z</time>
  <course>147.14</course>
  <speed>0.02</speed>
  <fix>3d</fix>
</trkpt>
<trkpt lat="-27.274439" lon="151.290064">
  <ele>343.0</ele>
  <time>2026-08-29T20:43:51Z</time>
  <course>0.0</course>
  <speed>0.0</speed>
  <fix>3d</fix>
</trkpt>
<trkpt lat="-27.2744389" lon="151.2900638">
  <ele>343.05</ele>
  <time>2026-08-29T20:43:51Z</time>
  <course>147.13</course>
  <speed>0.02</speed>
  <fix>3d</fix>
</trkpt>
<trkpt lat="-27.274439" lon="151.290064">
  <ele>343.0</ele>
  <time>2026-08-29T20:43:51Z</time>
  <course>0.0</course>
  <speed>0.0</speed>
  <fix>3d</fix>
</trkpt>
<trkpt lat="-27.2744389" lon="151.2900638">
  <ele>343.06</ele>
  <time>2026-08-29T20:43:51Z</time>
  <course>147.14</course>
  <speed>0.02</speed>
  <fix>3d</fix>
</trkpt>
<trkpt lat="-27.274439" lon="151.290064">
  <ele>343.0</ele>
  <time>2026-08-29T20:43:51Z</time>
  <course>0.0</course>
  <speed>0.0</speed>
  <fix>3d</fix>
</trkpt>
<trkpt lat="-27.2744389" lon="151.2900638">
  <ele>343.02</ele>
  <time>2026-08-29T20:43:51Z</time>
  <course>147.13</course>
  <speed>0.02</speed>
  <fix>3d</fix>
</trkpt>
<trkpt lat="-27.274439" lon="151.290064">
  <ele>343.0</ele>
  <time>2026-08-29T20:43:51Z</time>
  <course>0.0</course>
  <speed>0.0</speed>
  <fix>3d</fix>
</trkpt>
<trkpt lat="-27.2744389" lon="151.2900638">
  <ele>343.01</ele>
  <time>2026-08-29T20:43:51Z</time>
  <course>147.14</course>
  <speed>0.02</speed>
  <fix>3d</fix>
</trkpt>
<trkpt lat="-27.274439" lon="151.290064">
  <ele>343.0</ele>
  <time>2026-08-29T20:43:51Z</time>
  <course>0.0</course>
  <speed>0.0</speed>
  <fix>3d</fix>
</trkpt>
<trkpt lat="-27.2744389" lon="151.2900638">
  <ele>343.0</ele>
  <time>2026-08-29T20:43:51Z</time>
  <course>147.13</course>
  <speed>0.02</speed>
  <fix>3d</fix>
</trkpt>
<trkpt lat="-27.274439" lon="151.290064">
  <ele>343.0</ele>
  <time>2026-08-29T20:43:51Z</time>
  <course>0.0</course>
  <speed>0.0</speed>
  <fix>3d</fix>
</trkpt>
<trkpt lat="-27.2744389" lon="151.2900638">
  <ele>342.99</ele>
  <time>2026-08-29T20:43:51Z</time>
  <course>147.14</course>
  <speed>0.02</speed>
  <fix>3d</fix>
</trkpt>
<trkpt lat="-27.274439" lon="151.290064">
  <ele>343.0</ele>
  <time>2026-08-29T20:43:51Z</time>
  <course>0.0</course>
  <speed>0.0</speed>
  <fix>3d</fix>
</trkpt>
<trkpt lat="-27.2744389" lon="151.2900638">
  <ele>342.98</ele>
  <time>2026-08-29T20:43:51Z</time>
  <course>147.13</course>
  <speed>0.02</speed>
  <fix>3d</fix>
</trkpt>
<trkpt lat="-27.274439" lon="151.290064">
  <ele>343.0</ele>
  <time>2026-08-29T20:43:51Z</time>
  <course>0.0</course>
  <speed>0.0</speed>
  <fix>3d</fix>
</trkpt>
<trkpt lat="-27.2744389" lon="151.2900638">
  <ele>342.97</ele>
  <time>2026-08-29T20:43:51Z</time>
  <course>147.14</course>
  <speed>0.02</speed>
  <fix>3d</fix>
</trkpt>
<trkpt lat="-27.274439" lon="151.290064">
  <ele>343.0</ele>
  <time>2026-08-29T20:43:51Z</time>
  <course>0.0</course>
  <speed>0.0</speed>
  <fix>3d</fix>
</trkpt>
<trkpt lat="-27.2744389" lon="151.2900638">
  <ele>342.98</ele>
  <time>2026-08-29T20:43:51Z</time>
  <course>147.13</course>
  <speed>0.02</speed>
  <fix>3d</fix>
</trkpt>
<trkpt lat="-27.274439" lon="151.290064">
  <ele>343.0</ele>
  <time>2026-08-29T20:43:51Z</time>
  <course>0.0</course>
  <speed>0.0</speed>
  <fix>3d</fix>
</trkpt>
<trkpt lat="-27.2744389" lon="151.2900638">
  <ele>343.02</ele>
  <time>2026-08-29T20:43:51Z</time>
  <course>147.14</course>
  <speed>0.02</speed>
  <fix>3d</fix>
</trkpt>
<trkpt lat="-27.274439" lon="151.290064">
  <ele>343.0</ele>
  <time>2026-08-29T20:43:51Z</time>
  <course>0.0</course>
  <speed>0.0</speed>
  <fix>3d</fix>
</trkpt>
<trkpt lat="-27.2744389" lon="151.2900638">
  <ele>343.03</ele>
  <time>2026-08-29T20:43:51Z</time>
  <course>147.14</course>
  <speed>0.02</speed>
  <fix>3d</fix>
</trkpt>
<trkpt lat="-27.274439" lon="151.290064">
  <ele>343.0</ele>
  <time>2026-08-29T20:43:51Z</time>
  <course>0.0</course>
  <speed>0.0</speed>
  <fix>3d</fix>
</trkpt>
<trkpt lat="-27.2744389" lon="151.2900638">
  <ele>343.01</ele>
  <time>2026-08-29T20:43:51Z</time>
  <course>147.14</course>
  <speed>0.02</speed>
  <fix>3d</fix>
</trkpt>
<trkpt lat="-27.274439" lon="151.290064">
  <ele>343.0</ele>
  <time>2026-08-29T20:43:51Z</time>
  <course>0.0</course>
  <speed>0.0</speed>
  <fix>3d</fix>
</trkpt>
<trkpt lat="-27.2744389" lon="151.2900638">
  <ele>343.02</ele>
  <time>2026-08-29T20:43:51Z</time>
  <course>147.14</course>
  <speed>0.02</speed>
  <fix>3d</fix>
</trkpt>
<trkpt lat="-27.274439" lon="151.290064">
  <ele>343.0</ele>
  <time>2026-08-29T20:43:51Z</time>
  <course>0.0</course>
  <speed>0.0</speed>
  <fix>3d</fix>
</trkpt>
<trkpt lat="-27.2744389" lon="151.2900638">
  <ele>343.01</ele>
  <time>2026-08-29T20:43:51Z</time>
  <course>147.14</course>
  <speed>0.02</speed>
  <fix>3d</fix>
</trkpt>
<trkpt lat="-27.274439" lon="151.290064">
  <ele>343.0</ele>
  <time>2026-08-29T20:43:51Z</time>
  <course>0.0</course>
  <speed>0.0</speed>
  <fix>3d</fix>
</trkpt>
<trkpt lat="-27.2744389" lon="151.2900638">
  <ele>343.02</ele>
  <time>2026-08-29T20:43:51Z</time>
  <course>147.14</course>
  <speed>0.02</speed>
  <fix>3d</fix>
</trkpt>
<trkpt lat="-27.274439" lon="151.290064">
  <ele>343.0</ele>
  <time>2026-08-29T20:43:51Z</time>
  <course>0.0</course>
  <speed>0.0</speed>
  <fix>3d</fix>
</trkpt>
<trkpt lat="-27.2744389" lon="151.2900638">
  <ele>343.02</ele>
  <time>2026-08-29T20:43:51Z</time>
  <course>147.14</course>
  <speed>0.02</speed>
  <fix>3d</fix>
</trkpt>
<trkpt lat="-27.274439" lon="151.290064">
  <ele>343.0</ele>
  <time>2026-08-29T20:43:51Z</time>
  <course>0.0</course>
  <speed>0.0</speed>
  <fix>3d</fix>
</trkpt>
<trkpt lat="-27.2744389" lon="151.2900638">
  <ele>343.03</ele>
  <time>2026-08-29T20:43:51Z</time>
  <course>147.14</course>
  <speed>0.02</speed>
  <fix>3d</fix>
</trkpt>
<trkpt lat="-27.274439" lon="151.290064">
  <ele>343.0</ele>
  <time>2026-08-29T20:43:51Z</time>
  <course>0.0</course>
  <speed>0.0</speed>
  <fix>3d</fix>
</trkpt>
<trkpt lat="-27.2744389" lon="151.2900638">
  <ele>343.03</ele>
  <time>2026-08-29T20:43:51Z</time>
  <course>147.14</course>
  <speed>0.02</speed>
  <fix>3d</fix>
</trkpt>
<trkpt lat="-27.274439" lon="151.290064">
  <ele>343.0</ele>
  <time>2026-08-29T20:43:51Z</time>
  <course>0.0</course>
  <speed>0.0</speed>
  <fix>3d</fix>
</trkpt>
<trkpt lat="-27.2744389" lon="151.2900638">
  <ele>343.02</ele>
  <time>2026-08-29T20:43:51Z</time>
  <course>147.14</course>
  <speed>0.02</speed>
  <fix>3d</fix>
</trkpt>
<trkpt lat="-27.274439" lon="151.290064">
  <ele>343.0</ele>
  <time>2026-08-29T20:43:51Z</time>
  <course>0.0</course>
  <speed>0.0</speed>
  <fix>3d</fix>
</trkpt>
<trkpt lat="-27.2744389" lon="151.2900638">
  <ele>343.03</ele>
  <time>2026-08-29T20:43:51Z</time>
  <course>147.14</course>
  <speed>0.02</speed>
  <fix>3d</fix>
</trkpt>
<trkpt lat="-27.274439" lon="151.290064">
  <ele>343.0</ele>
  <time>2026-08-29T20:43:51Z</time>
  <course>0.0</course>
  <speed>0.0</speed>
  <fix>3d</fix>
</trkpt>
<trkpt lat="-27.2744389" lon="151.2900638">
  <ele>343.01</ele>
  <time>2026-08-29T20:43:51Z</time>
  <course>147.14</course>
  <speed>0.02</speed>
  <fix>3d</fix>
</trkpt>
<trkpt lat="-27.274439" lon="151.290064">
  <ele>343.0</ele>
  <time>2026-08-29T20:43:51Z</time>
  <course>0.0</course>
  <speed>0.0</speed>
  <fix>3d</fix>
</trkpt>
<trkpt lat="-27.2744389" lon="151.2900638">
  <ele>342.99</ele>
  <time>2026-08-29T20:43:51Z</time>
  <course>147.14</course>
  <speed>0.02</speed>
  <fix>3d</fix>
</trkpt>
<trkpt lat="-27.274439" lon="151.290064">
  <ele>343.0</ele>
  <time>2026-08-29T20:43:51Z</time>
  <course>0.0</course>
  <speed>0.0</speed>
  <fix>3d</fix>
</trkpt>
<trkpt lat="-27.2744389" lon="151.2900638">
  <ele>343.0</ele>
  <time>2026-08-29T20:43:51Z</time>
  <course>147.14</course>
  <speed>0.02</speed>
  <fix>3d</fix>
</trkpt>
<trkpt lat="-27.274439" lon="151.290064">
  <ele>343.0</ele>
  <time>2026-08-29T20:43:51Z</time>
  <course>0.0</course>
  <speed>0.0</speed>
  <fix>3d</fix>
</trkpt>
<trkpt lat="-27.2744389" lon="151.2900638">
  <ele>343.0</ele>
  <time>2026-08-29T20:43:51Z</time>
  <course>147.14</course>
  <speed>0.02</speed>
  <fix>3d</fix>
</trkpt>
<trkpt lat="-27.274439" lon="151.290064">
  <ele>343.0</ele>
  <time>2026-08-29T20:43:51Z</time>
  <course>0.0</course>
  <speed>0.0</speed>
  <fix>3d</fix>
</trkpt>
<trkpt lat="-27.2744389" lon="151.2900638">
  <ele>342.99</ele>
  <time>2026-08-29T20:43:51Z</time>
  <course>147.14</course>
  <speed>0.02</speed>
  <fix>3d</fix>
</trkpt>
<trkpt lat="-27.274439" lon="151.290064">
  <ele>343.0</ele>
  <time>2026-08-29T20:43:51Z</time>
  <course>0.0</course>
  <speed>0.0</speed>
  <fix>3d</fix>
</trkpt>
<trkpt lat="-27.2744389" lon="151.2900638">
  <ele>343.0</ele>
  <time>2026-08-29T20:43:51Z</time>
  <course>147.14</course>
  <speed>0.02</speed>
  <fix>3d</fix>
</trkpt>
<trkpt lat="-27.274439" lon="151.290064">
  <ele>343.0</ele>
  <time>2026-08-29T20:43:51Z</time>
  <course>0.0</course>
  <speed>0.0</speed>
  <fix>3d</fix>
</trkpt>
<trkpt lat="-27.2744389" lon="151.2900638">
  <ele>343.01</ele>
  <time>2026-08-29T20:43:51Z</time>
  <course>147.14</course>
  <speed>0.02</speed>
  <fix>3d</fix>
</trkpt>
<trkpt lat="-27.274439" lon="151.290064">
  <ele>343.0</ele>
  <time>2026-08-29T20:43:51Z</time>
  <course>0.0</course>
  <speed>0.0</speed>
  <fix>3d</fix>
</trkpt>
<trkpt lat="-27.2744389" lon="151.2900638">
  <ele>343.03</ele>
  <time>2026-08-29T20:43:51Z</time>
  <course>147.14</course>
  <speed>0.02</speed>
  <fix>3d</fix>
</trkpt>
<trkpt lat="-27.274439" lon="151.290064">
  <ele>343.0</ele>
  <time>2026-08-29T20:43:51Z</time>
  <course>0.0</course>
  <speed>0.0</speed>
  <fix>3d</fix>
</trkpt>
<trkpt lat="-27.2744389" lon="151.2900638">
  <ele>343.02</ele>
  <time>2026-08-29T20:43:51Z</time>
  <course>147.14</course>
  <speed>0.02</speed>
  <fix>3d</fix>
</trkpt>
<trkpt lat="-27.274439" lon="151.290064">
  <ele>343.0</ele>
  <time>2026-08-29T20:43:51Z</time>
  <course>0.0</course>
  <speed>0.0</speed>
  <fix>3d</fix>
</trkpt>
<trkpt lat="-27.2744389" lon="151.2900638">
  <ele>343.03</ele>
  <time>2026-08-29T20:43:51Z</time>
  <course>147.14</course>
  <speed>0.02</speed>
  <fix>3d</fix>
</trkpt>
<trkpt lat="-27.274439" lon="151.290064">
  <ele>343.0</ele>
  <time>2026-08-29T20:43:51Z</time>
  <course>0.0</course>
  <speed>0.0</speed>
  <fix>3d</fix>
</trkpt>
<trkpt lat="-27.2744389" lon="151.2900638">
  <ele>343.03</ele>
  <time>2026-08-29T20:43:51Z</time>
  <course>147.14</course>
  <speed>0.02</speed>
  <fix>3d</fix>
</trkpt>
<trkpt lat="-27.274439" lon="151.290064">
  <ele>343.0</ele>
  <time>2026-08-29T20:43:51Z</time>
  <course>0.0</course>
  <speed>0.0</speed>
  <fix>3d</fix>
</trkpt>
<trkpt lat="-27.2744389" lon="151.2900638">
  <ele>343.05</ele>
  <time>2026-08-29T20:43:51Z</time>
  <course>147.14</course>
  <speed>0.02</speed>
  <fix>3d</fix>
</trkpt>
<trkpt lat="-27.274439" lon="151.290064">
  <ele>343.0</ele>
  <time>2026-08-29T20:43:51Z</time>
  <course>0.0</course>
  <speed>0.0</speed>
  <fix>3d</fix>
</trkpt>
<trkpt lat="-27.2744389" lon="151.2900638">
  <ele>343.04</ele>
  <time>2026-08-29T20:43:51Z</time>
  <course>147.14</course>
  <speed>0.02</speed>
  <fix>3d</fix>
</trkpt>
<trkpt lat="-27.274439" lon="151.290064">
  <ele>343.0</ele>
  <time>2026-08-29T20:43:51Z</time>
  <course>0.0</course>
  <speed>0.0</speed>
  <fix>3d</fix>
</trkpt>
<trkpt lat="-27.2744389" lon="151.2900638">
  <ele>343.03</ele>
  <time>2026-08-29T20:43:51Z</time>
  <course>147.14</course>
  <speed>0.02</speed>
  <fix>3d</fix>
</trkpt>
<trkpt lat="-27.274439" lon="151.290064">
  <ele>343.0</ele>
  <time>2026-08-29T20:43:51Z</time>
  <course>0.0</course>
  <speed>0.0</speed>
  <fix>3d</fix>
</trkpt>
<trkpt lat="-27.2744389" lon="151.2900638">
  <ele>343.02</ele>
  <time>2026-08-29T20:43:51Z</time>
  <course>147.14</course>
  <speed>0.02</speed>
  <fix>3d</fix>
</trkpt>
<trkpt lat="-27.274439" lon="151.290064">
  <ele>343.0</ele>
  <time>2026-08-29T20:43:51Z</time>
  <course>0.0</course>
  <speed>0.0</speed>
  <fix>3d</fix>
</trkpt>
<trkpt lat="-27.2744389" lon="151.2900638">
  <ele>343.01</ele>
  <time>2026-08-29T20:43:51Z</time>
  <course>147.13</course>
  <speed>0.02</speed>
  <fix>3d</fix>
</trkpt>
<trkpt lat="-27.274439" lon="151.290064">
  <ele>343.0</ele>
  <time>2026-08-29T20:43:51Z</time>
  <course>0.0</course>
  <speed>0.0</speed>
  <fix>3d</fix>
</trkpt>
<trkpt lat="-27.2744389" lon="151.2900638">
  <ele>343.03</ele>
  <time>2026-08-29T20:43:51Z</time>
  <course>147.13</course>
  <speed>0.02</speed>
  <fix>3d</fix>
</trkpt>
<trkpt lat="-27.274439" lon="151.290064">
  <ele>343.0</ele>
  <time>2026-08-29T20:43:51Z</time>
  <course>0.0</course>
  <speed>0.0</speed>
  <fix>3d</fix>
</trkpt>
<trkpt lat="-27.2744389" lon="151.2900638">
  <ele>343.02</ele>
  <time>2026-08-29T20:43:51Z</time>
  <course>147.12</course>
  <speed>0.02</speed>
  <fix>3d</fix>
</trkpt>
<trkpt lat="-27.274439" lon="151.290064">
  <ele>343.0</ele>
  <time>2026-08-29T20:43:51Z</time>
  <course>0.0</course>
  <speed>0.0</speed>
  <fix>3d</fix>
</trkpt>
<trkpt lat="-27.2744389" lon="151.2900638">
  <ele>343.02</ele>
  <time>2026-08-29T20:43:51Z</time>
  <course>147.11</course>
  <speed>0.02</speed>
  <fix>3d</fix>
</trkpt>
<trkpt lat="-27.274439" lon="151.290064">
  <ele>343.0</ele>
  <time>2026-08-29T20:43:51Z</time>
  <course>0.0</course>
  <speed>0.0</speed>
  <fix>3d</fix>
</trkpt>
<trkpt lat="-27.2744389" lon="151.2900638">
  <ele>343.01</ele>
  <time>2026-08-29T20:43:51Z</time>
  <course>147.1</course>
  <speed>0.01</speed>
  <fix>3d</fix>
</trkpt>
<trkpt lat="-27.274439" lon="151.290064">
  <ele>343.0</ele>
  <time>2026-08-29T20:43:51Z</time>
  <course>0.0</course>
  <speed>0.0</speed>
  <fix>3d</fix>
</trkpt>
<trkpt lat="-27.2744389" lon="151.2900638">
  <ele>343.02</ele>
  <time>2026-08-29T20:43:51Z</time>
  <course>147.08</course>
  <speed>0.01</speed>
  <fix>3d</fix>
</trkpt>
<trkpt lat="-27.274439" lon="151.290064">
  <ele>343.0</ele>
  <time>2026-08-29T20:43:51Z</time>
  <course>0.0</course>
  <speed>0.0</speed>
  <fix>3d</fix>
</trkpt>
<trkpt lat="-27.2744389" lon="151.2900638">
  <ele>343.02</ele>
  <time>2026-08-29T20:43:51Z</time>
  <course>147.07</course>
  <speed>0.01</speed>
  <fix>3d</fix>
</trkpt>
<trkpt lat="-27.274439" lon="151.290064">
  <ele>343.0</ele>
  <time>2026-08-29T20:43:51Z</time>
  <course>0.0</course>
  <speed>0.0</speed>
  <fix>3d</fix>
</trkpt>
<trkpt lat="-27.2744389" lon="151.2900638">
  <ele>343.04</ele>
  <time>2026-08-29T20:43:51Z</time>
  <course>147.05</course>
  <speed>0.0</speed>
  <fix>3d</fix>
</trkpt>
<trkpt lat="-27.274439" lon="151.290064">
  <ele>343.0</ele>
  <time>2026-08-29T20:43:51Z</time>
  <course>0.0</course>
  <speed>0.0</speed>
  <fix>3d</fix>
</trkpt>
<trkpt lat="-27.2744389" lon="151.2900639">
  <ele>343.07</ele>
  <time>2026-08-29T20:43:51Z</time>
  <course>147.04</course>
  <speed>0.0</speed>
  <fix>3d</fix>
</trkpt>
<trkpt lat="-27.274439" lon="151.290064">
  <ele>343.0</ele>
  <time>2026-08-29T20:43:51Z</time>
  <course>0.0</course>
  <speed>0.0</speed>
  <fix>3d</fix>
</trkpt>
<trkpt lat="-27.2744389" lon="151.2900639">
  <ele>343.07</ele>
  <time>2026-08-29T20:43:51Z</time>
  <course>147.02</course>
  <speed>0.0</speed>
  <fix>3d</fix>
</trkpt>
<trkpt lat="-27.274439" lon="151.290064">
  <ele>343.0</ele>
  <time>2026-08-29T20:43:51Z</time>
  <course>0.0</course>
  <speed>0.0</speed>
  <fix>3d</fix>
</trkpt>
<trkpt lat="-27.2744389" lon="151.2900639">
  <ele>343.06</ele>
  <time>2026-08-29T20:43:51Z</time>
  <course>147.0</course>
  <speed>0.0</speed>
  <fix>3d</fix>
</trkpt>
<trkpt lat="-27.274439" lon="151.290064">
  <ele>343.0</ele>
  <time>2026-08-29T20:43:51Z</time>
  <course>0.0</course>
  <speed>0.0</speed>
  <fix>3d</fix>
</trkpt>
<trkpt lat="-27.274439" lon="151.2900639">
  <ele>343.05</ele>
  <time>2026-08-29T20:43:51Z</time>
  <course>146.98</course>
  <speed>0.0</speed>
  <fix>3d</fix>
</trkpt>
<trkpt lat="-27.274439" lon="151.290064">
  <ele>343.0</ele>
  <time>2026-08-29T20:43:51Z</time>
  <course>0.0</course>
  <speed>0.0</speed>
  <fix>3d</fix>
</trkpt>
<trkpt lat="-27.274439" lon="151.2900639">
  <ele>343.03</ele>
  <time>2026-08-29T20:43:51Z</time>
  <course>146.96</course>
  <speed>0.0</speed>
  <fix>3d</fix>
</trkpt>
<trkpt lat="-27.274439" lon="151.290064">
  <ele>343.0</ele>
  <time>2026-08-29T20:43:51Z</time>
  <course>0.0</course>
  <speed>0.0</speed>
  <fix>3d</fix>
</trkpt>
<trkpt lat="-27.274439" lon="151.290064">
  <ele>343.03</ele>
  <time>2026-08-29T20:43:51Z</time>
  <course>146.94</course>
  <speed>0.0</speed>
  <fix>3d</fix>
</trkpt>
<trkpt lat="-27.274439" lon="151.290064">
  <ele>343.0</ele>
  <time>2026-08-29T20:43:51Z</time>
  <course>0.0</course>
  <speed>0.0</speed>
  <fix>3d</fix>
</trkpt>
<trkpt lat="-27.274439" lon="151.290064">
  <ele>343.04</ele>
  <time>2026-08-29T20:43:51Z</time>
  <course>146.92</course>
  <speed>0.0</speed>
  <fix>3d</fix>
</trkpt>
<trkpt lat="-27.274439" lon="151.290064">
  <ele>343.0</ele>
  <time>2026-08-29T20:43:51Z</time>
  <course>0.0</course>
  <speed>0.0</speed>
  <fix>3d</fix>
</trkpt>
<trkpt lat="-27.274439" lon="151.290064">
  <ele>343.04</ele>
  <time>2026-08-29T20:43:51Z</time>
  <course>146.89</course>
  <speed>0.0</speed>
  <fix>3d</fix>
</trkpt>
<trkpt lat="-27.274439" lon="151.290064">
  <ele>343.0</ele>
  <time>2026-08-29T20:43:51Z</time>
  <course>0.0</course>
  <speed>0.0</speed>
  <fix>3d</fix>
</trkpt>
<trkpt lat="-27.274439" lon="151.290064">
  <ele>343.03</ele>
  <time>2026-08-29T20:43:51Z</time>
  <course>146.87</course>
  <speed>0.0</speed>
  <fix>3d</fix>
</trkpt>
<trkpt lat="-27.274439" lon="151.290064">
  <ele>343.0</ele>
  <time>2026-08-29T20:43:51Z</time>
  <course>0.0</course>
  <speed>0.0</speed>
  <fix>3d</fix>
</trkpt>
<trkpt lat="-27.274439" lon="151.290064">
  <ele>343.04</ele>
  <time>2026-08-29T20:43:51Z</time>
  <course>146.84</course>
  <speed>0.01</speed>
  <fix>3d</fix>
</trkpt>
<trkpt lat="-27.274439" lon="151.290064">
  <ele>343.0</ele>
  <time>2026-08-29T20:43:51Z</time>
  <course>0.0</course>
  <speed>0.0</speed>
  <fix>3d</fix>
</trkpt>
<trkpt lat="-27.274439" lon="151.290064">
  <ele>343.02</ele>
  <time>2026-08-29T20:43:51Z</time>
  <course>146.82</course>
  <speed>0.01</speed>
  <fix>3d</fix>
</trkpt>
<trkpt lat="-27.274439" lon="151.290064">
  <ele>343.0</ele>
  <time>2026-08-29T20:43:51Z</time>
  <course>0.0</course>
  <speed>0.0</speed>
  <fix>3d</fix>
</trkpt>
<trkpt lat="-27.274439" lon="151.290064">
  <ele>343.02</ele>
  <time>2026-08-29T20:43:51Z</time>
  <course>146.79</course>
  <speed>0.01</speed>
  <fix>3d</fix>
</trkpt>
<trkpt lat="-27.274439" lon="151.290064">
  <ele>343.0</ele>
  <time>2026-08-29T20:43:51Z</time>
  <course>0.0</course>
  <speed>0.0</speed>
  <fix>3d</fix>
</trkpt>
<trkpt lat="-27.274439" lon="151.2900641">
  <ele>343.03</ele>
  <time>2026-08-29T20:43:51Z</time>
  <course>146.77</course>
  <speed>0.01</speed>
  <fix>3d</fix>
</trkpt>
<trkpt lat="-27.274439" lon="151.290064">
  <ele>343.0</ele>
  <time>2026-08-29T20:43:51Z</time>
  <course>0.0</course>
  <speed>0.0</speed>
  <fix>3d</fix>
</trkpt>
<trkpt lat="-27.274439" lon="151.2900641">
  <ele>343.05</ele>
  <time>2026-08-29T20:43:51Z</time>
  <course>146.74</course>
  <speed>0.01</speed>
  <fix>3d</fix>
</trkpt>
<trkpt lat="-27.274439" lon="151.290064">
  <ele>343.0</ele>
  <time>2026-08-29T20:43:51Z</time>
  <course>0.0</course>
  <speed>0.0</speed>
  <fix>3d</fix>
</trkpt>
<trkpt lat="-27.274439" lon="151.2900641">
  <ele>343.03</ele>
  <time>2026-08-29T20:43:51Z</time>
  <course>146.72</course>
  <speed>0.01</speed>
  <fix>3d</fix>
</trkpt>
<trkpt lat="-27.274439" lon="151.290064">
  <ele>343.0</ele>
  <time>2026-08-29T20:43:51Z</time>
  <course>0.0</course>
  <speed>0.0</speed>
  <fix>3d</fix>
</trkpt>
<trkpt lat="-27.274439" lon="151.2900641">
  <ele>343.01</ele>
  <time>2026-08-29T20:43:51Z</time>
  <course>146.69</course>
  <speed>0.01</speed>
  <fix>3d</fix>
</trkpt>
<trkpt lat="-27.274439" lon="151.290064">
  <ele>343.0</ele>
  <time>2026-08-29T20:43:51Z</time>
  <course>0.0</course>
  <speed>0.0</speed>
  <fix>3d</fix>
</trkpt>
<trkpt lat="-27.274439" lon="151.2900641">
  <ele>343.01</ele>
  <time>2026-08-29T20:43:51Z</time>
  <course>146.67</course>
  <speed>0.01</speed>
  <fix>3d</fix>
</trkpt>
<trkpt lat="-27.274439" lon="151.290064">
  <ele>343.0</ele>
  <time>2026-08-29T20:43:51Z</time>
  <course>0.0</course>
  <speed>0.0</speed>
  <fix>3d</fix>
</trkpt>
<trkpt lat="-27.274439" lon="151.2900641">
  <ele>343.01</ele>
  <time>2026-08-29T20:43:51Z</time>
  <course>146.64</course>
  <speed>0.01</speed>
  <fix>3d</fix>
</trkpt>
<trkpt lat="-27.274439" lon="151.290064">
  <ele>343.0</ele>
  <time>2026-08-29T20:43:51Z</time>
  <course>0.0</course>
  <speed>0.0</speed>
  <fix>3d</fix>
</trkpt>
<trkpt lat="-27.274439" lon="151.2900641">
  <ele>343.02</ele>
  <time>2026-08-29T20:43:51Z</time>
  <course>146.61</course>
  <speed>0.02</speed>
  <fix>3d</fix>
</trkpt>
<trkpt lat="-27.274439" lon="151.290064">
  <ele>343.0</ele>
  <time>2026-08-29T20:43:51Z</time>
  <course>0.0</course>
  <speed>0.0</speed>
  <fix>3d</fix>
</trkpt>
<trkpt lat="-27.274439" lon="151.2900641">
  <ele>343.01</ele>
  <time>2026-08-29T20:43:51Z</time>
  <course>146.58</course>
  <speed>0.02</speed>
  <fix>3d</fix>
</trkpt>
<trkpt lat="-27.274439" lon="151.290064">
  <ele>343.0</ele>
  <time>2026-08-29T20:43:51Z</time>
  <course>0.0</course>
  <speed>0.0</speed>
  <fix>3d</fix>
</trkpt>
<trkpt lat="-27.274439" lon="151.2900641">
  <ele>343.02</ele>
  <time>2026-08-29T20:43:51Z</time>
  <course>146.56</course>
  <speed>0.02</speed>
  <fix>3d</fix>
</trkpt>
<trkpt lat="-27.274439" lon="151.290064">
  <ele>343.0</ele>
  <time>2026-08-29T20:43:51Z</time>
  <course>0.0</course>
  <speed>0.0</speed>
  <fix>3d</fix>
</trkpt>
<trkpt lat="-27.274439" lon="151.2900641">
  <ele>343.01</ele>
  <time>2026-08-29T20:43:51Z</time>
  <course>146.53</course>
  <speed>0.02</speed>
  <fix>3d</fix>
</trkpt>
<trkpt lat="-27.274439" lon="151.290064">
  <ele>343.0</ele>
  <time>2026-08-29T20:43:51Z</time>
  <course>0.0</course>
  <speed>0.0</speed>
  <fix>3d</fix>
</trkpt>
<trkpt lat="-27.274439" lon="151.2900641">
  <ele>343.0</ele>
  <time>2026-08-29T20:43:51Z</time>
  <course>146.51</course>
  <speed>0.02</speed>
  <fix>3d</fix>
</trkpt>
<trkpt lat="-27.274439" lon="151.290064">
  <ele>343.0</ele>
  <time>2026-08-29T20:43:51Z</time>
  <course>0.0</course>
  <speed>0.0</speed>
  <fix>3d</fix>
</trkpt>
<trkpt lat="-27.274439" lon="151.2900642">
  <ele>343.01</ele>
  <time>2026-08-29T20:43:51Z</time>
  <course>146.48</course>
  <speed>0.02</speed>
  <fix>3d</fix>
</trkpt>
<trkpt lat="-27.274439" lon="151.290064">
  <ele>343.0</ele>
  <time>2026-08-29T20:43:51Z</time>
  <course>0.0</course>
  <speed>0.0</speed>
  <fix>3d</fix>
</trkpt>
<trkpt lat="-27.274439" lon="151.2900642">
  <ele>343.0</ele>
  <time>2026-08-29T20:43:52Z</time>
  <course>146.45</course>
  <speed>0.02</speed>
  <fix>3d</fix>
</trkpt>
<trkpt lat="-27.274439" lon="151.290064">
  <ele>343.0</ele>
  <time>2026-08-29T20:43:52Z</time>
  <course>0.0</course>
  <speed>0.0</speed>
  <fix>3d</fix>
</trkpt>
<trkpt lat="-27.274439" lon="151.2900642">
  <ele>343.03</ele>
  <time>2026-08-29T20:43:52Z</time>
  <course>146.43</course>
  <speed>0.02</speed>
  <fix>3d</fix>
</trkpt>
<trkpt lat="-27.274439" lon="151.290064">
  <ele>343.0</ele>
  <time>2026-08-29T20:43:52Z</time>
  <course>0.0</course>
  <speed>0.0</speed>
  <fix>3d</fix>
</trkpt>
<trkpt lat="-27.274439" lon="151.2900641">
  <ele>343.03</ele>
  <time>2026-08-29T20:43:52Z</time>
  <course>146.4</course>
  <speed>0.02</speed>
  <fix>3d</fix>
</trkpt>
<trkpt lat="-27.274439" lon="151.290064">
  <ele>343.0</ele>
  <time>2026-08-29T20:43:52Z</time>
  <course>0.0</course>
  <speed>0.0</speed>
  <fix>3d</fix>
</trkpt>
<trkpt lat="-27.274439" lon="151.2900642">
  <ele>343.02</ele>
  <time>2026-08-29T20:43:52Z</time>
  <course>146.37</course>
  <speed>0.02</speed>
  <fix>3d</fix>
</trkpt>
<trkpt lat="-27.274439" lon="151.290064">
  <ele>343.0</ele>
  <time>2026-08-29T20:43:52Z</time>
  <course>0.0</course>
  <speed>0.0</speed>
  <fix>3d</fix>
</trkpt>
<trkpt lat="-27.274439" lon="151.2900642">
  <ele>343.02</ele>
  <time>2026-08-29T20:43:52Z</time>
  <course>146.35</course>
  <speed>0.02</speed>
  <fix>3d</fix>
</trkpt>
<trkpt lat="-27.274439" lon="151.290064">
  <ele>343.0</ele>
  <time>2026-08-29T20:43:52Z</time>
  <course>0.0</course>
  <speed>0.0</speed>
  <fix>3d</fix>
</trkpt>
<trkpt lat="-27.274439" lon="151.2900642">
  <ele>343.03</ele>
  <time>2026-08-29T20:43:52Z</time>
  <course>146.32</course>
  <speed>0.02</speed>
  <fix>3d</fix>
</trkpt>
<trkpt lat="-27.274439" lon="151.290064">
  <ele>343.0</ele>
  <time>2026-08-29T20:43:52Z</time>
  <course>0.0</course>
  <speed>0.0</speed>
  <fix>3d</fix>
</trkpt>
<trkpt lat="-27.274439" lon="151.2900642">
  <ele>343.03</ele>
  <time>2026-08-29T20:43:52Z</time>
  <course>146.3</course>
  <speed>0.02</speed>
  <fix>3d</fix>
</trkpt>
<trkpt lat="-27.274439" lon="151.290064">
  <ele>343.0</ele>
  <time>2026-08-29T20:43:52Z</time>
  <course>0.0</course>
  <speed>0.0</speed>
  <fix>3d</fix>
</trkpt>
<trkpt lat="-27.274439" lon="151.2900642">
  <ele>343.02</ele>
  <time>2026-08-29T20:43:52Z</time>
  <course>146.27</course>
  <speed>0.02</speed>
  <fix>3d</fix>
</trkpt>
<trkpt lat="-27.274439" lon="151.290064">
  <ele>343.0</ele>
  <time>2026-08-29T20:43:52Z</time>
  <course>0.0</course>
  <speed>0.0</speed>
  <fix>3d</fix>
</trkpt>
<trkpt lat="-27.274439" lon="151.2900642">
  <ele>343.01</ele>
  <time>2026-08-29T20:43:52Z</time>
  <course>146.24</course>
  <speed>0.02</speed>
  <fix>3d</fix>
</trkpt>
<trkpt lat="-27.274439" lon="151.290064">
  <ele>343.0</ele>
  <time>2026-08-29T20:43:52Z</time>
  <course>0.0</course>
  <speed>0.0</speed>
  <fix>3d</fix>
</trkpt>
<trkpt lat="-27.274439" lon="151.2900642">
  <ele>343.0</ele>
  <time>2026-08-29T20:43:52Z</time>
  <course>146.22</course>
  <speed>0.02</speed>
  <fix>3d</fix>
</trkpt>
<trkpt lat="-27.274439" lon="151.290064">
  <ele>343.0</ele>
  <time>2026-08-29T20:43:52Z</time>
  <course>0.0</course>
  <speed>0.0</speed>
  <fix>3d</fix>
</trkpt>
<trkpt lat="-27.274439" lon="151.2900642">
  <ele>343.0</ele>
  <time>2026-08-29T20:43:52Z</time>
  <course>146.2</course>
  <speed>0.02</speed>
  <fix>3d</fix>
</trkpt>
<trkpt lat="-27.274439" lon="151.290064">
  <ele>343.0</ele>
  <time>2026-08-29T20:43:52Z</time>
  <course>0.0</course>
  <speed>0.0</speed>
  <fix>3d</fix>
</trkpt>
<trkpt lat="-27.274439" lon="151.2900642">
  <ele>343.02</ele>
  <time>2026-08-29T20:43:52Z</time>
  <course>146.17</course>
  <speed>0.02</speed>
  <fix>3d</fix>
</trkpt>
<trkpt lat="-27.274439" lon="151.290064">
  <ele>343.0</ele>
  <time>2026-08-29T20:43:52Z</time>
  <course>0.0</course>
  <speed>0.0</speed>
  <fix>3d</fix>
</trkpt>
<trkpt lat="-27.274439" lon="151.2900642">
  <ele>343.04</ele>
  <time>2026-08-29T20:43:52Z</time>
  <course>146.15</course>
  <speed>0.02</speed>
  <fix>3d</fix>
</trkpt>
<trkpt lat="-27.274439" lon="151.290064">
  <ele>343.0</ele>
  <time>2026-08-29T20:43:52Z</time>
  <course>0.0</course>
  <speed>0.0</speed>
  <fix>3d</fix>
</trkpt>
<trkpt lat="-27.274439" lon="151.2900642">
  <ele>343.05</ele>
  <time>2026-08-29T20:43:52Z</time>
  <course>146.12</course>
  <speed>0.02</speed>
  <fix>3d</fix>
</trkpt>
<trkpt lat="-27.274439" lon="151.290064">
  <ele>343.0</ele>
  <time>2026-08-29T20:43:52Z</time>
  <course>0.0</course>
  <speed>0.0</speed>
  <fix>3d</fix>
</trkpt>
<trkpt lat="-27.274439" lon="151.2900642">
  <ele>343.05</ele>
  <time>2026-08-29T20:43:52Z</time>
  <course>146.1</course>
  <speed>0.02</speed>
  <fix>3d</fix>
</trkpt>
<trkpt lat="-27.274439" lon="151.290064">
  <ele>343.0</ele>
  <time>2026-08-29T20:43:52Z</time>
  <course>0.0</course>
  <speed>0.0</speed>
  <fix>3d</fix>
</trkpt>
<trkpt lat="-27.274439" lon="151.2900642">
  <ele>343.04</ele>
  <time>2026-08-29T20:43:52Z</time>
  <course>146.08</course>
  <speed>0.02</speed>
  <fix>3d</fix>
</trkpt>
<trkpt lat="-27.274439" lon="151.290064">
  <ele>343.0</ele>
  <time>2026-08-29T20:43:52Z</time>
  <course>0.0</course>
  <speed>0.0</speed>
  <fix>3d</fix>
</trkpt>
<trkpt lat="-27.274439" lon="151.2900642">
  <ele>343.03</ele>
  <time>2026-08-29T20:43:52Z</time>
  <course>146.05</course>
  <speed>0.02</speed>
  <fix>3d</fix>
</trkpt>
<trkpt lat="-27.274439" lon="151.290064">
  <ele>343.0</ele>
  <time>2026-08-29T20:43:52Z</time>
  <course>0.0</course>
  <speed>0.0</speed>
  <fix>3d</fix>
</trkpt>
<trkpt lat="-27.274439" lon="151.2900642">
  <ele>343.02</ele>
  <time>2026-08-29T20:43:52Z</time>
  <course>146.03</course>
  <speed>0.02</speed>
  <fix>3d</fix>
</trkpt>
<trkpt lat="-27.274439" lon="151.290064">
  <ele>343.0</ele>
  <time>2026-08-29T20:43:52Z</time>
  <course>0.0</course>
  <speed>0.0</speed>
  <fix>3d</fix>
</trkpt>
<trkpt lat="-27.274439" lon="151.2900642">
  <ele>343.03</ele>
  <time>2026-08-29T20:43:52Z</time>
  <course>146.01</course>
  <speed>0.02</speed>
  <fix>3d</fix>
</trkpt>
<trkpt lat="-27.274439" lon="151.290064">
  <ele>343.0</ele>
  <time>2026-08-29T20:43:52Z</time>
  <course>0.0</course>
  <speed>0.0</speed>
  <fix>3d</fix>
</trkpt>
<trkpt lat="-27.274439" lon="151.2900642">
  <ele>343.04</ele>
  <time>2026-08-29T20:43:52Z</time>
  <course>145.99</course>
  <speed>0.02</speed>
  <fix>3d</fix>
</trkpt>
<trkpt lat="-27.274439" lon="151.290064">
  <ele>343.0</ele>
  <time>2026-08-29T20:43:52Z</time>
  <course>0.0</course>
  <speed>0.0</speed>
  <fix>3d</fix>
</trkpt>
<trkpt lat="-27.274439" lon="151.2900642">
  <ele>343.05</ele>
  <time>2026-08-29T20:43:52Z</time>
  <course>145.96</course>
  <speed>0.02</speed>
  <fix>3d</fix>
</trkpt>
<trkpt lat="-27.274439" lon="151.290064">
  <ele>343.0</ele>
  <time>2026-08-29T20:43:52Z</time>
  <course>0.0</course>
  <speed>0.0</speed>
  <fix>3d</fix>
</trkpt>
<trkpt lat="-27.274439" lon="151.2900642">
  <ele>343.06</ele>
  <time>2026-08-29T20:43:52Z</time>
  <course>145.95</course>
  <speed>0.02</speed>
  <fix>3d</fix>
</trkpt>
<trkpt lat="-27.274439" lon="151.290064">
  <ele>343.0</ele>
  <time>2026-08-29T20:43:52Z</time>
  <course>0.0</course>
  <speed>0.0</speed>
  <fix>3d</fix>
</trkpt>
<trkpt lat="-27.274439" lon="151.2900642">
  <ele>343.03</ele>
  <time>2026-08-29T20:43:52Z</time>
  <course>145.92</course>
  <speed>0.02</speed>
  <fix>3d</fix>
</trkpt>
<trkpt lat="-27.274439" lon="151.290064">
  <ele>343.0</ele>
  <time>2026-08-29T20:43:52Z</time>
  <course>0.0</course>
  <speed>0.0</speed>
  <fix>3d</fix>
</trkpt>
<trkpt lat="-27.274439" lon="151.2900642">
  <ele>343.02</ele>
  <time>2026-08-29T20:43:52Z</time>
  <course>145.9</course>
  <speed>0.02</speed>
  <fix>3d</fix>
</trkpt>
<trkpt lat="-27.274439" lon="151.290064">
  <ele>343.0</ele>
  <time>2026-08-29T20:43:52Z</time>
  <course>0.0</course>
  <speed>0.0</speed>
  <fix>3d</fix>
</trkpt>
<trkpt lat="-27.274439" lon="151.2900642">
  <ele>343.01</ele>
  <time>2026-08-29T20:43:52Z</time>
  <course>145.88</course>
  <speed>0.03</speed>
  <fix>3d</fix>
</trkpt>
<trkpt lat="-27.274439" lon="151.290064">
  <ele>343.0</ele>
  <time>2026-08-29T20:43:52Z</time>
  <course>0.0</course>
  <speed>0.0</speed>
  <fix>3d</fix>
</trkpt>
<trkpt lat="-27.274439" lon="151.2900642">
  <ele>343.01</ele>
  <time>2026-08-29T20:43:52Z</time>
  <course>145.86</course>
  <speed>0.02</speed>
  <fix>3d</fix>
</trkpt>
<trkpt lat="-27.274439" lon="151.290064">
  <ele>343.0</ele>
  <time>2026-08-29T20:43:52Z</time>
  <course>0.0</course>
  <speed>0.0</speed>
  <fix>3d</fix>
</trkpt>
<trkpt lat="-27.274439" lon="151.2900642">
  <ele>343.03</ele>
  <time>2026-08-29T20:43:52Z</time>
  <course>145.84</course>
  <speed>0.03</speed>
  <fix>3d</fix>
</trkpt>
<trkpt lat="-27.274439" lon="151.290064">
  <ele>343.0</ele>
  <time>2026-08-29T20:43:52Z</time>
  <course>0.0</course>
  <speed>0.0</speed>
  <fix>3d</fix>
</trkpt>
<trkpt lat="-27.274439" lon="151.2900642">
  <ele>343.05</ele>
  <time>2026-08-29T20:43:52Z</time>
  <course>145.83</course>
  <speed>0.02</speed>
  <fix>3d</fix>
</trkpt>
<trkpt lat="-27.274439" lon="151.290064">
  <ele>343.0</ele>
  <time>2026-08-29T20:43:52Z</time>
  <course>0.0</course>
  <speed>0.0</speed>
  <fix>3d</fix>
</trkpt>
<trkpt lat="-27.274439" lon="151.2900642">
  <ele>343.03</ele>
  <time>2026-08-29T20:43:52Z</time>
  <course>145.81</course>
  <speed>0.03</speed>
  <fix>3d</fix>
</trkpt>
<trkpt lat="-27.274439" lon="151.290064">
  <ele>343.0</ele>
  <time>2026-08-29T20:43:52Z</time>
  <course>0.0</course>
  <speed>0.0</speed>
  <fix>3d</fix>
</trkpt>
<trkpt lat="-27.274439" lon="151.2900642">
  <ele>343.03</ele>
  <time>2026-08-29T20:43:52Z</time>
  <course>145.79</course>
  <speed>0.02</speed>
  <fix>3d</fix>
</trkpt>
<trkpt lat="-27.274439" lon="151.290064">
  <ele>343.0</ele>
  <time>2026-08-29T20:43:52Z</time>
  <course>0.0</course>
  <speed>0.0</speed>
  <fix>3d</fix>
</trkpt>
<trkpt lat="-27.274439" lon="151.2900642">
  <ele>343.02</ele>
  <time>2026-08-29T20:43:52Z</time>
  <course>145.77</course>
  <speed>0.03</speed>
  <fix>3d</fix>
</trkpt>
<trkpt lat="-27.274439" lon="151.290064">
  <ele>343.0</ele>
  <time>2026-08-29T20:43:52Z</time>
  <course>0.0</course>
  <speed>0.0</speed>
  <fix>3d</fix>
</trkpt>
<trkpt lat="-27.274439" lon="151.2900642">
  <ele>343.01</ele>
  <time>2026-08-29T20:43:52Z</time>
  <course>145.75</course>
  <speed>0.02</speed>
  <fix>3d</fix>
</trkpt>
<trkpt lat="-27.274439" lon="151.290064">
  <ele>343.0</ele>
  <time>2026-08-29T20:43:52Z</time>
  <course>0.0</course>
  <speed>0.0</speed>
  <fix>3d</fix>
</trkpt>
<trkpt lat="-27.274439" lon="151.2900642">
  <ele>342.99</ele>
  <time>2026-08-29T20:43:52Z</time>
  <course>145.74</course>
  <speed>0.03</speed>
  <fix>3d</fix>
</trkpt>
<trkpt lat="-27.274439" lon="151.290064">
  <ele>343.0</ele>
  <time>2026-08-29T20:43:52Z</time>
  <course>0.0</course>
  <speed>0.0</speed>
  <fix>3d</fix>
</trkpt>
<trkpt lat="-27.274439" lon="151.2900642">
  <ele>342.99</ele>
  <time>2026-08-29T20:43:52Z</time>
  <course>145.72</course>
  <speed>0.02</speed>
  <fix>3d</fix>
</trkpt>
<trkpt lat="-27.274439" lon="151.290064">
  <ele>343.0</ele>
  <time>2026-08-29T20:43:52Z</time>
  <course>0.0</course>
  <speed>0.0</speed>
  <fix>3d</fix>
</trkpt>
<trkpt lat="-27.274439" lon="151.2900642">
  <ele>343.0</ele>
  <time>2026-08-29T20:43:52Z</time>
  <course>145.7</course>
  <speed>0.03</speed>
  <fix>3d</fix>
</trkpt>
<trkpt lat="-27.274439" lon="151.290064">
  <ele>343.0</ele>
  <time>2026-08-29T20:43:52Z</time>
  <course>0.0</course>
  <speed>0.0</speed>
  <fix>3d</fix>
</trkpt>
<trkpt lat="-27.274439" lon="151.2900642">
  <ele>342.99</ele>
  <time>2026-08-29T20:43:52Z</time>
  <course>145.69</course>
  <speed>0.02</speed>
  <fix>3d</fix>
</trkpt>
<trkpt lat="-27.274439" lon="151.290064">
  <ele>343.0</ele>
  <time>2026-08-29T20:43:52Z</time>
  <course>0.0</course>
  <speed>0.0</speed>
  <fix>3d</fix>
</trkpt>
<trkpt lat="-27.274439" lon="151.2900642">
  <ele>343.0</ele>
  <time>2026-08-29T20:43:52Z</time>
  <course>145.67</course>
  <speed>0.03</speed>
  <fix>3d</fix>
</trkpt>
<trkpt lat="-27.274439" lon="151.290064">
  <ele>343.0</ele>
  <time>2026-08-29T20:43:52Z</time>
  <course>0.0</course>
  <speed>0.0</speed>
  <fix>3d</fix>
</trkpt>
<trkpt lat="-27.274439" lon="151.2900642">
  <ele>343.01</ele>
  <time>2026-08-29T20:43:52Z</time>
  <course>145.66</course>
  <speed>0.02</speed>
  <fix>3d</fix>
</trkpt>
<trkpt lat="-27.274439" lon="151.290064">
  <ele>343.0</ele>
  <time>2026-08-29T20:43:52Z</time>
  <course>0.0</course>
  <speed>0.0</speed>
  <fix>3d</fix>
</trkpt>
<trkpt lat="-27.274439" lon="151.2900642">
  <ele>343.01</ele>
  <time>2026-08-29T20:43:52Z</time>
  <course>145.64</course>
  <speed>0.03</speed>
  <fix>3d</fix>
</trkpt>
<trkpt lat="-27.274439" lon="151.290064">
  <ele>343.0</ele>
  <time>2026-08-29T20:43:52Z</time>
  <course>0.0</course>
  <speed>0.0</speed>
  <fix>3d</fix>
</trkpt>
<trkpt lat="-27.274439" lon="151.2900642">
  <ele>343.0</ele>
  <time>2026-08-29T20:43:52Z</time>
  <course>145.62</course>
  <speed>0.03</speed>
  <fix>3d</fix>
</trkpt>
<trkpt lat="-27.274439" lon="151.290064">
  <ele>343.0</ele>
  <time>2026-08-29T20:43:52Z</time>
  <course>0.0</course>
  <speed>0.0</speed>
  <fix>3d</fix>
</trkpt>
<trkpt lat="-27.274439" lon="151.2900642">
  <ele>343.0</ele>
  <time>2026-08-29T20:43:52Z</time>
  <course>145.61</course>
  <speed>0.03</speed>
  <fix>3d</fix>
</trkpt>
<trkpt lat="-27.274439" lon="151.290064">
  <ele>343.0</ele>
  <time>2026-08-29T20:43:52Z</time>
  <course>0.0</course>
  <speed>0.0</speed>
  <fix>3d</fix>
</trkpt>
<trkpt lat="-27.274439" lon="151.2900642">
  <ele>342.99</ele>
  <time>2026-08-29T20:43:52Z</time>
  <course>145.6</course>
  <speed>0.03</speed>
  <fix>3d</fix>
</trkpt>
<trkpt lat="-27.274439" lon="151.290064">
  <ele>343.0</ele>
  <time>2026-08-29T20:43:52Z</time>
  <course>0.0</course>
  <speed>0.0</speed>
  <fix>3d</fix>
</trkpt>
<trkpt lat="-27.274439" lon="151.2900642">
  <ele>342.99</ele>
  <time>2026-08-29T20:43:52Z</time>
  <course>145.59</course>
  <speed>0.03</speed>
  <fix>3d</fix>
</trkpt>
<trkpt lat="-27.274439" lon="151.290064">
  <ele>343.0</ele>
  <time>2026-08-29T20:43:52Z</time>
  <course>0.0</course>
  <speed>0.0</speed>
  <fix>3d</fix>
</trkpt>
<trkpt lat="-27.274439" lon="151.2900642">
  <ele>343.02</ele>
  <time>2026-08-29T20:43:52Z</time>
  <course>145.57</course>
  <speed>0.03</speed>
  <fix>3d</fix>
</trkpt>
<trkpt lat="-27.274439" lon="151.290064">
  <ele>343.0</ele>
  <time>2026-08-29T20:43:52Z</time>
  <course>0.0</course>
  <speed>0.0</speed>
  <fix>3d</fix>
</trkpt>
<trkpt lat="-27.274439" lon="151.2900642">
  <ele>343.01</ele>
  <time>2026-08-29T20:43:52Z</time>
  <course>145.56</course>
  <speed>0.03</speed>
  <fix>3d</fix>
</trkpt>
<trkpt lat="-27.274439" lon="151.290064">
  <ele>343.0</ele>
  <time>2026-08-29T20:43:52Z</time>
  <course>0.0</course>
  <speed>0.0</speed>
  <fix>3d</fix>
</trkpt>
<trkpt lat="-27.274439" lon="151.2900642">
  <ele>343.01</ele>
  <time>2026-08-29T20:43:52Z</time>
  <course>145.55</course>
  <speed>0.03</speed>
  <fix>3d</fix>
</trkpt>
<trkpt lat="-27.274439" lon="151.290064">
  <ele>343.0</ele>
  <time>2026-08-29T20:43:52Z</time>
  <course>0.0</course>
  <speed>0.0</speed>
  <fix>3d</fix>
</trkpt>
<trkpt lat="-27.274439" lon="151.2900642">
  <ele>342.99</ele>
  <time>2026-08-29T20:43:52Z</time>
  <course>145.54</course>
  <speed>0.03</speed>
  <fix>3d</fix>
</trkpt>
<trkpt lat="-27.274439" lon="151.290064">
  <ele>343.0</ele>
  <time>2026-08-29T20:43:52Z</time>
  <course>0.0</course>
  <speed>0.0</speed>
  <fix>3d</fix>
</trkpt>
<trkpt lat="-27.274439" lon="151.2900642">
  <ele>342.99</ele>
  <time>2026-08-29T20:43:52Z</time>
  <course>145.52</course>
  <speed>0.03</speed>
  <fix>3d</fix>
</trkpt>
<trkpt lat="-27.274439" lon="151.290064">
  <ele>343.0</ele>
  <time>2026-08-29T20:43:52Z</time>
  <course>0.0</course>
  <speed>0.0</speed>
  <fix>3d</fix>
</trkpt>
<trkpt lat="-27.274439" lon="151.2900642">
  <ele>343.0</ele>
  <time>2026-08-29T20:43:52Z</time>
  <course>145.51</course>
  <speed>0.03</speed>
  <fix>3d</fix>
</trkpt>
<trkpt lat="-27.274439" lon="151.290064">
  <ele>343.0</ele>
  <time>2026-08-29T20:43:52Z</time>
  <course>0.0</course>
  <speed>0.0</speed>
  <fix>3d</fix>
</trkpt>
<trkpt lat="-27.274439" lon="151.2900642">
  <ele>343.01</ele>
  <time>2026-08-29T20:43:52Z</time>
  <course>145.49</course>
  <speed>0.03</speed>
  <fix>3d</fix>
</trkpt>
<trkpt lat="-27.274439" lon="151.290064">
  <ele>343.0</ele>
  <time>2026-08-29T20:43:52Z</time>
  <course>0.0</course>
  <speed>0.0</speed>
  <fix>3d</fix>
</trkpt>
<trkpt lat="-27.274439" lon="151.2900642">
  <ele>343.01</ele>
  <time>2026-08-29T20:43:52Z</time>
  <course>145.48</course>
  <speed>0.03</speed>
  <fix>3d</fix>
</trkpt>
<trkpt lat="-27.274439" lon="151.290064">
  <ele>343.0</ele>
  <time>2026-08-29T20:43:52Z</time>
  <course>0.0</course>
  <speed>0.0</speed>
  <fix>3d</fix>
</trkpt>
<trkpt lat="-27.274439" lon="151.2900642">
  <ele>343.02</ele>
  <time>2026-08-29T20:43:52Z</time>
  <course>145.47</course>
  <speed>0.03</speed>
  <fix>3d</fix>
</trkpt>
<trkpt lat="-27.274439" lon="151.290064">
  <ele>343.0</ele>
  <time>2026-08-29T20:43:52Z</time>
  <course>0.0</course>
  <speed>0.0</speed>
  <fix>3d</fix>
</trkpt>
<trkpt lat="-27.274439" lon="151.2900642">
  <ele>343.03</ele>
  <time>2026-08-29T20:43:52Z</time>
  <course>145.46</course>
  <speed>0.03</speed>
  <fix>3d</fix>
</trkpt>
<trkpt lat="-27.274439" lon="151.290064">
  <ele>343.0</ele>
  <time>2026-08-29T20:43:52Z</time>
  <course>0.0</course>
  <speed>0.0</speed>
  <fix>3d</fix>
</trkpt>
<trkpt lat="-27.274439" lon="151.2900642">
  <ele>343.02</ele>
  <time>2026-08-29T20:43:52Z</time>
  <course>145.45</course>
  <speed>0.02</speed>
  <fix>3d</fix>
</trkpt>
<trkpt lat="-27.274439" lon="151.290064">
  <ele>343.0</ele>
  <time>2026-08-29T20:43:52Z</time>
  <course>0.0</course>
  <speed>0.0</speed>
  <fix>3d</fix>
</trkpt>
<trkpt lat="-27.274439" lon="151.2900642">
  <ele>343.02</ele>
  <time>2026-08-29T20:43:52Z</time>
  <course>145.44</course>
  <speed>0.03</speed>
  <fix>3d</fix>
</trkpt>
<trkpt lat="-27.274439" lon="151.290064">
  <ele>343.0</ele>
  <time>2026-08-29T20:43:52Z</time>
  <course>0.0</course>
  <speed>0.0</speed>
  <fix>3d</fix>
</trkpt>
<trkpt lat="-27.274439" lon="151.2900642">
  <ele>342.99</ele>
  <time>2026-08-29T20:43:52Z</time>
  <course>145.43</course>
  <speed>0.02</speed>
  <fix>3d</fix>
</trkpt>
<trkpt lat="-27.274439" lon="151.290064">
  <ele>343.0</ele>
  <time>2026-08-29T20:43:52Z</time>
  <course>0.0</course>
  <speed>0.0</speed>
  <fix>3d</fix>
</trkpt>
<trkpt lat="-27.274439" lon="151.2900642">
  <ele>342.98</ele>
  <time>2026-08-29T20:43:52Z</time>
  <course>137.56</course>
  <speed>0.02</speed>
  <fix>3d</fix>
</trkpt>
<trkpt lat="-27.274439" lon="151.290064">
  <ele>343.0</ele>
  <time>2026-08-29T20:43:52Z</time>
  <course>0.0</course>
  <speed>0.0</speed>
  <fix>3d</fix>
</trkpt>
<trkpt lat="-27.274439" lon="151.2900642">
  <ele>342.94</ele>
  <time>2026-08-29T20:43:52Z</time>
  <course>128.45</course>
  <speed>0.01</speed>
  <fix>3d</fix>
</trkpt>
<trkpt lat="-27.274439" lon="151.290064">
  <ele>343.0</ele>
  <time>2026-08-29T20:43:52Z</time>
  <course>0.0</course>
  <speed>0.0</speed>
  <fix>3d</fix>
</trkpt>
<trkpt lat="-27.274439" lon="151.2900641">
  <ele>342.94</ele>
  <time>2026-08-29T20:43:52Z</time>
  <course>119.37</course>
  <speed>0.01</speed>
  <fix>3d</fix>
</trkpt>
<trkpt lat="-27.274439" lon="151.290064">
  <ele>343.0</ele>
  <time>2026-08-29T20:43:52Z</time>
  <course>0.0</course>
  <speed>0.0</speed>
  <fix>3d</fix>
</trkpt>
<trkpt lat="-27.274439" lon="151.290064">
  <ele>342.92</ele>
  <time>2026-08-29T20:43:52Z</time>
  <course>110.31</course>
  <speed>0.01</speed>
  <fix>3d</fix>
</trkpt>
<trkpt lat="-27.274439" lon="151.290064">
  <ele>343.0</ele>
  <time>2026-08-29T20:43:52Z</time>
  <course>0.0</course>
  <speed>0.0</speed>
  <fix>3d</fix>
</trkpt>
<trkpt lat="-27.2744391" lon="151.290064">
  <ele>342.92</ele>
  <time>2026-08-29T20:43:52Z</time>
  <course>101.28</course>
  <speed>0.01</speed>
  <fix>3d</fix>
</trkpt>
<trkpt lat="-27.274439" lon="151.290064">
  <ele>343.0</ele>
  <time>2026-08-29T20:43:52Z</time>
  <course>0.0</course>
  <speed>0.0</speed>
  <fix>3d</fix>
</trkpt>
<trkpt lat="-27.2744391" lon="151.290064">
  <ele>342.91</ele>
  <time>2026-08-29T20:43:52Z</time>
  <course>92.25</course>
  <speed>0.02</speed>
  <fix>3d</fix>
</trkpt>
<trkpt lat="-27.274439" lon="151.290064">
  <ele>343.0</ele>
  <time>2026-08-29T20:43:52Z</time>
  <course>0.0</course>
  <speed>0.0</speed>
  <fix>3d</fix>
</trkpt>
<trkpt lat="-27.2744391" lon="151.290064">
  <ele>342.9</ele>
  <time>2026-08-29T20:43:52Z</time>
  <course>83.24</course>
  <speed>0.02</speed>
  <fix>3d</fix>
</trkpt>
<trkpt lat="-27.274439" lon="151.290064">
  <ele>343.0</ele>
  <time>2026-08-29T20:43:52Z</time>
  <course>0.0</course>
  <speed>0.0</speed>
  <fix>3d</fix>
</trkpt>
<trkpt lat="-27.274439" lon="151.290064">
  <ele>343.0</ele>
  <time>2026-08-29T20:43:53Z</time>
  <course>325.88</course>
  <speed>0.0</speed>
  <fix>3d</fix>
</trkpt>
<trkpt lat="-27.274439" lon="151.290064">
  <ele>343.0</ele>
  <time>2026-08-29T20:43:53Z</time>
  <course>324.43</course>
  <speed>0.0</speed>
  <fix>3d</fix>
</trkpt>
<trkpt lat="-27.274439" lon="151.290064">
  <ele>343.0</ele>
  <time>2026-08-29T20:43:53Z</time>
  <course>321.86</course>
  <speed>0.0</speed>
  <fix>3d</fix>
</trkpt>
<trkpt lat="-27.274439" lon="151.290064">
  <ele>343.0</ele>
  <time>2026-08-29T20:43:53Z</time>
  <course>295.0</course>
  <speed>0.0</speed>
  <fix>3d</fix>
</trkpt>
<trkpt lat="-27.274439" lon="151.290064">
  <ele>343.0</ele>
  <time>2026-08-29T20:43:53Z</time>
  <course>290.72</course>
  <speed>0.0</speed>
  <fix>3d</fix>
</trkpt>
<trkpt lat="-27.274439" lon="151.290064">
  <ele>343.0</ele>
  <time>2026-08-29T20:43:53Z</time>
  <course>284.84</course>
  <speed>0.0</speed>
  <fix>3d</fix>
</trkpt>
<trkpt lat="-27.274439" lon="151.290064">
  <ele>343.0</ele>
  <time>2026-08-29T20:43:53Z</time>
  <course>277.79</course>
  <speed>0.0</speed>
  <fix>3d</fix>
</trkpt>
<trkpt lat="-27.274439" lon="151.290064">
  <ele>343.0</ele>
  <time>2026-08-29T20:43:53Z</time>
  <course>269.55</course>
  <speed>0.0</speed>
  <fix>3d</fix>
</trkpt>
<trkpt lat="-27.274439" lon="151.290064">
  <ele>343.0</ele>
  <time>2026-08-29T20:43:53Z</time>
  <course>262.16</course>
  <speed>0.9176055797563569</speed>
  <fix>3d</fix>
</trkpt>
<trkpt lat="-27.274439" lon="151.290064">
  <ele>343.0</ele>
  <time>2026-08-29T20:43:53Z</time>
  <course>0.0</course>
  <speed>0.0</speed>
  <fix>3d</fix>
</trkpt>
<trkpt lat="-27.274439" lon="151.290064">
  <ele>343.0</ele>
  <time>2026-08-29T20:43:53Z</time>
  <course>256.4</course>
  <speed>0.9403190947758107</speed>
  <fix>3d</fix>
</trkpt>
<trkpt lat="-27.274439" lon="151.290064">
  <ele>343.0</ele>
  <time>2026-08-29T20:43:53Z</time>
  <course>0.0</course>
  <speed>0.0</speed>
  <fix>3d</fix>
</trkpt>
<trkpt lat="-27.274439" lon="151.290064">
  <ele>343.0</ele>
  <time>2026-08-29T20:43:53Z</time>
  <course>249.45</course>
  <speed>0.756042326857432</speed>
  <fix>3d</fix>
</trkpt>
<trkpt lat="-27.274439" lon="151.290064">
  <ele>343.0</ele>
  <time>2026-08-29T20:43:53Z</time>
  <course>0.0</course>
  <speed>0.0</speed>
  <fix>3d</fix>
</trkpt>
<trkpt lat="-27.274439" lon="151.290064">
  <ele>343.0</ele>
  <time>2026-08-29T20:43:53Z</time>
  <course>241.79</course>
  <speed>0.6596969000988256</speed>
  <fix>3d</fix>
</trkpt>
<trkpt lat="-27.274439" lon="151.290064">
  <ele>343.0</ele>
  <time>2026-08-29T20:43:53Z</time>
  <course>0.0</course>
  <speed>0.0</speed>
  <fix>3d</fix>
</trkpt>
<trkpt lat="-27.274439" lon="151.290064">
  <ele>343.0</ele>
  <time>2026-08-29T20:43:53Z</time>
  <course>233.59</course>
  <speed>0.6618912297349165</speed>
  <fix>3d</fix>
</trkpt>
<trkpt lat="-27.274439" lon="151.290064">
  <ele>343.0</ele>
  <time>2026-08-29T20:43:53Z</time>
  <course>0.0</course>
  <speed>0.0</speed>
  <fix>3d</fix>
</trkpt>
<trkpt lat="-27.274439" lon="151.290064">
  <ele>343.0</ele>
  <time>2026-08-29T20:43:53Z</time>
  <course>225.02</course>
  <speed>0.7034202158027589</speed>
  <fix>3d</fix>
</trkpt>
<trkpt lat="-27.274439" lon="151.290064">
  <ele>343.0</ele>
  <time>2026-08-29T20:43:53Z</time>
  <course>0.0</course>
  <speed>0.0</speed>
  <fix>3d</fix>
</trkpt>
<trkpt lat="-27.274439" lon="151.290064">
  <ele>343.0</ele>
  <time>2026-08-29T20:43:53Z</time>
  <course>216.17</course>
  <speed>0.7539230729988305</speed>
  <fix>3d</fix>
</trkpt>
<trkpt lat="-27.274439" lon="151.290064">
  <ele>343.0</ele>
  <time>2026-08-29T20:43:53Z</time>
  <course>0.0</course>
  <speed>0.0</speed>
  <fix>3d</fix>
</trkpt>
<trkpt lat="-27.274439" lon="151.290064">
  <ele>343.0</ele>
  <time>2026-08-29T20:43:53Z</time>
  <course>207.13</course>
  <speed>0.8052949770115296</speed>
  <fix>3d</fix>
</trkpt>
<trkpt lat="-27.274439" lon="151.290064">
  <ele>343.0</ele>
  <time>2026-08-29T20:43:53Z</time>
  <course>0.0</course>
  <speed>0.0</speed>
  <fix>3d</fix>
</trkpt>
<trkpt lat="-27.274439" lon="151.290064">
  <ele>343.0</ele>
  <time>2026-08-29T20:43:53Z</time>
  <course>197.95</course>
  <speed>0.8453401682163222</speed>
  <fix>3d</fix>
</trkpt>
<trkpt lat="-27.274439" lon="151.290064">
  <ele>343.0</ele>
  <time>2026-08-29T20:43:53Z</time>
  <course>0.0</course>
  <speed>0.0</speed>
  <fix>3d</fix>
</trkpt>
<trkpt lat="-27.274439" lon="151.290064">
  <ele>343.0</ele>
  <time>2026-08-29T20:43:53Z</time>
  <course>188.67</course>
  <speed>0.878179936004006</speed>
  <fix>3d</fix>
</trkpt>
<trkpt lat="-27.274439" lon="151.290064">
  <ele>343.0</ele>
  <time>2026-08-29T20:43:53Z</time>
  <course>0.0</course>
  <speed>0.0</speed>
  <fix>3d</fix>
</trkpt>
<trkpt lat="-27.274439" lon="151.290064">
  <ele>343.0</ele>
  <time>2026-08-29T20:43:53Z</time>
  <course>179.31</course>
  <speed>0.8848163651289458</speed>
  <fix>3d</fix>
</trkpt>
<trkpt lat="-27.274439" lon="151.290064">
  <ele>343.0</ele>
  <time>2026-08-29T20:43:53Z</time>
  <course>0.0</course>
  <speed>0.0</speed>
  <fix>3d</fix>
</trkpt>
<trkpt lat="-27.274439" lon="151.290064">
  <ele>343.0</ele>
  <time>2026-08-29T20:43:53Z</time>
  <course>169.93</course>
  <speed>0.9140021881811882</speed>
  <fix>3d</fix>
</trkpt>
<trkpt lat="-27.274439" lon="151.290064">
  <ele>343.0</ele>
  <time>2026-08-29T20:43:53Z</time>
  <course>0.0</course>
  <speed>0.0</speed>
  <fix>3d</fix>
</trkpt>
<trkpt lat="-27.274439" lon="151.290064">
  <ele>343.0</ele>
  <time>2026-08-29T20:43:53Z</time>
  <course>161.9</course>
  <speed>0.9219544457292888</speed>
  <fix>3d</fix>
</trkpt>
<trkpt lat="-27.274439" lon="151.290064">
  <ele>343.0</ele>
  <time>2026-08-29T20:43:53Z</time>
  <course>0.0</course>
  <speed>0.0</speed>
  <fix>3d</fix>
</trkpt>
<trkpt lat="-27.274439" lon="151.290064">
  <ele>343.0</ele>
  <time>2026-08-29T20:43:53Z</time>
  <course>158.55</course>
  <speed>0.9411163583744573</speed>
  <fix>3d</fix>
</trkpt>
<trkpt lat="-27.274439" lon="151.290064">
  <ele>343.0</ele>
  <time>2026-08-29T20:43:53Z</time>
  <course>0.0</course>
  <speed>0.0</speed>
  <fix>3d</fix>
</trkpt>
<trkpt lat="-27.274439" lon="151.290064">
  <ele>343.0</ele>
  <time>2026-08-29T20:43:53Z</time>
  <course>157.2</course>
  <speed>0.9546203433826455</speed>
  <fix>3d</fix>
</trkpt>
<trkpt lat="-27.274439" lon="151.290064">
  <ele>343.0</ele>
  <time>2026-08-29T20:43:53Z</time>
  <course>0.0</course>
  <speed>0.0</speed>
  <fix>3d</fix>
</trkpt>
<trkpt lat="-27.274439" lon="151.290064">
  <ele>343.0</ele>
  <time>2026-08-29T20:43:53Z</time>
  <course>156.57</course>
  <speed>0.9642613753542137</speed>
  <fix>3d</fix>
</trkpt>
<trkpt lat="-27.274439" lon="151.290064">
  <ele>343.0</ele>
  <time>2026-08-29T20:43:53Z</time>
  <course>0.0</course>
  <speed>0.0</speed>
  <fix>3d</fix>
</trkpt>
<trkpt lat="-27.274439" lon="151.290064">
  <ele>343.0</ele>
  <time>2026-08-29T20:43:53Z</time>
  <course>156.21</course>
  <speed>0.9602083107326242</speed>
  <fix>3d</fix>
</trkpt>
<trkpt lat="-27.274439" lon="151.290064">
  <ele>343.0</ele>
  <time>2026-08-29T20:43:53Z</time>
  <course>0.0</course>
  <speed>0.0</speed>
  <fix>3d</fix>
</trkpt>
<trkpt lat="-27.274439" lon="151.290064">
  <ele>343.0</ele>
  <time>2026-08-29T20:43:53Z</time>
  <course>155.95</course>
  <speed>0.9689685237405805</speed>
  <fix>3d</fix>
</trkpt>
<trkpt lat="-27.274439" lon="151.290064">
  <ele>343.0</ele>
  <time>2026-08-29T20:43:53Z</time>
  <course>0.0</course>
  <speed>0.0</speed>
  <fix>3d</fix>
</trkpt>
<trkpt lat="-27.274439" lon="151.290064">
  <ele>343.0</ele>
  <time>2026-08-29T20:43:53Z</time>
  <course>155.71</course>
  <speed>0.9800510190801294</speed>
  <fix>3d</fix>
</trkpt>
<trkpt lat="-27.274439" lon="151.290064">
  <ele>343.0</ele>
  <time>2026-08-29T20:43:53Z</time>
  <course>0.0</course>
  <speed>0.0</speed>
  <fix>3d</fix>
</trkpt>
<trkpt lat="-27.274439" lon="151.290064">
  <ele>343.0</ele>
  <time>2026-08-29T20:43:53Z</time>
  <course>155.49</course>
  <speed>0.9972963451251589</speed>
  <fix>3d</fix>
</trkpt>
<trkpt lat="-27.274439" lon="151.290064">
  <ele>343.0</ele>
  <time>2026-08-29T20:43:53Z</time>
  <course>0.0</course>
  <speed>0.0</speed>
  <fix>3d</fix>
</trkpt>
<trkpt lat="-27.274439" lon="151.290064">
  <ele>343.0</ele>
  <time>2026-08-29T20:43:53Z</time>
  <course>155.27</course>
  <speed>1.0113357503816425</speed>
  <fix>3d</fix>
</trkpt>
<trkpt lat="-27.274439" lon="151.290064">
  <ele>343.0</ele>
  <time>2026-08-29T20:43:53Z</time>
  <course>0.0</course>
  <speed>0.0</speed>
  <fix>3d</fix>
</trkpt>
<trkpt lat="-27.274439" lon="151.290064">
  <ele>343.0</ele>
  <time>2026-08-29T20:43:53Z</time>
  <course>155.07</course>
  <speed>1.010198000393982</speed>
  <fix>3d</fix>
</trkpt>
<trkpt lat="-27.274439" lon="151.290064">
  <ele>343.0</ele>
  <time>2026-08-29T20:43:53Z</time>
  <course>0.0</course>
  <speed>0.0</speed>
  <fix>3d</fix>
</trkpt>
<trkpt lat="-27.274439" lon="151.290064">
  <ele>343.0</ele>
  <time>2026-08-29T20:43:53Z</time>
  <course>154.88</course>
  <speed>0.9962429422585637</speed>
  <fix>3d</fix>
</trkpt>
<trkpt lat="-27.274439" lon="151.290064">
  <ele>343.0</ele>
  <time>2026-08-29T20:43:53Z</time>
  <course>0.0</course>
  <speed>0.0</speed>
  <fix>3d</fix>
</trkpt>
<trkpt lat="-27.274439" lon="151.290064">
  <ele>343.0</ele>
  <time>2026-08-29T20:43:53Z</time>
  <course>154.68</course>
  <speed>0.9751410154434076</speed>
  <fix>3d</fix>
</trkpt>
<trkpt lat="-27.274439" lon="151.290064">
  <ele>343.0</ele>
  <time>2026-08-29T20:43:53Z</time>
  <course>0.0</course>
  <speed>0.0</speed>
  <fix>3d</fix>
</trkpt>
<trkpt lat="-27.274439" lon="151.290064">
  <ele>343.0</ele>
  <time>2026-08-29T20:43:53Z</time>
  <course>154.49</course>
  <speed>0.951892851112981</speed>
  <fix>3d</fix>
</trkpt>
<trkpt lat="-27.274439" lon="151.290064">
  <ele>343.0</ele>
  <time>2026-08-29T20:43:53Z</time>
  <course>0.0</course>
  <speed>0.0</speed>
  <fix>3d</fix>
</trkpt>
<trkpt lat="-27.274439" lon="151.290064">
  <ele>343.0</ele>
  <time>2026-08-29T20:43:53Z</time>
  <course>154.29</course>
  <speed>0.9243916918709297</speed>
  <fix>3d</fix>
</trkpt>
<trkpt lat="-27.274439" lon="151.290064">
  <ele>343.0</ele>
  <time>2026-08-29T20:43:53Z</time>
  <course>0.0</course>
  <speed>0.0</speed>
  <fix>3d</fix>
</trkpt>
<trkpt lat="-27.274439" lon="151.290064">
  <ele>343.0</ele>
  <time>2026-08-29T20:43:53Z</time>
  <course>154.09</course>
  <speed>0.8900561780022652</speed>
  <fix>3d</fix>
</trkpt>
<trkpt lat="-27.274439" lon="151.290064">
  <ele>343.0</ele>
  <time>2026-08-29T20:43:53Z</time>
  <course>0.0</course>
  <speed>0.0</speed>
  <fix>3d</fix>
</trkpt>
<trkpt lat="-27.274439" lon="151.290064">
  <ele>343.0</ele>
  <time>2026-08-29T20:43:53Z</time>
  <course>153.88</course>
  <speed>0.8514693182963201</speed>
  <fix>3d</fix>
</trkpt>
<trkpt lat="-27.274439" lon="151.290064">
  <ele>343.0</ele>
  <time>2026-08-29T20:43:53Z</time>
  <course>0.0</course>
  <speed>0.0</speed>
  <fix>3d</fix>
</trkpt>
<trkpt lat="-27.274439" lon="151.290064">
  <ele>343.0</ele>
  <time>2026-08-29T20:43:53Z</time>
  <course>153.67</course>
  <speed>0.8174350127074322</speed>
  <fix>3d</fix>
</trkpt>
<trkpt lat="-27.274439" lon="151.290064">
  <ele>343.0</ele>
  <time>2026-08-29T20:43:53Z</time>
  <course>0.0</course>
  <speed>0.0</speed>
  <fix>3d</fix>
</trkpt>
<trkpt lat="-27.274439" lon="151.290064">
  <ele>343.0</ele>
  <time>2026-08-29T20:43:53Z</time>
  <course>153.46</course>
  <speed>0.7962411694957753</speed>
  <fix>3d</fix>
</trkpt>
<trkpt lat="-27.274439" lon="151.290064">
  <ele>343.0</ele>
  <time>2026-08-29T20:43:53Z</time>
  <course>0.0</course>
  <speed>0.0</speed>
  <fix>3d</fix>
</trkpt>
<trkpt lat="-27.274439" lon="151.290064">
  <ele>343.0</ele>
  <time>2026-08-29T20:43:53Z</time>
  <course>153.24</course>
  <speed>0.7569015788066504</speed>
  <fix>3d</fix>
</trkpt>
<trkpt lat="-27.274439" lon="151.290064">
  <ele>343.0</ele>
  <time>2026-08-29T20:43:53Z</time>
  <course>0.0</course>
  <speed>0.0</speed>
  <fix>3d</fix>
</trkpt>
<trkpt lat="-27.274439" lon="151.2900646">
  <ele>343.04</ele>
  <time>2026-08-29T20:43:53Z</time>
  <course>153.03</course>
  <speed>0.0</speed>
  <fix>3d</fix>
</trkpt>
<trkpt lat="-27.274439" lon="151.290064">
  <ele>343.0</ele>
  <time>2026-08-29T20:43:53Z</time>
  <course>0.0</course>
  <speed>0.0</speed>
  <fix>3d</fix>
</trkpt>
<trkpt lat="-27.2744392" lon="151.2900653">
  <ele>343.03</ele>
  <time>2026-08-29T20:43:53Z</time>
  <course>152.83</course>
  <speed>0.0848528137423857</speed>
  <fix>3d</fix>
</trkpt>
<trkpt lat="-27.274439" lon="151.290064">
  <ele>343.0</ele>
  <time>2026-08-29T20:43:53Z</time>
  <course>0.0</course>
  <speed>0.0</speed>
  <fix>3d</fix>
</trkpt>
<trkpt lat="-27.2744393" lon="151.2900645">
  <ele>343.02</ele>
  <time>2026-08-29T20:43:53Z</time>
  <course>152.57</course>
  <speed>0.08602325267042626</speed>
  <fix>3d</fix>
</trkpt>
<trkpt lat="-27.274439" lon="151.290064">
  <ele>343.0</ele>
  <time>2026-08-29T20:43:53Z</time>
  <course>0.0</course>
  <speed>0.0</speed>
  <fix>3d</fix>
</trkpt>
<trkpt lat="-27.2744392" lon="151.2900642">
  <ele>343.03</ele>
  <time>2026-08-29T20:43:53Z</time>
  <course>152.29</course>
  <speed>0.05830951894845301</speed>
  <fix>3d</fix>
</trkpt>
<trkpt lat="-27.274439" lon="151.290064">
  <ele>343.0</ele>
  <time>2026-08-29T20:43:53Z</time>
  <course>0.0</course>
  <speed>0.0</speed>
  <fix>3d</fix>
</trkpt>
<trkpt lat="-27.2744391" lon="151.2900641">
  <ele>343.06</ele>
  <time>2026-08-29T20:43:53Z</time>
  <course>152.03</course>
  <speed>0.02</speed>
  <fix>3d</fix>
</trkpt>
<trkpt lat="-27.274439" lon="151.290064">
  <ele>343.0</ele>
  <time>2026-08-29T20:43:53Z</time>
  <course>0.0</course>
  <speed>0.0</speed>
  <fix>3d</fix>
</trkpt>
<trkpt lat="-27.274439" lon="151.290064">
  <ele>343.05</ele>
  <time>2026-08-29T20:43:53Z</time>
  <course>151.79</course>
  <speed>0.01</speed>
  <fix>3d</fix>
</trkpt>
<trkpt lat="-27.274439" lon="151.290064">
  <ele>343.0</ele>
  <time>2026-08-29T20:43:53Z</time>
  <course>0.0</course>
  <speed>0.0</speed>
  <fix>3d</fix>
</trkpt>
<trkpt lat="-27.274439" lon="151.290064">
  <ele>343.04</ele>
  <time>2026-08-29T20:43:53Z</time>
  <course>151.57</course>
  <speed>0.01414213562373095</speed>
  <fix>3d</fix>
</trkpt>
<trkpt lat="-27.274439" lon="151.290064">
  <ele>343.0</ele>
  <time>2026-08-29T20:43:53Z</time>
  <course>0.0</course>
  <speed>0.0</speed>
  <fix>3d</fix>
</trkpt>
<trkpt lat="-27.2744389" lon="151.2900639">
  <ele>343.04</ele>
  <time>2026-08-29T20:43:53Z</time>
  <course>151.37</course>
  <speed>0.01414213562373095</speed>
  <fix>3d</fix>
</trkpt>
<trkpt lat="-27.274439" lon="151.290064">
  <ele>343.0</ele>
  <time>2026-08-29T20:43:53Z</time>
  <course>0.0</course>
  <speed>0.0</speed>
  <fix>3d</fix>
</trkpt>
<trkpt lat="-27.2744389" lon="151.2900638">
  <ele>343.05</ele>
  <time>2026-08-29T20:43:53Z</time>
  <course>151.18</course>
  <speed>0.0282842712474619</speed>
  <fix>3d</fix>
</trkpt>
<trkpt lat="-27.274439" lon="151.290064">
  <ele>343.0</ele>
  <time>2026-08-29T20:43:53Z</time>
  <course>0.0</course>
  <speed>0.0</speed>
  <fix>3d</fix>
</trkpt>
<trkpt lat="-27.2744389" lon="151.2900638">
  <ele>343.06</ele>
  <time>2026-08-29T20:43:53Z</time>
  <course>151.01</course>
  <speed>0.0282842712474619</speed>
  <fix>3d</fix>
</trkpt>
<trkpt lat="-27.274439" lon="151.290064">
  <ele>343.0</ele>
  <time>2026-08-29T20:43:53Z</time>
  <course>0.0</course>
  <speed>0.0</speed>
  <fix>3d</fix>
</trkpt>
<trkpt lat="-27.2744389" lon="151.2900638">
  <ele>343.03</ele>
  <time>2026-08-29T20:43:53Z</time>
  <course>150.84</course>
  <speed>0.0282842712474619</speed>
  <fix>3d</fix>
</trkpt>
<trkpt lat="-27.274439" lon="151.290064">
  <ele>343.0</ele>
  <time>2026-08-29T20:43:53Z</time>
  <course>0.0</course>
  <speed>0.0</speed>
  <fix>3d</fix>
</trkpt>
<trkpt lat="-27.2744389" lon="151.2900638">
  <ele>343.04</ele>
  <time>2026-08-29T20:43:53Z</time>
  <course>150.68</course>
  <speed>0.0282842712474619</speed>
  <fix>3d</fix>
</trkpt>
<trkpt lat="-27.274439" lon="151.290064">
  <ele>343.0</ele>
  <time>2026-08-29T20:43:53Z</time>
  <course>0.0</course>
  <speed>0.0</speed>
  <fix>3d</fix>
</trkpt>
<trkpt lat="-27.2744389" lon="151.2900638">
  <ele>343.03</ele>
  <time>2026-08-29T20:43:53Z</time>
  <course>150.52</course>
  <speed>0.022360679774997897</speed>
  <fix>3d</fix>
</trkpt>
<trkpt lat="-27.274439" lon="151.290064">
  <ele>343.0</ele>
  <time>2026-08-29T20:43:53Z</time>
  <course>0.0</course>
  <speed>0.0</speed>
  <fix>3d</fix>
</trkpt>
<trkpt lat="-27.2744389" lon="151.2900638">
  <ele>343.04</ele>
  <time>2026-08-29T20:43:53Z</time>
  <course>150.38</course>
  <speed>0.022360679774997897</speed>
  <fix>3d</fix>
</trkpt>
<trkpt lat="-27.274439" lon="151.290064">
  <ele>343.0</ele>
  <time>2026-08-29T20:43:53Z</time>
  <course>0.0</course>
  <speed>0.0</speed>
  <fix>3d</fix>
</trkpt>
<trkpt lat="-27.2744389" lon="151.2900638">
  <ele>343.03</ele>
  <time>2026-08-29T20:43:53Z</time>
  <course>150.24</course>
  <speed>0.022360679774997897</speed>
  <fix>3d</fix>
</trkpt>
<trkpt lat="-27.274439" lon="151.290064">
  <ele>343.0</ele>
  <time>2026-08-29T20:43:53Z</time>
  <course>0.0</course>
  <speed>0.0</speed>
  <fix>3d</fix>
</trkpt>
<trkpt lat="-27.2744389" lon="151.2900638">
  <ele>343.02</ele>
  <time>2026-08-29T20:43:53Z</time>
  <course>150.11</course>
  <speed>0.022360679774997897</speed>
  <fix>3d</fix>
</trkpt>
<trkpt lat="-27.274439" lon="151.290064">
  <ele>343.0</ele>
  <time>2026-08-29T20:43:53Z</time>
  <course>0.0</course>
  <speed>0.0</speed>
  <fix>3d</fix>
</trkpt>
<trkpt lat="-27.2744389" lon="151.2900638">
  <ele>343.0</ele>
  <time>2026-08-29T20:43:53Z</time>
  <course>149.98</course>
  <speed>0.022360679774997897</speed>
  <fix>3d</fix>
</trkpt>
<trkpt lat="-27.274439" lon="151.290064">
  <ele>343.0</ele>
  <time>2026-08-29T20:43:53Z</time>
  <course>0.0</course>
  <speed>0.0</speed>
  <fix>3d</fix>
</trkpt>
<trkpt lat="-27.2744389" lon="151.2900638">
  <ele>343.01</ele>
  <time>2026-08-29T20:43:53Z</time>
  <course>149.86</course>
  <speed>0.022360679774997897</speed>
  <fix>3d</fix>
</trkpt>
<trkpt lat="-27.274439" lon="151.290064">
  <ele>343.0</ele>
  <time>2026-08-29T20:43:53Z</time>
  <course>0.0</course>
  <speed>0.0</speed>
  <fix>3d</fix>
</trkpt>
<trkpt lat="-27.2744389" lon="151.2900638">
  <ele>343.04</ele>
  <time>2026-08-29T20:43:53Z</time>
  <course>149.75</course>
  <speed>0.022360679774997897</speed>
  <fix>3d</fix>
</trkpt>
<trkpt lat="-27.274439" lon="151.290064">
  <ele>343.0</ele>
  <time>2026-08-29T20:43:53Z</time>
  <course>0.0</course>
  <speed>0.0</speed>
  <fix>3d</fix>
</trkpt>
<trkpt lat="-27.2744389" lon="151.2900638">
  <ele>343.04</ele>
  <time>2026-08-29T20:43:53Z</time>
  <course>149.64</course>
  <speed>0.022360679774997897</speed>
  <fix>3d</fix>
</trkpt>
<trkpt lat="-27.274439" lon="151.290064">
  <ele>343.0</ele>
  <time>2026-08-29T20:43:53Z</time>
  <course>0.0</course>
  <speed>0.0</speed>
  <fix>3d</fix>
</trkpt>
<trkpt lat="-27.2744389" lon="151.2900638">
  <ele>343.04</ele>
  <time>2026-08-29T20:43:53Z</time>
  <course>149.53</course>
  <speed>0.022360679774997897</speed>
  <fix>3d</fix>
</trkpt>
<trkpt lat="-27.274439" lon="151.290064">
  <ele>343.0</ele>
  <time>2026-08-29T20:43:53Z</time>
  <course>0.0</course>
  <speed>0.0</speed>
  <fix>3d</fix>
</trkpt>
<trkpt lat="-27.2744389" lon="151.2900638">
  <ele>343.04</ele>
  <time>2026-08-29T20:43:53Z</time>
  <course>149.44</course>
  <speed>0.022360679774997897</speed>
  <fix>3d</fix>
</trkpt>
<trkpt lat="-27.274439" lon="151.290064">
  <ele>343.0</ele>
  <time>2026-08-29T20:43:53Z</time>
  <course>0.0</course>
  <speed>0.0</speed>
  <fix>3d</fix>
</trkpt>
<trkpt lat="-27.2744389" lon="151.2900638">
  <ele>343.03</ele>
  <time>2026-08-29T20:43:53Z</time>
  <course>149.34</course>
  <speed>0.022360679774997897</speed>
  <fix>3d</fix>
</trkpt>
<trkpt lat="-27.274439" lon="151.290064">
  <ele>343.0</ele>
  <time>2026-08-29T20:43:53Z</time>
  <course>0.0</course>
  <speed>0.0</speed>
  <fix>3d</fix>
</trkpt>
<trkpt lat="-27.2744389" lon="151.2900638">
  <ele>343.02</ele>
  <time>2026-08-29T20:43:53Z</time>
  <course>149.25</course>
  <speed>0.022360679774997897</speed>
  <fix>3d</fix>
</trkpt>
<trkpt lat="-27.274439" lon="151.290064">
  <ele>343.0</ele>
  <time>2026-08-29T20:43:53Z</time>
  <course>0.0</course>
  <speed>0.0</speed>
  <fix>3d</fix>
</trkpt>
<trkpt lat="-27.2744389" lon="151.2900638">
  <ele>343.05</ele>
  <time>2026-08-29T20:43:53Z</time>
  <course>149.17</course>
  <speed>0.022360679774997897</speed>
  <fix>3d</fix>
</trkpt>
<trkpt lat="-27.274439" lon="151.290064">
  <ele>343.0</ele>
  <time>2026-08-29T20:43:53Z</time>
  <course>0.0</course>
  <speed>0.0</speed>
  <fix>3d</fix>
</trkpt>
<trkpt lat="-27.2744389" lon="151.2900638">
  <ele>343.04</ele>
  <time>2026-08-29T20:43:53Z</time>
  <course>149.09</course>
  <speed>0.02</speed>
  <fix>3d</fix>
</trkpt>
<trkpt lat="-27.274439" lon="151.290064">
  <ele>343.0</ele>
  <time>2026-08-29T20:43:53Z</time>
  <course>0.0</course>
  <speed>0.0</speed>
  <fix>3d</fix>
</trkpt>
<trkpt lat="-27.2744389" lon="151.2900638">
  <ele>343.05</ele>
  <time>2026-08-29T20:43:53Z</time>
  <course>149.01</course>
  <speed>0.022360679774997897</speed>
  <fix>3d</fix>
</trkpt>
<trkpt lat="-27.274439" lon="151.290064">
  <ele>343.0</ele>
  <time>2026-08-29T20:43:53Z</time>
  <course>0.0</course>
  <speed>0.0</speed>
  <fix>3d</fix>
</trkpt>
<trkpt lat="-27.2744389" lon="151.2900638">
  <ele>343.03</ele>
  <time>2026-08-29T20:43:53Z</time>
  <course>148.94</course>
  <speed>0.02</speed>
  <fix>3d</fix>
</trkpt>
<trkpt lat="-27.274439" lon="151.290064">
  <ele>343.0</ele>
  <time>2026-08-29T20:43:53Z</time>
  <course>0.0</course>
  <speed>0.0</speed>
  <fix>3d</fix>
</trkpt>
<trkpt lat="-27.2744389" lon="151.2900638">
  <ele>343.02</ele>
  <time>2026-08-29T20:43:53Z</time>
  <course>148.87</course>
  <speed>0.022360679774997897</speed>
  <fix>3d</fix>
</trkpt>
<trkpt lat="-27.274439" lon="151.290064">
  <ele>343.0</ele>
  <time>2026-08-29T20:43:53Z</time>
  <course>0.0</course>
  <speed>0.0</speed>
  <fix>3d</fix>
</trkpt>
<trkpt lat="-27.2744389" lon="151.2900638">
  <ele>343.02</ele>
  <time>2026-08-29T20:43:54Z</time>
  <course>148.8</course>
  <speed>0.02</speed>
  <fix>3d</fix>
</trkpt>
<trkpt lat="-27.274439" lon="151.290064">
  <ele>343.0</ele>
  <time>2026-08-29T20:43:54Z</time>
  <course>0.0</course>
  <speed>0.0</speed>
  <fix>3d</fix>
</trkpt>
<trkpt lat="-27.2744389" lon="151.2900638">
  <ele>343.02</ele>
  <time>2026-08-29T20:43:54Z</time>
  <course>148.74</course>
  <speed>0.02</speed>
  <fix>3d</fix>
</trkpt>
<trkpt lat="-27.274439" lon="151.290064">
  <ele>343.0</ele>
  <time>2026-08-29T20:43:54Z</time>
  <course>0.0</course>
  <speed>0.0</speed>
  <fix>3d</fix>
</trkpt>
<trkpt lat="-27.2744389" lon="151.2900638">
  <ele>343.0</ele>
  <time>2026-08-29T20:43:54Z</time>
  <course>148.67</course>
  <speed>0.02</speed>
  <fix>3d</fix>
</trkpt>
<trkpt lat="-27.274439" lon="151.290064">
  <ele>343.0</ele>
  <time>2026-08-29T20:43:54Z</time>
  <course>0.0</course>
  <speed>0.0</speed>
  <fix>3d</fix>
</trkpt>
<trkpt lat="-27.2744389" lon="151.2900638">
  <ele>343.0</ele>
  <time>2026-08-29T20:43:54Z</time>
  <course>148.62</course>
  <speed>0.02</speed>
  <fix>3d</fix>
</trkpt>
<trkpt lat="-27.274439" lon="151.290064">
  <ele>343.0</ele>
  <time>2026-08-29T20:43:54Z</time>
  <course>0.0</course>
  <speed>0.0</speed>
  <fix>3d</fix>
</trkpt>
<trkpt lat="-27.2744389" lon="151.2900638">
  <ele>343.01</ele>
  <time>2026-08-29T20:43:54Z</time>
  <course>148.56</course>
  <speed>0.02</speed>
  <fix>3d</fix>
</trkpt>
<trkpt lat="-27.274439" lon="151.290064">
  <ele>343.0</ele>
  <time>2026-08-29T20:43:54Z</time>
  <course>0.0</course>
  <speed>0.0</speed>
  <fix>3d</fix>
</trkpt>
<trkpt lat="-27.2744389" lon="151.2900638">
  <ele>342.99</ele>
  <time>2026-08-29T20:43:54Z</time>
  <course>148.51</course>
  <speed>0.02</speed>
  <fix>3d</fix>
</trkpt>
<trkpt lat="-27.274439" lon="151.290064">
  <ele>343.0</ele>
  <time>2026-08-29T20:43:54Z</time>
  <course>0.0</course>
  <speed>0.0</speed>
  <fix>3d</fix>
</trkpt>
<trkpt lat="-27.2744389" lon="151.2900638">
  <ele>342.99</ele>
  <time>2026-08-29T20:43:54Z</time>
  <course>148.46</course>
  <speed>0.02</speed>
  <fix>3d</fix>
</trkpt>
<trkpt lat="-27.274439" lon="151.290064">
  <ele>343.0</ele>
  <time>2026-08-29T20:43:54Z</time>
  <course>0.0</course>
  <speed>0.0</speed>
  <fix>3d</fix>
</trkpt>
<trkpt lat="-27.2744389" lon="151.2900638">
  <ele>342.99</ele>
  <time>2026-08-29T20:43:54Z</time>
  <course>148.41</course>
  <speed>0.02</speed>
  <fix>3d</fix>
</trkpt>
<trkpt lat="-27.274439" lon="151.290064">
  <ele>343.0</ele>
  <time>2026-08-29T20:43:54Z</time>
  <course>0.0</course>
  <speed>0.0</speed>
  <fix>3d</fix>
</trkpt>
<trkpt lat="-27.2744389" lon="151.2900638">
  <ele>343.01</ele>
  <time>2026-08-29T20:43:54Z</time>
  <course>148.36</course>
  <speed>0.02</speed>
  <fix>3d</fix>
</trkpt>
<trkpt lat="-27.274439" lon="151.290064">
  <ele>343.0</ele>
  <time>2026-08-29T20:43:54Z</time>
  <course>0.0</course>
  <speed>0.0</speed>
  <fix>3d</fix>
</trkpt>
<trkpt lat="-27.2744389" lon="151.2900638">
  <ele>343.01</ele>
  <time>2026-08-29T20:43:54Z</time>
  <course>148.32</course>
  <speed>0.02</speed>
  <fix>3d</fix>
</trkpt>
<trkpt lat="-27.274439" lon="151.290064">
  <ele>343.0</ele>
  <time>2026-08-29T20:43:54Z</time>
  <course>0.0</course>
  <speed>0.0</speed>
  <fix>3d</fix>
</trkpt>
<trkpt lat="-27.2744389" lon="151.2900638">
  <ele>343.02</ele>
  <time>2026-08-29T20:43:54Z</time>
  <course>148.27</course>
  <speed>0.02</speed>
  <fix>3d</fix>
</trkpt>
<trkpt lat="-27.274439" lon="151.290064">
  <ele>343.0</ele>
  <time>2026-08-29T20:43:54Z</time>
  <course>0.0</course>
  <speed>0.0</speed>
  <fix>3d</fix>
</trkpt>
<trkpt lat="-27.2744389" lon="151.2900638">
  <ele>343.01</ele>
  <time>2026-08-29T20:43:54Z</time>
  <course>148.23</course>
  <speed>0.02</speed>
  <fix>3d</fix>
</trkpt>
<trkpt lat="-27.274439" lon="151.290064">
  <ele>343.0</ele>
  <time>2026-08-29T20:43:54Z</time>
  <course>0.0</course>
  <speed>0.0</speed>
  <fix>3d</fix>
</trkpt>
<trkpt lat="-27.2744389" lon="151.2900638">
  <ele>343.02</ele>
  <time>2026-08-29T20:43:54Z</time>
  <course>148.19</course>
  <speed>0.02</speed>
  <fix>3d</fix>
</trkpt>
<trkpt lat="-27.274439" lon="151.290064">
  <ele>343.0</ele>
  <time>2026-08-29T20:43:54Z</time>
  <course>0.0</course>
  <speed>0.0</speed>
  <fix>3d</fix>
</trkpt>
<trkpt lat="-27.2744389" lon="151.2900638">
  <ele>343.05</ele>
  <time>2026-08-29T20:43:54Z</time>
  <course>148.15</course>
  <speed>0.02</speed>
  <fix>3d</fix>
</trkpt>
<trkpt lat="-27.274439" lon="151.290064">
  <ele>343.0</ele>
  <time>2026-08-29T20:43:54Z</time>
  <course>0.0</course>
  <speed>0.0</speed>
  <fix>3d</fix>
</trkpt>
<trkpt lat="-27.2744389" lon="151.2900638">
  <ele>343.01</ele>
  <time>2026-08-29T20:43:54Z</time>
  <course>139.88</course>
  <speed>0.02</speed>
  <fix>3d</fix>
</trkpt>
<trkpt lat="-27.274439" lon="151.290064">
  <ele>343.0</ele>
  <time>2026-08-29T20:43:54Z</time>
  <course>0.0</course>
  <speed>0.0</speed>
  <fix>3d</fix>
</trkpt>
<trkpt lat="-27.2744389" lon="151.2900638">
  <ele>343.08</ele>
  <time>2026-08-29T20:43:54Z</time>
  <course>130.73</course>
  <speed>0.01</speed>
  <fix>3d</fix>
</trkpt>
<trkpt lat="-27.274439" lon="151.290064">
  <ele>343.0</ele>
  <time>2026-08-29T20:43:54Z</time>
  <course>0.0</course>
  <speed>0.0</speed>
  <fix>3d</fix>
</trkpt>
<trkpt lat="-27.274439" lon="151.2900638">
  <ele>343.12</ele>
  <time>2026-08-29T20:43:54Z</time>
  <course>121.62</course>
  <speed>0.01</speed>
  <fix>3d</fix>
</trkpt>
<trkpt lat="-27.274439" lon="151.290064">
  <ele>343.0</ele>
  <time>2026-08-29T20:43:54Z</time>
  <course>0.0</course>
  <speed>0.0</speed>
  <fix>3d</fix>
</trkpt>
<trkpt lat="-27.274439" lon="151.2900638">
  <ele>343.15</ele>
  <time>2026-08-29T20:43:54Z</time>
  <course>112.53</course>
  <speed>0.01414213562373095</speed>
  <fix>3d</fix>
</trkpt>
<trkpt lat="-27.274439" lon="151.290064">
  <ele>343.0</ele>
  <time>2026-08-29T20:43:54Z</time>
  <course>0.0</course>
  <speed>0.0</speed>
  <fix>3d</fix>
</trkpt>
<trkpt lat="-27.2744391" lon="151.2900638">
  <ele>343.18</ele>
  <time>2026-08-29T20:43:54Z</time>
  <course>103.47</course>
  <speed>0.0282842712474619</speed>
  <fix>3d</fix>
</trkpt>
<trkpt lat="-27.274439" lon="151.290064">
  <ele>343.0</ele>
  <time>2026-08-29T20:43:54Z</time>
  <course>0.0</course>
  <speed>0.0</speed>
  <fix>3d</fix>
</trkpt>
<trkpt lat="-27.2744391" lon="151.2900638">
  <ele>343.19</ele>
  <time>2026-08-29T20:43:54Z</time>
  <course>94.41</course>
  <speed>0.04242640687119285</speed>
  <fix>3d</fix>
</trkpt>
<trkpt lat="-27.274439" lon="151.290064">
  <ele>343.0</ele>
  <time>2026-08-29T20:43:54Z</time>
  <course>0.0</course>
  <speed>0.0</speed>
  <fix>3d</fix>
</trkpt>
<trkpt lat="-27.2744392" lon="151.2900637">
  <ele>343.22</ele>
  <time>2026-08-29T20:43:54Z</time>
  <course>85.39</course>
  <speed>0.05</speed>
  <fix>3d</fix>
</trkpt>
<trkpt lat="-27.274439" lon="151.290064">
  <ele>343.0</ele>
  <time>2026-08-29T20:43:54Z</time>
  <course>0.0</course>
  <speed>0.0</speed>
  <fix>3d</fix>
</trkpt>
<trkpt lat="-27.274439" lon="151.290064">
  <ele>343.0</ele>
  <time>2026-08-29T20:43:54Z</time>
  <course>325.88</course>
  <speed>0.0</speed>
  <fix>3d</fix>
</trkpt>
<trkpt lat="-27.274439" lon="151.290064">
  <ele>343.0</ele>
  <time>2026-08-29T20:43:54Z</time>
  <course>324.43</course>
  <speed>0.0</speed>
  <fix>3d</fix>
</trkpt>
<trkpt lat="-27.274439" lon="151.290064">
  <ele>343.0</ele>
  <time>2026-08-29T20:43:54Z</time>
  <course>321.86</course>
  <speed>0.0</speed>
  <fix>3d</fix>
</trkpt>
<trkpt lat="-27.274439" lon="151.290064">
  <ele>343.0</ele>
  <time>2026-08-29T20:43:54Z</time>
  <course>295.0</course>
  <speed>0.0</speed>
  <fix>3d</fix>
</trkpt>
<trkpt lat="-27.274439" lon="151.290064">
  <ele>343.0</ele>
  <time>2026-08-29T20:43:54Z</time>
  <course>290.72</course>
  <speed>0.0</speed>
  <fix>3d</fix>
</trkpt>
<trkpt lat="-27.274439" lon="151.290064">
  <ele>343.0</ele>
  <time>2026-08-29T20:43:54Z</time>
  <course>284.84</course>
  <speed>0.0</speed>
  <fix>3d</fix>
</trkpt>
<trkpt lat="-27.274439" lon="151.290064">
  <ele>343.0</ele>
  <time>2026-08-29T20:43:54Z</time>
  <course>277.79</course>
  <speed>0.0</speed>
  <fix>3d</fix>
</trkpt>
<trkpt lat="-27.274439" lon="151.290064">
  <ele>343.0</ele>
  <time>2026-08-29T20:43:54Z</time>
  <course>269.55</course>
  <speed>0.0</speed>
  <fix>3d</fix>
</trkpt>
<trkpt lat="-27.274439" lon="151.290064">
  <ele>343.0</ele>
  <time>2026-08-29T20:43:54Z</time>
  <course>262.16</course>
  <speed>0.9176055797563569</speed>
  <fix>3d</fix>
</trkpt>
<trkpt lat="-27.274439" lon="151.290064">
  <ele>343.0</ele>
  <time>2026-08-29T20:43:54Z</time>
  <course>0.0</course>
  <speed>0.0</speed>
  <fix>3d</fix>
</trkpt>
<trkpt lat="-27.274439" lon="151.290064">
  <ele>343.0</ele>
  <time>2026-08-29T20:43:54Z</time>
  <course>256.4</course>
  <speed>0.9403190947758107</speed>
  <fix>3d</fix>
</trkpt>
<trkpt lat="-27.274439" lon="151.290064">
  <ele>343.0</ele>
  <time>2026-08-29T20:43:54Z</time>
  <course>0.0</course>
  <speed>0.0</speed>
  <fix>3d</fix>
</trkpt>
<trkpt lat="-27.274439" lon="151.290064">
  <ele>343.0</ele>
  <time>2026-08-29T20:43:54Z</time>
  <course>249.45</course>
  <speed>0.756042326857432</speed>
  <fix>3d</fix>
</trkpt>
<trkpt lat="-27.274439" lon="151.290064">
  <ele>343.0</ele>
  <time>2026-08-29T20:43:54Z</time>
  <course>0.0</course>
  <speed>0.0</speed>
  <fix>3d</fix>
</trkpt>
<trkpt lat="-27.274439" lon="151.290064">
  <ele>343.0</ele>
  <time>2026-08-29T20:43:54Z</time>
  <course>241.79</course>
  <speed>0.6596969000988256</speed>
  <fix>3d</fix>
</trkpt>
<trkpt lat="-27.274439" lon="151.290064">
  <ele>343.0</ele>
  <time>2026-08-29T20:43:54Z</time>
  <course>0.0</course>
  <speed>0.0</speed>
  <fix>3d</fix>
</trkpt>
<trkpt lat="-27.274439" lon="151.290064">
  <ele>343.0</ele>
  <time>2026-08-29T20:43:54Z</time>
  <course>233.59</course>
  <speed>0.6618912297349165</speed>
  <fix>3d</fix>
</trkpt>
<trkpt lat="-27.274439" lon="151.290064">
  <ele>343.0</ele>
  <time>2026-08-29T20:43:54Z</time>
  <course>0.0</course>
  <speed>0.0</speed>
  <fix>3d</fix>
</trkpt>
<trkpt lat="-27.274439" lon="151.290064">
  <ele>343.0</ele>
  <time>2026-08-29T20:43:54Z</time>
  <course>225.02</course>
  <speed>0.7034202158027589</speed>
  <fix>3d</fix>
</trkpt>
<trkpt lat="-27.274439" lon="151.290064">
  <ele>343.0</ele>
  <time>2026-08-29T20:43:54Z</time>
  <course>0.0</course>
  <speed>0.0</speed>
  <fix>3d</fix>
</trkpt>
<trkpt lat="-27.274439" lon="151.290064">
  <ele>343.0</ele>
  <time>2026-08-29T20:43:54Z</time>
  <course>216.17</course>
  <speed>0.7539230729988305</speed>
  <fix>3d</fix>
</trkpt>
<trkpt lat="-27.274439" lon="151.290064">
  <ele>343.0</ele>
  <time>2026-08-29T20:43:54Z</time>
  <course>0.0</course>
  <speed>0.0</speed>
  <fix>3d</fix>
</trkpt>
<trkpt lat="-27.274439" lon="151.290064">
  <ele>343.0</ele>
  <time>2026-08-29T20:43:54Z</time>
  <course>206.93</course>
  <speed>0.3721558813185679</speed>
  <fix>3d</fix>
</trkpt>
<trkpt lat="-27.274439" lon="151.290064">
  <ele>343.0</ele>
  <time>2026-08-29T20:43:54Z</time>
  <course>0.0</course>
  <speed>0.0</speed>
  <fix>3d</fix>
</trkpt>
<trkpt lat="-27.274439" lon="151.290064">
  <ele>343.0</ele>
  <time>2026-08-29T20:43:54Z</time>
  <course>197.48</course>
  <speed>0.11661903789690602</speed>
  <fix>3d</fix>
</trkpt>
<trkpt lat="-27.274439" lon="151.290064">
  <ele>343.0</ele>
  <time>2026-08-29T20:43:54Z</time>
  <course>0.0</course>
  <speed>0.0</speed>
  <fix>3d</fix>
</trkpt>
<trkpt lat="-27.274439" lon="151.290064">
  <ele>343.0</ele>
  <time>2026-08-29T20:43:54Z</time>
  <course>188.05</course>
  <speed>0.10770329614269007</speed>
  <fix>3d</fix>
</trkpt>
<trkpt lat="-27.274439" lon="151.290064">
  <ele>343.0</ele>
  <time>2026-08-29T20:43:54Z</time>
  <course>0.0</course>
  <speed>0.0</speed>
  <fix>3d</fix>
</trkpt>
<trkpt lat="-27.274439" lon="151.290064">
  <ele>343.0</ele>
  <time>2026-08-29T20:43:54Z</time>
  <course>178.62</course>
  <speed>0.11704699910719625</speed>
  <fix>3d</fix>
</trkpt>
<trkpt lat="-27.274439" lon="151.290064">
  <ele>343.0</ele>
  <time>2026-08-29T20:43:54Z</time>
  <course>0.0</course>
  <speed>0.0</speed>
  <fix>3d</fix>
</trkpt>
<trkpt lat="-27.274439" lon="151.290064">
  <ele>343.0</ele>
  <time>2026-08-29T20:43:54Z</time>
  <course>325.88</course>
  <speed>0.0</speed>
  <fix>3d</fix>
</trkpt>
<trkpt lat="-27.274439" lon="151.290064">
  <ele>343.0</ele>
  <time>2026-08-29T20:43:54Z</time>
  <course>324.43</course>
  <speed>0.0</speed>
  <fix>3d</fix>
</trkpt>
<trkpt lat="-27.274439" lon="151.290064">
  <ele>343.0</ele>
  <time>2026-08-29T20:43:54Z</time>
  <course>321.86</course>
  <speed>0.0</speed>
  <fix>3d</fix>
</trkpt>
<trkpt lat="-27.274439" lon="151.290064">
  <ele>343.0</ele>
  <time>2026-08-29T20:43:54Z</time>
  <course>295.0</course>
  <speed>0.0</speed>
  <fix>3d</fix>
</trkpt>
<trkpt lat="-27.274439" lon="151.290064">
  <ele>343.0</ele>
  <time>2026-08-29T20:43:54Z</time>
  <course>290.72</course>
  <speed>0.0</speed>
  <fix>3d</fix>
</trkpt>
<trkpt lat="-27.274439" lon="151.290064">
  <ele>343.0</ele>
  <time>2026-08-29T20:43:54Z</time>
  <course>284.84</course>
  <speed>0.0</speed>
  <fix>3d</fix>
</trkpt>
<trkpt lat="-27.274439" lon="151.290064">
  <ele>343.0</ele>
  <time>2026-08-29T20:43:54Z</time>
  <course>277.79</course>
  <speed>0.0</speed>
  <fix>3d</fix>
</trkpt>
<trkpt lat="-27.274439" lon="151.290064">
  <ele>343.0</ele>
  <time>2026-08-29T20:43:54Z</time>
  <course>269.55</course>
  <speed>0.0</speed>
  <fix>3d</fix>
</trkpt>
<trkpt lat="-27.274439" lon="151.290064">
  <ele>343.0</ele>
  <time>2026-08-29T20:43:54Z</time>
  <course>262.16</course>
  <speed>0.9176055797563569</speed>
  <fix>3d</fix>
</trkpt>
<trkpt lat="-27.274439" lon="151.290064">
  <ele>343.0</ele>
  <time>2026-08-29T20:43:54Z</time>
  <course>0.0</course>
  <speed>0.0</speed>
  <fix>3d</fix>
</trkpt>
<trkpt lat="-27.274439" lon="151.290064">
  <ele>343.0</ele>
  <time>2026-08-29T20:43:54Z</time>
  <course>256.4</course>
  <speed>0.9403190947758107</speed>
  <fix>3d</fix>
</trkpt>
<trkpt lat="-27.274439" lon="151.290064">
  <ele>343.0</ele>
  <time>2026-08-29T20:43:54Z</time>
  <course>0.0</course>
  <speed>0.0</speed>
  <fix>3d</fix>
</trkpt>
<trkpt lat="-27.274439" lon="151.290064">
  <ele>343.0</ele>
  <time>2026-08-29T20:43:54Z</time>
  <course>249.45</course>
  <speed>0.756042326857432</speed>
  <fix>3d</fix>
</trkpt>
<trkpt lat="-27.274439" lon="151.290064">
  <ele>343.0</ele>
  <time>2026-08-29T20:43:54Z</time>
  <course>0.0</course>
  <speed>0.0</speed>
  <fix>3d</fix>
</trkpt>
<trkpt lat="-27.274439" lon="151.290064">
  <ele>343.0</ele>
  <time>2026-08-29T20:43:54Z</time>
  <course>241.79</course>
  <speed>0.6596969000988256</speed>
  <fix>3d</fix>
</trkpt>
<trkpt lat="-27.274439" lon="151.290064">
  <ele>343.0</ele>
  <time>2026-08-29T20:43:54Z</time>
  <course>0.0</course>
  <speed>0.0</speed>
  <fix>3d</fix>
</trkpt>
<trkpt lat="-27.274439" lon="151.290064">
  <ele>343.0</ele>
  <time>2026-08-29T20:43:54Z</time>
  <course>233.59</course>
  <speed>0.6618912297349165</speed>
  <fix>3d</fix>
</trkpt>
<trkpt lat="-27.274439" lon="151.290064">
  <ele>343.0</ele>
  <time>2026-08-29T20:43:54Z</time>
  <course>0.0</course>
  <speed>0.0</speed>
  <fix>3d</fix>
</trkpt>
<trkpt lat="-27.274439" lon="151.290064">
  <ele>343.0</ele>
  <time>2026-08-29T20:43:54Z</time>
  <course>225.02</course>
  <speed>0.7034202158027589</speed>
  <fix>3d</fix>
</trkpt>
<trkpt lat="-27.274439" lon="151.290064">
  <ele>343.0</ele>
  <time>2026-08-29T20:43:54Z</time>
  <course>0.0</course>
  <speed>0.0</speed>
  <fix>3d</fix>
</trkpt>
<trkpt lat="-27.274439" lon="151.290064">
  <ele>343.0</ele>
  <time>2026-08-29T20:43:55Z</time>
  <course>207.13</course>
  <speed>0.8052949770115296</speed>
  <fix>3d</fix>
</trkpt>
<trkpt lat="-27.274439" lon="151.290064">
  <ele>343.0</ele>
  <time>2026-08-29T20:43:55Z</time>
  <course>0.0</course>
  <speed>0.0</speed>
  <fix>3d</fix>
</trkpt>
<trkpt lat="-27.274439" lon="151.290064">
  <ele>343.0</ele>
  <time>2026-08-29T20:43:55Z</time>
  <course>197.95</course>
  <speed>0.8453401682163222</speed>
  <fix>3d</fix>
</trkpt>
<trkpt lat="-27.274439" lon="151.290064">
  <ele>343.0</ele>
  <time>2026-08-29T20:43:55Z</time>
  <course>0.0</course>
  <speed>0.0</speed>
  <fix>3d</fix>
</trkpt>
<trkpt lat="-27.274439" lon="151.290064">
  <ele>343.0</ele>
  <time>2026-08-29T20:43:55Z</time>
  <course>188.67</course>
  <speed>0.878179936004006</speed>
  <fix>3d</fix>
</trkpt>
<trkpt lat="-27.274439" lon="151.290064">
  <ele>343.0</ele>
  <time>2026-08-29T20:43:55Z</time>
  <course>0.0</course>
  <speed>0.0</speed>
  <fix>3d</fix>
</trkpt>
<trkpt lat="-27.274439" lon="151.290064">
  <ele>343.0</ele>
  <time>2026-08-29T20:43:55Z</time>
  <course>179.31</course>
  <speed>0.8848163651289458</speed>
  <fix>3d</fix>
</trkpt>
<trkpt lat="-27.274439" lon="151.290064">
  <ele>343.0</ele>
  <time>2026-08-29T20:43:55Z</time>
  <course>0.0</course>
  <speed>0.0</speed>
  <fix>3d</fix>
</trkpt>
<trkpt lat="-27.274439" lon="151.290064">
  <ele>343.0</ele>
  <time>2026-08-29T20:43:55Z</time>
  <course>169.93</course>
  <speed>0.9140021881811882</speed>
  <fix>3d</fix>
</trkpt>
<trkpt lat="-27.274439" lon="151.290064">
  <ele>343.0</ele>
  <time>2026-08-29T20:43:55Z</time>
  <course>0.0</course>
  <speed>0.0</speed>
  <fix>3d</fix>
</trkpt>
<trkpt lat="-27.274439" lon="151.290064">
  <ele>343.0</ele>
  <time>2026-08-29T20:43:55Z</time>
  <course>161.9</course>
  <speed>0.9219544457292888</speed>
  <fix>3d</fix>
</trkpt>
<trkpt lat="-27.274439" lon="151.290064">
  <ele>343.0</ele>
  <time>2026-08-29T20:43:55Z</time>
  <course>0.0</course>
  <speed>0.0</speed>
  <fix>3d</fix>
</trkpt>
<trkpt lat="-27.274439" lon="151.290064">
  <ele>343.0</ele>
  <time>2026-08-29T20:43:55Z</time>
  <course>158.55</course>
  <speed>0.9411163583744573</speed>
  <fix>3d</fix>
</trkpt>
<trkpt lat="-27.274439" lon="151.290064">
  <ele>343.0</ele>
  <time>2026-08-29T20:43:55Z</time>
  <course>0.0</course>
  <speed>0.0</speed>
  <fix>3d</fix>
</trkpt>
<trkpt lat="-27.274439" lon="151.290064">
  <ele>343.0</ele>
  <time>2026-08-29T20:43:55Z</time>
  <course>157.2</course>
  <speed>0.9546203433826455</speed>
  <fix>3d</fix>
</trkpt>
<trkpt lat="-27.274439" lon="151.290064">
  <ele>343.0</ele>
  <time>2026-08-29T20:43:55Z</time>
  <course>0.0</course>
  <speed>0.0</speed>
  <fix>3d</fix>
</trkpt>
<trkpt lat="-27.274439" lon="151.290064">
  <ele>343.0</ele>
  <time>2026-08-29T20:43:55Z</time>
  <course>156.57</course>
  <speed>0.9642613753542137</speed>
  <fix>3d</fix>
</trkpt>
<trkpt lat="-27.274439" lon="151.290064">
  <ele>343.0</ele>
  <time>2026-08-29T20:43:55Z</time>
  <course>0.0</course>
  <speed>0.0</speed>
  <fix>3d</fix>
</trkpt>
<trkpt lat="-27.274439" lon="151.290064">
  <ele>343.0</ele>
  <time>2026-08-29T20:43:55Z</time>
  <course>156.21</course>
  <speed>0.9602083107326242</speed>
  <fix>3d</fix>
</trkpt>
<trkpt lat="-27.274439" lon="151.290064">
  <ele>343.0</ele>
  <time>2026-08-29T20:43:55Z</time>
  <course>0.0</course>
  <speed>0.0</speed>
  <fix>3d</fix>
</trkpt>
<trkpt lat="-27.274439" lon="151.290064">
  <ele>343.0</ele>
  <time>2026-08-29T20:43:55Z</time>
  <course>155.95</course>
  <speed>0.9689685237405805</speed>
  <fix>3d</fix>
</trkpt>
<trkpt lat="-27.274439" lon="151.290064">
  <ele>343.0</ele>
  <time>2026-08-29T20:43:55Z</time>
  <course>0.0</course>
  <speed>0.0</speed>
  <fix>3d</fix>
</trkpt>
<trkpt lat="-27.274439" lon="151.290064">
  <ele>343.0</ele>
  <time>2026-08-29T20:43:55Z</time>
  <course>155.71</course>
  <speed>0.9800510190801294</speed>
  <fix>3d</fix>
</trkpt>
<trkpt lat="-27.274439" lon="151.290064">
  <ele>343.0</ele>
  <time>2026-08-29T20:43:55Z</time>
  <course>0.0</course>
  <speed>0.0</speed>
  <fix>3d</fix>
</trkpt>
<trkpt lat="-27.274439" lon="151.290064">
  <ele>343.0</ele>
  <time>2026-08-29T20:43:55Z</time>
  <course>155.49</course>
  <speed>0.9972963451251589</speed>
  <fix>3d</fix>
</trkpt>
<trkpt lat="-27.274439" lon="151.290064">
  <ele>343.0</ele>
  <time>2026-08-29T20:43:55Z</time>
  <course>0.0</course>
  <speed>0.0</speed>
  <fix>3d</fix>
</trkpt>
<trkpt lat="-27.274439" lon="151.290064">
  <ele>343.0</ele>
  <time>2026-08-29T20:43:55Z</time>
  <course>147.04</course>
  <speed>0.5385164807134504</speed>
  <fix>3d</fix>
</trkpt>
<trkpt lat="-27.274439" lon="151.290064">
  <ele>343.0</ele>
  <time>2026-08-29T20:43:55Z</time>
  <course>0.0</course>
  <speed>0.0</speed>
  <fix>3d</fix>
</trkpt>
<trkpt lat="-27.274439" lon="151.290064">
  <ele>343.0</ele>
  <time>2026-08-29T20:43:55Z</time>
  <course>137.52</course>
  <speed>0.23</speed>
  <fix>3d</fix>
</trkpt>
<trkpt lat="-27.274439" lon="151.290064">
  <ele>343.0</ele>
  <time>2026-08-29T20:43:55Z</time>
  <course>0.0</course>
  <speed>0.0</speed>
  <fix>3d</fix>
</trkpt>
<trkpt lat="-27.274439" lon="151.290064">
  <ele>343.0</ele>
  <time>2026-08-29T20:43:55Z</time>
  <course>128.06</course>
  <speed>0.1063014581273465</speed>
  <fix>3d</fix>
</trkpt>
<trkpt lat="-27.274439" lon="151.290064">
  <ele>343.0</ele>
  <time>2026-08-29T20:43:55Z</time>
  <course>0.0</course>
  <speed>0.0</speed>
  <fix>3d</fix>
</trkpt>
<trkpt lat="-27.274439" lon="151.290064">
  <ele>343.0</ele>
  <time>2026-08-29T20:43:55Z</time>
  <course>118.63</course>
  <speed>0.0854400374531753</speed>
  <fix>3d</fix>
</trkpt>
<trkpt lat="-27.274439" lon="151.290064">
  <ele>343.0</ele>
  <time>2026-08-29T20:43:55Z</time>
  <course>0.0</course>
  <speed>0.0</speed>
  <fix>3d</fix>
</trkpt>
<trkpt lat="-27.274439" lon="151.290064">
  <ele>343.0</ele>
  <time>2026-08-29T20:43:55Z</time>
  <course>109.25</course>
  <speed>0.0632455532033676</speed>
  <fix>3d</fix>
</trkpt>
<trkpt lat="-27.274439" lon="151.290064">
  <ele>343.0</ele>
  <time>2026-08-29T20:43:55Z</time>
  <course>0.0</course>
  <speed>0.0</speed>
  <fix>3d</fix>
</trkpt>
<trkpt lat="-27.274439" lon="151.290064">
  <ele>343.0</ele>
  <time>2026-08-29T20:43:55Z</time>
  <course>99.92</course>
  <speed>0.03605551275463989</speed>
  <fix>3d</fix>
</trkpt>
<trkpt lat="-27.274439" lon="151.290064">
  <ele>343.0</ele>
  <time>2026-08-29T20:43:55Z</time>
  <course>0.0</course>
  <speed>0.0</speed>
  <fix>3d</fix>
</trkpt>
<trkpt lat="-27.274439" lon="151.290064">
  <ele>343.0</ele>
  <time>2026-08-29T20:43:55Z</time>
  <course>90.64</course>
  <speed>0.03</speed>
  <fix>3d</fix>
</trkpt>
<trkpt lat="-27.274439" lon="151.290064">
  <ele>343.0</ele>
  <time>2026-08-29T20:43:55Z</time>
  <course>0.0</course>
  <speed>0.0</speed>
  <fix>3d</fix>
</trkpt>
<trkpt lat="-27.274439" lon="151.290064">
  <ele>343.0</ele>
  <time>2026-08-29T20:43:55Z</time>
  <course>325.88</course>
  <speed>0.0</speed>
  <fix>3d</fix>
</trkpt>
<trkpt lat="-27.274439" lon="151.290064">
  <ele>343.0</ele>
  <time>2026-08-29T20:43:55Z</time>
  <course>324.43</course>
  <speed>0.0</speed>
  <fix>3d</fix>
</trkpt>
<trkpt lat="-27.274439" lon="151.290064">
  <ele>343.0</ele>
  <time>2026-08-29T20:43:55Z</time>
  <course>321.86</course>
  <speed>0.0</speed>
  <fix>3d</fix>
</trkpt>
<trkpt lat="-27.274439" lon="151.290064">
  <ele>343.0</ele>
  <time>2026-08-29T20:43:55Z</time>
  <course>295.0</course>
  <speed>0.0</speed>
  <fix>3d</fix>
</trkpt>
<trkpt lat="-27.274439" lon="151.290064">
  <ele>343.0</ele>
  <time>2026-08-29T20:43:55Z</time>
  <course>290.72</course>
  <speed>0.0</speed>
  <fix>3d</fix>
</trkpt>
<trkpt lat="-27.274439" lon="151.290064">
  <ele>343.0</ele>
  <time>2026-08-29T20:43:55Z</time>
  <course>284.84</course>
  <speed>0.0</speed>
  <fix>3d</fix>
</trkpt>
<trkpt lat="-27.274439" lon="151.290064">
  <ele>343.0</ele>
  <time>2026-08-29T20:43:56Z</time>
  <course>277.79</course>
  <speed>0.0</speed>
  <fix>3d</fix>
</trkpt>
<trkpt lat="-27.274439" lon="151.290064">
  <ele>343.0</ele>
  <time>2026-08-29T20:43:56Z</time>
  <course>269.55</course>
  <speed>0.0</speed>
  <fix>3d</fix>
</trkpt>
<trkpt lat="-27.274439" lon="151.290064">
  <ele>343.0</ele>
  <time>2026-08-29T20:43:56Z</time>
  <course>262.16</course>
  <speed>0.9176055797563569</speed>
  <fix>3d</fix>
</trkpt>
<trkpt lat="-27.274439" lon="151.290064">
  <ele>343.0</ele>
  <time>2026-08-29T20:43:56Z</time>
  <course>0.0</course>
  <speed>0.0</speed>
  <fix>3d</fix>
</trkpt>
<trkpt lat="-27.274439" lon="151.290064">
  <ele>343.0</ele>
  <time>2026-08-29T20:43:56Z</time>
  <course>256.4</course>
  <speed>0.9403190947758107</speed>
  <fix>3d</fix>
</trkpt>
<trkpt lat="-27.274439" lon="151.290064">
  <ele>343.0</ele>
  <time>2026-08-29T20:43:56Z</time>
  <course>0.0</course>
  <speed>0.0</speed>
  <fix>3d</fix>
</trkpt>
<trkpt lat="-27.274439" lon="151.290064">
  <ele>343.0</ele>
  <time>2026-08-29T20:43:56Z</time>
  <course>249.45</course>
  <speed>0.756042326857432</speed>
  <fix>3d</fix>
</trkpt>
<trkpt lat="-27.274439" lon="151.290064">
  <ele>343.0</ele>
  <time>2026-08-29T20:43:56Z</time>
  <course>0.0</course>
  <speed>0.0</speed>
  <fix>3d</fix>
</trkpt>
<trkpt lat="-27.274439" lon="151.290064">
  <ele>343.0</ele>
  <time>2026-08-29T20:43:56Z</time>
  <course>241.79</course>
  <speed>0.6596969000988256</speed>
  <fix>3d</fix>
</trkpt>
<trkpt lat="-27.274439" lon="151.290064">
  <ele>343.0</ele>
  <time>2026-08-29T20:43:56Z</time>
  <course>0.0</course>
  <speed>0.0</speed>
  <fix>3d</fix>
</trkpt>
<trkpt lat="-27.274439" lon="151.290064">
  <ele>343.0</ele>
  <time>2026-08-29T20:43:56Z</time>
  <course>233.59</course>
  <speed>0.6618912297349165</speed>
  <fix>3d</fix>
</trkpt>
<trkpt lat="-27.274439" lon="151.290064">
  <ele>343.0</ele>
  <time>2026-08-29T20:43:56Z</time>
  <course>0.0</course>
  <speed>0.0</speed>
  <fix>3d</fix>
</trkpt>
<trkpt lat="-27.274439" lon="151.290064">
  <ele>343.0</ele>
  <time>2026-08-29T20:43:56Z</time>
  <course>225.02</course>
  <speed>0.7034202158027589</speed>
  <fix>3d</fix>
</trkpt>
<trkpt lat="-27.274439" lon="151.290064">
  <ele>343.0</ele>
  <time>2026-08-29T20:43:56Z</time>
  <course>0.0</course>
  <speed>0.0</speed>
  <fix>3d</fix>
</trkpt>
<trkpt lat="-27.274439" lon="151.290064">
  <ele>343.0</ele>
  <time>2026-08-29T20:43:56Z</time>
  <course>216.17</course>
  <speed>0.7539230729988305</speed>
  <fix>3d</fix>
</trkpt>
<trkpt lat="-27.274439" lon="151.290064">
  <ele>343.0</ele>
  <time>2026-08-29T20:43:56Z</time>
  <course>0.0</course>
  <speed>0.0</speed>
  <fix>3d</fix>
</trkpt>
<trkpt lat="-27.274439" lon="151.290064">
  <ele>343.0</ele>
  <time>2026-08-29T20:43:56Z</time>
  <course>207.13</course>
  <speed>0.8052949770115296</speed>
  <fix>3d</fix>
</trkpt>
<trkpt lat="-27.274439" lon="151.290064">
  <ele>343.0</ele>
  <time>2026-08-29T20:43:56Z</time>
  <course>0.0</course>
  <speed>0.0</speed>
  <fix>3d</fix>
</trkpt>
<trkpt lat="-27.274439" lon="151.290064">
  <ele>343.0</ele>
  <time>2026-08-29T20:43:56Z</time>
  <course>197.95</course>
  <speed>0.8453401682163222</speed>
  <fix>3d</fix>
</trkpt>
<trkpt lat="-27.274439" lon="151.290064">
  <ele>343.0</ele>
  <time>2026-08-29T20:43:56Z</time>
  <course>0.0</course>
  <speed>0.0</speed>
  <fix>3d</fix>
</trkpt>
<trkpt lat="-27.274439" lon="151.290064">
  <ele>343.0</ele>
  <time>2026-08-29T20:43:56Z</time>
  <course>188.67</course>
  <speed>0.878179936004006</speed>
  <fix>3d</fix>
</trkpt>
<trkpt lat="-27.274439" lon="151.290064">
  <ele>343.0</ele>
  <time>2026-08-29T20:43:56Z</time>
  <course>0.0</course>
  <speed>0.0</speed>
  <fix>3d</fix>
</trkpt>
<trkpt lat="-27.274439" lon="151.290064">
  <ele>343.0</ele>
  <time>2026-08-29T20:43:56Z</time>
  <course>179.13</course>
  <speed>0.43266615305567874</speed>
  <fix>3d</fix>
</trkpt>
<trkpt lat="-27.274439" lon="151.290064">
  <ele>343.0</ele>
  <time>2026-08-29T20:43:56Z</time>
  <course>0.0</course>
  <speed>0.0</speed>
  <fix>3d</fix>
</trkpt>
<trkpt lat="-27.274439" lon="151.290064">
  <ele>343.0</ele>
  <time>2026-08-29T20:43:56Z</time>
  <course>169.57</course>
  <speed>0.15</speed>
  <fix>3d</fix>
</trkpt>
<trkpt lat="-27.274439" lon="151.290064">
  <ele>343.0</ele>
  <time>2026-08-29T20:43:56Z</time>
  <course>0.0</course>
  <speed>0.0</speed>
  <fix>3d</fix>
</trkpt>
<trkpt lat="-27.274439" lon="151.290064">
  <ele>343.0</ele>
  <time>2026-08-29T20:43:56Z</time>
  <course>160.08</course>
  <speed>0.11401754250991379</speed>
  <fix>3d</fix>
</trkpt>
<trkpt lat="-27.274439" lon="151.290064">
  <ele>343.0</ele>
  <time>2026-08-29T20:43:56Z</time>
  <course>0.0</course>
  <speed>0.0</speed>
  <fix>3d</fix>
</trkpt>
<trkpt lat="-27.274439" lon="151.290064">
  <ele>343.0</ele>
  <time>2026-08-29T20:43:56Z</time>
  <course>150.62</course>
  <speed>0.1345362404707371</speed>
  <fix>3d</fix>
</trkpt>
<trkpt lat="-27.274439" lon="151.290064">
  <ele>343.0</ele>
  <time>2026-08-29T20:43:56Z</time>
  <course>0.0</course>
  <speed>0.0</speed>
  <fix>3d</fix>
</trkpt>
<trkpt lat="-27.274439" lon="151.290064">
  <ele>343.0</ele>
  <time>2026-08-29T20:43:56Z</time>
  <course>325.88</course>
  <speed>0.0</speed>
  <fix>3d</fix>
</trkpt>
<trkpt lat="-27.274439" lon="151.290064">
  <ele>343.0</ele>
  <time>2026-08-29T20:43:56Z</time>
  <course>324.43</course>
  <speed>0.0</speed>
  <fix>3d</fix>
</trkpt>
<trkpt lat="-27.274439" lon="151.290064">
  <ele>343.0</ele>
  <time>2026-08-29T20:43:56Z</time>
  <course>321.86</course>
  <speed>0.0</speed>
  <fix>3d</fix>
</trkpt>
<trkpt lat="-27.274439" lon="151.290064">
  <ele>343.0</ele>
  <time>2026-08-29T20:43:56Z</time>
  <course>295.0</course>
  <speed>0.0</speed>
  <fix>3d</fix>
</trkpt>
<trkpt lat="-27.274439" lon="151.290064">
  <ele>343.0</ele>
  <time>2026-08-29T20:43:56Z</time>
  <course>290.72</course>
  <speed>0.0</speed>
  <fix>3d</fix>
</trkpt>
<trkpt lat="-27.274439" lon="151.290064">
  <ele>343.0</ele>
  <time>2026-08-29T20:43:56Z</time>
  <course>284.84</course>
  <speed>0.0</speed>
  <fix>3d</fix>
</trkpt>
<trkpt lat="-27.274439" lon="151.290064">
  <ele>343.0</ele>
  <time>2026-08-29T20:43:56Z</time>
  <course>277.79</course>
  <speed>0.0</speed>
  <fix>3d</fix>
</trkpt>
<trkpt lat="-27.274439" lon="151.290064">
  <ele>343.0</ele>
  <time>2026-08-29T20:43:56Z</time>
  <course>269.55</course>
  <speed>0.0</speed>
  <fix>3d</fix>
</trkpt>
<trkpt lat="-27.274439" lon="151.290064">
  <ele>343.0</ele>
  <time>2026-08-29T20:43:56Z</time>
  <course>262.16</course>
  <speed>0.9176055797563569</speed>
  <fix>3d</fix>
</trkpt>
<trkpt lat="-27.274439" lon="151.290064">
  <ele>343.0</ele>
  <time>2026-08-29T20:43:56Z</time>
  <course>0.0</course>
  <speed>0.0</speed>
  <fix>3d</fix>
</trkpt>
<trkpt lat="-27.274439" lon="151.290064">
  <ele>343.0</ele>
  <time>2026-08-29T20:43:56Z</time>
  <course>256.4</course>
  <speed>0.9403190947758107</speed>
  <fix>3d</fix>
</trkpt>
<trkpt lat="-27.274439" lon="151.290064">
  <ele>343.0</ele>
  <time>2026-08-29T20:43:56Z</time>
  <course>0.0</course>
  <speed>0.0</speed>
  <fix>3d</fix>
</trkpt>
<trkpt lat="-27.274439" lon="151.290064">
  <ele>343.0</ele>
  <time>2026-08-29T20:43:56Z</time>
  <course>249.45</course>
  <speed>0.756042326857432</speed>
  <fix>3d</fix>
</trkpt>
<trkpt lat="-27.274439" lon="151.290064">
  <ele>343.0</ele>
  <time>2026-08-29T20:43:56Z</time>
  <course>0.0</course>
  <speed>0.0</speed>
  <fix>3d</fix>
</trkpt>
<trkpt lat="-27.274439" lon="151.290064">
  <ele>343.0</ele>
  <time>2026-08-29T20:43:56Z</time>
  <course>241.79</course>
  <speed>0.6596969000988256</speed>
  <fix>3d</fix>
</trkpt>
<trkpt lat="-27.274439" lon="151.290064">
  <ele>343.0</ele>
  <time>2026-08-29T20:43:56Z</time>
  <course>0.0</course>
  <speed>0.0</speed>
  <fix>3d</fix>
</trkpt>
<trkpt lat="-27.274439" lon="151.290064">
  <ele>343.0</ele>
  <time>2026-08-29T20:43:56Z</time>
  <course>233.59</course>
  <speed>0.6618912297349165</speed>
  <fix>3d</fix>
</trkpt>
<trkpt lat="-27.274439" lon="151.290064">
  <ele>343.0</ele>
  <time>2026-08-29T20:43:56Z</time>
  <course>0.0</course>
  <speed>0.0</speed>
  <fix>3d</fix>
</trkpt>
<trkpt lat="-27.274439" lon="151.290064">
  <ele>343.0</ele>
  <time>2026-08-29T20:43:56Z</time>
  <course>225.02</course>
  <speed>0.7034202158027589</speed>
  <fix>3d</fix>
</trkpt>
<trkpt lat="-27.274439" lon="151.290064">
  <ele>343.0</ele>
  <time>2026-08-29T20:43:56Z</time>
  <course>0.0</course>
  <speed>0.0</speed>
  <fix>3d</fix>
</trkpt>
<trkpt lat="-27.274439" lon="151.290064">
  <ele>343.0</ele>
  <time>2026-08-29T20:43:56Z</time>
  <course>216.17</course>
  <speed>0.7539230729988305</speed>
  <fix>3d</fix>
</trkpt>
<trkpt lat="-27.274439" lon="151.290064">
  <ele>343.0</ele>
  <time>2026-08-29T20:43:56Z</time>
  <course>0.0</course>
  <speed>0.0</speed>
  <fix>3d</fix>
</trkpt>
<trkpt lat="-27.274439" lon="151.290064">
  <ele>343.0</ele>
  <time>2026-08-29T20:43:56Z</time>
  <course>207.13</course>
  <speed>0.8052949770115296</speed>
  <fix>3d</fix>
</trkpt>
<trkpt lat="-27.274439" lon="151.290064">
  <ele>343.0</ele>
  <time>2026-08-29T20:43:56Z</time>
  <course>0.0</course>
  <speed>0.0</speed>
  <fix>3d</fix>
</trkpt>
<trkpt lat="-27.274439" lon="151.290064">
  <ele>343.0</ele>
  <time>2026-08-29T20:43:56Z</time>
  <course>197.95</course>
  <speed>0.8453401682163222</speed>
  <fix>3d</fix>
</trkpt>
<trkpt lat="-27.274439" lon="151.290064">
  <ele>343.0</ele>
  <time>2026-08-29T20:43:56Z</time>
  <course>0.0</course>
  <speed>0.0</speed>
  <fix>3d</fix>
</trkpt>
<trkpt lat="-27.274439" lon="151.290064">
  <ele>343.0</ele>
  <time>2026-08-29T20:43:56Z</time>
  <course>188.67</course>
  <speed>0.878179936004006</speed>
  <fix>3d</fix>
</trkpt>
<trkpt lat="-27.274439" lon="151.290064">
  <ele>343.0</ele>
  <time>2026-08-29T20:43:56Z</time>
  <course>0.0</course>
  <speed>0.0</speed>
  <fix>3d</fix>
</trkpt>
<trkpt lat="-27.274439" lon="151.290064">
  <ele>343.0</ele>
  <time>2026-08-29T20:43:56Z</time>
  <course>179.31</course>
  <speed>0.8848163651289458</speed>
  <fix>3d</fix>
</trkpt>
<trkpt lat="-27.274439" lon="151.290064">
  <ele>343.0</ele>
  <time>2026-08-29T20:43:56Z</time>
  <course>0.0</course>
  <speed>0.0</speed>
  <fix>3d</fix>
</trkpt>
<trkpt lat="-27.274439" lon="151.290064">
  <ele>343.0</ele>
  <time>2026-08-29T20:43:56Z</time>
  <course>169.93</course>
  <speed>0.9140021881811882</speed>
  <fix>3d</fix>
</trkpt>
<trkpt lat="-27.274439" lon="151.290064">
  <ele>343.0</ele>
  <time>2026-08-29T20:43:56Z</time>
  <course>0.0</course>
  <speed>0.0</speed>
  <fix>3d</fix>
</trkpt>
<trkpt lat="-27.274439" lon="151.290064">
  <ele>343.0</ele>
  <time>2026-08-29T20:43:57Z</time>
  <course>161.9</course>
  <speed>0.9219544457292888</speed>
  <fix>3d</fix>
</trkpt>
<trkpt lat="-27.274439" lon="151.290064">
  <ele>343.0</ele>
  <time>2026-08-29T20:43:57Z</time>
  <course>0.0</course>
  <speed>0.0</speed>
  <fix>3d</fix>
</trkpt>
<trkpt lat="-27.274439" lon="151.290064">
  <ele>343.0</ele>
  <time>2026-08-29T20:43:57Z</time>
  <course>158.55</course>
  <speed>0.9411163583744573</speed>
  <fix>3d</fix>
</trkpt>
<trkpt lat="-27.274439" lon="151.290064">
  <ele>343.0</ele>
  <time>2026-08-29T20:43:57Z</time>
  <course>0.0</course>
  <speed>0.0</speed>
  <fix>3d</fix>
</trkpt>
<trkpt lat="-27.274439" lon="151.290064">
  <ele>343.0</ele>
  <time>2026-08-29T20:43:57Z</time>
  <course>157.2</course>
  <speed>0.9546203433826455</speed>
  <fix>3d</fix>
</trkpt>
<trkpt lat="-27.274439" lon="151.290064">
  <ele>343.0</ele>
  <time>2026-08-29T20:43:57Z</time>
  <course>0.0</course>
  <speed>0.0</speed>
  <fix>3d</fix>
</trkpt>
<trkpt lat="-27.274439" lon="151.290064">
  <ele>343.0</ele>
  <time>2026-08-29T20:43:57Z</time>
  <course>156.57</course>
  <speed>0.9642613753542137</speed>
  <fix>3d</fix>
</trkpt>
<trkpt lat="-27.274439" lon="151.290064">
  <ele>343.0</ele>
  <time>2026-08-29T20:43:57Z</time>
  <course>0.0</course>
  <speed>0.0</speed>
  <fix>3d</fix>
</trkpt>
<trkpt lat="-27.274439" lon="151.290064">
  <ele>343.0</ele>
  <time>2026-08-29T20:43:57Z</time>
  <course>156.21</course>
  <speed>0.9602083107326242</speed>
  <fix>3d</fix>
</trkpt>
<trkpt lat="-27.274439" lon="151.290064">
  <ele>343.0</ele>
  <time>2026-08-29T20:43:57Z</time>
  <course>0.0</course>
  <speed>0.0</speed>
  <fix>3d</fix>
</trkpt>
<trkpt lat="-27.274439" lon="151.290064">
  <ele>343.0</ele>
  <time>2026-08-29T20:43:57Z</time>
  <course>155.95</course>
  <speed>0.9689685237405805</speed>
  <fix>3d</fix>
</trkpt>
<trkpt lat="-27.274439" lon="151.290064">
  <ele>343.0</ele>
  <time>2026-08-29T20:43:57Z</time>
  <course>0.0</course>
  <speed>0.0</speed>
  <fix>3d</fix>
</trkpt>
<trkpt lat="-27.274439" lon="151.290064">
  <ele>343.0</ele>
  <time>2026-08-29T20:43:57Z</time>
  <course>155.71</course>
  <speed>0.9800510190801294</speed>
  <fix>3d</fix>
</trkpt>
<trkpt lat="-27.274439" lon="151.290064">
  <ele>343.0</ele>
  <time>2026-08-29T20:43:57Z</time>
  <course>0.0</course>
  <speed>0.0</speed>
  <fix>3d</fix>
</trkpt>
<trkpt lat="-27.274439" lon="151.290064">
  <ele>343.0</ele>
  <time>2026-08-29T20:43:57Z</time>
  <course>155.49</course>
  <speed>0.9972963451251589</speed>
  <fix>3d</fix>
</trkpt>
<trkpt lat="-27.274439" lon="151.290064">
  <ele>343.0</ele>
  <time>2026-08-29T20:43:57Z</time>
  <course>0.0</course>
  <speed>0.0</speed>
  <fix>3d</fix>
</trkpt>
<trkpt lat="-27.274439" lon="151.290064">
  <ele>343.0</ele>
  <time>2026-08-29T20:43:57Z</time>
  <course>155.27</course>
  <speed>1.0113357503816425</speed>
  <fix>3d</fix>
</trkpt>
<trkpt lat="-27.274439" lon="151.290064">
  <ele>343.0</ele>
  <time>2026-08-29T20:43:57Z</time>
  <course>0.0</course>
  <speed>0.0</speed>
  <fix>3d</fix>
</trkpt>
<trkpt lat="-27.274439" lon="151.290064">
  <ele>343.0</ele>
  <time>2026-08-29T20:43:57Z</time>
  <course>155.07</course>
  <speed>1.010198000393982</speed>
  <fix>3d</fix>
</trkpt>
<trkpt lat="-27.274439" lon="151.290064">
  <ele>343.0</ele>
  <time>2026-08-29T20:43:57Z</time>
  <course>0.0</course>
  <speed>0.0</speed>
  <fix>3d</fix>
</trkpt>
<trkpt lat="-27.274439" lon="151.290064">
  <ele>343.0</ele>
  <time>2026-08-29T20:43:57Z</time>
  <course>154.88</course>
  <speed>0.9962429422585637</speed>
  <fix>3d</fix>
</trkpt>
<trkpt lat="-27.274439" lon="151.290064">
  <ele>343.0</ele>
  <time>2026-08-29T20:43:57Z</time>
  <course>0.0</course>
  <speed>0.0</speed>
  <fix>3d</fix>
</trkpt>
<trkpt lat="-27.274439" lon="151.290064">
  <ele>343.0</ele>
  <time>2026-08-29T20:43:57Z</time>
  <course>154.68</course>
  <speed>0.9751410154434076</speed>
  <fix>3d</fix>
</trkpt>
<trkpt lat="-27.274439" lon="151.290064">
  <ele>343.0</ele>
  <time>2026-08-29T20:43:57Z</time>
  <course>0.0</course>
  <speed>0.0</speed>
  <fix>3d</fix>
</trkpt>
<trkpt lat="-27.274439" lon="151.290064">
  <ele>343.0</ele>
  <time>2026-08-29T20:43:57Z</time>
  <course>154.49</course>
  <speed>0.951892851112981</speed>
  <fix>3d</fix>
</trkpt>
<trkpt lat="-27.274439" lon="151.290064">
  <ele>343.0</ele>
  <time>2026-08-29T20:43:57Z</time>
  <course>0.0</course>
  <speed>0.0</speed>
  <fix>3d</fix>
</trkpt>
<trkpt lat="-27.274439" lon="151.290064">
  <ele>343.0</ele>
  <time>2026-08-29T20:43:57Z</time>
  <course>154.29</course>
  <speed>0.9243916918709297</speed>
  <fix>3d</fix>
</trkpt>
<trkpt lat="-27.274439" lon="151.290064">
  <ele>343.0</ele>
  <time>2026-08-29T20:43:57Z</time>
  <course>0.0</course>
  <speed>0.0</speed>
  <fix>3d</fix>
</trkpt>
<trkpt lat="-27.274439" lon="151.290064">
  <ele>343.0</ele>
  <time>2026-08-29T20:43:57Z</time>
  <course>154.09</course>
  <speed>0.8900561780022652</speed>
  <fix>3d</fix>
</trkpt>
<trkpt lat="-27.274439" lon="151.290064">
  <ele>343.0</ele>
  <time>2026-08-29T20:43:57Z</time>
  <course>0.0</course>
  <speed>0.0</speed>
  <fix>3d</fix>
</trkpt>
<trkpt lat="-27.274439" lon="151.290064">
  <ele>343.0</ele>
  <time>2026-08-29T20:43:57Z</time>
  <course>153.88</course>
  <speed>0.8514693182963201</speed>
  <fix>3d</fix>
</trkpt>
<trkpt lat="-27.274439" lon="151.290064">
  <ele>343.0</ele>
  <time>2026-08-29T20:43:57Z</time>
  <course>0.0</course>
  <speed>0.0</speed>
  <fix>3d</fix>
</trkpt>
<trkpt lat="-27.274439" lon="151.290064">
  <ele>343.0</ele>
  <time>2026-08-29T20:43:57Z</time>
  <course>153.67</course>
  <speed>0.8174350127074322</speed>
  <fix>3d</fix>
</trkpt>
<trkpt lat="-27.274439" lon="151.290064">
  <ele>343.0</ele>
  <time>2026-08-29T20:43:57Z</time>
  <course>0.0</course>
  <speed>0.0</speed>
  <fix>3d</fix>
</trkpt>
<trkpt lat="-27.274439" lon="151.290064">
  <ele>343.0</ele>
  <time>2026-08-29T20:43:57Z</time>
  <course>153.46</course>
  <speed>0.7962411694957753</speed>
  <fix>3d</fix>
</trkpt>
<trkpt lat="-27.274439" lon="151.290064">
  <ele>343.0</ele>
  <time>2026-08-29T20:43:57Z</time>
  <course>0.0</course>
  <speed>0.0</speed>
  <fix>3d</fix>
</trkpt>
<trkpt lat="-27.274439" lon="151.290064">
  <ele>343.0</ele>
  <time>2026-08-29T20:43:57Z</time>
  <course>153.24</course>
  <speed>0.7569015788066504</speed>
  <fix>3d</fix>
</trkpt>
<trkpt lat="-27.274439" lon="151.290064">
  <ele>343.0</ele>
  <time>2026-08-29T20:43:57Z</time>
  <course>0.0</course>
  <speed>0.0</speed>
  <fix>3d</fix>
</trkpt>
<trkpt lat="-27.274439" lon="151.2900646">
  <ele>343.04</ele>
  <time>2026-08-29T20:43:57Z</time>
  <course>153.03</course>
  <speed>0.0</speed>
  <fix>3d</fix>
</trkpt>
<trkpt lat="-27.274439" lon="151.290064">
  <ele>343.0</ele>
  <time>2026-08-29T20:43:57Z</time>
  <course>0.0</course>
  <speed>0.0</speed>
  <fix>3d</fix>
</trkpt>
<trkpt lat="-27.2744392" lon="151.2900653">
  <ele>343.03</ele>
  <time>2026-08-29T20:43:57Z</time>
  <course>152.83</course>
  <speed>0.0848528137423857</speed>
  <fix>3d</fix>
</trkpt>
<trkpt lat="-27.274439" lon="151.290064">
  <ele>343.0</ele>
  <time>2026-08-29T20:43:57Z</time>
  <course>0.0</course>
  <speed>0.0</speed>
  <fix>3d</fix>
</trkpt>
<trkpt lat="-27.2744393" lon="151.2900645">
  <ele>343.02</ele>
  <time>2026-08-29T20:43:57Z</time>
  <course>152.57</course>
  <speed>0.08602325267042626</speed>
  <fix>3d</fix>
</trkpt>
<trkpt lat="-27.274439" lon="151.290064">
  <ele>343.0</ele>
  <time>2026-08-29T20:43:57Z</time>
  <course>0.0</course>
  <speed>0.0</speed>
  <fix>3d</fix>
</trkpt>
<trkpt lat="-27.2744392" lon="151.2900642">
  <ele>343.03</ele>
  <time>2026-08-29T20:43:57Z</time>
  <course>152.29</course>
  <speed>0.05830951894845301</speed>
  <fix>3d</fix>
</trkpt>
<trkpt lat="-27.274439" lon="151.290064">
  <ele>343.0</ele>
  <time>2026-08-29T20:43:57Z</time>
  <course>0.0</course>
  <speed>0.0</speed>
  <fix>3d</fix>
</trkpt>
<trkpt lat="-27.2744391" lon="151.2900641">
  <ele>343.06</ele>
  <time>2026-08-29T20:43:57Z</time>
  <course>152.03</course>
  <speed>0.02</speed>
  <fix>3d</fix>
</trkpt>
<trkpt lat="-27.274439" lon="151.290064">
  <ele>343.0</ele>
  <time>2026-08-29T20:43:57Z</time>
  <course>0.0</course>
  <speed>0.0</speed>
  <fix>3d</fix>
</trkpt>
<trkpt lat="-27.274439" lon="151.290064">
  <ele>343.05</ele>
  <time>2026-08-29T20:43:57Z</time>
  <course>151.79</course>
  <speed>0.01</speed>
  <fix>3d</fix>
</trkpt>
<trkpt lat="-27.274439" lon="151.290064">
  <ele>343.0</ele>
  <time>2026-08-29T20:43:57Z</time>
  <course>0.0</course>
  <speed>0.0</speed>
  <fix>3d</fix>
</trkpt>
<trkpt lat="-27.274439" lon="151.290064">
  <ele>343.04</ele>
  <time>2026-08-29T20:43:57Z</time>
  <course>151.57</course>
  <speed>0.01414213562373095</speed>
  <fix>3d</fix>
</trkpt>
<trkpt lat="-27.274439" lon="151.290064">
  <ele>343.0</ele>
  <time>2026-08-29T20:43:57Z</time>
  <course>0.0</course>
  <speed>0.0</speed>
  <fix>3d</fix>
</trkpt>
<trkpt lat="-27.2744389" lon="151.2900639">
  <ele>343.04</ele>
  <time>2026-08-29T20:43:57Z</time>
  <course>151.37</course>
  <speed>0.01414213562373095</speed>
  <fix>3d</fix>
</trkpt>
<trkpt lat="-27.274439" lon="151.290064">
  <ele>343.0</ele>
  <time>2026-08-29T20:43:57Z</time>
  <course>0.0</course>
  <speed>0.0</speed>
  <fix>3d</fix>
</trkpt>
<trkpt lat="-27.2744389" lon="151.2900638">
  <ele>343.05</ele>
  <time>2026-08-29T20:43:57Z</time>
  <course>151.18</course>
  <speed>0.0282842712474619</speed>
  <fix>3d</fix>
</trkpt>
<trkpt lat="-27.274439" lon="151.290064">
  <ele>343.0</ele>
  <time>2026-08-29T20:43:57Z</time>
  <course>0.0</course>
  <speed>0.0</speed>
  <fix>3d</fix>
</trkpt>
<trkpt lat="-27.2744389" lon="151.2900638">
  <ele>343.06</ele>
  <time>2026-08-29T20:43:57Z</time>
  <course>151.01</course>
  <speed>0.0282842712474619</speed>
  <fix>3d</fix>
</trkpt>
<trkpt lat="-27.274439" lon="151.290064">
  <ele>343.0</ele>
  <time>2026-08-29T20:43:57Z</time>
  <course>0.0</course>
  <speed>0.0</speed>
  <fix>3d</fix>
</trkpt>
<trkpt lat="-27.2744389" lon="151.2900638">
  <ele>343.03</ele>
  <time>2026-08-29T20:43:57Z</time>
  <course>150.84</course>
  <speed>0.0282842712474619</speed>
  <fix>3d</fix>
</trkpt>
<trkpt lat="-27.274439" lon="151.290064">
  <ele>343.0</ele>
  <time>2026-08-29T20:43:57Z</time>
  <course>0.0</course>
  <speed>0.0</speed>
  <fix>3d</fix>
</trkpt>
<trkpt lat="-27.2744389" lon="151.2900638">
  <ele>343.04</ele>
  <time>2026-08-29T20:43:57Z</time>
  <course>150.68</course>
  <speed>0.0282842712474619</speed>
  <fix>3d</fix>
</trkpt>
<trkpt lat="-27.274439" lon="151.290064">
  <ele>343.0</ele>
  <time>2026-08-29T20:43:57Z</time>
  <course>0.0</course>
  <speed>0.0</speed>
  <fix>3d</fix>
</trkpt>
<trkpt lat="-27.2744389" lon="151.2900638">
  <ele>343.03</ele>
  <time>2026-08-29T20:43:57Z</time>
  <course>150.52</course>
  <speed>0.022360679774997897</speed>
  <fix>3d</fix>
</trkpt>
<trkpt lat="-27.274439" lon="151.290064">
  <ele>343.0</ele>
  <time>2026-08-29T20:43:57Z</time>
  <course>0.0</course>
  <speed>0.0</speed>
  <fix>3d</fix>
</trkpt>
<trkpt lat="-27.2744389" lon="151.2900638">
  <ele>343.04</ele>
  <time>2026-08-29T20:43:57Z</time>
  <course>150.38</course>
  <speed>0.022360679774997897</speed>
  <fix>3d</fix>
</trkpt>
<trkpt lat="-27.274439" lon="151.290064">
  <ele>343.0</ele>
  <time>2026-08-29T20:43:57Z</time>
  <course>0.0</course>
  <speed>0.0</speed>
  <fix>3d</fix>
</trkpt>
<trkpt lat="-27.2744389" lon="151.2900638">
  <ele>343.03</ele>
  <time>2026-08-29T20:43:57Z</time>
  <course>150.24</course>
  <speed>0.022360679774997897</speed>
  <fix>3d</fix>
</trkpt>
<trkpt lat="-27.274439" lon="151.290064">
  <ele>343.0</ele>
  <time>2026-08-29T20:43:57Z</time>
  <course>0.0</course>
  <speed>0.0</speed>
  <fix>3d</fix>
</trkpt>
<trkpt lat="-27.2744389" lon="151.2900638">
  <ele>343.02</ele>
  <time>2026-08-29T20:43:57Z</time>
  <course>150.11</course>
  <speed>0.022360679774997897</speed>
  <fix>3d</fix>
</trkpt>
<trkpt lat="-27.274439" lon="151.290064">
  <ele>343.0</ele>
  <time>2026-08-29T20:43:57Z</time>
  <course>0.0</course>
  <speed>0.0</speed>
  <fix>3d</fix>
</trkpt>
<trkpt lat="-27.2744389" lon="151.2900638">
  <ele>343.0</ele>
  <time>2026-08-29T20:43:57Z</time>
  <course>149.98</course>
  <speed>0.022360679774997897</speed>
  <fix>3d</fix>
</trkpt>
<trkpt lat="-27.274439" lon="151.290064">
  <ele>343.0</ele>
  <time>2026-08-29T20:43:57Z</time>
  <course>0.0</course>
  <speed>0.0</speed>
  <fix>3d</fix>
</trkpt>
<trkpt lat="-27.2744389" lon="151.2900638">
  <ele>343.01</ele>
  <time>2026-08-29T20:43:57Z</time>
  <course>149.86</course>
  <speed>0.022360679774997897</speed>
  <fix>3d</fix>
</trkpt>
<trkpt lat="-27.274439" lon="151.290064">
  <ele>343.0</ele>
  <time>2026-08-29T20:43:57Z</time>
  <course>0.0</course>
  <speed>0.0</speed>
  <fix>3d</fix>
</trkpt>
<trkpt lat="-27.2744389" lon="151.2900638">
  <ele>343.04</ele>
  <time>2026-08-29T20:43:57Z</time>
  <course>149.75</course>
  <speed>0.022360679774997897</speed>
  <fix>3d</fix>
</trkpt>
<trkpt lat="-27.274439" lon="151.290064">
  <ele>343.0</ele>
  <time>2026-08-29T20:43:57Z</time>
  <course>0.0</course>
  <speed>0.0</speed>
  <fix>3d</fix>
</trkpt>
<trkpt lat="-27.2744389" lon="151.2900638">
  <ele>343.04</ele>
  <time>2026-08-29T20:43:57Z</time>
  <course>149.64</course>
  <speed>0.022360679774997897</speed>
  <fix>3d</fix>
</trkpt>
<trkpt lat="-27.274439" lon="151.290064">
  <ele>343.0</ele>
  <time>2026-08-29T20:43:57Z</time>
  <course>0.0</course>
  <speed>0.0</speed>
  <fix>3d</fix>
</trkpt>
<trkpt lat="-27.2744389" lon="151.2900638">
  <ele>343.04</ele>
  <time>2026-08-29T20:43:57Z</time>
  <course>149.53</course>
  <speed>0.022360679774997897</speed>
  <fix>3d</fix>
</trkpt>
<trkpt lat="-27.274439" lon="151.290064">
  <ele>343.0</ele>
  <time>2026-08-29T20:43:57Z</time>
  <course>0.0</course>
  <speed>0.0</speed>
  <fix>3d</fix>
</trkpt>
<trkpt lat="-27.2744389" lon="151.2900638">
  <ele>343.04</ele>
  <time>2026-08-29T20:43:57Z</time>
  <course>149.44</course>
  <speed>0.022360679774997897</speed>
  <fix>3d</fix>
</trkpt>
<trkpt lat="-27.274439" lon="151.290064">
  <ele>343.0</ele>
  <time>2026-08-29T20:43:57Z</time>
  <course>0.0</course>
  <speed>0.0</speed>
  <fix>3d</fix>
</trkpt>
<trkpt lat="-27.2744389" lon="151.2900638">
  <ele>343.03</ele>
  <time>2026-08-29T20:43:57Z</time>
  <course>149.34</course>
  <speed>0.022360679774997897</speed>
  <fix>3d</fix>
</trkpt>
<trkpt lat="-27.274439" lon="151.290064">
  <ele>343.0</ele>
  <time>2026-08-29T20:43:57Z</time>
  <course>0.0</course>
  <speed>0.0</speed>
  <fix>3d</fix>
</trkpt>
<trkpt lat="-27.2744389" lon="151.2900638">
  <ele>343.02</ele>
  <time>2026-08-29T20:43:57Z</time>
  <course>149.25</course>
  <speed>0.022360679774997897</speed>
  <fix>3d</fix>
</trkpt>
<trkpt lat="-27.274439" lon="151.290064">
  <ele>343.0</ele>
  <time>2026-08-29T20:43:57Z</time>
  <course>0.0</course>
  <speed>0.0</speed>
  <fix>3d</fix>
</trkpt>
<trkpt lat="-27.2744389" lon="151.2900638">
  <ele>343.05</ele>
  <time>2026-08-29T20:43:57Z</time>
  <course>149.17</course>
  <speed>0.022360679774997897</speed>
  <fix>3d</fix>
</trkpt>
<trkpt lat="-27.274439" lon="151.290064">
  <ele>343.0</ele>
  <time>2026-08-29T20:43:57Z</time>
  <course>0.0</course>
  <speed>0.0</speed>
  <fix>3d</fix>
</trkpt>
<trkpt lat="-27.2744389" lon="151.2900638">
  <ele>343.04</ele>
  <time>2026-08-29T20:43:57Z</time>
  <course>149.09</course>
  <speed>0.02</speed>
  <fix>3d</fix>
</trkpt>
<trkpt lat="-27.274439" lon="151.290064">
  <ele>343.0</ele>
  <time>2026-08-29T20:43:57Z</time>
  <course>0.0</course>
  <speed>0.0</speed>
  <fix>3d</fix>
</trkpt>
<trkpt lat="-27.2744389" lon="151.2900638">
  <ele>343.05</ele>
  <time>2026-08-29T20:43:58Z</time>
  <course>149.01</course>
  <speed>0.022360679774997897</speed>
  <fix>3d</fix>
</trkpt>
<trkpt lat="-27.274439" lon="151.290064">
  <ele>343.0</ele>
  <time>2026-08-29T20:43:58Z</time>
  <course>0.0</course>
  <speed>0.0</speed>
  <fix>3d</fix>
</trkpt>
<trkpt lat="-27.2744389" lon="151.2900638">
  <ele>343.03</ele>
  <time>2026-08-29T20:43:58Z</time>
  <course>148.94</course>
  <speed>0.02</speed>
  <fix>3d</fix>
</trkpt>
<trkpt lat="-27.274439" lon="151.290064">
  <ele>343.0</ele>
  <time>2026-08-29T20:43:58Z</time>
  <course>0.0</course>
  <speed>0.0</speed>
  <fix>3d</fix>
</trkpt>
<trkpt lat="-27.2744389" lon="151.2900638">
  <ele>343.02</ele>
  <time>2026-08-29T20:43:58Z</time>
  <course>148.87</course>
  <speed>0.022360679774997897</speed>
  <fix>3d</fix>
</trkpt>
<trkpt lat="-27.274439" lon="151.290064">
  <ele>343.0</ele>
  <time>2026-08-29T20:43:58Z</time>
  <course>0.0</course>
  <speed>0.0</speed>
  <fix>3d</fix>
</trkpt>
<trkpt lat="-27.2744389" lon="151.2900638">
  <ele>343.02</ele>
  <time>2026-08-29T20:43:58Z</time>
  <course>148.8</course>
  <speed>0.02</speed>
  <fix>3d</fix>
</trkpt>
<trkpt lat="-27.274439" lon="151.290064">
  <ele>343.0</ele>
  <time>2026-08-29T20:43:58Z</time>
  <course>0.0</course>
  <speed>0.0</speed>
  <fix>3d</fix>
</trkpt>
<trkpt lat="-27.2744389" lon="151.2900638">
  <ele>343.02</ele>
  <time>2026-08-29T20:43:58Z</time>
  <course>148.74</course>
  <speed>0.02</speed>
  <fix>3d</fix>
</trkpt>
<trkpt lat="-27.274439" lon="151.290064">
  <ele>343.0</ele>
  <time>2026-08-29T20:43:58Z</time>
  <course>0.0</course>
  <speed>0.0</speed>
  <fix>3d</fix>
</trkpt>
<trkpt lat="-27.2744389" lon="151.2900638">
  <ele>343.0</ele>
  <time>2026-08-29T20:43:58Z</time>
  <course>148.67</course>
  <speed>0.02</speed>
  <fix>3d</fix>
</trkpt>
<trkpt lat="-27.274439" lon="151.290064">
  <ele>343.0</ele>
  <time>2026-08-29T20:43:58Z</time>
  <course>0.0</course>
  <speed>0.0</speed>
  <fix>3d</fix>
</trkpt>
<trkpt lat="-27.274439" lon="151.290064">
  <ele>343.0</ele>
  <time>2026-08-29T20:43:58Z</time>
  <course>325.88</course>
  <speed>0.0</speed>
  <fix>3d</fix>
</trkpt>
<trkpt lat="-27.274439" lon="151.290064">
  <ele>343.0</ele>
  <time>2026-08-29T20:43:58Z</time>
  <course>324.43</course>
  <speed>0.0</speed>
  <fix>3d</fix>
</trkpt>
<trkpt lat="-27.274439" lon="151.290064">
  <ele>343.0</ele>
  <time>2026-08-29T20:43:58Z</time>
  <course>321.86</course>
  <speed>0.0</speed>
  <fix>3d</fix>
</trkpt>
<trkpt lat="-27.274439" lon="151.290064">
  <ele>343.0</ele>
  <time>2026-08-29T20:43:58Z</time>
  <course>295.0</course>
  <speed>0.0</speed>
  <fix>3d</fix>
</trkpt>
<trkpt lat="-27.274439" lon="151.290064">
  <ele>343.0</ele>
  <time>2026-08-29T20:43:59Z</time>
  <course>261.98</course>
  <speed>1.283627671873741</speed>
  <fix>3d</fix>
</trkpt>
<trkpt lat="-27.274439" lon="151.290064">
  <ele>343.0</ele>
  <time>2026-08-29T20:43:59Z</time>
  <course>0.0</course>
  <speed>0.0</speed>
  <fix>3d</fix>
</trkpt>
<trkpt lat="-27.274439" lon="151.290064">
  <ele>343.0</ele>
  <time>2026-08-29T20:43:59Z</time>
  <course>255.57</course>
  <speed>1.5463828762631846</speed>
  <fix>3d</fix>
</trkpt>
<trkpt lat="-27.274439" lon="151.290064">
  <ele>343.0</ele>
  <time>2026-08-29T20:43:59Z</time>
  <course>0.0</course>
  <speed>0.0</speed>
  <fix>3d</fix>
</trkpt>
<trkpt lat="-27.274439" lon="151.290064">
  <ele>343.0</ele>
  <time>2026-08-29T20:43:59Z</time>
  <course>247.73</course>
  <speed>1.486371420607918</speed>
  <fix>3d</fix>
</trkpt>
<trkpt lat="-27.274439" lon="151.290064">
  <ele>343.0</ele>
  <time>2026-08-29T20:43:59Z</time>
  <course>0.0</course>
  <speed>0.0</speed>
  <fix>3d</fix>
</trkpt>
<trkpt lat="-27.274439" lon="151.290064">
  <ele>343.0</ele>
  <time>2026-08-29T20:43:59Z</time>
  <course>239.18</course>
  <speed>1.3601470508735443</speed>
  <fix>3d</fix>
</trkpt>
<trkpt lat="-27.274439" lon="151.290064">
  <ele>343.0</ele>
  <time>2026-08-29T20:43:59Z</time>
  <course>0.0</course>
  <speed>0.0</speed>
  <fix>3d</fix>
</trkpt>
<trkpt lat="-27.274439" lon="151.290064">
  <ele>343.0</ele>
  <time>2026-08-29T20:43:59Z</time>
  <course>230.14</course>
  <speed>1.2220065466273085</speed>
  <fix>3d</fix>
</trkpt>
<trkpt lat="-27.274439" lon="151.290064">
  <ele>343.0</ele>
  <time>2026-08-29T20:43:59Z</time>
  <course>0.0</course>
  <speed>0.0</speed>
  <fix>3d</fix>
</trkpt>
<trkpt lat="-27.274439" lon="151.290064">
  <ele>343.0</ele>
  <time>2026-08-29T20:43:59Z</time>
  <course>220.8</course>
  <speed>1.115437134042076</speed>
  <fix>3d</fix>
</trkpt>
<trkpt lat="-27.274439" lon="151.290064">
  <ele>343.0</ele>
  <time>2026-08-29T20:43:59Z</time>
  <course>0.0</course>
  <speed>0.0</speed>
  <fix>3d</fix>
</trkpt>
<trkpt lat="-27.274439" lon="151.290064">
  <ele>343.0</ele>
  <time>2026-08-29T20:43:59Z</time>
  <course>211.27</course>
  <speed>1.035857133006285</speed>
  <fix>3d</fix>
</trkpt>
<trkpt lat="-27.274439" lon="151.290064">
  <ele>343.0</ele>
  <time>2026-08-29T20:43:59Z</time>
  <course>0.0</course>
  <speed>0.0</speed>
  <fix>3d</fix>
</trkpt>
<trkpt lat="-27.274439" lon="151.290064">
  <ele>343.0</ele>
  <time>2026-08-29T20:43:59Z</time>
  <course>201.62</course>
  <speed>0.9832598842625484</speed>
  <fix>3d</fix>
</trkpt>
<trkpt lat="-27.274439" lon="151.290064">
  <ele>343.0</ele>
  <time>2026-08-29T20:43:59Z</time>
  <course>0.0</course>
  <speed>0.0</speed>
  <fix>3d</fix>
</trkpt>
<trkpt lat="-27.274439" lon="151.290064">
  <ele>343.0</ele>
  <time>2026-08-29T20:43:59Z</time>
  <course>191.86</course>
  <speed>0.9504735661763561</speed>
  <fix>3d</fix>
</trkpt>
<trkpt lat="-27.274439" lon="151.290064">
  <ele>343.0</ele>
  <time>2026-08-29T20:43:59Z</time>
  <course>0.0</course>
  <speed>0.0</speed>
  <fix>3d</fix>
</trkpt>
<trkpt lat="-27.274439" lon="151.290064">
  <ele>343.0</ele>
  <time>2026-08-29T20:43:59Z</time>
  <course>182.03</course>
  <speed>0.9000555538409837</speed>
  <fix>3d</fix>
</trkpt>
<trkpt lat="-27.274439" lon="151.290064">
  <ele>343.0</ele>
  <time>2026-08-29T20:43:59Z</time>
  <course>0.0</course>
  <speed>0.0</speed>
  <fix>3d</fix>
</trkpt>
<trkpt lat="-27.274439" lon="151.290064">
  <ele>343.0</ele>
  <time>2026-08-29T20:43:59Z</time>
  <course>172.16</course>
  <speed>0.8209750300709517</speed>
  <fix>3d</fix>
</trkpt>
<trkpt lat="-27.274439" lon="151.290064">
  <ele>343.0</ele>
  <time>2026-08-29T20:43:59Z</time>
  <course>0.0</course>
  <speed>0.0</speed>
  <fix>3d</fix>
</trkpt>
<trkpt lat="-27.274439" lon="151.290064">
  <ele>343.0</ele>
  <time>2026-08-29T20:43:59Z</time>
  <course>162.31</course>
  <speed>0.7752418977325722</speed>
  <fix>3d</fix>
</trkpt>
<trkpt lat="-27.274439" lon="151.290064">
  <ele>343.0</ele>
  <time>2026-08-29T20:43:59Z</time>
  <course>0.0</course>
  <speed>0.0</speed>
  <fix>3d</fix>
</trkpt>
<trkpt lat="-27.274439" lon="151.290064">
  <ele>343.0</ele>
  <time>2026-08-29T20:43:59Z</time>
  <course>152.45</course>
  <speed>0.71386273190299</speed>
  <fix>3d</fix>
</trkpt>
<trkpt lat="-27.274439" lon="151.290064">
  <ele>343.0</ele>
  <time>2026-08-29T20:43:59Z</time>
  <course>0.0</course>
  <speed>0.0</speed>
  <fix>3d</fix>
</trkpt>
<trkpt lat="-27.274439" lon="151.290064">
  <ele>343.0</ele>
  <time>2026-08-29T20:43:59Z</time>
  <course>142.58</course>
  <speed>0.648459713474939</speed>
  <fix>3d</fix>
</trkpt>
<trkpt lat="-27.274439" lon="151.290064">
  <ele>343.0</ele>
  <time>2026-08-29T20:43:59Z</time>
  <course>0.0</course>
  <speed>0.0</speed>
  <fix>3d</fix>
</trkpt>
<trkpt lat="-27.274439" lon="151.290064">
  <ele>343.0</ele>
  <time>2026-08-29T20:43:59Z</time>
  <course>132.72</course>
  <speed>0.5869412236331676</speed>
  <fix>3d</fix>
</trkpt>
<trkpt lat="-27.274439" lon="151.290064">
  <ele>343.0</ele>
  <time>2026-08-29T20:43:59Z</time>
  <course>0.0</course>
  <speed>0.0</speed>
  <fix>3d</fix>
</trkpt>
<trkpt lat="-27.274439" lon="151.290064">
  <ele>343.0</ele>
  <time>2026-08-29T20:43:59Z</time>
  <course>122.87</course>
  <speed>0.4939635614091387</speed>
  <fix>3d</fix>
</trkpt>
<trkpt lat="-27.274439" lon="151.290064">
  <ele>343.0</ele>
  <time>2026-08-29T20:43:59Z</time>
  <course>0.0</course>
  <speed>0.0</speed>
  <fix>3d</fix>
</trkpt>
<trkpt lat="-27.274439" lon="151.290064">
  <ele>343.0</ele>
  <time>2026-08-29T20:43:59Z</time>
  <course>113.08</course>
  <speed>0.396232255123179</speed>
  <fix>3d</fix>
</trkpt>
<trkpt lat="-27.274439" lon="151.290064">
  <ele>343.0</ele>
  <time>2026-08-29T20:43:59Z</time>
  <course>0.0</course>
  <speed>0.0</speed>
  <fix>3d</fix>
</trkpt>
<trkpt lat="-27.274439" lon="151.290064">
  <ele>343.0</ele>
  <time>2026-08-29T20:43:59Z</time>
  <course>103.23</course>
  <speed>0.32249030993194194</speed>
  <fix>3d</fix>
</trkpt>
<trkpt lat="-27.274439" lon="151.290064">
  <ele>343.0</ele>
  <time>2026-08-29T20:43:59Z</time>
  <course>0.0</course>
  <speed>0.0</speed>
  <fix>3d</fix>
</trkpt>
<trkpt lat="-27.274439" lon="151.290064">
  <ele>343.0</ele>
  <time>2026-08-29T20:43:59Z</time>
  <course>93.34</course>
  <speed>0.29274562336608895</speed>
  <fix>3d</fix>
</trkpt>
<trkpt lat="-27.274439" lon="151.290064">
  <ele>343.0</ele>
  <time>2026-08-29T20:43:59Z</time>
  <course>0.0</course>
  <speed>0.0</speed>
  <fix>3d</fix>
</trkpt>
<trkpt lat="-27.274439" lon="151.290064">
  <ele>343.0</ele>
  <time>2026-08-29T20:43:59Z</time>
  <course>83.42</course>
  <speed>0.29274562336608895</speed>
  <fix>3d</fix>
</trkpt>
<trkpt lat="-27.274439" lon="151.290064">
  <ele>343.0</ele>
  <time>2026-08-29T20:43:59Z</time>
  <course>0.0</course>
  <speed>0.0</speed>
  <fix>3d</fix>
</trkpt>
<trkpt lat="-27.274439" lon="151.290064">
  <ele>343.0</ele>
  <time>2026-08-29T20:43:59Z</time>
  <course>73.5</course>
  <speed>0.23345235059857505</speed>
  <fix>3d</fix>
</trkpt>
<trkpt lat="-27.274439" lon="151.290064">
  <ele>343.0</ele>
  <time>2026-08-29T20:43:59Z</time>
  <course>0.0</course>
  <speed>0.0</speed>
  <fix>3d</fix>
</trkpt>
<trkpt lat="-27.274439" lon="151.290064">
  <ele>343.0</ele>
  <time>2026-08-29T20:43:59Z</time>
  <course>63.53</course>
  <speed>0.17</speed>
  <fix>3d</fix>
</trkpt>
<trkpt lat="-27.274439" lon="151.290064">
  <ele>343.0</ele>
  <time>2026-08-29T20:43:59Z</time>
  <course>0.0</course>
  <speed>0.0</speed>
  <fix>3d</fix>
</trkpt>
<trkpt lat="-27.274439" lon="151.290064">
  <ele>343.0</ele>
  <time>2026-08-29T20:43:59Z</time>
  <course>53.64</course>
  <speed>0.12165525060596438</speed>
  <fix>3d</fix>
</trkpt>
<trkpt lat="-27.274439" lon="151.290064">
  <ele>343.0</ele>
  <time>2026-08-29T20:43:59Z</time>
  <course>0.0</course>
  <speed>0.0</speed>
  <fix>3d</fix>
</trkpt>
<trkpt lat="-27.274439" lon="151.290064">
  <ele>343.0</ele>
  <time>2026-08-29T20:43:59Z</time>
  <course>43.75</course>
  <speed>0.12</speed>
  <fix>3d</fix>
</trkpt>
<trkpt lat="-27.274439" lon="151.290064">
  <ele>343.0</ele>
  <time>2026-08-29T20:43:59Z</time>
  <course>0.0</course>
  <speed>0.0</speed>
  <fix>3d</fix>
</trkpt>
<trkpt lat="-27.274439" lon="151.290064">
  <ele>343.0</ele>
  <time>2026-08-29T20:43:59Z</time>
  <course>325.88</course>
  <speed>0.0</speed>
  <fix>3d</fix>
</trkpt>
<trkpt lat="-27.274439" lon="151.290064">
  <ele>343.0</ele>
  <time>2026-08-29T20:43:59Z</time>
  <course>324.43</course>
  <speed>0.0</speed>
  <fix>3d</fix>
</trkpt>
<trkpt lat="-27.274439" lon="151.290064">
  <ele>343.0</ele>
  <time>2026-08-29T20:43:59Z</time>
  <course>321.86</course>
  <speed>0.0</speed>
  <fix>3d</fix>
</trkpt>
<trkpt lat="-27.274439" lon="151.290064">
  <ele>343.0</ele>
  <time>2026-08-29T20:43:59Z</time>
  <course>295.0</course>
  <speed>0.0</speed>
  <fix>3d</fix>
</trkpt>
<trkpt lat="-27.274439" lon="151.290064">
  <ele>343.0</ele>
  <time>2026-08-29T20:43:59Z</time>
  <course>290.72</course>
  <speed>0.0</speed>
  <fix>3d</fix>
</trkpt>
<trkpt lat="-27.274439" lon="151.290064">
  <ele>343.0</ele>
  <time>2026-08-29T20:43:59Z</time>
  <course>284.84</course>
  <speed>0.0</speed>
  <fix>3d</fix>
</trkpt>
<trkpt lat="-27.274439" lon="151.290064">
  <ele>343.0</ele>
  <time>2026-08-29T20:43:59Z</time>
  <course>277.79</course>
  <speed>0.0</speed>
  <fix>3d</fix>
</trkpt>
<trkpt lat="-27.274439" lon="151.290064">
  <ele>343.0</ele>
  <time>2026-08-29T20:43:59Z</time>
  <course>269.55</course>
  <speed>0.0</speed>
  <fix>3d</fix>
</trkpt>
<trkpt lat="-27.274439" lon="151.290064">
  <ele>343.0</ele>
  <time>2026-08-29T20:43:59Z</time>
  <course>262.16</course>
  <speed>0.9176055797563569</speed>
  <fix>3d</fix>
</trkpt>
<trkpt lat="-27.274439" lon="151.290064">
  <ele>343.0</ele>
  <time>2026-08-29T20:43:59Z</time>
  <course>0.0</course>
  <speed>0.0</speed>
  <fix>3d</fix>
</trkpt>
<trkpt lat="-27.274439" lon="151.290064">
  <ele>343.0</ele>
  <time>2026-08-29T20:43:59Z</time>
  <course>256.4</course>
  <speed>0.9403190947758107</speed>
  <fix>3d</fix>
</trkpt>
<trkpt lat="-27.274439" lon="151.290064">
  <ele>343.0</ele>
  <time>2026-08-29T20:43:59Z</time>
  <course>0.0</course>
  <speed>0.0</speed>
  <fix>3d</fix>
</trkpt>
<trkpt lat="-27.274439" lon="151.290064">
  <ele>343.0</ele>
  <time>2026-08-29T20:43:59Z</time>
  <course>249.45</course>
  <speed>0.756042326857432</speed>
  <fix>3d</fix>
</trkpt>
<trkpt lat="-27.274439" lon="151.290064">
  <ele>343.0</ele>
  <time>2026-08-29T20:43:59Z</time>
  <course>0.0</course>
  <speed>0.0</speed>
  <fix>3d</fix>
</trkpt>
<trkpt lat="-27.274439" lon="151.290064">
  <ele>343.0</ele>
  <time>2026-08-29T20:43:59Z</time>
  <course>241.79</course>
  <speed>0.6596969000988256</speed>
  <fix>3d</fix>
</trkpt>
<trkpt lat="-27.274439" lon="151.290064">
  <ele>343.0</ele>
  <time>2026-08-29T20:43:59Z</time>
  <course>0.0</course>
  <speed>0.0</speed>
  <fix>3d</fix>
</trkpt>
<trkpt lat="-27.274439" lon="151.290064">
  <ele>343.0</ele>
  <time>2026-08-29T20:43:59Z</time>
  <course>233.59</course>
  <speed>0.6618912297349165</speed>
  <fix>3d</fix>
</trkpt>
<trkpt lat="-27.274439" lon="151.290064">
  <ele>343.0</ele>
  <time>2026-08-29T20:43:59Z</time>
  <course>0.0</course>
  <speed>0.0</speed>
  <fix>3d</fix>
</trkpt>
<trkpt lat="-27.274439" lon="151.290064">
  <ele>343.0</ele>
  <time>2026-08-29T20:44:00Z</time>
  <course>261.98</course>
  <speed>1.283627671873741</speed>
  <fix>3d</fix>
</trkpt>
<trkpt lat="-27.274439" lon="151.290064">
  <ele>343.0</ele>
  <time>2026-08-29T20:44:00Z</time>
  <course>0.0</course>
  <speed>0.0</speed>
  <fix>3d</fix>
</trkpt>
<trkpt lat="-27.274439" lon="151.290064">
  <ele>343.0</ele>
  <time>2026-08-29T20:44:00Z</time>
  <course>255.57</course>
  <speed>1.5463828762631846</speed>
  <fix>3d</fix>
</trkpt>
<trkpt lat="-27.274439" lon="151.290064">
  <ele>343.0</ele>
  <time>2026-08-29T20:44:00Z</time>
  <course>0.0</course>
  <speed>0.0</speed>
  <fix>3d</fix>
</trkpt>
<trkpt lat="-27.274439" lon="151.290064">
  <ele>343.0</ele>
  <time>2026-08-29T20:44:00Z</time>
  <course>247.73</course>
  <speed>1.486371420607918</speed>
  <fix>3d</fix>
</trkpt>
<trkpt lat="-27.274439" lon="151.290064">
  <ele>343.0</ele>
  <time>2026-08-29T20:44:00Z</time>
  <course>0.0</course>
  <speed>0.0</speed>
  <fix>3d</fix>
</trkpt>
<trkpt lat="-27.274439" lon="151.290064">
  <ele>343.0</ele>
  <time>2026-08-29T20:44:00Z</time>
  <course>239.18</course>
  <speed>1.3601470508735443</speed>
  <fix>3d</fix>
</trkpt>
<trkpt lat="-27.274439" lon="151.290064">
  <ele>343.0</ele>
  <time>2026-08-29T20:44:00Z</time>
  <course>0.0</course>
  <speed>0.0</speed>
  <fix>3d</fix>
</trkpt>
<trkpt lat="-27.274439" lon="151.290064">
  <ele>343.0</ele>
  <time>2026-08-29T20:44:00Z</time>
  <course>230.14</course>
  <speed>1.2220065466273085</speed>
  <fix>3d</fix>
</trkpt>
<trkpt lat="-27.274439" lon="151.290064">
  <ele>343.0</ele>
  <time>2026-08-29T20:44:00Z</time>
  <course>0.0</course>
  <speed>0.0</speed>
  <fix>3d</fix>
</trkpt>
<trkpt lat="-27.274439" lon="151.290064">
  <ele>343.0</ele>
  <time>2026-08-29T20:44:00Z</time>
  <course>211.27</course>
  <speed>1.035857133006285</speed>
  <fix>3d</fix>
</trkpt>
<trkpt lat="-27.274439" lon="151.290064">
  <ele>343.0</ele>
  <time>2026-08-29T20:44:00Z</time>
  <course>0.0</course>
  <speed>0.0</speed>
  <fix>3d</fix>
</trkpt>
<trkpt lat="-27.274439" lon="151.290064">
  <ele>343.0</ele>
  <time>2026-08-29T20:44:00Z</time>
  <course>201.62</course>
  <speed>0.9832598842625484</speed>
  <fix>3d</fix>
</trkpt>
<trkpt lat="-27.274439" lon="151.290064">
  <ele>343.0</ele>
  <time>2026-08-29T20:44:00Z</time>
  <course>0.0</course>
  <speed>0.0</speed>
  <fix>3d</fix>
</trkpt>
<trkpt lat="-27.274439" lon="151.290064">
  <ele>343.0</ele>
  <time>2026-08-29T20:44:00Z</time>
  <course>191.86</course>
  <speed>0.9504735661763561</speed>
  <fix>3d</fix>
</trkpt>
<trkpt lat="-27.274439" lon="151.290064">
  <ele>343.0</ele>
  <time>2026-08-29T20:44:00Z</time>
  <course>0.0</course>
  <speed>0.0</speed>
  <fix>3d</fix>
</trkpt>
<trkpt lat="-27.274439" lon="151.290064">
  <ele>343.0</ele>
  <time>2026-08-29T20:44:00Z</time>
  <course>182.03</course>
  <speed>0.9000555538409837</speed>
  <fix>3d</fix>
</trkpt>
<trkpt lat="-27.274439" lon="151.290064">
  <ele>343.0</ele>
  <time>2026-08-29T20:44:00Z</time>
  <course>0.0</course>
  <speed>0.0</speed>
  <fix>3d</fix>
</trkpt>
<trkpt lat="-27.274439" lon="151.290064">
  <ele>343.0</ele>
  <time>2026-08-29T20:44:00Z</time>
  <course>172.16</course>
  <speed>0.8209750300709517</speed>
  <fix>3d</fix>
</trkpt>
<trkpt lat="-27.274439" lon="151.290064">
  <ele>343.0</ele>
  <time>2026-08-29T20:44:00Z</time>
  <course>0.0</course>
  <speed>0.0</speed>
  <fix>3d</fix>
</trkpt>
<trkpt lat="-27.274439" lon="151.290064">
  <ele>343.0</ele>
  <time>2026-08-29T20:44:00Z</time>
  <course>162.31</course>
  <speed>0.7752418977325722</speed>
  <fix>3d</fix>
</trkpt>
<trkpt lat="-27.274439" lon="151.290064">
  <ele>343.0</ele>
  <time>2026-08-29T20:44:00Z</time>
  <course>0.0</course>
  <speed>0.0</speed>
  <fix>3d</fix>
</trkpt>
<trkpt lat="-27.274439" lon="151.290064">
  <ele>343.0</ele>
  <time>2026-08-29T20:44:00Z</time>
  <course>152.45</course>
  <speed>0.71386273190299</speed>
  <fix>3d</fix>
</trkpt>
<trkpt lat="-27.274439" lon="151.290064">
  <ele>343.0</ele>
  <time>2026-08-29T20:44:00Z</time>
  <course>0.0</course>
  <speed>0.0</speed>
  <fix>3d</fix>
</trkpt>
<trkpt lat="-27.274439" lon="151.290064">
  <ele>343.0</ele>
  <time>2026-08-29T20:44:00Z</time>
  <course>142.58</course>
  <speed>0.648459713474939</speed>
  <fix>3d</fix>
</trkpt>
<trkpt lat="-27.274439" lon="151.290064">
  <ele>343.0</ele>
  <time>2026-08-29T20:44:00Z</time>
  <course>0.0</course>
  <speed>0.0</speed>
  <fix>3d</fix>
</trkpt>
<trkpt lat="-27.274439" lon="151.290064">
  <ele>343.0</ele>
  <time>2026-08-29T20:44:00Z</time>
  <course>122.87</course>
  <speed>0.4939635614091387</speed>
  <fix>3d</fix>
</trkpt>
<trkpt lat="-27.274439" lon="151.290064">
  <ele>343.0</ele>
  <time>2026-08-29T20:44:00Z</time>
  <course>0.0</course>
  <speed>0.0</speed>
  <fix>3d</fix>
</trkpt>
<trkpt lat="-27.274439" lon="151.290064">
  <ele>343.0</ele>
  <time>2026-08-29T20:44:00Z</time>
  <course>113.08</course>
  <speed>0.396232255123179</speed>
  <fix>3d</fix>
</trkpt>
<trkpt lat="-27.274439" lon="151.290064">
  <ele>343.0</ele>
  <time>2026-08-29T20:44:00Z</time>
  <course>0.0</course>
  <speed>0.0</speed>
  <fix>3d</fix>
</trkpt>
<trkpt lat="-27.274439" lon="151.290064">
  <ele>343.0</ele>
  <time>2026-08-29T20:44:00Z</time>
  <course>103.23</course>
  <speed>0.32249030993194194</speed>
  <fix>3d</fix>
</trkpt>
<trkpt lat="-27.274439" lon="151.290064">
  <ele>343.0</ele>
  <time>2026-08-29T20:44:00Z</time>
  <course>0.0</course>
  <speed>0.0</speed>
  <fix>3d</fix>
</trkpt>
<trkpt lat="-27.274439" lon="151.290064">
  <ele>343.0</ele>
  <time>2026-08-29T20:44:00Z</time>
  <course>93.34</course>
  <speed>0.29274562336608895</speed>
  <fix>3d</fix>
</trkpt>
<trkpt lat="-27.274439" lon="151.290064">
  <ele>343.0</ele>
  <time>2026-08-29T20:44:00Z</time>
  <course>0.0</course>
  <speed>0.0</speed>
  <fix>3d</fix>
</trkpt>
<trkpt lat="-27.274439" lon="151.290064">
  <ele>343.0</ele>
  <time>2026-08-29T20:44:00Z</time>
  <course>83.42</course>
  <speed>0.29274562336608895</speed>
  <fix>3d</fix>
</trkpt>
<trkpt lat="-27.274439" lon="151.290064">
  <ele>343.0</ele>
  <time>2026-08-29T20:44:00Z</time>
  <course>0.0</course>
  <speed>0.0</speed>
  <fix>3d</fix>
</trkpt>
<trkpt lat="-27.274439" lon="151.290064">
  <ele>343.0</ele>
  <time>2026-08-29T20:44:00Z</time>
  <course>73.52</course>
  <speed>0.29966648127543394</speed>
  <fix>3d</fix>
</trkpt>
<trkpt lat="-27.274439" lon="151.290064">
  <ele>343.0</ele>
  <time>2026-08-29T20:44:00Z</time>
  <course>0.0</course>
  <speed>0.0</speed>
  <fix>3d</fix>
</trkpt>
<trkpt lat="-27.274439" lon="151.290064">
  <ele>343.0</ele>
  <time>2026-08-29T20:44:00Z</time>
  <course>63.62</course>
  <speed>0.31827660925679097</speed>
  <fix>3d</fix>
</trkpt>
<trkpt lat="-27.274439" lon="151.290064">
  <ele>343.0</ele>
  <time>2026-08-29T20:44:00Z</time>
  <course>0.0</course>
  <speed>0.0</speed>
  <fix>3d</fix>
</trkpt>
<trkpt lat="-27.274439" lon="151.290064">
  <ele>343.0</ele>
  <time>2026-08-29T20:44:00Z</time>
  <course>53.66</course>
  <speed>0.2863564212655271</speed>
  <fix>3d</fix>
</trkpt>
<trkpt lat="-27.274439" lon="151.290064">
  <ele>343.0</ele>
  <time>2026-08-29T20:44:00Z</time>
  <course>0.0</course>
  <speed>0.0</speed>
  <fix>3d</fix>
</trkpt>
<trkpt lat="-27.274439" lon="151.290064">
  <ele>343.0</ele>
  <time>2026-08-29T20:44:00Z</time>
  <course>43.6</course>
  <speed>0.196468827043885</speed>
  <fix>3d</fix>
</trkpt>
<trkpt lat="-27.274439" lon="151.290064">
  <ele>343.0</ele>
  <time>2026-08-29T20:44:00Z</time>
  <course>0.0</course>
  <speed>0.0</speed>
  <fix>3d</fix>
</trkpt>
<trkpt lat="-27.274439" lon="151.290064">
  <ele>343.0</ele>
  <time>2026-08-29T20:44:00Z</time>
  <course>33.61</course>
  <speed>0.12041594578792296</speed>
  <fix>3d</fix>
</trkpt>
<trkpt lat="-27.274439" lon="151.290064">
  <ele>343.0</ele>
  <time>2026-08-29T20:44:00Z</time>
  <course>0.0</course>
  <speed>0.0</speed>
  <fix>3d</fix>
</trkpt>
<trkpt lat="-27.274439" lon="151.290064">
  <ele>343.0</ele>
  <time>2026-08-29T20:44:00Z</time>
  <course>23.68</course>
  <speed>0.09055385138137417</speed>
  <fix>3d</fix>
</trkpt>
<trkpt lat="-27.274439" lon="151.290064">
  <ele>343.0</ele>
  <time>2026-08-29T20:44:00Z</time>
  <course>0.0</course>
  <speed>0.0</speed>
  <fix>3d</fix>
</trkpt>
<trkpt lat="-27.274439" lon="151.290064">
  <ele>343.0</ele>
  <time>2026-08-29T20:44:00Z</time>
  <course>325.88</course>
  <speed>0.0</speed>
  <fix>3d</fix>
</trkpt>
<trkpt lat="-27.274439" lon="151.290064">
  <ele>343.0</ele>
  <time>2026-08-29T20:44:00Z</time>
  <course>324.43</course>
  <speed>0.0</speed>
  <fix>3d</fix>
</trkpt>
<trkpt lat="-27.274439" lon="151.290064">
  <ele>343.0</ele>
  <time>2026-08-29T20:44:00Z</time>
  <course>321.86</course>
  <speed>0.0</speed>
  <fix>3d</fix>
</trkpt>
<trkpt lat="-27.274439" lon="151.290064">
  <ele>343.0</ele>
  <time>2026-08-29T20:44:00Z</time>
  <course>295.0</course>
  <speed>0.0</speed>
  <fix>3d</fix>
</trkpt>
<trkpt lat="-27.274439" lon="151.290064">
  <ele>343.0</ele>
  <time>2026-08-29T20:44:00Z</time>
  <course>290.72</course>
  <speed>0.0</speed>
  <fix>3d</fix>
</trkpt>
<trkpt lat="-27.274439" lon="151.290064">
  <ele>343.0</ele>
  <time>2026-08-29T20:44:00Z</time>
  <course>284.84</course>
  <speed>0.0</speed>
  <fix>3d</fix>
</trkpt>
<trkpt lat="-27.274439" lon="151.290064">
  <ele>343.0</ele>
  <time>2026-08-29T20:44:01Z</time>
  <course>277.79</course>
  <speed>0.0</speed>
  <fix>3d</fix>
</trkpt>
<trkpt lat="-27.274439" lon="151.290064">
  <ele>343.0</ele>
  <time>2026-08-29T20:44:01Z</time>
  <course>269.55</course>
  <speed>0.0</speed>
  <fix>3d</fix>
</trkpt>
<trkpt lat="-27.274439" lon="151.290064">
  <ele>343.0</ele>
  <time>2026-08-29T20:44:01Z</time>
  <course>262.16</course>
  <speed>0.9176055797563569</speed>
  <fix>3d</fix>
</trkpt>
<trkpt lat="-27.274439" lon="151.290064">
  <ele>343.0</ele>
  <time>2026-08-29T20:44:01Z</time>
  <course>0.0</course>
  <speed>0.0</speed>
  <fix>3d</fix>
</trkpt>
<trkpt lat="-27.274439" lon="151.290064">
  <ele>343.0</ele>
  <time>2026-08-29T20:44:01Z</time>
  <course>256.4</course>
  <speed>0.9403190947758107</speed>
  <fix>3d</fix>
</trkpt>
<trkpt lat="-27.274439" lon="151.290064">
  <ele>343.0</ele>
  <time>2026-08-29T20:44:01Z</time>
  <course>0.0</course>
  <speed>0.0</speed>
  <fix>3d</fix>
</trkpt>
<trkpt lat="-27.274439" lon="151.290064">
  <ele>343.0</ele>
  <time>2026-08-29T20:44:01Z</time>
  <course>249.45</course>
  <speed>0.756042326857432</speed>
  <fix>3d</fix>
</trkpt>
<trkpt lat="-27.274439" lon="151.290064">
  <ele>343.0</ele>
  <time>2026-08-29T20:44:01Z</time>
  <course>0.0</course>
  <speed>0.0</speed>
  <fix>3d</fix>
</trkpt>
<trkpt lat="-27.274439" lon="151.290064">
  <ele>343.0</ele>
  <time>2026-08-29T20:44:01Z</time>
  <course>241.79</course>
  <speed>0.6596969000988256</speed>
  <fix>3d</fix>
</trkpt>
<trkpt lat="-27.274439" lon="151.290064">
  <ele>343.0</ele>
  <time>2026-08-29T20:44:01Z</time>
  <course>0.0</course>
  <speed>0.0</speed>
  <fix>3d</fix>
</trkpt>
<trkpt lat="-27.274439" lon="151.290064">
  <ele>343.0</ele>
  <time>2026-08-29T20:44:01Z</time>
  <course>233.59</course>
  <speed>0.6618912297349165</speed>
  <fix>3d</fix>
</trkpt>
<trkpt lat="-27.274439" lon="151.290064">
  <ele>343.0</ele>
  <time>2026-08-29T20:44:01Z</time>
  <course>0.0</course>
  <speed>0.0</speed>
  <fix>3d</fix>
</trkpt>
<trkpt lat="-27.274439" lon="151.290064">
  <ele>343.0</ele>
  <time>2026-08-29T20:44:01Z</time>
  <course>225.02</course>
  <speed>0.7034202158027589</speed>
  <fix>3d</fix>
</trkpt>
<trkpt lat="-27.274439" lon="151.290064">
  <ele>343.0</ele>
  <time>2026-08-29T20:44:01Z</time>
  <course>0.0</course>
  <speed>0.0</speed>
  <fix>3d</fix>
</trkpt>
<trkpt lat="-27.274439" lon="151.290064">
  <ele>343.0</ele>
  <time>2026-08-29T20:44:01Z</time>
  <course>216.17</course>
  <speed>0.7539230729988305</speed>
  <fix>3d</fix>
</trkpt>
<trkpt lat="-27.274439" lon="151.290064">
  <ele>343.0</ele>
  <time>2026-08-29T20:44:01Z</time>
  <course>0.0</course>
  <speed>0.0</speed>
  <fix>3d</fix>
</trkpt>
<trkpt lat="-27.274439" lon="151.290064">
  <ele>343.0</ele>
  <time>2026-08-29T20:44:01Z</time>
  <course>206.93</course>
  <speed>0.3721558813185679</speed>
  <fix>3d</fix>
</trkpt>
<trkpt lat="-27.274439" lon="151.290064">
  <ele>343.0</ele>
  <time>2026-08-29T20:44:01Z</time>
  <course>0.0</course>
  <speed>0.0</speed>
  <fix>3d</fix>
</trkpt>
<trkpt lat="-27.274439" lon="151.290064">
  <ele>343.0</ele>
  <time>2026-08-29T20:44:01Z</time>
  <course>197.48</course>
  <speed>0.11661903789690602</speed>
  <fix>3d</fix>
</trkpt>
<trkpt lat="-27.274439" lon="151.290064">
  <ele>343.0</ele>
  <time>2026-08-29T20:44:01Z</time>
  <course>0.0</course>
  <speed>0.0</speed>
  <fix>3d</fix>
</trkpt>
<trkpt lat="-27.274439" lon="151.290064">
  <ele>343.0</ele>
  <time>2026-08-29T20:44:01Z</time>
  <course>188.05</course>
  <speed>0.09848857801796104</speed>
  <fix>3d</fix>
</trkpt>
<trkpt lat="-27.274439" lon="151.290064">
  <ele>343.0</ele>
  <time>2026-08-29T20:44:01Z</time>
  <course>0.0</course>
  <speed>0.0</speed>
  <fix>3d</fix>
</trkpt>
<trkpt lat="-27.274439" lon="151.290064">
  <ele>343.0</ele>
  <time>2026-08-29T20:44:01Z</time>
  <course>178.62</course>
  <speed>0.11704699910719625</speed>
  <fix>3d</fix>
</trkpt>
<trkpt lat="-27.274439" lon="151.290064">
  <ele>343.0</ele>
  <time>2026-08-29T20:44:01Z</time>
  <course>0.0</course>
  <speed>0.0</speed>
  <fix>3d</fix>
</trkpt>
<trkpt lat="-27.274439" lon="151.290064">
  <ele>343.0</ele>
  <time>2026-08-29T20:44:01Z</time>
  <course>325.88</course>
  <speed>0.0</speed>
  <fix>3d</fix>
</trkpt>
<trkpt lat="-27.274439" lon="151.290064">
  <ele>343.0</ele>
  <time>2026-08-29T20:44:01Z</time>
  <course>324.43</course>
  <speed>0.0</speed>
  <fix>3d</fix>
</trkpt>
<trkpt lat="-27.274439" lon="151.290064">
  <ele>343.0</ele>
  <time>2026-08-29T20:44:01Z</time>
  <course>321.86</course>
  <speed>0.0</speed>
  <fix>3d</fix>
</trkpt>
<trkpt lat="-27.274439" lon="151.290064">
  <ele>343.0</ele>
  <time>2026-08-29T20:44:01Z</time>
  <course>295.0</course>
  <speed>0.0</speed>
  <fix>3d</fix>
</trkpt>
<trkpt lat="-27.274439" lon="151.290064">
  <ele>343.0</ele>
  <time>2026-08-29T20:44:01Z</time>
  <course>290.72</course>
  <speed>0.0</speed>
  <fix>3d</fix>
</trkpt>
<trkpt lat="-27.274439" lon="151.290064">
  <ele>343.0</ele>
  <time>2026-08-29T20:44:01Z</time>
  <course>284.84</course>
  <speed>0.0</speed>
  <fix>3d</fix>
</trkpt>
<trkpt lat="-27.274439" lon="151.290064">
  <ele>343.0</ele>
  <time>2026-08-29T20:44:01Z</time>
  <course>277.79</course>
  <speed>0.0</speed>
  <fix>3d</fix>
</trkpt>
<trkpt lat="-27.274439" lon="151.290064">
  <ele>343.0</ele>
  <time>2026-08-29T20:44:01Z</time>
  <course>269.55</course>
  <speed>0.0</speed>
  <fix>3d</fix>
</trkpt>
<trkpt lat="-27.274439" lon="151.290064">
  <ele>343.0</ele>
  <time>2026-08-29T20:44:01Z</time>
  <course>262.16</course>
  <speed>0.9176055797563569</speed>
  <fix>3d</fix>
</trkpt>
<trkpt lat="-27.274439" lon="151.290064">
  <ele>343.0</ele>
  <time>2026-08-29T20:44:01Z</time>
  <course>0.0</course>
  <speed>0.0</speed>
  <fix>3d</fix>
</trkpt>
<trkpt lat="-27.274439" lon="151.290064">
  <ele>343.0</ele>
  <time>2026-08-29T20:44:01Z</time>
  <course>256.4</course>
  <speed>0.9403190947758107</speed>
  <fix>3d</fix>
</trkpt>
<trkpt lat="-27.274439" lon="151.290064">
  <ele>343.0</ele>
  <time>2026-08-29T20:44:01Z</time>
  <course>0.0</course>
  <speed>0.0</speed>
  <fix>3d</fix>
</trkpt>
<trkpt lat="-27.274439" lon="151.290064">
  <ele>343.0</ele>
  <time>2026-08-29T20:44:01Z</time>
  <course>249.45</course>
  <speed>0.756042326857432</speed>
  <fix>3d</fix>
</trkpt>
<trkpt lat="-27.274439" lon="151.290064">
  <ele>343.0</ele>
  <time>2026-08-29T20:44:01Z</time>
  <course>0.0</course>
  <speed>0.0</speed>
  <fix>3d</fix>
</trkpt>
<trkpt lat="-27.274439" lon="151.290064">
  <ele>343.0</ele>
  <time>2026-08-29T20:44:01Z</time>
  <course>241.79</course>
  <speed>0.6596969000988256</speed>
  <fix>3d</fix>
</trkpt>
<trkpt lat="-27.274439" lon="151.290064">
  <ele>343.0</ele>
  <time>2026-08-29T20:44:01Z</time>
  <course>0.0</course>
  <speed>0.0</speed>
  <fix>3d</fix>
</trkpt>
<trkpt lat="-27.274439" lon="151.290064">
  <ele>343.0</ele>
  <time>2026-08-29T20:44:01Z</time>
  <course>233.59</course>
  <speed>0.6618912297349165</speed>
  <fix>3d</fix>
</trkpt>
<trkpt lat="-27.274439" lon="151.290064">
  <ele>343.0</ele>
  <time>2026-08-29T20:44:01Z</time>
  <course>0.0</course>
  <speed>0.0</speed>
  <fix>3d</fix>
</trkpt>
<trkpt lat="-27.274439" lon="151.290064">
  <ele>343.0</ele>
  <time>2026-08-29T20:44:01Z</time>
  <course>216.17</course>
  <speed>0.7539230729988305</speed>
  <fix>3d</fix>
</trkpt>
<trkpt lat="-27.274439" lon="151.290064">
  <ele>343.0</ele>
  <time>2026-08-29T20:44:01Z</time>
  <course>0.0</course>
  <speed>0.0</speed>
  <fix>3d</fix>
</trkpt>
<trkpt lat="-27.274439" lon="151.290064">
  <ele>343.0</ele>
  <time>2026-08-29T20:44:01Z</time>
  <course>207.13</course>
  <speed>0.8052949770115296</speed>
  <fix>3d</fix>
</trkpt>
<trkpt lat="-27.274439" lon="151.290064">
  <ele>343.0</ele>
  <time>2026-08-29T20:44:01Z</time>
  <course>0.0</course>
  <speed>0.0</speed>
  <fix>3d</fix>
</trkpt>
<trkpt lat="-27.274439" lon="151.290064">
  <ele>343.0</ele>
  <time>2026-08-29T20:44:01Z</time>
  <course>197.95</course>
  <speed>0.8453401682163222</speed>
  <fix>3d</fix>
</trkpt>
<trkpt lat="-27.274439" lon="151.290064">
  <ele>343.0</ele>
  <time>2026-08-29T20:44:01Z</time>
  <course>0.0</course>
  <speed>0.0</speed>
  <fix>3d</fix>
</trkpt>
<trkpt lat="-27.274439" lon="151.290064">
  <ele>343.0</ele>
  <time>2026-08-29T20:44:01Z</time>
  <course>188.67</course>
  <speed>0.878179936004006</speed>
  <fix>3d</fix>
</trkpt>
<trkpt lat="-27.274439" lon="151.290064">
  <ele>343.0</ele>
  <time>2026-08-29T20:44:01Z</time>
  <course>0.0</course>
  <speed>0.0</speed>
  <fix>3d</fix>
</trkpt>
<trkpt lat="-27.274439" lon="151.290064">
  <ele>343.0</ele>
  <time>2026-08-29T20:44:01Z</time>
  <course>179.31</course>
  <speed>0.8848163651289458</speed>
  <fix>3d</fix>
</trkpt>
<trkpt lat="-27.274439" lon="151.290064">
  <ele>343.0</ele>
  <time>2026-08-29T20:44:01Z</time>
  <course>0.0</course>
  <speed>0.0</speed>
  <fix>3d</fix>
</trkpt>
<trkpt lat="-27.274439" lon="151.290064">
  <ele>343.0</ele>
  <time>2026-08-29T20:44:01Z</time>
  <course>169.93</course>
  <speed>0.9140021881811882</speed>
  <fix>3d</fix>
</trkpt>
<trkpt lat="-27.274439" lon="151.290064">
  <ele>343.0</ele>
  <time>2026-08-29T20:44:01Z</time>
  <course>0.0</course>
  <speed>0.0</speed>
  <fix>3d</fix>
</trkpt>
<trkpt lat="-27.274439" lon="151.290064">
  <ele>343.0</ele>
  <time>2026-08-29T20:44:07Z</time>
  <course>161.9</course>
  <speed>0.9219544457292888</speed>
  <fix>3d</fix>
</trkpt>
<trkpt lat="-27.274439" lon="151.290064">
  <ele>343.0</ele>
  <time>2026-08-29T20:44:07Z</time>
  <course>0.0</course>
  <speed>0.0</speed>
  <fix>3d</fix>
</trkpt>
<trkpt lat="-27.274439" lon="151.290064">
  <ele>343.0</ele>
  <time>2026-08-29T20:44:07Z</time>
  <course>158.55</course>
  <speed>0.9411163583744573</speed>
  <fix>3d</fix>
</trkpt>
<trkpt lat="-27.274439" lon="151.290064">
  <ele>343.0</ele>
  <time>2026-08-29T20:44:07Z</time>
  <course>0.0</course>
  <speed>0.0</speed>
  <fix>3d</fix>
</trkpt>
<trkpt lat="-27.274439" lon="151.290064">
  <ele>343.0</ele>
  <time>2026-08-29T20:44:07Z</time>
  <course>157.2</course>
  <speed>0.9546203433826455</speed>
  <fix>3d</fix>
</trkpt>
<trkpt lat="-27.274439" lon="151.290064">
  <ele>343.0</ele>
  <time>2026-08-29T20:44:07Z</time>
  <course>0.0</course>
  <speed>0.0</speed>
  <fix>3d</fix>
</trkpt>
<trkpt lat="-27.274439" lon="151.290064">
  <ele>343.0</ele>
  <time>2026-08-29T20:44:07Z</time>
  <course>156.57</course>
  <speed>0.9642613753542137</speed>
  <fix>3d</fix>
</trkpt>
<trkpt lat="-27.274439" lon="151.290064">
  <ele>343.0</ele>
  <time>2026-08-29T20:44:07Z</time>
  <course>0.0</course>
  <speed>0.0</speed>
  <fix>3d</fix>
</trkpt>
<trkpt lat="-27.274439" lon="151.290064">
  <ele>343.0</ele>
  <time>2026-08-29T20:44:07Z</time>
  <course>156.21</course>
  <speed>0.9602083107326242</speed>
  <fix>3d</fix>
</trkpt>
<trkpt lat="-27.274439" lon="151.290064">
  <ele>343.0</ele>
  <time>2026-08-29T20:44:07Z</time>
  <course>0.0</course>
  <speed>0.0</speed>
  <fix>3d</fix>
</trkpt>
<trkpt lat="-27.274439" lon="151.290064">
  <ele>343.0</ele>
  <time>2026-08-29T20:44:07Z</time>
  <course>155.95</course>
  <speed>0.9689685237405805</speed>
  <fix>3d</fix>
</trkpt>
<trkpt lat="-27.274439" lon="151.290064">
  <ele>343.0</ele>
  <time>2026-08-29T20:44:07Z</time>
  <course>0.0</course>
  <speed>0.0</speed>
  <fix>3d</fix>
</trkpt>
<trkpt lat="-27.274439" lon="151.290064">
  <ele>343.0</ele>
  <time>2026-08-29T20:44:07Z</time>
  <course>155.71</course>
  <speed>0.9800510190801294</speed>
  <fix>3d</fix>
</trkpt>
<trkpt lat="-27.274439" lon="151.290064">
  <ele>343.0</ele>
  <time>2026-08-29T20:44:07Z</time>
  <course>0.0</course>
  <speed>0.0</speed>
  <fix>3d</fix>
</trkpt>
<trkpt lat="-27.274439" lon="151.290064">
  <ele>343.0</ele>
  <time>2026-08-29T20:44:07Z</time>
  <course>155.49</course>
  <speed>0.9972963451251589</speed>
  <fix>3d</fix>
</trkpt>
<trkpt lat="-27.274439" lon="151.290064">
  <ele>343.0</ele>
  <time>2026-08-29T20:44:07Z</time>
  <course>0.0</course>
  <speed>0.0</speed>
  <fix>3d</fix>
</trkpt>
<trkpt lat="-27.274439" lon="151.290064">
  <ele>343.0</ele>
  <time>2026-08-29T20:44:07Z</time>
  <course>155.27</course>
  <speed>1.0113357503816425</speed>
  <fix>3d</fix>
</trkpt>
<trkpt lat="-27.274439" lon="151.290064">
  <ele>343.0</ele>
  <time>2026-08-29T20:44:07Z</time>
  <course>0.0</course>
  <speed>0.0</speed>
  <fix>3d</fix>
</trkpt>
<trkpt lat="-27.274439" lon="151.290064">
  <ele>343.0</ele>
  <time>2026-08-29T20:44:07Z</time>
  <course>155.07</course>
  <speed>1.010198000393982</speed>
  <fix>3d</fix>
</trkpt>
<trkpt lat="-27.274439" lon="151.290064">
  <ele>343.0</ele>
  <time>2026-08-29T20:44:07Z</time>
  <course>0.0</course>
  <speed>0.0</speed>
  <fix>3d</fix>
</trkpt>
<trkpt lat="-27.274439" lon="151.290064">
  <ele>343.0</ele>
  <time>2026-08-29T20:44:07Z</time>
  <course>154.88</course>
  <speed>0.9962429422585637</speed>
  <fix>3d</fix>
</trkpt>
<trkpt lat="-27.274439" lon="151.290064">
  <ele>343.0</ele>
  <time>2026-08-29T20:44:07Z</time>
  <course>0.0</course>
  <speed>0.0</speed>
  <fix>3d</fix>
</trkpt>
<trkpt lat="-27.274439" lon="151.290064">
  <ele>343.0</ele>
  <time>2026-08-29T20:44:07Z</time>
  <course>154.68</course>
  <speed>0.9751410154434076</speed>
  <fix>3d</fix>
</trkpt>
<trkpt lat="-27.274439" lon="151.290064">
  <ele>343.0</ele>
  <time>2026-08-29T20:44:07Z</time>
  <course>0.0</course>
  <speed>0.0</speed>
  <fix>3d</fix>
</trkpt>
<trkpt lat="-27.274439" lon="151.290064">
  <ele>343.0</ele>
  <time>2026-08-29T20:44:07Z</time>
  <course>154.49</course>
  <speed>0.951892851112981</speed>
  <fix>3d</fix>
</trkpt>
<trkpt lat="-27.274439" lon="151.290064">
  <ele>343.0</ele>
  <time>2026-08-29T20:44:07Z</time>
  <course>0.0</course>
  <speed>0.0</speed>
  <fix>3d</fix>
</trkpt>
<trkpt lat="-27.274439" lon="151.290064">
  <ele>343.0</ele>
  <time>2026-08-29T20:44:07Z</time>
  <course>154.29</course>
  <speed>0.9243916918709297</speed>
  <fix>3d</fix>
</trkpt>
<trkpt lat="-27.274439" lon="151.290064">
  <ele>343.0</ele>
  <time>2026-08-29T20:44:07Z</time>
  <course>0.0</course>
  <speed>0.0</speed>
  <fix>3d</fix>
</trkpt>
<trkpt lat="-27.274439" lon="151.290064">
  <ele>343.0</ele>
  <time>2026-08-29T20:44:07Z</time>
  <course>154.09</course>
  <speed>0.8900561780022652</speed>
  <fix>3d</fix>
</trkpt>
<trkpt lat="-27.274439" lon="151.290064">
  <ele>343.0</ele>
  <time>2026-08-29T20:44:07Z</time>
  <course>0.0</course>
  <speed>0.0</speed>
  <fix>3d</fix>
</trkpt>
<trkpt lat="-27.274439" lon="151.290064">
  <ele>343.0</ele>
  <time>2026-08-29T20:44:07Z</time>
  <course>153.88</course>
  <speed>0.8514693182963201</speed>
  <fix>3d</fix>
</trkpt>
<trkpt lat="-27.274439" lon="151.290064">
  <ele>343.0</ele>
  <time>2026-08-29T20:44:07Z</time>
  <course>0.0</course>
  <speed>0.0</speed>
  <fix>3d</fix>
</trkpt>
<trkpt lat="-27.274439" lon="151.290064">
  <ele>343.0</ele>
  <time>2026-08-29T20:44:07Z</time>
  <course>153.67</course>
  <speed>0.8174350127074322</speed>
  <fix>3d</fix>
</trkpt>
<trkpt lat="-27.274439" lon="151.290064">
  <ele>343.0</ele>
  <time>2026-08-29T20:44:07Z</time>
  <course>0.0</course>
  <speed>0.0</speed>
  <fix>3d</fix>
</trkpt>
<trkpt lat="-27.274439" lon="151.290064">
  <ele>343.0</ele>
  <time>2026-08-29T20:44:07Z</time>
  <course>153.46</course>
  <speed>0.7962411694957753</speed>
  <fix>3d</fix>
</trkpt>
<trkpt lat="-27.274439" lon="151.290064">
  <ele>343.0</ele>
  <time>2026-08-29T20:44:07Z</time>
  <course>0.0</course>
  <speed>0.0</speed>
  <fix>3d</fix>
</trkpt>
<trkpt lat="-27.274439" lon="151.290064">
  <ele>343.0</ele>
  <time>2026-08-29T20:44:07Z</time>
  <course>153.24</course>
  <speed>0.7569015788066504</speed>
  <fix>3d</fix>
</trkpt>
<trkpt lat="-27.274439" lon="151.290064">
  <ele>343.0</ele>
  <time>2026-08-29T20:44:07Z</time>
  <course>0.0</course>
  <speed>0.0</speed>
  <fix>3d</fix>
</trkpt>
<trkpt lat="-27.274439" lon="151.2900646">
  <ele>343.04</ele>
  <time>2026-08-29T20:44:07Z</time>
  <course>153.03</course>
  <speed>0.0</speed>
  <fix>3d</fix>
</trkpt>
<trkpt lat="-27.274439" lon="151.290064">
  <ele>343.0</ele>
  <time>2026-08-29T20:44:07Z</time>
  <course>0.0</course>
  <speed>0.0</speed>
  <fix>3d</fix>
</trkpt>
<trkpt lat="-27.2744392" lon="151.2900653">
  <ele>343.03</ele>
  <time>2026-08-29T20:44:07Z</time>
  <course>152.83</course>
  <speed>0.0848528137423857</speed>
  <fix>3d</fix>
</trkpt>
<trkpt lat="-27.274439" lon="151.290064">
  <ele>343.0</ele>
  <time>2026-08-29T20:44:07Z</time>
  <course>0.0</course>
  <speed>0.0</speed>
  <fix>3d</fix>
</trkpt>
<trkpt lat="-27.2744393" lon="151.2900645">
  <ele>343.02</ele>
  <time>2026-08-29T20:44:07Z</time>
  <course>152.57</course>
  <speed>0.08602325267042626</speed>
  <fix>3d</fix>
</trkpt>
<trkpt lat="-27.274439" lon="151.290064">
  <ele>343.0</ele>
  <time>2026-08-29T20:44:07Z</time>
  <course>0.0</course>
  <speed>0.0</speed>
  <fix>3d</fix>
</trkpt>
<trkpt lat="-27.2744392" lon="151.2900642">
  <ele>343.03</ele>
  <time>2026-08-29T20:44:07Z</time>
  <course>152.29</course>
  <speed>0.05830951894845301</speed>
  <fix>3d</fix>
</trkpt>
<trkpt lat="-27.274439" lon="151.290064">
  <ele>343.0</ele>
  <time>2026-08-29T20:44:07Z</time>
  <course>0.0</course>
  <speed>0.0</speed>
  <fix>3d</fix>
</trkpt>
<trkpt lat="-27.2744391" lon="151.2900641">
  <ele>343.06</ele>
  <time>2026-08-29T20:44:07Z</time>
  <course>152.03</course>
  <speed>0.02</speed>
  <fix>3d</fix>
</trkpt>
<trkpt lat="-27.274439" lon="151.290064">
  <ele>343.0</ele>
  <time>2026-08-29T20:44:07Z</time>
  <course>0.0</course>
  <speed>0.0</speed>
  <fix>3d</fix>
</trkpt>
<trkpt lat="-27.274439" lon="151.290064">
  <ele>343.05</ele>
  <time>2026-08-29T20:44:07Z</time>
  <course>151.79</course>
  <speed>0.01</speed>
  <fix>3d</fix>
</trkpt>
<trkpt lat="-27.274439" lon="151.290064">
  <ele>343.0</ele>
  <time>2026-08-29T20:44:07Z</time>
  <course>0.0</course>
  <speed>0.0</speed>
  <fix>3d</fix>
</trkpt>
<trkpt lat="-27.274439" lon="151.290064">
  <ele>343.04</ele>
  <time>2026-08-29T20:44:07Z</time>
  <course>151.57</course>
  <speed>0.01414213562373095</speed>
  <fix>3d</fix>
</trkpt>
<trkpt lat="-27.274439" lon="151.290064">
  <ele>343.0</ele>
  <time>2026-08-29T20:44:07Z</time>
  <course>0.0</course>
  <speed>0.0</speed>
  <fix>3d</fix>
</trkpt>
<trkpt lat="-27.2744389" lon="151.2900639">
  <ele>343.04</ele>
  <time>2026-08-29T20:44:07Z</time>
  <course>151.37</course>
  <speed>0.01414213562373095</speed>
  <fix>3d</fix>
</trkpt>
<trkpt lat="-27.274439" lon="151.290064">
  <ele>343.0</ele>
  <time>2026-08-29T20:44:07Z</time>
  <course>0.0</course>
  <speed>0.0</speed>
  <fix>3d</fix>
</trkpt>
<trkpt lat="-27.2744389" lon="151.2900638">
  <ele>343.05</ele>
  <time>2026-08-29T20:44:07Z</time>
  <course>151.18</course>
  <speed>0.0282842712474619</speed>
  <fix>3d</fix>
</trkpt>
<trkpt lat="-27.274439" lon="151.290064">
  <ele>343.0</ele>
  <time>2026-08-29T20:44:07Z</time>
  <course>0.0</course>
  <speed>0.0</speed>
  <fix>3d</fix>
</trkpt>
<trkpt lat="-27.2744389" lon="151.2900638">
  <ele>343.06</ele>
  <time>2026-08-29T20:44:07Z</time>
  <course>151.01</course>
  <speed>0.0282842712474619</speed>
  <fix>3d</fix>
</trkpt>
<trkpt lat="-27.274439" lon="151.290064">
  <ele>343.0</ele>
  <time>2026-08-29T20:44:07Z</time>
  <course>0.0</course>
  <speed>0.0</speed>
  <fix>3d</fix>
</trkpt>
<trkpt lat="-27.2744389" lon="151.2900638">
  <ele>343.03</ele>
  <time>2026-08-29T20:44:07Z</time>
  <course>150.84</course>
  <speed>0.0282842712474619</speed>
  <fix>3d</fix>
</trkpt>
<trkpt lat="-27.274439" lon="151.290064">
  <ele>343.0</ele>
  <time>2026-08-29T20:44:07Z</time>
  <course>0.0</course>
  <speed>0.0</speed>
  <fix>3d</fix>
</trkpt>
<trkpt lat="-27.2744389" lon="151.2900638">
  <ele>343.04</ele>
  <time>2026-08-29T20:44:07Z</time>
  <course>150.68</course>
  <speed>0.0282842712474619</speed>
  <fix>3d</fix>
</trkpt>
<trkpt lat="-27.274439" lon="151.290064">
  <ele>343.0</ele>
  <time>2026-08-29T20:44:07Z</time>
  <course>0.0</course>
  <speed>0.0</speed>
  <fix>3d</fix>
</trkpt>
<trkpt lat="-27.2744389" lon="151.2900638">
  <ele>343.03</ele>
  <time>2026-08-29T20:44:07Z</time>
  <course>150.52</course>
  <speed>0.022360679774997897</speed>
  <fix>3d</fix>
</trkpt>
<trkpt lat="-27.274439" lon="151.290064">
  <ele>343.0</ele>
  <time>2026-08-29T20:44:07Z</time>
  <course>0.0</course>
  <speed>0.0</speed>
  <fix>3d</fix>
</trkpt>
<trkpt lat="-27.2744389" lon="151.2900638">
  <ele>343.04</ele>
  <time>2026-08-29T20:44:07Z</time>
  <course>150.38</course>
  <speed>0.022360679774997897</speed>
  <fix>3d</fix>
</trkpt>
<trkpt lat="-27.274439" lon="151.290064">
  <ele>343.0</ele>
  <time>2026-08-29T20:44:07Z</time>
  <course>0.0</course>
  <speed>0.0</speed>
  <fix>3d</fix>
</trkpt>
<trkpt lat="-27.2744389" lon="151.2900638">
  <ele>343.03</ele>
  <time>2026-08-29T20:44:07Z</time>
  <course>150.24</course>
  <speed>0.022360679774997897</speed>
  <fix>3d</fix>
</trkpt>
<trkpt lat="-27.274439" lon="151.290064">
  <ele>343.0</ele>
  <time>2026-08-29T20:44:07Z</time>
  <course>0.0</course>
  <speed>0.0</speed>
  <fix>3d</fix>
</trkpt>
<trkpt lat="-27.2744389" lon="151.2900638">
  <ele>343.02</ele>
  <time>2026-08-29T20:44:07Z</time>
  <course>150.11</course>
  <speed>0.022360679774997897</speed>
  <fix>3d</fix>
</trkpt>
<trkpt lat="-27.274439" lon="151.290064">
  <ele>343.0</ele>
  <time>2026-08-29T20:44:07Z</time>
  <course>0.0</course>
  <speed>0.0</speed>
  <fix>3d</fix>
</trkpt>
<trkpt lat="-27.2744389" lon="151.2900638">
  <ele>343.0</ele>
  <time>2026-08-29T20:44:07Z</time>
  <course>149.98</course>
  <speed>0.022360679774997897</speed>
  <fix>3d</fix>
</trkpt>
<trkpt lat="-27.274439" lon="151.290064">
  <ele>343.0</ele>
  <time>2026-08-29T20:44:07Z</time>
  <course>0.0</course>
  <speed>0.0</speed>
  <fix>3d</fix>
</trkpt>
<trkpt lat="-27.2744389" lon="151.2900638">
  <ele>343.01</ele>
  <time>2026-08-29T20:44:07Z</time>
  <course>149.86</course>
  <speed>0.022360679774997897</speed>
  <fix>3d</fix>
</trkpt>
<trkpt lat="-27.274439" lon="151.290064">
  <ele>343.0</ele>
  <time>2026-08-29T20:44:07Z</time>
  <course>0.0</course>
  <speed>0.0</speed>
  <fix>3d</fix>
</trkpt>
<trkpt lat="-27.2744389" lon="151.2900638">
  <ele>343.04</ele>
  <time>2026-08-29T20:44:07Z</time>
  <course>149.75</course>
  <speed>0.022360679774997897</speed>
  <fix>3d</fix>
</trkpt>
<trkpt lat="-27.274439" lon="151.290064">
  <ele>343.0</ele>
  <time>2026-08-29T20:44:07Z</time>
  <course>0.0</course>
  <speed>0.0</speed>
  <fix>3d</fix>
</trkpt>
<trkpt lat="-27.2744389" lon="151.2900638">
  <ele>343.04</ele>
  <time>2026-08-29T20:44:07Z</time>
  <course>149.64</course>
  <speed>0.022360679774997897</speed>
  <fix>3d</fix>
</trkpt>
<trkpt lat="-27.274439" lon="151.290064">
  <ele>343.0</ele>
  <time>2026-08-29T20:44:07Z</time>
  <course>0.0</course>
  <speed>0.0</speed>
  <fix>3d</fix>
</trkpt>
<trkpt lat="-27.2744389" lon="151.2900638">
  <ele>343.04</ele>
  <time>2026-08-29T20:44:07Z</time>
  <course>149.53</course>
  <speed>0.022360679774997897</speed>
  <fix>3d</fix>
</trkpt>
<trkpt lat="-27.274439" lon="151.290064">
  <ele>343.0</ele>
  <time>2026-08-29T20:44:07Z</time>
  <course>0.0</course>
  <speed>0.0</speed>
  <fix>3d</fix>
</trkpt>
<trkpt lat="-27.2744389" lon="151.2900638">
  <ele>343.04</ele>
  <time>2026-08-29T20:44:07Z</time>
  <course>149.44</course>
  <speed>0.022360679774997897</speed>
  <fix>3d</fix>
</trkpt>
<trkpt lat="-27.274439" lon="151.290064">
  <ele>343.0</ele>
  <time>2026-08-29T20:44:07Z</time>
  <course>0.0</course>
  <speed>0.0</speed>
  <fix>3d</fix>
</trkpt>
<trkpt lat="-27.2744389" lon="151.2900638">
  <ele>343.03</ele>
  <time>2026-08-29T20:44:07Z</time>
  <course>149.34</course>
  <speed>0.022360679774997897</speed>
  <fix>3d</fix>
</trkpt>
<trkpt lat="-27.274439" lon="151.290064">
  <ele>343.0</ele>
  <time>2026-08-29T20:44:07Z</time>
  <course>0.0</course>
  <speed>0.0</speed>
  <fix>3d</fix>
</trkpt>
<trkpt lat="-27.2744389" lon="151.2900638">
  <ele>343.02</ele>
  <time>2026-08-29T20:44:07Z</time>
  <course>149.25</course>
  <speed>0.022360679774997897</speed>
  <fix>3d</fix>
</trkpt>
<trkpt lat="-27.274439" lon="151.290064">
  <ele>343.0</ele>
  <time>2026-08-29T20:44:07Z</time>
  <course>0.0</course>
  <speed>0.0</speed>
  <fix>3d</fix>
</trkpt>
<trkpt lat="-27.2744389" lon="151.2900638">
  <ele>343.05</ele>
  <time>2026-08-29T20:44:07Z</time>
  <course>149.17</course>
  <speed>0.022360679774997897</speed>
  <fix>3d</fix>
</trkpt>
<trkpt lat="-27.274439" lon="151.290064">
  <ele>343.0</ele>
  <time>2026-08-29T20:44:07Z</time>
  <course>0.0</course>
  <speed>0.0</speed>
  <fix>3d</fix>
</trkpt>
<trkpt lat="-27.2744389" lon="151.2900638">
  <ele>343.04</ele>
  <time>2026-08-29T20:44:07Z</time>
  <course>149.09</course>
  <speed>0.02</speed>
  <fix>3d</fix>
</trkpt>
<trkpt lat="-27.274439" lon="151.290064">
  <ele>343.0</ele>
  <time>2026-08-29T20:44:07Z</time>
  <course>0.0</course>
  <speed>0.0</speed>
  <fix>3d</fix>
</trkpt>
<trkpt lat="-27.2744389" lon="151.2900638">
  <ele>343.05</ele>
  <time>2026-08-29T20:44:07Z</time>
  <course>149.01</course>
  <speed>0.022360679774997897</speed>
  <fix>3d</fix>
</trkpt>
<trkpt lat="-27.274439" lon="151.290064">
  <ele>343.0</ele>
  <time>2026-08-29T20:44:07Z</time>
  <course>0.0</course>
  <speed>0.0</speed>
  <fix>3d</fix>
</trkpt>
<trkpt lat="-27.2744389" lon="151.2900638">
  <ele>343.03</ele>
  <time>2026-08-29T20:44:07Z</time>
  <course>148.94</course>
  <speed>0.02</speed>
  <fix>3d</fix>
</trkpt>
<trkpt lat="-27.274439" lon="151.290064">
  <ele>343.0</ele>
  <time>2026-08-29T20:44:07Z</time>
  <course>0.0</course>
  <speed>0.0</speed>
  <fix>3d</fix>
</trkpt>
<trkpt lat="-27.2744389" lon="151.2900638">
  <ele>343.02</ele>
  <time>2026-08-29T20:44:07Z</time>
  <course>148.87</course>
  <speed>0.022360679774997897</speed>
  <fix>3d</fix>
</trkpt>
<trkpt lat="-27.274439" lon="151.290064">
  <ele>343.0</ele>
  <time>2026-08-29T20:44:07Z</time>
  <course>0.0</course>
  <speed>0.0</speed>
  <fix>3d</fix>
</trkpt>
<trkpt lat="-27.2744389" lon="151.2900638">
  <ele>343.02</ele>
  <time>2026-08-29T20:44:07Z</time>
  <course>148.8</course>
  <speed>0.02</speed>
  <fix>3d</fix>
</trkpt>
<trkpt lat="-27.274439" lon="151.290064">
  <ele>343.0</ele>
  <time>2026-08-29T20:44:07Z</time>
  <course>0.0</course>
  <speed>0.0</speed>
  <fix>3d</fix>
</trkpt>
<trkpt lat="-27.2744389" lon="151.2900638">
  <ele>343.02</ele>
  <time>2026-08-29T20:44:07Z</time>
  <course>148.74</course>
  <speed>0.02</speed>
  <fix>3d</fix>
</trkpt>
<trkpt lat="-27.274439" lon="151.290064">
  <ele>343.0</ele>
  <time>2026-08-29T20:44:07Z</time>
  <course>0.0</course>
  <speed>0.0</speed>
  <fix>3d</fix>
</trkpt>
<trkpt lat="-27.2744389" lon="151.2900638">
  <ele>343.0</ele>
  <time>2026-08-29T20:44:07Z</time>
  <course>148.67</course>
  <speed>0.02</speed>
  <fix>3d</fix>
</trkpt>
<trkpt lat="-27.274439" lon="151.290064">
  <ele>343.0</ele>
  <time>2026-08-29T20:44:07Z</time>
  <course>0.0</course>
  <speed>0.0</speed>
  <fix>3d</fix>
</trkpt>
<trkpt lat="-27.2744389" lon="151.2900638">
  <ele>343.0</ele>
  <time>2026-08-29T20:44:07Z</time>
  <course>148.62</course>
  <speed>0.02</speed>
  <fix>3d</fix>
</trkpt>
<trkpt lat="-27.274439" lon="151.290064">
  <ele>343.0</ele>
  <time>2026-08-29T20:44:07Z</time>
  <course>0.0</course>
  <speed>0.0</speed>
  <fix>3d</fix>
</trkpt>
<trkpt lat="-27.2744389" lon="151.2900638">
  <ele>343.01</ele>
  <time>2026-08-29T20:44:07Z</time>
  <course>148.56</course>
  <speed>0.02</speed>
  <fix>3d</fix>
</trkpt>
<trkpt lat="-27.274439" lon="151.290064">
  <ele>343.0</ele>
  <time>2026-08-29T20:44:07Z</time>
  <course>0.0</course>
  <speed>0.0</speed>
  <fix>3d</fix>
</trkpt>
<trkpt lat="-27.2744389" lon="151.2900638">
  <ele>342.99</ele>
  <time>2026-08-29T20:44:07Z</time>
  <course>148.51</course>
  <speed>0.02</speed>
  <fix>3d</fix>
</trkpt>
<trkpt lat="-27.274439" lon="151.290064">
  <ele>343.0</ele>
  <time>2026-08-29T20:44:07Z</time>
  <course>0.0</course>
  <speed>0.0</speed>
  <fix>3d</fix>
</trkpt>
<trkpt lat="-27.2744389" lon="151.2900638">
  <ele>342.99</ele>
  <time>2026-08-29T20:44:07Z</time>
  <course>148.46</course>
  <speed>0.02</speed>
  <fix>3d</fix>
</trkpt>
<trkpt lat="-27.274439" lon="151.290064">
  <ele>343.0</ele>
  <time>2026-08-29T20:44:07Z</time>
  <course>0.0</course>
  <speed>0.0</speed>
  <fix>3d</fix>
</trkpt>
<trkpt lat="-27.2744389" lon="151.2900638">
  <ele>342.99</ele>
  <time>2026-08-29T20:44:07Z</time>
  <course>148.41</course>
  <speed>0.02</speed>
  <fix>3d</fix>
</trkpt>
<trkpt lat="-27.274439" lon="151.290064">
  <ele>343.0</ele>
  <time>2026-08-29T20:44:07Z</time>
  <course>0.0</course>
  <speed>0.0</speed>
  <fix>3d</fix>
</trkpt>
<trkpt lat="-27.2744389" lon="151.2900638">
  <ele>343.01</ele>
  <time>2026-08-29T20:44:07Z</time>
  <course>148.36</course>
  <speed>0.02</speed>
  <fix>3d</fix>
</trkpt>
<trkpt lat="-27.274439" lon="151.290064">
  <ele>343.0</ele>
  <time>2026-08-29T20:44:07Z</time>
  <course>0.0</course>
  <speed>0.0</speed>
  <fix>3d</fix>
</trkpt>
<trkpt lat="-27.2744389" lon="151.2900638">
  <ele>343.01</ele>
  <time>2026-08-29T20:44:07Z</time>
  <course>148.32</course>
  <speed>0.02</speed>
  <fix>3d</fix>
</trkpt>
<trkpt lat="-27.274439" lon="151.290064">
  <ele>343.0</ele>
  <time>2026-08-29T20:44:07Z</time>
  <course>0.0</course>
  <speed>0.0</speed>
  <fix>3d</fix>
</trkpt>
<trkpt lat="-27.2744389" lon="151.2900638">
  <ele>343.02</ele>
  <time>2026-08-29T20:44:07Z</time>
  <course>148.27</course>
  <speed>0.02</speed>
  <fix>3d</fix>
</trkpt>
<trkpt lat="-27.274439" lon="151.290064">
  <ele>343.0</ele>
  <time>2026-08-29T20:44:07Z</time>
  <course>0.0</course>
  <speed>0.0</speed>
  <fix>3d</fix>
</trkpt>
<trkpt lat="-27.2744389" lon="151.2900638">
  <ele>343.01</ele>
  <time>2026-08-29T20:44:07Z</time>
  <course>148.23</course>
  <speed>0.02</speed>
  <fix>3d</fix>
</trkpt>
<trkpt lat="-27.274439" lon="151.290064">
  <ele>343.0</ele>
  <time>2026-08-29T20:44:07Z</time>
  <course>0.0</course>
  <speed>0.0</speed>
  <fix>3d</fix>
</trkpt>
<trkpt lat="-27.2744389" lon="151.2900638">
  <ele>343.02</ele>
  <time>2026-08-29T20:44:07Z</time>
  <course>148.19</course>
  <speed>0.02</speed>
  <fix>3d</fix>
</trkpt>
<trkpt lat="-27.274439" lon="151.290064">
  <ele>343.0</ele>
  <time>2026-08-29T20:44:07Z</time>
  <course>0.0</course>
  <speed>0.0</speed>
  <fix>3d</fix>
</trkpt>
<trkpt lat="-27.2744389" lon="151.2900638">
  <ele>343.05</ele>
  <time>2026-08-29T20:44:07Z</time>
  <course>148.15</course>
  <speed>0.02</speed>
  <fix>3d</fix>
</trkpt>
<trkpt lat="-27.274439" lon="151.290064">
  <ele>343.0</ele>
  <time>2026-08-29T20:44:07Z</time>
  <course>0.0</course>
  <speed>0.0</speed>
  <fix>3d</fix>
</trkpt>
<trkpt lat="-27.2744389" lon="151.2900638">
  <ele>343.03</ele>
  <time>2026-08-29T20:44:07Z</time>
  <course>148.12</course>
  <speed>0.02</speed>
  <fix>3d</fix>
</trkpt>
<trkpt lat="-27.274439" lon="151.290064">
  <ele>343.0</ele>
  <time>2026-08-29T20:44:07Z</time>
  <course>0.0</course>
  <speed>0.0</speed>
  <fix>3d</fix>
</trkpt>
<trkpt lat="-27.2744389" lon="151.2900638">
  <ele>343.04</ele>
  <time>2026-08-29T20:44:07Z</time>
  <course>148.08</course>
  <speed>0.02</speed>
  <fix>3d</fix>
</trkpt>
<trkpt lat="-27.274439" lon="151.290064">
  <ele>343.0</ele>
  <time>2026-08-29T20:44:07Z</time>
  <course>0.0</course>
  <speed>0.0</speed>
  <fix>3d</fix>
</trkpt>
<trkpt lat="-27.2744389" lon="151.2900638">
  <ele>343.03</ele>
  <time>2026-08-29T20:44:07Z</time>
  <course>148.05</course>
  <speed>0.02</speed>
  <fix>3d</fix>
</trkpt>
<trkpt lat="-27.274439" lon="151.290064">
  <ele>343.0</ele>
  <time>2026-08-29T20:44:07Z</time>
  <course>0.0</course>
  <speed>0.0</speed>
  <fix>3d</fix>
</trkpt>
<trkpt lat="-27.2744389" lon="151.2900638">
  <ele>343.03</ele>
  <time>2026-08-29T20:44:07Z</time>
  <course>148.02</course>
  <speed>0.02</speed>
  <fix>3d</fix>
</trkpt>
<trkpt lat="-27.274439" lon="151.290064">
  <ele>343.0</ele>
  <time>2026-08-29T20:44:07Z</time>
  <course>0.0</course>
  <speed>0.0</speed>
  <fix>3d</fix>
</trkpt>
<trkpt lat="-27.2744389" lon="151.2900638">
  <ele>343.03</ele>
  <time>2026-08-29T20:44:07Z</time>
  <course>147.98</course>
  <speed>0.02</speed>
  <fix>3d</fix>
</trkpt>
<trkpt lat="-27.274439" lon="151.290064">
  <ele>343.0</ele>
  <time>2026-08-29T20:44:07Z</time>
  <course>0.0</course>
  <speed>0.0</speed>
  <fix>3d</fix>
</trkpt>
<trkpt lat="-27.2744389" lon="151.2900638">
  <ele>343.02</ele>
  <time>2026-08-29T20:44:07Z</time>
  <course>147.95</course>
  <speed>0.02</speed>
  <fix>3d</fix>
</trkpt>
<trkpt lat="-27.274439" lon="151.290064">
  <ele>343.0</ele>
  <time>2026-08-29T20:44:07Z</time>
  <course>0.0</course>
  <speed>0.0</speed>
  <fix>3d</fix>
</trkpt>
<trkpt lat="-27.2744389" lon="151.2900638">
  <ele>343.03</ele>
  <time>2026-08-29T20:44:07Z</time>
  <course>147.93</course>
  <speed>0.02</speed>
  <fix>3d</fix>
</trkpt>
<trkpt lat="-27.274439" lon="151.290064">
  <ele>343.0</ele>
  <time>2026-08-29T20:44:07Z</time>
  <course>0.0</course>
  <speed>0.0</speed>
  <fix>3d</fix>
</trkpt>
<trkpt lat="-27.2744389" lon="151.2900638">
  <ele>343.03</ele>
  <time>2026-08-29T20:44:07Z</time>
  <course>147.89</course>
  <speed>0.02</speed>
  <fix>3d</fix>
</trkpt>
<trkpt lat="-27.274439" lon="151.290064">
  <ele>343.0</ele>
  <time>2026-08-29T20:44:07Z</time>
  <course>0.0</course>
  <speed>0.0</speed>
  <fix>3d</fix>
</trkpt>
<trkpt lat="-27.2744389" lon="151.2900638">
  <ele>343.02</ele>
  <time>2026-08-29T20:44:07Z</time>
  <course>147.87</course>
  <speed>0.02</speed>
  <fix>3d</fix>
</trkpt>
<trkpt lat="-27.274439" lon="151.290064">
  <ele>343.0</ele>
  <time>2026-08-29T20:44:07Z</time>
  <course>0.0</course>
  <speed>0.0</speed>
  <fix>3d</fix>
</trkpt>
<trkpt lat="-27.2744389" lon="151.2900638">
  <ele>343.05</ele>
  <time>2026-08-29T20:44:07Z</time>
  <course>147.84</course>
  <speed>0.02</speed>
  <fix>3d</fix>
</trkpt>
<trkpt lat="-27.274439" lon="151.290064">
  <ele>343.0</ele>
  <time>2026-08-29T20:44:07Z</time>
  <course>0.0</course>
  <speed>0.0</speed>
  <fix>3d</fix>
</trkpt>
<trkpt lat="-27.2744389" lon="151.2900638">
  <ele>343.03</ele>
  <time>2026-08-29T20:44:07Z</time>
  <course>147.82</course>
  <speed>0.02</speed>
  <fix>3d</fix>
</trkpt>
<trkpt lat="-27.274439" lon="151.290064">
  <ele>343.0</ele>
  <time>2026-08-29T20:44:07Z</time>
  <course>0.0</course>
  <speed>0.0</speed>
  <fix>3d</fix>
</trkpt>
<trkpt lat="-27.2744389" lon="151.2900638">
  <ele>343.02</ele>
  <time>2026-08-29T20:44:07Z</time>
  <course>147.79</course>
  <speed>0.02</speed>
  <fix>3d</fix>
</trkpt>
<trkpt lat="-27.274439" lon="151.290064">
  <ele>343.0</ele>
  <time>2026-08-29T20:44:07Z</time>
  <course>0.0</course>
  <speed>0.0</speed>
  <fix>3d</fix>
</trkpt>
<trkpt lat="-27.2744389" lon="151.2900638">
  <ele>343.01</ele>
  <time>2026-08-29T20:44:07Z</time>
  <course>147.77</course>
  <speed>0.02</speed>
  <fix>3d</fix>
</trkpt>
<trkpt lat="-27.274439" lon="151.290064">
  <ele>343.0</ele>
  <time>2026-08-29T20:44:07Z</time>
  <course>0.0</course>
  <speed>0.0</speed>
  <fix>3d</fix>
</trkpt>
<trkpt lat="-27.2744389" lon="151.2900638">
  <ele>343.0</ele>
  <time>2026-08-29T20:44:07Z</time>
  <course>147.74</course>
  <speed>0.02</speed>
  <fix>3d</fix>
</trkpt>
<trkpt lat="-27.274439" lon="151.290064">
  <ele>343.0</ele>
  <time>2026-08-29T20:44:07Z</time>
  <course>0.0</course>
  <speed>0.0</speed>
  <fix>3d</fix>
</trkpt>
<trkpt lat="-27.2744389" lon="151.2900638">
  <ele>343.01</ele>
  <time>2026-08-29T20:44:07Z</time>
  <course>147.73</course>
  <speed>0.02</speed>
  <fix>3d</fix>
</trkpt>
<trkpt lat="-27.274439" lon="151.290064">
  <ele>343.0</ele>
  <time>2026-08-29T20:44:07Z</time>
  <course>0.0</course>
  <speed>0.0</speed>
  <fix>3d</fix>
</trkpt>
<trkpt lat="-27.2744389" lon="151.2900638">
  <ele>343.0</ele>
  <time>2026-08-29T20:44:07Z</time>
  <course>147.7</course>
  <speed>0.02</speed>
  <fix>3d</fix>
</trkpt>
<trkpt lat="-27.274439" lon="151.290064">
  <ele>343.0</ele>
  <time>2026-08-29T20:44:07Z</time>
  <course>0.0</course>
  <speed>0.0</speed>
  <fix>3d</fix>
</trkpt>
<trkpt lat="-27.2744389" lon="151.2900638">
  <ele>342.99</ele>
  <time>2026-08-29T20:44:07Z</time>
  <course>147.69</course>
  <speed>0.02</speed>
  <fix>3d</fix>
</trkpt>
<trkpt lat="-27.274439" lon="151.290064">
  <ele>343.0</ele>
  <time>2026-08-29T20:44:07Z</time>
  <course>0.0</course>
  <speed>0.0</speed>
  <fix>3d</fix>
</trkpt>
<trkpt lat="-27.2744389" lon="151.2900638">
  <ele>342.99</ele>
  <time>2026-08-29T20:44:07Z</time>
  <course>147.66</course>
  <speed>0.02</speed>
  <fix>3d</fix>
</trkpt>
<trkpt lat="-27.274439" lon="151.290064">
  <ele>343.0</ele>
  <time>2026-08-29T20:44:07Z</time>
  <course>0.0</course>
  <speed>0.0</speed>
  <fix>3d</fix>
</trkpt>
<trkpt lat="-27.2744389" lon="151.2900638">
  <ele>343.0</ele>
  <time>2026-08-29T20:44:07Z</time>
  <course>147.65</course>
  <speed>0.02</speed>
  <fix>3d</fix>
</trkpt>
<trkpt lat="-27.274439" lon="151.290064">
  <ele>343.0</ele>
  <time>2026-08-29T20:44:07Z</time>
  <course>0.0</course>
  <speed>0.0</speed>
  <fix>3d</fix>
</trkpt>
<trkpt lat="-27.2744389" lon="151.2900638">
  <ele>343.01</ele>
  <time>2026-08-29T20:44:07Z</time>
  <course>147.63</course>
  <speed>0.02</speed>
  <fix>3d</fix>
</trkpt>
<trkpt lat="-27.274439" lon="151.290064">
  <ele>343.0</ele>
  <time>2026-08-29T20:44:07Z</time>
  <course>0.0</course>
  <speed>0.0</speed>
  <fix>3d</fix>
</trkpt>
<trkpt lat="-27.2744389" lon="151.2900638">
  <ele>343.0</ele>
  <time>2026-08-29T20:44:07Z</time>
  <course>147.61</course>
  <speed>0.02</speed>
  <fix>3d</fix>
</trkpt>
<trkpt lat="-27.274439" lon="151.290064">
  <ele>343.0</ele>
  <time>2026-08-29T20:44:07Z</time>
  <course>0.0</course>
  <speed>0.0</speed>
  <fix>3d</fix>
</trkpt>
<trkpt lat="-27.2744389" lon="151.2900638">
  <ele>342.99</ele>
  <time>2026-08-29T20:44:07Z</time>
  <course>147.6</course>
  <speed>0.02</speed>
  <fix>3d</fix>
</trkpt>
<trkpt lat="-27.274439" lon="151.290064">
  <ele>343.0</ele>
  <time>2026-08-29T20:44:07Z</time>
  <course>0.0</course>
  <speed>0.0</speed>
  <fix>3d</fix>
</trkpt>
<trkpt lat="-27.2744389" lon="151.2900638">
  <ele>342.99</ele>
  <time>2026-08-29T20:44:07Z</time>
  <course>147.58</course>
  <speed>0.02</speed>
  <fix>3d</fix>
</trkpt>
<trkpt lat="-27.274439" lon="151.290064">
  <ele>343.0</ele>
  <time>2026-08-29T20:44:07Z</time>
  <course>0.0</course>
  <speed>0.0</speed>
  <fix>3d</fix>
</trkpt>
<trkpt lat="-27.2744389" lon="151.2900638">
  <ele>343.0</ele>
  <time>2026-08-29T20:44:07Z</time>
  <course>147.56</course>
  <speed>0.02</speed>
  <fix>3d</fix>
</trkpt>
<trkpt lat="-27.274439" lon="151.290064">
  <ele>343.0</ele>
  <time>2026-08-29T20:44:07Z</time>
  <course>0.0</course>
  <speed>0.0</speed>
  <fix>3d</fix>
</trkpt>
<trkpt lat="-27.2744389" lon="151.2900638">
  <ele>343.02</ele>
  <time>2026-08-29T20:44:07Z</time>
  <course>147.55</course>
  <speed>0.02</speed>
  <fix>3d</fix>
</trkpt>
<trkpt lat="-27.274439" lon="151.290064">
  <ele>343.0</ele>
  <time>2026-08-29T20:44:07Z</time>
  <course>0.0</course>
  <speed>0.0</speed>
  <fix>3d</fix>
</trkpt>
<trkpt lat="-27.2744389" lon="151.2900638">
  <ele>343.01</ele>
  <time>2026-08-29T20:44:07Z</time>
  <course>147.53</course>
  <speed>0.02</speed>
  <fix>3d</fix>
</trkpt>
<trkpt lat="-27.274439" lon="151.290064">
  <ele>343.0</ele>
  <time>2026-08-29T20:44:07Z</time>
  <course>0.0</course>
  <speed>0.0</speed>
  <fix>3d</fix>
</trkpt>
<trkpt lat="-27.2744389" lon="151.2900638">
  <ele>343.01</ele>
  <time>2026-08-29T20:44:07Z</time>
  <course>147.52</course>
  <speed>0.02</speed>
  <fix>3d</fix>
</trkpt>
<trkpt lat="-27.274439" lon="151.290064">
  <ele>343.0</ele>
  <time>2026-08-29T20:44:07Z</time>
  <course>0.0</course>
  <speed>0.0</speed>
  <fix>3d</fix>
</trkpt>
<trkpt lat="-27.2744389" lon="151.2900638">
  <ele>343.02</ele>
  <time>2026-08-29T20:44:07Z</time>
  <course>147.51</course>
  <speed>0.02</speed>
  <fix>3d</fix>
</trkpt>
<trkpt lat="-27.274439" lon="151.290064">
  <ele>343.0</ele>
  <time>2026-08-29T20:44:07Z</time>
  <course>0.0</course>
  <speed>0.0</speed>
  <fix>3d</fix>
</trkpt>
<trkpt lat="-27.2744389" lon="151.2900638">
  <ele>343.01</ele>
  <time>2026-08-29T20:44:07Z</time>
  <course>147.49</course>
  <speed>0.02</speed>
  <fix>3d</fix>
</trkpt>
<trkpt lat="-27.274439" lon="151.290064">
  <ele>343.0</ele>
  <time>2026-08-29T20:44:07Z</time>
  <course>0.0</course>
  <speed>0.0</speed>
  <fix>3d</fix>
</trkpt>
<trkpt lat="-27.2744389" lon="151.2900638">
  <ele>343.0</ele>
  <time>2026-08-29T20:44:07Z</time>
  <course>147.48</course>
  <speed>0.02</speed>
  <fix>3d</fix>
</trkpt>
<trkpt lat="-27.274439" lon="151.290064">
  <ele>343.0</ele>
  <time>2026-08-29T20:44:07Z</time>
  <course>0.0</course>
  <speed>0.0</speed>
  <fix>3d</fix>
</trkpt>
<trkpt lat="-27.2744389" lon="151.2900638">
  <ele>343.04</ele>
  <time>2026-08-29T20:44:07Z</time>
  <course>147.47</course>
  <speed>0.02</speed>
  <fix>3d</fix>
</trkpt>
<trkpt lat="-27.274439" lon="151.290064">
  <ele>343.0</ele>
  <time>2026-08-29T20:44:07Z</time>
  <course>0.0</course>
  <speed>0.0</speed>
  <fix>3d</fix>
</trkpt>
<trkpt lat="-27.2744389" lon="151.2900638">
  <ele>343.04</ele>
  <time>2026-08-29T20:44:07Z</time>
  <course>147.46</course>
  <speed>0.02</speed>
  <fix>3d</fix>
</trkpt>
<trkpt lat="-27.274439" lon="151.290064">
  <ele>343.0</ele>
  <time>2026-08-29T20:44:07Z</time>
  <course>0.0</course>
  <speed>0.0</speed>
  <fix>3d</fix>
</trkpt>
<trkpt lat="-27.2744389" lon="151.2900638">
  <ele>343.01</ele>
  <time>2026-08-29T20:44:07Z</time>
  <course>147.44</course>
  <speed>0.02</speed>
  <fix>3d</fix>
</trkpt>
<trkpt lat="-27.274439" lon="151.290064">
  <ele>343.0</ele>
  <time>2026-08-29T20:44:07Z</time>
  <course>0.0</course>
  <speed>0.0</speed>
  <fix>3d</fix>
</trkpt>
<trkpt lat="-27.2744389" lon="151.2900638">
  <ele>343.01</ele>
  <time>2026-08-29T20:44:07Z</time>
  <course>147.43</course>
  <speed>0.02</speed>
  <fix>3d</fix>
</trkpt>
<trkpt lat="-27.274439" lon="151.290064">
  <ele>343.0</ele>
  <time>2026-08-29T20:44:07Z</time>
  <course>0.0</course>
  <speed>0.0</speed>
  <fix>3d</fix>
</trkpt>
<trkpt lat="-27.2744389" lon="151.2900638">
  <ele>343.02</ele>
  <time>2026-08-29T20:44:07Z</time>
  <course>147.42</course>
  <speed>0.02</speed>
  <fix>3d</fix>
</trkpt>
<trkpt lat="-27.274439" lon="151.290064">
  <ele>343.0</ele>
  <time>2026-08-29T20:44:07Z</time>
  <course>0.0</course>
  <speed>0.0</speed>
  <fix>3d</fix>
</trkpt>
<trkpt lat="-27.2744389" lon="151.2900638">
  <ele>343.04</ele>
  <time>2026-08-29T20:44:07Z</time>
  <course>147.41</course>
  <speed>0.02</speed>
  <fix>3d</fix>
</trkpt>
<trkpt lat="-27.274439" lon="151.290064">
  <ele>343.0</ele>
  <time>2026-08-29T20:44:07Z</time>
  <course>0.0</course>
  <speed>0.0</speed>
  <fix>3d</fix>
</trkpt>
<trkpt lat="-27.2744389" lon="151.2900638">
  <ele>343.03</ele>
  <time>2026-08-29T20:44:07Z</time>
  <course>147.4</course>
  <speed>0.02</speed>
  <fix>3d</fix>
</trkpt>
<trkpt lat="-27.274439" lon="151.290064">
  <ele>343.0</ele>
  <time>2026-08-29T20:44:07Z</time>
  <course>0.0</course>
  <speed>0.0</speed>
  <fix>3d</fix>
</trkpt>
<trkpt lat="-27.2744389" lon="151.2900638">
  <ele>343.01</ele>
  <time>2026-08-29T20:44:07Z</time>
  <course>147.39</course>
  <speed>0.02</speed>
  <fix>3d</fix>
</trkpt>
<trkpt lat="-27.274439" lon="151.290064">
  <ele>343.0</ele>
  <time>2026-08-29T20:44:07Z</time>
  <course>0.0</course>
  <speed>0.0</speed>
  <fix>3d</fix>
</trkpt>
<trkpt lat="-27.2744389" lon="151.2900638">
  <ele>343.02</ele>
  <time>2026-08-29T20:44:07Z</time>
  <course>147.38</course>
  <speed>0.02</speed>
  <fix>3d</fix>
</trkpt>
<trkpt lat="-27.274439" lon="151.290064">
  <ele>343.0</ele>
  <time>2026-08-29T20:44:07Z</time>
  <course>0.0</course>
  <speed>0.0</speed>
  <fix>3d</fix>
</trkpt>
<trkpt lat="-27.2744389" lon="151.2900638">
  <ele>343.01</ele>
  <time>2026-08-29T20:44:07Z</time>
  <course>147.38</course>
  <speed>0.02</speed>
  <fix>3d</fix>
</trkpt>
<trkpt lat="-27.274439" lon="151.290064">
  <ele>343.0</ele>
  <time>2026-08-29T20:44:07Z</time>
  <course>0.0</course>
  <speed>0.0</speed>
  <fix>3d</fix>
</trkpt>
<trkpt lat="-27.2744389" lon="151.2900638">
  <ele>343.01</ele>
  <time>2026-08-29T20:44:07Z</time>
  <course>147.36</course>
  <speed>0.02</speed>
  <fix>3d</fix>
</trkpt>
<trkpt lat="-27.274439" lon="151.290064">
  <ele>343.0</ele>
  <time>2026-08-29T20:44:07Z</time>
  <course>0.0</course>
  <speed>0.0</speed>
  <fix>3d</fix>
</trkpt>
<trkpt lat="-27.2744389" lon="151.2900638">
  <ele>343.01</ele>
  <time>2026-08-29T20:44:07Z</time>
  <course>147.36</course>
  <speed>0.02</speed>
  <fix>3d</fix>
</trkpt>
<trkpt lat="-27.274439" lon="151.290064">
  <ele>343.0</ele>
  <time>2026-08-29T20:44:07Z</time>
  <course>0.0</course>
  <speed>0.0</speed>
  <fix>3d</fix>
</trkpt>
<trkpt lat="-27.2744389" lon="151.2900638">
  <ele>343.01</ele>
  <time>2026-08-29T20:44:07Z</time>
  <course>147.35</course>
  <speed>0.02</speed>
  <fix>3d</fix>
</trkpt>
<trkpt lat="-27.274439" lon="151.290064">
  <ele>343.0</ele>
  <time>2026-08-29T20:44:07Z</time>
  <course>0.0</course>
  <speed>0.0</speed>
  <fix>3d</fix>
</trkpt>
<trkpt lat="-27.2744389" lon="151.2900638">
  <ele>343.03</ele>
  <time>2026-08-29T20:44:07Z</time>
  <course>147.34</course>
  <speed>0.02</speed>
  <fix>3d</fix>
</trkpt>
<trkpt lat="-27.274439" lon="151.290064">
  <ele>343.0</ele>
  <time>2026-08-29T20:44:07Z</time>
  <course>0.0</course>
  <speed>0.0</speed>
  <fix>3d</fix>
</trkpt>
<trkpt lat="-27.2744389" lon="151.2900638">
  <ele>343.03</ele>
  <time>2026-08-29T20:44:07Z</time>
  <course>147.33</course>
  <speed>0.02</speed>
  <fix>3d</fix>
</trkpt>
<trkpt lat="-27.274439" lon="151.290064">
  <ele>343.0</ele>
  <time>2026-08-29T20:44:07Z</time>
  <course>0.0</course>
  <speed>0.0</speed>
  <fix>3d</fix>
</trkpt>
<trkpt lat="-27.2744389" lon="151.2900638">
  <ele>343.04</ele>
  <time>2026-08-29T20:44:07Z</time>
  <course>147.32</course>
  <speed>0.02</speed>
  <fix>3d</fix>
</trkpt>
<trkpt lat="-27.274439" lon="151.290064">
  <ele>343.0</ele>
  <time>2026-08-29T20:44:07Z</time>
  <course>0.0</course>
  <speed>0.0</speed>
  <fix>3d</fix>
</trkpt>
<trkpt lat="-27.2744389" lon="151.2900638">
  <ele>343.03</ele>
  <time>2026-08-29T20:44:07Z</time>
  <course>147.32</course>
  <speed>0.02</speed>
  <fix>3d</fix>
</trkpt>
<trkpt lat="-27.274439" lon="151.290064">
  <ele>343.0</ele>
  <time>2026-08-29T20:44:07Z</time>
  <course>0.0</course>
  <speed>0.0</speed>
  <fix>3d</fix>
</trkpt>
<trkpt lat="-27.2744389" lon="151.2900638">
  <ele>343.01</ele>
  <time>2026-08-29T20:44:07Z</time>
  <course>147.31</course>
  <speed>0.02</speed>
  <fix>3d</fix>
</trkpt>
<trkpt lat="-27.274439" lon="151.290064">
  <ele>343.0</ele>
  <time>2026-08-29T20:44:07Z</time>
  <course>0.0</course>
  <speed>0.0</speed>
  <fix>3d</fix>
</trkpt>
<trkpt lat="-27.2744389" lon="151.2900638">
  <ele>343.01</ele>
  <time>2026-08-29T20:44:07Z</time>
  <course>147.3</course>
  <speed>0.02</speed>
  <fix>3d</fix>
</trkpt>
<trkpt lat="-27.274439" lon="151.290064">
  <ele>343.0</ele>
  <time>2026-08-29T20:44:07Z</time>
  <course>0.0</course>
  <speed>0.0</speed>
  <fix>3d</fix>
</trkpt>
<trkpt lat="-27.2744389" lon="151.2900638">
  <ele>343.03</ele>
  <time>2026-08-29T20:44:07Z</time>
  <course>147.3</course>
  <speed>0.02</speed>
  <fix>3d</fix>
</trkpt>
<trkpt lat="-27.274439" lon="151.290064">
  <ele>343.0</ele>
  <time>2026-08-29T20:44:07Z</time>
  <course>0.0</course>
  <speed>0.0</speed>
  <fix>3d</fix>
</trkpt>
<trkpt lat="-27.2744389" lon="151.2900638">
  <ele>343.02</ele>
  <time>2026-08-29T20:44:07Z</time>
  <course>147.29</course>
  <speed>0.02</speed>
  <fix>3d</fix>
</trkpt>
<trkpt lat="-27.274439" lon="151.290064">
  <ele>343.0</ele>
  <time>2026-08-29T20:44:07Z</time>
  <course>0.0</course>
  <speed>0.0</speed>
  <fix>3d</fix>
</trkpt>
<trkpt lat="-27.2744389" lon="151.2900638">
  <ele>343.02</ele>
  <time>2026-08-29T20:44:07Z</time>
  <course>147.28</course>
  <speed>0.02</speed>
  <fix>3d</fix>
</trkpt>
<trkpt lat="-27.274439" lon="151.290064">
  <ele>343.0</ele>
  <time>2026-08-29T20:44:07Z</time>
  <course>0.0</course>
  <speed>0.0</speed>
  <fix>3d</fix>
</trkpt>
<trkpt lat="-27.2744389" lon="151.2900638">
  <ele>343.01</ele>
  <time>2026-08-29T20:44:07Z</time>
  <course>147.28</course>
  <speed>0.02</speed>
  <fix>3d</fix>
</trkpt>
<trkpt lat="-27.274439" lon="151.290064">
  <ele>343.0</ele>
  <time>2026-08-29T20:44:07Z</time>
  <course>0.0</course>
  <speed>0.0</speed>
  <fix>3d</fix>
</trkpt>
<trkpt lat="-27.2744389" lon="151.2900638">
  <ele>343.02</ele>
  <time>2026-08-29T20:44:07Z</time>
  <course>147.27</course>
  <speed>0.02</speed>
  <fix>3d</fix>
</trkpt>
<trkpt lat="-27.274439" lon="151.290064">
  <ele>343.0</ele>
  <time>2026-08-29T20:44:07Z</time>
  <course>0.0</course>
  <speed>0.0</speed>
  <fix>3d</fix>
</trkpt>
<trkpt lat="-27.2744389" lon="151.2900638">
  <ele>343.02</ele>
  <time>2026-08-29T20:44:07Z</time>
  <course>147.27</course>
  <speed>0.02</speed>
  <fix>3d</fix>
</trkpt>
<trkpt lat="-27.274439" lon="151.290064">
  <ele>343.0</ele>
  <time>2026-08-29T20:44:07Z</time>
  <course>0.0</course>
  <speed>0.0</speed>
  <fix>3d</fix>
</trkpt>
<trkpt lat="-27.2744389" lon="151.2900638">
  <ele>343.04</ele>
  <time>2026-08-29T20:44:07Z</time>
  <course>147.26</course>
  <speed>0.02</speed>
  <fix>3d</fix>
</trkpt>
<trkpt lat="-27.274439" lon="151.290064">
  <ele>343.0</ele>
  <time>2026-08-29T20:44:07Z</time>
  <course>0.0</course>
  <speed>0.0</speed>
  <fix>3d</fix>
</trkpt>
<trkpt lat="-27.2744389" lon="151.2900638">
  <ele>343.04</ele>
  <time>2026-08-29T20:44:07Z</time>
  <course>147.25</course>
  <speed>0.02</speed>
  <fix>3d</fix>
</trkpt>
<trkpt lat="-27.274439" lon="151.290064">
  <ele>343.0</ele>
  <time>2026-08-29T20:44:07Z</time>
  <course>0.0</course>
  <speed>0.0</speed>
  <fix>3d</fix>
</trkpt>
<trkpt lat="-27.2744389" lon="151.2900638">
  <ele>343.01</ele>
  <time>2026-08-29T20:44:07Z</time>
  <course>147.25</course>
  <speed>0.02</speed>
  <fix>3d</fix>
</trkpt>
<trkpt lat="-27.274439" lon="151.290064">
  <ele>343.0</ele>
  <time>2026-08-29T20:44:07Z</time>
  <course>0.0</course>
  <speed>0.0</speed>
  <fix>3d</fix>
</trkpt>
<trkpt lat="-27.2744389" lon="151.2900638">
  <ele>343.01</ele>
  <time>2026-08-29T20:44:07Z</time>
  <course>147.24</course>
  <speed>0.02</speed>
  <fix>3d</fix>
</trkpt>
<trkpt lat="-27.274439" lon="151.290064">
  <ele>343.0</ele>
  <time>2026-08-29T20:44:07Z</time>
  <course>0.0</course>
  <speed>0.0</speed>
  <fix>3d</fix>
</trkpt>
<trkpt lat="-27.2744389" lon="151.2900638">
  <ele>343.04</ele>
  <time>2026-08-29T20:44:07Z</time>
  <course>147.24</course>
  <speed>0.02</speed>
  <fix>3d</fix>
</trkpt>
<trkpt lat="-27.274439" lon="151.290064">
  <ele>343.0</ele>
  <time>2026-08-29T20:44:07Z</time>
  <course>0.0</course>
  <speed>0.0</speed>
  <fix>3d</fix>
</trkpt>
<trkpt lat="-27.2744389" lon="151.2900638">
  <ele>343.03</ele>
  <time>2026-08-29T20:44:07Z</time>
  <course>147.24</course>
  <speed>0.02</speed>
  <fix>3d</fix>
</trkpt>
<trkpt lat="-27.274439" lon="151.290064">
  <ele>343.0</ele>
  <time>2026-08-29T20:44:07Z</time>
  <course>0.0</course>
  <speed>0.0</speed>
  <fix>3d</fix>
</trkpt>
<trkpt lat="-27.2744389" lon="151.2900638">
  <ele>343.02</ele>
  <time>2026-08-29T20:44:07Z</time>
  <course>147.23</course>
  <speed>0.02</speed>
  <fix>3d</fix>
</trkpt>
<trkpt lat="-27.274439" lon="151.290064">
  <ele>343.0</ele>
  <time>2026-08-29T20:44:07Z</time>
  <course>0.0</course>
  <speed>0.0</speed>
  <fix>3d</fix>
</trkpt>
<trkpt lat="-27.2744389" lon="151.2900638">
  <ele>343.02</ele>
  <time>2026-08-29T20:44:07Z</time>
  <course>147.23</course>
  <speed>0.02</speed>
  <fix>3d</fix>
</trkpt>
<trkpt lat="-27.274439" lon="151.290064">
  <ele>343.0</ele>
  <time>2026-08-29T20:44:07Z</time>
  <course>0.0</course>
  <speed>0.0</speed>
  <fix>3d</fix>
</trkpt>
<trkpt lat="-27.2744389" lon="151.2900638">
  <ele>343.02</ele>
  <time>2026-08-29T20:44:07Z</time>
  <course>147.22</course>
  <speed>0.02</speed>
  <fix>3d</fix>
</trkpt>
<trkpt lat="-27.274439" lon="151.290064">
  <ele>343.0</ele>
  <time>2026-08-29T20:44:07Z</time>
  <course>0.0</course>
  <speed>0.0</speed>
  <fix>3d</fix>
</trkpt>
<trkpt lat="-27.2744389" lon="151.2900638">
  <ele>343.03</ele>
  <time>2026-08-29T20:44:07Z</time>
  <course>147.22</course>
  <speed>0.02</speed>
  <fix>3d</fix>
</trkpt>
<trkpt lat="-27.274439" lon="151.290064">
  <ele>343.0</ele>
  <time>2026-08-29T20:44:07Z</time>
  <course>0.0</course>
  <speed>0.0</speed>
  <fix>3d</fix>
</trkpt>
<trkpt lat="-27.2744389" lon="151.2900638">
  <ele>343.03</ele>
  <time>2026-08-29T20:44:07Z</time>
  <course>147.21</course>
  <speed>0.02</speed>
  <fix>3d</fix>
</trkpt>
<trkpt lat="-27.274439" lon="151.290064">
  <ele>343.0</ele>
  <time>2026-08-29T20:44:07Z</time>
  <course>0.0</course>
  <speed>0.0</speed>
  <fix>3d</fix>
</trkpt>
<trkpt lat="-27.2744389" lon="151.2900638">
  <ele>343.05</ele>
  <time>2026-08-29T20:44:07Z</time>
  <course>147.21</course>
  <speed>0.02</speed>
  <fix>3d</fix>
</trkpt>
<trkpt lat="-27.274439" lon="151.290064">
  <ele>343.0</ele>
  <time>2026-08-29T20:44:07Z</time>
  <course>0.0</course>
  <speed>0.0</speed>
  <fix>3d</fix>
</trkpt>
<trkpt lat="-27.2744389" lon="151.2900638">
  <ele>343.06</ele>
  <time>2026-08-29T20:44:07Z</time>
  <course>147.21</course>
  <speed>0.02</speed>
  <fix>3d</fix>
</trkpt>
<trkpt lat="-27.274439" lon="151.290064">
  <ele>343.0</ele>
  <time>2026-08-29T20:44:07Z</time>
  <course>0.0</course>
  <speed>0.0</speed>
  <fix>3d</fix>
</trkpt>
<trkpt lat="-27.2744389" lon="151.2900638">
  <ele>343.04</ele>
  <time>2026-08-29T20:44:07Z</time>
  <course>147.2</course>
  <speed>0.02</speed>
  <fix>3d</fix>
</trkpt>
<trkpt lat="-27.274439" lon="151.290064">
  <ele>343.0</ele>
  <time>2026-08-29T20:44:07Z</time>
  <course>0.0</course>
  <speed>0.0</speed>
  <fix>3d</fix>
</trkpt>
<trkpt lat="-27.2744389" lon="151.2900638">
  <ele>343.03</ele>
  <time>2026-08-29T20:44:07Z</time>
  <course>147.2</course>
  <speed>0.02</speed>
  <fix>3d</fix>
</trkpt>
<trkpt lat="-27.274439" lon="151.290064">
  <ele>343.0</ele>
  <time>2026-08-29T20:44:07Z</time>
  <course>0.0</course>
  <speed>0.0</speed>
  <fix>3d</fix>
</trkpt>
<trkpt lat="-27.2744389" lon="151.2900638">
  <ele>343.02</ele>
  <time>2026-08-29T20:44:07Z</time>
  <course>147.2</course>
  <speed>0.02</speed>
  <fix>3d</fix>
</trkpt>
<trkpt lat="-27.274439" lon="151.290064">
  <ele>343.0</ele>
  <time>2026-08-29T20:44:07Z</time>
  <course>0.0</course>
  <speed>0.0</speed>
  <fix>3d</fix>
</trkpt>
<trkpt lat="-27.2744389" lon="151.2900638">
  <ele>343.01</ele>
  <time>2026-08-29T20:44:07Z</time>
  <course>147.19</course>
  <speed>0.02</speed>
  <fix>3d</fix>
</trkpt>
<trkpt lat="-27.274439" lon="151.290064">
  <ele>343.0</ele>
  <time>2026-08-29T20:44:07Z</time>
  <course>0.0</course>
  <speed>0.0</speed>
  <fix>3d</fix>
</trkpt>
<trkpt lat="-27.2744389" lon="151.2900638">
  <ele>342.99</ele>
  <time>2026-08-29T20:44:07Z</time>
  <course>147.19</course>
  <speed>0.02</speed>
  <fix>3d</fix>
</trkpt>
<trkpt lat="-27.274439" lon="151.290064">
  <ele>343.0</ele>
  <time>2026-08-29T20:44:07Z</time>
  <course>0.0</course>
  <speed>0.0</speed>
  <fix>3d</fix>
</trkpt>
<trkpt lat="-27.2744389" lon="151.2900638">
  <ele>342.98</ele>
  <time>2026-08-29T20:44:07Z</time>
  <course>147.19</course>
  <speed>0.02</speed>
  <fix>3d</fix>
</trkpt>
<trkpt lat="-27.274439" lon="151.290064">
  <ele>343.0</ele>
  <time>2026-08-29T20:44:07Z</time>
  <course>0.0</course>
  <speed>0.0</speed>
  <fix>3d</fix>
</trkpt>
<trkpt lat="-27.2744389" lon="151.2900638">
  <ele>342.99</ele>
  <time>2026-08-29T20:44:07Z</time>
  <course>147.19</course>
  <speed>0.02</speed>
  <fix>3d</fix>
</trkpt>
<trkpt lat="-27.274439" lon="151.290064">
  <ele>343.0</ele>
  <time>2026-08-29T20:44:07Z</time>
  <course>0.0</course>
  <speed>0.0</speed>
  <fix>3d</fix>
</trkpt>
<trkpt lat="-27.2744389" lon="151.2900638">
  <ele>343.0</ele>
  <time>2026-08-29T20:44:07Z</time>
  <course>147.18</course>
  <speed>0.02</speed>
  <fix>3d</fix>
</trkpt>
<trkpt lat="-27.274439" lon="151.290064">
  <ele>343.0</ele>
  <time>2026-08-29T20:44:07Z</time>
  <course>0.0</course>
  <speed>0.0</speed>
  <fix>3d</fix>
</trkpt>
<trkpt lat="-27.2744389" lon="151.2900638">
  <ele>343.01</ele>
  <time>2026-08-29T20:44:07Z</time>
  <course>147.18</course>
  <speed>0.02</speed>
  <fix>3d</fix>
</trkpt>
<trkpt lat="-27.274439" lon="151.290064">
  <ele>343.0</ele>
  <time>2026-08-29T20:44:07Z</time>
  <course>0.0</course>
  <speed>0.0</speed>
  <fix>3d</fix>
</trkpt>
<trkpt lat="-27.2744389" lon="151.2900638">
  <ele>343.03</ele>
  <time>2026-08-29T20:44:07Z</time>
  <course>147.18</course>
  <speed>0.02</speed>
  <fix>3d</fix>
</trkpt>
<trkpt lat="-27.274439" lon="151.290064">
  <ele>343.0</ele>
  <time>2026-08-29T20:44:07Z</time>
  <course>0.0</course>
  <speed>0.0</speed>
  <fix>3d</fix>
</trkpt>
<trkpt lat="-27.2744389" lon="151.2900638">
  <ele>343.02</ele>
  <time>2026-08-29T20:44:07Z</time>
  <course>147.17</course>
  <speed>0.02</speed>
  <fix>3d</fix>
</trkpt>
<trkpt lat="-27.274439" lon="151.290064">
  <ele>343.0</ele>
  <time>2026-08-29T20:44:07Z</time>
  <course>0.0</course>
  <speed>0.0</speed>
  <fix>3d</fix>
</trkpt>
<trkpt lat="-27.2744389" lon="151.2900638">
  <ele>343.02</ele>
  <time>2026-08-29T20:44:07Z</time>
  <course>147.17</course>
  <speed>0.02</speed>
  <fix>3d</fix>
</trkpt>
<trkpt lat="-27.274439" lon="151.290064">
  <ele>343.0</ele>
  <time>2026-08-29T20:44:07Z</time>
  <course>0.0</course>
  <speed>0.0</speed>
  <fix>3d</fix>
</trkpt>
<trkpt lat="-27.2744389" lon="151.2900638">
  <ele>343.01</ele>
  <time>2026-08-29T20:44:07Z</time>
  <course>147.17</course>
  <speed>0.02</speed>
  <fix>3d</fix>
</trkpt>
<trkpt lat="-27.274439" lon="151.290064">
  <ele>343.0</ele>
  <time>2026-08-29T20:44:07Z</time>
  <course>0.0</course>
  <speed>0.0</speed>
  <fix>3d</fix>
</trkpt>
<trkpt lat="-27.2744389" lon="151.2900638">
  <ele>343.0</ele>
  <time>2026-08-29T20:44:07Z</time>
  <course>147.17</course>
  <speed>0.02</speed>
  <fix>3d</fix>
</trkpt>
<trkpt lat="-27.274439" lon="151.290064">
  <ele>343.0</ele>
  <time>2026-08-29T20:44:07Z</time>
  <course>0.0</course>
  <speed>0.0</speed>
  <fix>3d</fix>
</trkpt>
<trkpt lat="-27.2744389" lon="151.2900638">
  <ele>343.01</ele>
  <time>2026-08-29T20:44:07Z</time>
  <course>147.16</course>
  <speed>0.02</speed>
  <fix>3d</fix>
</trkpt>
<trkpt lat="-27.274439" lon="151.290064">
  <ele>343.0</ele>
  <time>2026-08-29T20:44:07Z</time>
  <course>0.0</course>
  <speed>0.0</speed>
  <fix>3d</fix>
</trkpt>
<trkpt lat="-27.2744389" lon="151.2900638">
  <ele>343.01</ele>
  <time>2026-08-29T20:44:07Z</time>
  <course>147.16</course>
  <speed>0.02</speed>
  <fix>3d</fix>
</trkpt>
<trkpt lat="-27.274439" lon="151.290064">
  <ele>343.0</ele>
  <time>2026-08-29T20:44:07Z</time>
  <course>0.0</course>
  <speed>0.0</speed>
  <fix>3d</fix>
</trkpt>
<trkpt lat="-27.2744389" lon="151.2900638">
  <ele>343.03</ele>
  <time>2026-08-29T20:44:07Z</time>
  <course>147.16</course>
  <speed>0.02</speed>
  <fix>3d</fix>
</trkpt>
<trkpt lat="-27.274439" lon="151.290064">
  <ele>343.0</ele>
  <time>2026-08-29T20:44:07Z</time>
  <course>0.0</course>
  <speed>0.0</speed>
  <fix>3d</fix>
</trkpt>
<trkpt lat="-27.2744389" lon="151.2900638">
  <ele>343.05</ele>
  <time>2026-08-29T20:44:07Z</time>
  <course>147.16</course>
  <speed>0.02</speed>
  <fix>3d</fix>
</trkpt>
<trkpt lat="-27.274439" lon="151.290064">
  <ele>343.0</ele>
  <time>2026-08-29T20:44:07Z</time>
  <course>0.0</course>
  <speed>0.0</speed>
  <fix>3d</fix>
</trkpt>
<trkpt lat="-27.2744389" lon="151.2900638">
  <ele>343.05</ele>
  <time>2026-08-29T20:44:07Z</time>
  <course>147.16</course>
  <speed>0.02</speed>
  <fix>3d</fix>
</trkpt>
<trkpt lat="-27.274439" lon="151.290064">
  <ele>343.0</ele>
  <time>2026-08-29T20:44:07Z</time>
  <course>0.0</course>
  <speed>0.0</speed>
  <fix>3d</fix>
</trkpt>
<trkpt lat="-27.2744389" lon="151.2900638">
  <ele>343.04</ele>
  <time>2026-08-29T20:44:07Z</time>
  <course>147.16</course>
  <speed>0.02</speed>
  <fix>3d</fix>
</trkpt>
<trkpt lat="-27.274439" lon="151.290064">
  <ele>343.0</ele>
  <time>2026-08-29T20:44:07Z</time>
  <course>0.0</course>
  <speed>0.0</speed>
  <fix>3d</fix>
</trkpt>
<trkpt lat="-27.2744389" lon="151.2900638">
  <ele>343.02</ele>
  <time>2026-08-29T20:44:07Z</time>
  <course>147.15</course>
  <speed>0.02</speed>
  <fix>3d</fix>
</trkpt>
<trkpt lat="-27.274439" lon="151.290064">
  <ele>343.0</ele>
  <time>2026-08-29T20:44:07Z</time>
  <course>0.0</course>
  <speed>0.0</speed>
  <fix>3d</fix>
</trkpt>
<trkpt lat="-27.2744389" lon="151.2900638">
  <ele>343.01</ele>
  <time>2026-08-29T20:44:07Z</time>
  <course>147.15</course>
  <speed>0.02</speed>
  <fix>3d</fix>
</trkpt>
<trkpt lat="-27.274439" lon="151.290064">
  <ele>343.0</ele>
  <time>2026-08-29T20:44:07Z</time>
  <course>0.0</course>
  <speed>0.0</speed>
  <fix>3d</fix>
</trkpt>
<trkpt lat="-27.2744389" lon="151.2900638">
  <ele>343.0</ele>
  <time>2026-08-29T20:44:07Z</time>
  <course>147.15</course>
  <speed>0.02</speed>
  <fix>3d</fix>
</trkpt>
<trkpt lat="-27.274439" lon="151.290064">
  <ele>343.0</ele>
  <time>2026-08-29T20:44:07Z</time>
  <course>0.0</course>
  <speed>0.0</speed>
  <fix>3d</fix>
</trkpt>
<trkpt lat="-27.2744389" lon="151.2900638">
  <ele>342.99</ele>
  <time>2026-08-29T20:44:07Z</time>
  <course>147.15</course>
  <speed>0.02</speed>
  <fix>3d</fix>
</trkpt>
<trkpt lat="-27.274439" lon="151.290064">
  <ele>343.0</ele>
  <time>2026-08-29T20:44:07Z</time>
  <course>0.0</course>
  <speed>0.0</speed>
  <fix>3d</fix>
</trkpt>
<trkpt lat="-27.2744389" lon="151.2900638">
  <ele>343.0</ele>
  <time>2026-08-29T20:44:07Z</time>
  <course>147.15</course>
  <speed>0.02</speed>
  <fix>3d</fix>
</trkpt>
<trkpt lat="-27.274439" lon="151.290064">
  <ele>343.0</ele>
  <time>2026-08-29T20:44:07Z</time>
  <course>0.0</course>
  <speed>0.0</speed>
  <fix>3d</fix>
</trkpt>
<trkpt lat="-27.2744389" lon="151.2900638">
  <ele>343.03</ele>
  <time>2026-08-29T20:44:07Z</time>
  <course>147.15</course>
  <speed>0.02</speed>
  <fix>3d</fix>
</trkpt>
<trkpt lat="-27.274439" lon="151.290064">
  <ele>343.0</ele>
  <time>2026-08-29T20:44:07Z</time>
  <course>0.0</course>
  <speed>0.0</speed>
  <fix>3d</fix>
</trkpt>
<trkpt lat="-27.2744389" lon="151.2900638">
  <ele>343.02</ele>
  <time>2026-08-29T20:44:07Z</time>
  <course>147.14</course>
  <speed>0.02</speed>
  <fix>3d</fix>
</trkpt>
<trkpt lat="-27.274439" lon="151.290064">
  <ele>343.0</ele>
  <time>2026-08-29T20:44:07Z</time>
  <course>0.0</course>
  <speed>0.0</speed>
  <fix>3d</fix>
</trkpt>
<trkpt lat="-27.2744389" lon="151.2900638">
  <ele>343.02</ele>
  <time>2026-08-29T20:44:07Z</time>
  <course>147.14</course>
  <speed>0.02</speed>
  <fix>3d</fix>
</trkpt>
<trkpt lat="-27.274439" lon="151.290064">
  <ele>343.0</ele>
  <time>2026-08-29T20:44:07Z</time>
  <course>0.0</course>
  <speed>0.0</speed>
  <fix>3d</fix>
</trkpt>
<trkpt lat="-27.2744389" lon="151.2900638">
  <ele>343.03</ele>
  <time>2026-08-29T20:44:07Z</time>
  <course>147.14</course>
  <speed>0.02</speed>
  <fix>3d</fix>
</trkpt>
<trkpt lat="-27.274439" lon="151.290064">
  <ele>343.0</ele>
  <time>2026-08-29T20:44:07Z</time>
  <course>0.0</course>
  <speed>0.0</speed>
  <fix>3d</fix>
</trkpt>
<trkpt lat="-27.2744389" lon="151.2900638">
  <ele>343.02</ele>
  <time>2026-08-29T20:44:07Z</time>
  <course>147.14</course>
  <speed>0.02</speed>
  <fix>3d</fix>
</trkpt>
<trkpt lat="-27.274439" lon="151.290064">
  <ele>343.0</ele>
  <time>2026-08-29T20:44:07Z</time>
  <course>0.0</course>
  <speed>0.0</speed>
  <fix>3d</fix>
</trkpt>
<trkpt lat="-27.2744389" lon="151.2900638">
  <ele>343.04</ele>
  <time>2026-08-29T20:44:07Z</time>
  <course>147.14</course>
  <speed>0.02</speed>
  <fix>3d</fix>
</trkpt>
<trkpt lat="-27.274439" lon="151.290064">
  <ele>343.0</ele>
  <time>2026-08-29T20:44:07Z</time>
  <course>0.0</course>
  <speed>0.0</speed>
  <fix>3d</fix>
</trkpt>
<trkpt lat="-27.2744389" lon="151.2900638">
  <ele>343.04</ele>
  <time>2026-08-29T20:44:07Z</time>
  <course>147.14</course>
  <speed>0.02</speed>
  <fix>3d</fix>
</trkpt>
<trkpt lat="-27.274439" lon="151.290064">
  <ele>343.0</ele>
  <time>2026-08-29T20:44:07Z</time>
  <course>0.0</course>
  <speed>0.0</speed>
  <fix>3d</fix>
</trkpt>
<trkpt lat="-27.2744389" lon="151.2900638">
  <ele>343.02</ele>
  <time>2026-08-29T20:44:07Z</time>
  <course>147.14</course>
  <speed>0.02</speed>
  <fix>3d</fix>
</trkpt>
<trkpt lat="-27.274439" lon="151.290064">
  <ele>343.0</ele>
  <time>2026-08-29T20:44:07Z</time>
  <course>0.0</course>
  <speed>0.0</speed>
  <fix>3d</fix>
</trkpt>
<trkpt lat="-27.2744389" lon="151.2900638">
  <ele>343.01</ele>
  <time>2026-08-29T20:44:07Z</time>
  <course>147.14</course>
  <speed>0.02</speed>
  <fix>3d</fix>
</trkpt>
<trkpt lat="-27.274439" lon="151.290064">
  <ele>343.0</ele>
  <time>2026-08-29T20:44:07Z</time>
  <course>0.0</course>
  <speed>0.0</speed>
  <fix>3d</fix>
</trkpt>
<trkpt lat="-27.2744389" lon="151.2900638">
  <ele>343.02</ele>
  <time>2026-08-29T20:44:07Z</time>
  <course>147.13</course>
  <speed>0.02</speed>
  <fix>3d</fix>
</trkpt>
<trkpt lat="-27.274439" lon="151.290064">
  <ele>343.0</ele>
  <time>2026-08-29T20:44:07Z</time>
  <course>0.0</course>
  <speed>0.0</speed>
  <fix>3d</fix>
</trkpt>
<trkpt lat="-27.2744389" lon="151.2900638">
  <ele>343.03</ele>
  <time>2026-08-29T20:44:07Z</time>
  <course>147.13</course>
  <speed>0.02</speed>
  <fix>3d</fix>
</trkpt>
<trkpt lat="-27.274439" lon="151.290064">
  <ele>343.0</ele>
  <time>2026-08-29T20:44:07Z</time>
  <course>0.0</course>
  <speed>0.0</speed>
  <fix>3d</fix>
</trkpt>
<trkpt lat="-27.2744389" lon="151.2900638">
  <ele>343.04</ele>
  <time>2026-08-29T20:44:07Z</time>
  <course>147.13</course>
  <speed>0.02</speed>
  <fix>3d</fix>
</trkpt>
<trkpt lat="-27.274439" lon="151.290064">
  <ele>343.0</ele>
  <time>2026-08-29T20:44:07Z</time>
  <course>0.0</course>
  <speed>0.0</speed>
  <fix>3d</fix>
</trkpt>
<trkpt lat="-27.2744389" lon="151.2900638">
  <ele>343.06</ele>
  <time>2026-08-29T20:44:07Z</time>
  <course>147.13</course>
  <speed>0.02</speed>
  <fix>3d</fix>
</trkpt>
<trkpt lat="-27.274439" lon="151.290064">
  <ele>343.0</ele>
  <time>2026-08-29T20:44:07Z</time>
  <course>0.0</course>
  <speed>0.0</speed>
  <fix>3d</fix>
</trkpt>
<trkpt lat="-27.2744389" lon="151.2900638">
  <ele>343.06</ele>
  <time>2026-08-29T20:44:07Z</time>
  <course>147.13</course>
  <speed>0.02</speed>
  <fix>3d</fix>
</trkpt>
<trkpt lat="-27.274439" lon="151.290064">
  <ele>343.0</ele>
  <time>2026-08-29T20:44:07Z</time>
  <course>0.0</course>
  <speed>0.0</speed>
  <fix>3d</fix>
</trkpt>
<trkpt lat="-27.2744389" lon="151.2900638">
  <ele>343.06</ele>
  <time>2026-08-29T20:44:07Z</time>
  <course>147.13</course>
  <speed>0.02</speed>
  <fix>3d</fix>
</trkpt>
<trkpt lat="-27.274439" lon="151.290064">
  <ele>343.0</ele>
  <time>2026-08-29T20:44:07Z</time>
  <course>0.0</course>
  <speed>0.0</speed>
  <fix>3d</fix>
</trkpt>
<trkpt lat="-27.2744389" lon="151.2900638">
  <ele>343.04</ele>
  <time>2026-08-29T20:44:07Z</time>
  <course>147.13</course>
  <speed>0.02</speed>
  <fix>3d</fix>
</trkpt>
<trkpt lat="-27.274439" lon="151.290064">
  <ele>343.0</ele>
  <time>2026-08-29T20:44:07Z</time>
  <course>0.0</course>
  <speed>0.0</speed>
  <fix>3d</fix>
</trkpt>
<trkpt lat="-27.2744389" lon="151.2900638">
  <ele>343.03</ele>
  <time>2026-08-29T20:44:07Z</time>
  <course>147.13</course>
  <speed>0.02</speed>
  <fix>3d</fix>
</trkpt>
<trkpt lat="-27.274439" lon="151.290064">
  <ele>343.0</ele>
  <time>2026-08-29T20:44:07Z</time>
  <course>0.0</course>
  <speed>0.0</speed>
  <fix>3d</fix>
</trkpt>
<trkpt lat="-27.2744389" lon="151.2900638">
  <ele>343.02</ele>
  <time>2026-08-29T20:44:07Z</time>
  <course>147.13</course>
  <speed>0.02</speed>
  <fix>3d</fix>
</trkpt>
<trkpt lat="-27.274439" lon="151.290064">
  <ele>343.0</ele>
  <time>2026-08-29T20:44:07Z</time>
  <course>0.0</course>
  <speed>0.0</speed>
  <fix>3d</fix>
</trkpt>
<trkpt lat="-27.2744389" lon="151.2900638">
  <ele>343.03</ele>
  <time>2026-08-29T20:44:07Z</time>
  <course>147.13</course>
  <speed>0.02</speed>
  <fix>3d</fix>
</trkpt>
<trkpt lat="-27.274439" lon="151.290064">
  <ele>343.0</ele>
  <time>2026-08-29T20:44:07Z</time>
  <course>0.0</course>
  <speed>0.0</speed>
  <fix>3d</fix>
</trkpt>
<trkpt lat="-27.2744389" lon="151.2900638">
  <ele>343.01</ele>
  <time>2026-08-29T20:44:07Z</time>
  <course>147.12</course>
  <speed>0.02</speed>
  <fix>3d</fix>
</trkpt>
<trkpt lat="-27.274439" lon="151.290064">
  <ele>343.0</ele>
  <time>2026-08-29T20:44:07Z</time>
  <course>0.0</course>
  <speed>0.0</speed>
  <fix>3d</fix>
</trkpt>
<trkpt lat="-27.2744389" lon="151.2900638">
  <ele>343.02</ele>
  <time>2026-08-29T20:44:07Z</time>
  <course>147.13</course>
  <speed>0.02</speed>
  <fix>3d</fix>
</trkpt>
<trkpt lat="-27.274439" lon="151.290064">
  <ele>343.0</ele>
  <time>2026-08-29T20:44:07Z</time>
  <course>0.0</course>
  <speed>0.0</speed>
  <fix>3d</fix>
</trkpt>
<trkpt lat="-27.2744389" lon="151.2900638">
  <ele>343.01</ele>
  <time>2026-08-29T20:44:07Z</time>
  <course>147.12</course>
  <speed>0.02</speed>
  <fix>3d</fix>
</trkpt>
<trkpt lat="-27.274439" lon="151.290064">
  <ele>343.0</ele>
  <time>2026-08-29T20:44:07Z</time>
  <course>0.0</course>
  <speed>0.0</speed>
  <fix>3d</fix>
</trkpt>
<trkpt lat="-27.2744389" lon="151.2900638">
  <ele>343.0</ele>
  <time>2026-08-29T20:44:07Z</time>
  <course>147.13</course>
  <speed>0.02</speed>
  <fix>3d</fix>
</trkpt>
<trkpt lat="-27.274439" lon="151.290064">
  <ele>343.0</ele>
  <time>2026-08-29T20:44:07Z</time>
  <course>0.0</course>
  <speed>0.0</speed>
  <fix>3d</fix>
</trkpt>
<trkpt lat="-27.2744389" lon="151.2900638">
  <ele>343.02</ele>
  <time>2026-08-29T20:44:07Z</time>
  <course>147.12</course>
  <speed>0.02</speed>
  <fix>3d</fix>
</trkpt>
<trkpt lat="-27.274439" lon="151.290064">
  <ele>343.0</ele>
  <time>2026-08-29T20:44:07Z</time>
  <course>0.0</course>
  <speed>0.0</speed>
  <fix>3d</fix>
</trkpt>
<trkpt lat="-27.2744389" lon="151.2900638">
  <ele>343.02</ele>
  <time>2026-08-29T20:44:07Z</time>
  <course>147.13</course>
  <speed>0.02</speed>
  <fix>3d</fix>
</trkpt>
<trkpt lat="-27.274439" lon="151.290064">
  <ele>343.0</ele>
  <time>2026-08-29T20:44:07Z</time>
  <course>0.0</course>
  <speed>0.0</speed>
  <fix>3d</fix>
</trkpt>
<trkpt lat="-27.2744389" lon="151.2900638">
  <ele>343.01</ele>
  <time>2026-08-29T20:44:07Z</time>
  <course>147.12</course>
  <speed>0.02</speed>
  <fix>3d</fix>
</trkpt>
<trkpt lat="-27.274439" lon="151.290064">
  <ele>343.0</ele>
  <time>2026-08-29T20:44:07Z</time>
  <course>0.0</course>
  <speed>0.0</speed>
  <fix>3d</fix>
</trkpt>
<trkpt lat="-27.2744389" lon="151.2900638">
  <ele>343.04</ele>
  <time>2026-08-29T20:44:08Z</time>
  <course>147.13</course>
  <speed>0.02</speed>
  <fix>3d</fix>
</trkpt>
<trkpt lat="-27.274439" lon="151.290064">
  <ele>343.0</ele>
  <time>2026-08-29T20:44:08Z</time>
  <course>0.0</course>
  <speed>0.0</speed>
  <fix>3d</fix>
</trkpt>
<trkpt lat="-27.2744389" lon="151.2900638">
  <ele>343.05</ele>
  <time>2026-08-29T20:44:08Z</time>
  <course>147.12</course>
  <speed>0.02</speed>
  <fix>3d</fix>
</trkpt>
<trkpt lat="-27.274439" lon="151.290064">
  <ele>343.0</ele>
  <time>2026-08-29T20:44:08Z</time>
  <course>0.0</course>
  <speed>0.0</speed>
  <fix>3d</fix>
</trkpt>
<trkpt lat="-27.2744389" lon="151.2900638">
  <ele>343.05</ele>
  <time>2026-08-29T20:44:08Z</time>
  <course>147.13</course>
  <speed>0.02</speed>
  <fix>3d</fix>
</trkpt>
<trkpt lat="-27.274439" lon="151.290064">
  <ele>343.0</ele>
  <time>2026-08-29T20:44:08Z</time>
  <course>0.0</course>
  <speed>0.0</speed>
  <fix>3d</fix>
</trkpt>
<trkpt lat="-27.2744389" lon="151.2900638">
  <ele>343.04</ele>
  <time>2026-08-29T20:44:08Z</time>
  <course>147.12</course>
  <speed>0.02</speed>
  <fix>3d</fix>
</trkpt>
<trkpt lat="-27.274439" lon="151.290064">
  <ele>343.0</ele>
  <time>2026-08-29T20:44:08Z</time>
  <course>0.0</course>
  <speed>0.0</speed>
  <fix>3d</fix>
</trkpt>
<trkpt lat="-27.2744389" lon="151.2900638">
  <ele>342.99</ele>
  <time>2026-08-29T20:44:08Z</time>
  <course>139.25</course>
  <speed>0.02</speed>
  <fix>3d</fix>
</trkpt>
<trkpt lat="-27.274439" lon="151.290064">
  <ele>343.0</ele>
  <time>2026-08-29T20:44:08Z</time>
  <course>0.0</course>
  <speed>0.0</speed>
  <fix>3d</fix>
</trkpt>
<trkpt lat="-27.2744389" lon="151.2900638">
  <ele>342.97</ele>
  <time>2026-08-29T20:44:08Z</time>
  <course>130.14</course>
  <speed>0.02</speed>
  <fix>3d</fix>
</trkpt>
<trkpt lat="-27.274439" lon="151.290064">
  <ele>343.0</ele>
  <time>2026-08-29T20:44:08Z</time>
  <course>0.0</course>
  <speed>0.0</speed>
  <fix>3d</fix>
</trkpt>
<trkpt lat="-27.274439" lon="151.2900638">
  <ele>342.95</ele>
  <time>2026-08-29T20:44:08Z</time>
  <course>121.05</course>
  <speed>0.01</speed>
  <fix>3d</fix>
</trkpt>
<trkpt lat="-27.274439" lon="151.290064">
  <ele>343.0</ele>
  <time>2026-08-29T20:44:08Z</time>
  <course>0.0</course>
  <speed>0.0</speed>
  <fix>3d</fix>
</trkpt>
<trkpt lat="-27.274439" lon="151.2900638">
  <ele>342.93</ele>
  <time>2026-08-29T20:44:08Z</time>
  <course>112.0</course>
  <speed>0.01414213562373095</speed>
  <fix>3d</fix>
</trkpt>
<trkpt lat="-27.274439" lon="151.290064">
  <ele>343.0</ele>
  <time>2026-08-29T20:44:08Z</time>
  <course>0.0</course>
  <speed>0.0</speed>
  <fix>3d</fix>
</trkpt>
<trkpt lat="-27.274439" lon="151.290064">
  <ele>343.0</ele>
  <time>2026-08-29T20:44:08Z</time>
  <course>324.52</course>
  <speed>0.0</speed>
  <fix>3d</fix>
</trkpt>
<trkpt lat="-27.274439" lon="151.290064">
  <ele>343.0</ele>
  <time>2026-08-29T20:44:08Z</time>
  <course>318.17</course>
  <speed>0.0</speed>
  <fix>3d</fix>
</trkpt>
<trkpt lat="-27.274439" lon="151.290064">
  <ele>343.0</ele>
  <time>2026-08-29T20:44:08Z</time>
  <course>309.71</course>
  <speed>0.0</speed>
  <fix>3d</fix>
</trkpt>
<trkpt lat="-27.274439" lon="151.290064">
  <ele>343.0</ele>
  <time>2026-08-29T20:44:08Z</time>
  <course>295.7</course>
  <speed>0.0</speed>
  <fix>3d</fix>
</trkpt>
<trkpt lat="-27.274439" lon="151.290064">
  <ele>343.0</ele>
  <time>2026-08-29T20:44:08Z</time>
  <course>291.22</course>
  <speed>0.0</speed>
  <fix>3d</fix>
</trkpt>
<trkpt lat="-27.274439" lon="151.290064">
  <ele>343.0</ele>
  <time>2026-08-29T20:44:08Z</time>
  <course>286.26</course>
  <speed>0.0</speed>
  <fix>3d</fix>
</trkpt>
<trkpt lat="-27.274439" lon="151.290064">
  <ele>343.0</ele>
  <time>2026-08-29T20:44:08Z</time>
  <course>280.5</course>
  <speed>0.0</speed>
  <fix>3d</fix>
</trkpt>
<trkpt lat="-27.274439" lon="151.290064">
  <ele>343.0</ele>
  <time>2026-08-29T20:44:08Z</time>
  <course>272.98</course>
  <speed>0.0</speed>
  <fix>3d</fix>
</trkpt>
<trkpt lat="-27.274439" lon="151.290064">
  <ele>343.0</ele>
  <time>2026-08-29T20:44:08Z</time>
  <course>265.49</course>
  <speed>0.13892443989449804</speed>
  <fix>3d</fix>
</trkpt>
<trkpt lat="-27.274439" lon="151.290064">
  <ele>343.0</ele>
  <time>2026-08-29T20:44:08Z</time>
  <course>0.0</course>
  <speed>0.0</speed>
  <fix>3d</fix>
</trkpt>
<trkpt lat="-27.274439" lon="151.290064">
  <ele>343.0</ele>
  <time>2026-08-29T20:44:08Z</time>
  <course>259.13</course>
  <speed>0.16552945357246848</speed>
  <fix>3d</fix>
</trkpt>
<trkpt lat="-27.274439" lon="151.290064">
  <ele>343.0</ele>
  <time>2026-08-29T20:44:08Z</time>
  <course>0.0</course>
  <speed>0.0</speed>
  <fix>3d</fix>
</trkpt>
<trkpt lat="-27.274439" lon="151.290064">
  <ele>343.0</ele>
  <time>2026-08-29T20:44:08Z</time>
  <course>251.09</course>
  <speed>0.1615549442140351</speed>
  <fix>3d</fix>
</trkpt>
<trkpt lat="-27.274439" lon="151.290064">
  <ele>343.0</ele>
  <time>2026-08-29T20:44:08Z</time>
  <course>0.0</course>
  <speed>0.0</speed>
  <fix>3d</fix>
</trkpt>
<trkpt lat="-27.274439" lon="151.290064">
  <ele>343.0</ele>
  <time>2026-08-29T20:44:08Z</time>
  <course>242.09</course>
  <speed>0.1649242250247064</speed>
  <fix>3d</fix>
</trkpt>
<trkpt lat="-27.274439" lon="151.290064">
  <ele>343.0</ele>
  <time>2026-08-29T20:44:08Z</time>
  <course>0.0</course>
  <speed>0.0</speed>
  <fix>3d</fix>
</trkpt>
<trkpt lat="-27.274439" lon="151.290064">
  <ele>343.0</ele>
  <time>2026-08-29T20:44:08Z</time>
  <course>232.53</course>
  <speed>0.18110770276274835</speed>
  <fix>3d</fix>
</trkpt>
<trkpt lat="-27.274439" lon="151.290064">
  <ele>343.0</ele>
  <time>2026-08-29T20:44:08Z</time>
  <course>0.0</course>
  <speed>0.0</speed>
  <fix>3d</fix>
</trkpt>
<trkpt lat="-27.274439" lon="151.290064">
  <ele>343.0</ele>
  <time>2026-08-29T20:44:08Z</time>
  <course>222.68</course>
  <speed>0.22</speed>
  <fix>3d</fix>
</trkpt>
<trkpt lat="-27.274439" lon="151.290064">
  <ele>343.0</ele>
  <time>2026-08-29T20:44:08Z</time>
  <course>0.0</course>
  <speed>0.0</speed>
  <fix>3d</fix>
</trkpt>
<trkpt lat="-27.274439" lon="151.290064">
  <ele>343.0</ele>
  <time>2026-08-29T20:44:08Z</time>
  <course>212.65</course>
  <speed>0.2308679276123039</speed>
  <fix>3d</fix>
</trkpt>
<trkpt lat="-27.274439" lon="151.290064">
  <ele>343.0</ele>
  <time>2026-08-29T20:44:08Z</time>
  <course>0.0</course>
  <speed>0.0</speed>
  <fix>3d</fix>
</trkpt>
<trkpt lat="-27.274439" lon="151.290064">
  <ele>343.0</ele>
  <time>2026-08-29T20:44:08Z</time>
  <course>202.55</course>
  <speed>0.21377558326431947</speed>
  <fix>3d</fix>
</trkpt>
<trkpt lat="-27.274439" lon="151.290064">
  <ele>343.0</ele>
  <time>2026-08-29T20:44:08Z</time>
  <course>0.0</course>
  <speed>0.0</speed>
  <fix>3d</fix>
</trkpt>
<trkpt lat="-27.274439" lon="151.290064">
  <ele>343.0</ele>
  <time>2026-08-29T20:44:08Z</time>
  <course>192.44</course>
  <speed>0.19313207915827968</speed>
  <fix>3d</fix>
</trkpt>
<trkpt lat="-27.274439" lon="151.290064">
  <ele>343.0</ele>
  <time>2026-08-29T20:44:08Z</time>
  <course>0.0</course>
  <speed>0.0</speed>
  <fix>3d</fix>
</trkpt>
<trkpt lat="-27.274439" lon="151.290064">
  <ele>343.0</ele>
  <time>2026-08-29T20:44:08Z</time>
  <course>182.34</course>
  <speed>0.18867962264113206</speed>
  <fix>3d</fix>
</trkpt>
<trkpt lat="-27.274439" lon="151.290064">
  <ele>343.0</ele>
  <time>2026-08-29T20:44:08Z</time>
  <course>0.0</course>
  <speed>0.0</speed>
  <fix>3d</fix>
</trkpt>
<trkpt lat="-27.274439" lon="151.290064">
  <ele>343.0</ele>
  <time>2026-08-29T20:44:08Z</time>
  <course>172.22</course>
  <speed>0.18439088914585774</speed>
  <fix>3d</fix>
</trkpt>
<trkpt lat="-27.274439" lon="151.290064">
  <ele>343.0</ele>
  <time>2026-08-29T20:44:08Z</time>
  <course>0.0</course>
  <speed>0.0</speed>
  <fix>3d</fix>
</trkpt>
<trkpt lat="-27.274439" lon="151.290064">
  <ele>343.0</ele>
  <time>2026-08-29T20:44:08Z</time>
  <course>162.13</course>
  <speed>0.17204650534085253</speed>
  <fix>3d</fix>
</trkpt>
<trkpt lat="-27.274439" lon="151.290064">
  <ele>343.0</ele>
  <time>2026-08-29T20:44:08Z</time>
  <course>0.0</course>
  <speed>0.0</speed>
  <fix>3d</fix>
</trkpt>
<trkpt lat="-27.274439" lon="151.290064">
  <ele>343.0</ele>
  <time>2026-08-29T20:44:08Z</time>
  <course>152.11</course>
  <speed>0.1615549442140351</speed>
  <fix>3d</fix>
</trkpt>
<trkpt lat="-27.274439" lon="151.290064">
  <ele>343.0</ele>
  <time>2026-08-29T20:44:08Z</time>
  <course>0.0</course>
  <speed>0.0</speed>
  <fix>3d</fix>
</trkpt>
<trkpt lat="-27.274439" lon="151.290064">
  <ele>343.0</ele>
  <time>2026-08-29T20:44:08Z</time>
  <course>142.17</course>
  <speed>0.16031219541881397</speed>
  <fix>3d</fix>
</trkpt>
<trkpt lat="-27.274439" lon="151.290064">
  <ele>343.0</ele>
  <time>2026-08-29T20:44:08Z</time>
  <course>0.0</course>
  <speed>0.0</speed>
  <fix>3d</fix>
</trkpt>
<trkpt lat="-27.274439" lon="151.290064">
  <ele>343.0</ele>
  <time>2026-08-29T20:44:08Z</time>
  <course>132.34</course>
  <speed>0.16124515496597097</speed>
  <fix>3d</fix>
</trkpt>
<trkpt lat="-27.274439" lon="151.290064">
  <ele>343.0</ele>
  <time>2026-08-29T20:44:08Z</time>
  <course>0.0</course>
  <speed>0.0</speed>
  <fix>3d</fix>
</trkpt>
<trkpt lat="-27.274439" lon="151.290064">
  <ele>343.0</ele>
  <time>2026-08-29T20:44:08Z</time>
  <course>122.55</course>
  <speed>0.1615549442140351</speed>
  <fix>3d</fix>
</trkpt>
<trkpt lat="-27.274439" lon="151.290064">
  <ele>343.0</ele>
  <time>2026-08-29T20:44:08Z</time>
  <course>0.0</course>
  <speed>0.0</speed>
  <fix>3d</fix>
</trkpt>
<trkpt lat="-27.274439" lon="151.290064">
  <ele>343.0</ele>
  <time>2026-08-29T20:44:08Z</time>
  <course>325.88</course>
  <speed>0.0</speed>
  <fix>3d</fix>
</trkpt>
<trkpt lat="-27.274439" lon="151.290064">
  <ele>343.0</ele>
  <time>2026-08-29T20:44:08Z</time>
  <course>324.43</course>
  <speed>0.0</speed>
  <fix>3d</fix>
</trkpt>
<trkpt lat="-27.274439" lon="151.290064">
  <ele>343.0</ele>
  <time>2026-08-29T20:44:08Z</time>
  <course>321.86</course>
  <speed>0.0</speed>
  <fix>3d</fix>
</trkpt>
<trkpt lat="-27.274439" lon="151.290064">
  <ele>343.0</ele>
  <time>2026-08-29T20:44:08Z</time>
  <course>295.0</course>
  <speed>0.0</speed>
  <fix>3d</fix>
</trkpt>
<trkpt lat="-27.274439" lon="151.290064">
  <ele>343.0</ele>
  <time>2026-08-29T20:44:08Z</time>
  <course>290.72</course>
  <speed>0.0</speed>
  <fix>3d</fix>
</trkpt>
<trkpt lat="-27.274439" lon="151.290064">
  <ele>343.0</ele>
  <time>2026-08-29T20:44:08Z</time>
  <course>284.84</course>
  <speed>0.0</speed>
  <fix>3d</fix>
</trkpt>
<trkpt lat="-27.274439" lon="151.290064">
  <ele>343.0</ele>
  <time>2026-08-29T20:44:08Z</time>
  <course>277.79</course>
  <speed>0.0</speed>
  <fix>3d</fix>
</trkpt>
<trkpt lat="-27.274439" lon="151.290064">
  <ele>343.0</ele>
  <time>2026-08-29T20:44:08Z</time>
  <course>269.55</course>
  <speed>0.0</speed>
  <fix>3d</fix>
</trkpt>
<trkpt lat="-27.274439" lon="151.290064">
  <ele>343.0</ele>
  <time>2026-08-29T20:44:08Z</time>
  <course>262.16</course>
  <speed>0.9176055797563569</speed>
  <fix>3d</fix>
</trkpt>
<trkpt lat="-27.274439" lon="151.290064">
  <ele>343.0</ele>
  <time>2026-08-29T20:44:08Z</time>
  <course>0.0</course>
  <speed>0.0</speed>
  <fix>3d</fix>
</trkpt>
<trkpt lat="-27.274439" lon="151.290064">
  <ele>343.0</ele>
  <time>2026-08-29T20:44:08Z</time>
  <course>256.4</course>
  <speed>0.9403190947758107</speed>
  <fix>3d</fix>
</trkpt>
<trkpt lat="-27.274439" lon="151.290064">
  <ele>343.0</ele>
  <time>2026-08-29T20:44:08Z</time>
  <course>0.0</course>
  <speed>0.0</speed>
  <fix>3d</fix>
</trkpt>
<trkpt lat="-27.274439" lon="151.290064">
  <ele>343.0</ele>
  <time>2026-08-29T20:44:08Z</time>
  <course>249.45</course>
  <speed>0.756042326857432</speed>
  <fix>3d</fix>
</trkpt>
<trkpt lat="-27.274439" lon="151.290064">
  <ele>343.0</ele>
  <time>2026-08-29T20:44:08Z</time>
  <course>0.0</course>
  <speed>0.0</speed>
  <fix>3d</fix>
</trkpt>
<trkpt lat="-27.274439" lon="151.290064">
  <ele>343.0</ele>
  <time>2026-08-29T20:44:08Z</time>
  <course>241.79</course>
  <speed>0.6596969000988256</speed>
  <fix>3d</fix>
</trkpt>
<trkpt lat="-27.274439" lon="151.290064">
  <ele>343.0</ele>
  <time>2026-08-29T20:44:08Z</time>
  <course>0.0</course>
  <speed>0.0</speed>
  <fix>3d</fix>
</trkpt>
<trkpt lat="-27.274439" lon="151.290064">
  <ele>343.0</ele>
  <time>2026-08-29T20:44:08Z</time>
  <course>233.59</course>
  <speed>0.6618912297349165</speed>
  <fix>3d</fix>
</trkpt>
<trkpt lat="-27.274439" lon="151.290064">
  <ele>343.0</ele>
  <time>2026-08-29T20:44:08Z</time>
  <course>0.0</course>
  <speed>0.0</speed>
  <fix>3d</fix>
</trkpt>
<trkpt lat="-27.274439" lon="151.290064">
  <ele>343.0</ele>
  <time>2026-08-29T20:44:08Z</time>
  <course>225.02</course>
  <speed>0.7034202158027589</speed>
  <fix>3d</fix>
</trkpt>
<trkpt lat="-27.274439" lon="151.290064">
  <ele>343.0</ele>
  <time>2026-08-29T20:44:08Z</time>
  <course>0.0</course>
  <speed>0.0</speed>
  <fix>3d</fix>
</trkpt>
<trkpt lat="-27.274439" lon="151.290064">
  <ele>343.0</ele>
  <time>2026-08-29T20:44:08Z</time>
  <course>215.98</course>
  <speed>0.3584689665786984</speed>
  <fix>3d</fix>
</trkpt>
<trkpt lat="-27.274439" lon="151.290064">
  <ele>343.0</ele>
  <time>2026-08-29T20:44:08Z</time>
  <course>0.0</course>
  <speed>0.0</speed>
  <fix>3d</fix>
</trkpt>
<trkpt lat="-27.274439" lon="151.290064">
  <ele>343.0</ele>
  <time>2026-08-29T20:44:08Z</time>
  <course>206.65</course>
  <speed>0.10816653826391968</speed>
  <fix>3d</fix>
</trkpt>
<trkpt lat="-27.274439" lon="151.290064">
  <ele>343.0</ele>
  <time>2026-08-29T20:44:08Z</time>
  <course>0.0</course>
  <speed>0.0</speed>
  <fix>3d</fix>
</trkpt>
<trkpt lat="-27.274439" lon="151.290064">
  <ele>343.0</ele>
  <time>2026-08-29T20:44:08Z</time>
  <course>197.28</course>
  <speed>0.09848857801796104</speed>
  <fix>3d</fix>
</trkpt>
<trkpt lat="-27.274439" lon="151.290064">
  <ele>343.0</ele>
  <time>2026-08-29T20:44:08Z</time>
  <course>0.0</course>
  <speed>0.0</speed>
  <fix>3d</fix>
</trkpt>
<trkpt lat="-27.274439" lon="151.290064">
  <ele>343.0</ele>
  <time>2026-08-29T20:44:08Z</time>
  <course>187.9</course>
  <speed>0.11401754250991379</speed>
  <fix>3d</fix>
</trkpt>
<trkpt lat="-27.274439" lon="151.290064">
  <ele>343.0</ele>
  <time>2026-08-29T20:44:08Z</time>
  <course>0.0</course>
  <speed>0.0</speed>
  <fix>3d</fix>
</trkpt>
<trkpt lat="-27.274439" lon="151.290064">
  <ele>343.0</ele>
  <time>2026-08-29T20:44:09Z</time>
  <course>325.88</course>
  <speed>0.0</speed>
  <fix>3d</fix>
</trkpt>
<trkpt lat="-27.274439" lon="151.290064">
  <ele>343.0</ele>
  <time>2026-08-29T20:44:09Z</time>
  <course>324.43</course>
  <speed>0.0</speed>
  <fix>3d</fix>
</trkpt>
<trkpt lat="-27.274439" lon="151.290064">
  <ele>343.0</ele>
  <time>2026-08-29T20:44:09Z</time>
  <course>321.86</course>
  <speed>0.0</speed>
  <fix>3d</fix>
</trkpt>
<trkpt lat="-27.274439" lon="151.290064">
  <ele>343.0</ele>
  <time>2026-08-29T20:44:09Z</time>
  <course>295.0</course>
  <speed>0.0</speed>
  <fix>3d</fix>
</trkpt>
<trkpt lat="-27.274439" lon="151.290064">
  <ele>343.0</ele>
  <time>2026-08-29T20:44:09Z</time>
  <course>290.72</course>
  <speed>0.0</speed>
  <fix>3d</fix>
</trkpt>
<trkpt lat="-27.274439" lon="151.290064">
  <ele>343.0</ele>
  <time>2026-08-29T20:44:09Z</time>
  <course>284.84</course>
  <speed>0.0</speed>
  <fix>3d</fix>
</trkpt>
<trkpt lat="-27.274439" lon="151.290064">
  <ele>343.0</ele>
  <time>2026-08-29T20:44:09Z</time>
  <course>277.79</course>
  <speed>0.0</speed>
  <fix>3d</fix>
</trkpt>
<trkpt lat="-27.274439" lon="151.290064">
  <ele>343.0</ele>
  <time>2026-08-29T20:44:09Z</time>
  <course>269.55</course>
  <speed>0.0</speed>
  <fix>3d</fix>
</trkpt>
<trkpt lat="-27.274439" lon="151.290064">
  <ele>343.0</ele>
  <time>2026-08-29T20:44:09Z</time>
  <course>262.16</course>
  <speed>0.9176055797563569</speed>
  <fix>3d</fix>
</trkpt>
<trkpt lat="-27.274439" lon="151.290064">
  <ele>343.0</ele>
  <time>2026-08-29T20:44:09Z</time>
  <course>0.0</course>
  <speed>0.0</speed>
  <fix>3d</fix>
</trkpt>
<trkpt lat="-27.274439" lon="151.290064">
  <ele>343.0</ele>
  <time>2026-08-29T20:44:09Z</time>
  <course>256.4</course>
  <speed>0.9403190947758107</speed>
  <fix>3d</fix>
</trkpt>
<trkpt lat="-27.274439" lon="151.290064">
  <ele>343.0</ele>
  <time>2026-08-29T20:44:09Z</time>
  <course>0.0</course>
  <speed>0.0</speed>
  <fix>3d</fix>
</trkpt>
<trkpt lat="-27.274439" lon="151.290064">
  <ele>343.0</ele>
  <time>2026-08-29T20:44:09Z</time>
  <course>249.45</course>
  <speed>0.756042326857432</speed>
  <fix>3d</fix>
</trkpt>
<trkpt lat="-27.274439" lon="151.290064">
  <ele>343.0</ele>
  <time>2026-08-29T20:44:09Z</time>
  <course>0.0</course>
  <speed>0.0</speed>
  <fix>3d</fix>
</trkpt>
<trkpt lat="-27.274439" lon="151.290064">
  <ele>343.0</ele>
  <time>2026-08-29T20:44:09Z</time>
  <course>241.79</course>
  <speed>0.6596969000988256</speed>
  <fix>3d</fix>
</trkpt>
<trkpt lat="-27.274439" lon="151.290064">
  <ele>343.0</ele>
  <time>2026-08-29T20:44:09Z</time>
  <course>0.0</course>
  <speed>0.0</speed>
  <fix>3d</fix>
</trkpt>
<trkpt lat="-27.274439" lon="151.290064">
  <ele>343.0</ele>
  <time>2026-08-29T20:44:09Z</time>
  <course>233.59</course>
  <speed>0.6618912297349165</speed>
  <fix>3d</fix>
</trkpt>
<trkpt lat="-27.274439" lon="151.290064">
  <ele>343.0</ele>
  <time>2026-08-29T20:44:09Z</time>
  <course>0.0</course>
  <speed>0.0</speed>
  <fix>3d</fix>
</trkpt>
<trkpt lat="-27.274439" lon="151.290064">
  <ele>343.0</ele>
  <time>2026-08-29T20:44:09Z</time>
  <course>225.02</course>
  <speed>0.7034202158027589</speed>
  <fix>3d</fix>
</trkpt>
<trkpt lat="-27.274439" lon="151.290064">
  <ele>343.0</ele>
  <time>2026-08-29T20:44:09Z</time>
  <course>0.0</course>
  <speed>0.0</speed>
  <fix>3d</fix>
</trkpt>
<trkpt lat="-27.274439" lon="151.290064">
  <ele>343.0</ele>
  <time>2026-08-29T20:44:09Z</time>
  <course>216.17</course>
  <speed>0.7539230729988305</speed>
  <fix>3d</fix>
</trkpt>
<trkpt lat="-27.274439" lon="151.290064">
  <ele>343.0</ele>
  <time>2026-08-29T20:44:09Z</time>
  <course>0.0</course>
  <speed>0.0</speed>
  <fix>3d</fix>
</trkpt>
<trkpt lat="-27.274439" lon="151.290064">
  <ele>343.0</ele>
  <time>2026-08-29T20:44:09Z</time>
  <course>206.93</course>
  <speed>0.3721558813185679</speed>
  <fix>3d</fix>
</trkpt>
<trkpt lat="-27.274439" lon="151.290064">
  <ele>343.0</ele>
  <time>2026-08-29T20:44:09Z</time>
  <course>0.0</course>
  <speed>0.0</speed>
  <fix>3d</fix>
</trkpt>
<trkpt lat="-27.274439" lon="151.290064">
  <ele>343.0</ele>
  <time>2026-08-29T20:44:09Z</time>
  <course>197.48</course>
  <speed>0.11661903789690602</speed>
  <fix>3d</fix>
</trkpt>
<trkpt lat="-27.274439" lon="151.290064">
  <ele>343.0</ele>
  <time>2026-08-29T20:44:09Z</time>
  <course>0.0</course>
  <speed>0.0</speed>
  <fix>3d</fix>
</trkpt>
<trkpt lat="-27.274439" lon="151.290064">
  <ele>343.0</ele>
  <time>2026-08-29T20:44:09Z</time>
  <course>188.05</course>
  <speed>0.09848857801796104</speed>
  <fix>3d</fix>
</trkpt>
<trkpt lat="-27.274439" lon="151.290064">
  <ele>343.0</ele>
  <time>2026-08-29T20:44:09Z</time>
  <course>0.0</course>
  <speed>0.0</speed>
  <fix>3d</fix>
</trkpt>
<trkpt lat="-27.274439" lon="151.290064">
  <ele>343.0</ele>
  <time>2026-08-29T20:44:09Z</time>
  <course>178.62</course>
  <speed>0.11704699910719625</speed>
  <fix>3d</fix>
</trkpt>
<trkpt lat="-27.274439" lon="151.290064">
  <ele>343.0</ele>
  <time>2026-08-29T20:44:09Z</time>
  <course>0.0</course>
  <speed>0.0</speed>
  <fix>3d</fix>
</trkpt>
<trkpt lat="-27.274439" lon="151.290064">
  <ele>343.0</ele>
  <time>2026-08-29T20:44:09Z</time>
  <course>325.88</course>
  <speed>0.0</speed>
  <fix>3d</fix>
</trkpt>
<trkpt lat="-27.274439" lon="151.290064">
  <ele>343.0</ele>
  <time>2026-08-29T20:44:09Z</time>
  <course>324.43</course>
  <speed>0.0</speed>
  <fix>3d</fix>
</trkpt>
<trkpt lat="-27.274439" lon="151.290064">
  <ele>343.0</ele>
  <time>2026-08-29T20:44:09Z</time>
  <course>321.86</course>
  <speed>0.0</speed>
  <fix>3d</fix>
</trkpt>
<trkpt lat="-27.274439" lon="151.290064">
  <ele>343.0</ele>
  <time>2026-08-29T20:44:09Z</time>
  <course>295.0</course>
  <speed>0.0</speed>
  <fix>3d</fix>
</trkpt>
<trkpt lat="-27.274439" lon="151.290064">
  <ele>343.0</ele>
  <time>2026-08-29T20:44:09Z</time>
  <course>290.72</course>
  <speed>0.0</speed>
  <fix>3d</fix>
</trkpt>
<trkpt lat="-27.274439" lon="151.290064">
  <ele>343.0</ele>
  <time>2026-08-29T20:44:09Z</time>
  <course>284.84</course>
  <speed>0.0</speed>
  <fix>3d</fix>
</trkpt>
<trkpt lat="-27.274439" lon="151.290064">
  <ele>343.0</ele>
  <time>2026-08-29T20:44:09Z</time>
  <course>277.79</course>
  <speed>0.0</speed>
  <fix>3d</fix>
</trkpt>
<trkpt lat="-27.274439" lon="151.290064">
  <ele>343.0</ele>
  <time>2026-08-29T20:44:09Z</time>
  <course>269.55</course>
  <speed>0.0</speed>
  <fix>3d</fix>
</trkpt>
<trkpt lat="-27.274439" lon="151.290064">
  <ele>343.0</ele>
  <time>2026-08-29T20:44:09Z</time>
  <course>262.16</course>
  <speed>0.9176055797563569</speed>
  <fix>3d</fix>
</trkpt>
<trkpt lat="-27.274439" lon="151.290064">
  <ele>343.0</ele>
  <time>2026-08-29T20:44:09Z</time>
  <course>0.0</course>
  <speed>0.0</speed>
  <fix>3d</fix>
</trkpt>
<trkpt lat="-27.274439" lon="151.290064">
  <ele>343.0</ele>
  <time>2026-08-29T20:44:09Z</time>
  <course>256.4</course>
  <speed>0.9403190947758107</speed>
  <fix>3d</fix>
</trkpt>
<trkpt lat="-27.274439" lon="151.290064">
  <ele>343.0</ele>
  <time>2026-08-29T20:44:09Z</time>
  <course>0.0</course>
  <speed>0.0</speed>
  <fix>3d</fix>
</trkpt>
<trkpt lat="-27.274439" lon="151.290064">
  <ele>343.0</ele>
  <time>2026-08-29T20:44:09Z</time>
  <course>249.45</course>
  <speed>0.756042326857432</speed>
  <fix>3d</fix>
</trkpt>
<trkpt lat="-27.274439" lon="151.290064">
  <ele>343.0</ele>
  <time>2026-08-29T20:44:09Z</time>
  <course>0.0</course>
  <speed>0.0</speed>
  <fix>3d</fix>
</trkpt>
<trkpt lat="-27.274439" lon="151.290064">
  <ele>343.0</ele>
  <time>2026-08-29T20:44:09Z</time>
  <course>241.79</course>
  <speed>0.6596969000988256</speed>
  <fix>3d</fix>
</trkpt>
<trkpt lat="-27.274439" lon="151.290064">
  <ele>343.0</ele>
  <time>2026-08-29T20:44:09Z</time>
  <course>0.0</course>
  <speed>0.0</speed>
  <fix>3d</fix>
</trkpt>
<trkpt lat="-27.274439" lon="151.290064">
  <ele>343.0</ele>
  <time>2026-08-29T20:44:09Z</time>
  <course>233.59</course>
  <speed>0.6618912297349165</speed>
  <fix>3d</fix>
</trkpt>
<trkpt lat="-27.274439" lon="151.290064">
  <ele>343.0</ele>
  <time>2026-08-29T20:44:09Z</time>
  <course>0.0</course>
  <speed>0.0</speed>
  <fix>3d</fix>
</trkpt>
<trkpt lat="-27.274439" lon="151.290064">
  <ele>343.0</ele>
  <time>2026-08-29T20:44:09Z</time>
  <course>225.02</course>
  <speed>0.7034202158027589</speed>
  <fix>3d</fix>
</trkpt>
<trkpt lat="-27.274439" lon="151.290064">
  <ele>343.0</ele>
  <time>2026-08-29T20:44:09Z</time>
  <course>0.0</course>
  <speed>0.0</speed>
  <fix>3d</fix>
</trkpt>
<trkpt lat="-27.274439" lon="151.290064">
  <ele>343.0</ele>
  <time>2026-08-29T20:44:09Z</time>
  <course>207.13</course>
  <speed>0.8052949770115296</speed>
  <fix>3d</fix>
</trkpt>
<trkpt lat="-27.274439" lon="151.290064">
  <ele>343.0</ele>
  <time>2026-08-29T20:44:09Z</time>
  <course>0.0</course>
  <speed>0.0</speed>
  <fix>3d</fix>
</trkpt>
<trkpt lat="-27.274439" lon="151.290064">
  <ele>343.0</ele>
  <time>2026-08-29T20:44:09Z</time>
  <course>197.95</course>
  <speed>0.8453401682163222</speed>
  <fix>3d</fix>
</trkpt>
<trkpt lat="-27.274439" lon="151.290064">
  <ele>343.0</ele>
  <time>2026-08-29T20:44:09Z</time>
  <course>0.0</course>
  <speed>0.0</speed>
  <fix>3d</fix>
</trkpt>
<trkpt lat="-27.274439" lon="151.290064">
  <ele>343.0</ele>
  <time>2026-08-29T20:44:09Z</time>
  <course>188.67</course>
  <speed>0.878179936004006</speed>
  <fix>3d</fix>
</trkpt>
<trkpt lat="-27.274439" lon="151.290064">
  <ele>343.0</ele>
  <time>2026-08-29T20:44:09Z</time>
  <course>0.0</course>
  <speed>0.0</speed>
  <fix>3d</fix>
</trkpt>
<trkpt lat="-27.274439" lon="151.290064">
  <ele>343.0</ele>
  <time>2026-08-29T20:44:09Z</time>
  <course>179.31</course>
  <speed>0.8848163651289458</speed>
  <fix>3d</fix>
</trkpt>
<trkpt lat="-27.274439" lon="151.290064">
  <ele>343.0</ele>
  <time>2026-08-29T20:44:09Z</time>
  <course>0.0</course>
  <speed>0.0</speed>
  <fix>3d</fix>
</trkpt>
<trkpt lat="-27.274439" lon="151.290064">
  <ele>343.0</ele>
  <time>2026-08-29T20:44:09Z</time>
  <course>169.93</course>
  <speed>0.9140021881811882</speed>
  <fix>3d</fix>
</trkpt>
<trkpt lat="-27.274439" lon="151.290064">
  <ele>343.0</ele>
  <time>2026-08-29T20:44:09Z</time>
  <course>0.0</course>
  <speed>0.0</speed>
  <fix>3d</fix>
</trkpt>
<trkpt lat="-27.274439" lon="151.290064">
  <ele>343.0</ele>
  <time>2026-08-29T20:44:09Z</time>
  <course>161.9</course>
  <speed>0.9219544457292888</speed>
  <fix>3d</fix>
</trkpt>
<trkpt lat="-27.274439" lon="151.290064">
  <ele>343.0</ele>
  <time>2026-08-29T20:44:09Z</time>
  <course>0.0</course>
  <speed>0.0</speed>
  <fix>3d</fix>
</trkpt>
<trkpt lat="-27.274439" lon="151.290064">
  <ele>343.0</ele>
  <time>2026-08-29T20:44:09Z</time>
  <course>158.55</course>
  <speed>0.9411163583744573</speed>
  <fix>3d</fix>
</trkpt>
<trkpt lat="-27.274439" lon="151.290064">
  <ele>343.0</ele>
  <time>2026-08-29T20:44:09Z</time>
  <course>0.0</course>
  <speed>0.0</speed>
  <fix>3d</fix>
</trkpt>
<trkpt lat="-27.274439" lon="151.290064">
  <ele>343.0</ele>
  <time>2026-08-29T20:44:09Z</time>
  <course>150.04</course>
  <speed>0.5091168824543142</speed>
  <fix>3d</fix>
</trkpt>
<trkpt lat="-27.274439" lon="151.290064">
  <ele>343.0</ele>
  <time>2026-08-29T20:44:09Z</time>
  <course>0.0</course>
  <speed>0.0</speed>
  <fix>3d</fix>
</trkpt>
<trkpt lat="-27.274439" lon="151.290064">
  <ele>343.0</ele>
  <time>2026-08-29T20:44:09Z</time>
  <course>140.48</course>
  <speed>0.2</speed>
  <fix>3d</fix>
</trkpt>
<trkpt lat="-27.274439" lon="151.290064">
  <ele>343.0</ele>
  <time>2026-08-29T20:44:09Z</time>
  <course>0.0</course>
  <speed>0.0</speed>
  <fix>3d</fix>
</trkpt>
<trkpt lat="-27.274439" lon="151.290064">
  <ele>343.0</ele>
  <time>2026-08-29T20:44:09Z</time>
  <course>131.0</course>
  <speed>0.10770329614269007</speed>
  <fix>3d</fix>
</trkpt>
<trkpt lat="-27.274439" lon="151.290064">
  <ele>343.0</ele>
  <time>2026-08-29T20:44:09Z</time>
  <course>0.0</course>
  <speed>0.0</speed>
  <fix>3d</fix>
</trkpt>
<trkpt lat="-27.274439" lon="151.290064">
  <ele>343.0</ele>
  <time>2026-08-29T20:44:09Z</time>
  <course>121.54</course>
  <speed>0.1044030650891055</speed>
  <fix>3d</fix>
</trkpt>
<trkpt lat="-27.274439" lon="151.290064">
  <ele>343.0</ele>
  <time>2026-08-29T20:44:09Z</time>
  <course>0.0</course>
  <speed>0.0</speed>
  <fix>3d</fix>
</trkpt>
<trkpt lat="-27.274439" lon="151.290064">
  <ele>343.0</ele>
  <time>2026-08-29T20:44:09Z</time>
  <course>325.88</course>
  <speed>0.0</speed>
  <fix>3d</fix>
</trkpt>
<trkpt lat="-27.274439" lon="151.290064">
  <ele>343.0</ele>
  <time>2026-08-29T20:44:09Z</time>
  <course>324.43</course>
  <speed>0.0</speed>
  <fix>3d</fix>
</trkpt>
<trkpt lat="-27.274439" lon="151.290064">
  <ele>343.0</ele>
  <time>2026-08-29T20:44:09Z</time>
  <course>321.86</course>
  <speed>0.0</speed>
  <fix>3d</fix>
</trkpt>
<trkpt lat="-27.274439" lon="151.290064">
  <ele>343.0</ele>
  <time>2026-08-29T20:44:09Z</time>
  <course>295.0</course>
  <speed>0.0</speed>
  <fix>3d</fix>
</trkpt>
<trkpt lat="-27.274439" lon="151.290064">
  <ele>343.0</ele>
  <time>2026-08-29T20:44:09Z</time>
  <course>290.72</course>
  <speed>0.0</speed>
  <fix>3d</fix>
</trkpt>
<trkpt lat="-27.274439" lon="151.290064">
  <ele>343.0</ele>
  <time>2026-08-29T20:44:09Z</time>
  <course>284.84</course>
  <speed>0.0</speed>
  <fix>3d</fix>
</trkpt>
<trkpt lat="-27.274439" lon="151.290064">
  <ele>343.0</ele>
  <time>2026-08-29T20:44:09Z</time>
  <course>277.79</course>
  <speed>0.0</speed>
  <fix>3d</fix>
</trkpt>
<trkpt lat="-27.274439" lon="151.290064">
  <ele>343.0</ele>
  <time>2026-08-29T20:44:10Z</time>
  <course>269.55</course>
  <speed>0.0</speed>
  <fix>3d</fix>
</trkpt>
<trkpt lat="-27.274439" lon="151.290064">
  <ele>343.0</ele>
  <time>2026-08-29T20:44:10Z</time>
  <course>262.16</course>
  <speed>0.9176055797563569</speed>
  <fix>3d</fix>
</trkpt>
<trkpt lat="-27.274439" lon="151.290064">
  <ele>343.0</ele>
  <time>2026-08-29T20:44:10Z</time>
  <course>0.0</course>
  <speed>0.0</speed>
  <fix>3d</fix>
</trkpt>
<trkpt lat="-27.274439" lon="151.290064">
  <ele>343.0</ele>
  <time>2026-08-29T20:44:10Z</time>
  <course>256.4</course>
  <speed>0.9403190947758107</speed>
  <fix>3d</fix>
</trkpt>
<trkpt lat="-27.274439" lon="151.290064">
  <ele>343.0</ele>
  <time>2026-08-29T20:44:10Z</time>
  <course>0.0</course>
  <speed>0.0</speed>
  <fix>3d</fix>
</trkpt>
<trkpt lat="-27.274439" lon="151.290064">
  <ele>343.0</ele>
  <time>2026-08-29T20:44:10Z</time>
  <course>249.45</course>
  <speed>0.756042326857432</speed>
  <fix>3d</fix>
</trkpt>
<trkpt lat="-27.274439" lon="151.290064">
  <ele>343.0</ele>
  <time>2026-08-29T20:44:10Z</time>
  <course>0.0</course>
  <speed>0.0</speed>
  <fix>3d</fix>
</trkpt>
<trkpt lat="-27.274439" lon="151.290064">
  <ele>343.0</ele>
  <time>2026-08-29T20:44:10Z</time>
  <course>241.79</course>
  <speed>0.6596969000988256</speed>
  <fix>3d</fix>
</trkpt>
<trkpt lat="-27.274439" lon="151.290064">
  <ele>343.0</ele>
  <time>2026-08-29T20:44:10Z</time>
  <course>0.0</course>
  <speed>0.0</speed>
  <fix>3d</fix>
</trkpt>
<trkpt lat="-27.274439" lon="151.290064">
  <ele>343.0</ele>
  <time>2026-08-29T20:44:10Z</time>
  <course>233.59</course>
  <speed>0.6618912297349165</speed>
  <fix>3d</fix>
</trkpt>
<trkpt lat="-27.274439" lon="151.290064">
  <ele>343.0</ele>
  <time>2026-08-29T20:44:10Z</time>
  <course>0.0</course>
  <speed>0.0</speed>
  <fix>3d</fix>
</trkpt>
<trkpt lat="-27.274439" lon="151.290064">
  <ele>343.0</ele>
  <time>2026-08-29T20:44:10Z</time>
  <course>225.02</course>
  <speed>0.7034202158027589</speed>
  <fix>3d</fix>
</trkpt>
<trkpt lat="-27.274439" lon="151.290064">
  <ele>343.0</ele>
  <time>2026-08-29T20:44:10Z</time>
  <course>0.0</course>
  <speed>0.0</speed>
  <fix>3d</fix>
</trkpt>
<trkpt lat="-27.274439" lon="151.290064">
  <ele>343.0</ele>
  <time>2026-08-29T20:44:10Z</time>
  <course>232.14</course>
  <speed>0.7502666192761077</speed>
  <fix>3d</fix>
</trkpt>
<trkpt lat="-27.274439" lon="151.290064">
  <ele>343.0</ele>
  <time>2026-08-29T20:44:10Z</time>
  <course>0.0</course>
  <speed>0.0</speed>
  <fix>3d</fix>
</trkpt>
<trkpt lat="-27.274439" lon="151.290064">
  <ele>343.0</ele>
  <time>2026-08-29T20:44:10Z</time>
  <course>241.15</course>
  <speed>0.7892401408950256</speed>
  <fix>3d</fix>
</trkpt>
<trkpt lat="-27.274439" lon="151.290064">
  <ele>343.0</ele>
  <time>2026-08-29T20:44:10Z</time>
  <course>0.0</course>
  <speed>0.0</speed>
  <fix>3d</fix>
</trkpt>
<trkpt lat="-27.274439" lon="151.290064">
  <ele>343.0</ele>
  <time>2026-08-29T20:44:10Z</time>
  <course>249.99</course>
  <speed>0.7947955712005447</speed>
  <fix>3d</fix>
</trkpt>
<trkpt lat="-27.274439" lon="151.290064">
  <ele>343.0</ele>
  <time>2026-08-29T20:44:10Z</time>
  <course>0.0</course>
  <speed>0.0</speed>
  <fix>3d</fix>
</trkpt>
<trkpt lat="-27.274439" lon="151.290064">
  <ele>343.0</ele>
  <time>2026-08-29T20:44:10Z</time>
  <course>258.75</course>
  <speed>0.7655063683601856</speed>
  <fix>3d</fix>
</trkpt>
<trkpt lat="-27.274439" lon="151.290064">
  <ele>343.0</ele>
  <time>2026-08-29T20:44:10Z</time>
  <course>0.0</course>
  <speed>0.0</speed>
  <fix>3d</fix>
</trkpt>
<trkpt lat="-27.274439" lon="151.290064">
  <ele>343.0</ele>
  <time>2026-08-29T20:44:10Z</time>
  <course>267.44</course>
  <speed>0.7273238618387272</speed>
  <fix>3d</fix>
</trkpt>
<trkpt lat="-27.274439" lon="151.290064">
  <ele>343.0</ele>
  <time>2026-08-29T20:44:10Z</time>
  <course>0.0</course>
  <speed>0.0</speed>
  <fix>3d</fix>
</trkpt>
<trkpt lat="-27.274439" lon="151.290064">
  <ele>343.0</ele>
  <time>2026-08-29T20:44:10Z</time>
  <course>276.1</course>
  <speed>0.7009279563550023</speed>
  <fix>3d</fix>
</trkpt>
<trkpt lat="-27.274439" lon="151.290064">
  <ele>343.0</ele>
  <time>2026-08-29T20:44:10Z</time>
  <course>0.0</course>
  <speed>0.0</speed>
  <fix>3d</fix>
</trkpt>
<trkpt lat="-27.274439" lon="151.290064">
  <ele>343.0</ele>
  <time>2026-08-29T20:44:10Z</time>
  <course>284.74</course>
  <speed>0.6789698078707183</speed>
  <fix>3d</fix>
</trkpt>
<trkpt lat="-27.274439" lon="151.290064">
  <ele>343.0</ele>
  <time>2026-08-29T20:44:10Z</time>
  <course>0.0</course>
  <speed>0.0</speed>
  <fix>3d</fix>
</trkpt>
<trkpt lat="-27.274439" lon="151.290064">
  <ele>343.0</ele>
  <time>2026-08-29T20:44:10Z</time>
  <course>293.43</course>
  <speed>0.6806614430096655</speed>
  <fix>3d</fix>
</trkpt>
<trkpt lat="-27.274439" lon="151.290064">
  <ele>343.0</ele>
  <time>2026-08-29T20:44:10Z</time>
  <course>0.0</course>
  <speed>0.0</speed>
  <fix>3d</fix>
</trkpt>
<trkpt lat="-27.274439" lon="151.290064">
  <ele>343.0</ele>
  <time>2026-08-29T20:44:10Z</time>
  <course>302.11</course>
  <speed>0.6806614430096655</speed>
  <fix>3d</fix>
</trkpt>
<trkpt lat="-27.274439" lon="151.290064">
  <ele>343.0</ele>
  <time>2026-08-29T20:44:10Z</time>
  <course>0.0</course>
  <speed>0.0</speed>
  <fix>3d</fix>
</trkpt>
<trkpt lat="-27.274439" lon="151.290064">
  <ele>343.0</ele>
  <time>2026-08-29T20:44:10Z</time>
  <course>310.86</course>
  <speed>0.6747592163134936</speed>
  <fix>3d</fix>
</trkpt>
<trkpt lat="-27.274439" lon="151.290064">
  <ele>343.0</ele>
  <time>2026-08-29T20:44:10Z</time>
  <course>0.0</course>
  <speed>0.0</speed>
  <fix>3d</fix>
</trkpt>
<trkpt lat="-27.274439" lon="151.290064">
  <ele>343.0</ele>
  <time>2026-08-29T20:44:10Z</time>
  <course>319.62</course>
  <speed>0.6363961030678928</speed>
  <fix>3d</fix>
</trkpt>
<trkpt lat="-27.274439" lon="151.290064">
  <ele>343.0</ele>
  <time>2026-08-29T20:44:10Z</time>
  <course>0.0</course>
  <speed>0.0</speed>
  <fix>3d</fix>
</trkpt>
<trkpt lat="-27.274439" lon="151.290064">
  <ele>343.0</ele>
  <time>2026-08-29T20:44:10Z</time>
  <course>328.46</course>
  <speed>0.6216912416947821</speed>
  <fix>3d</fix>
</trkpt>
<trkpt lat="-27.274439" lon="151.290064">
  <ele>343.0</ele>
  <time>2026-08-29T20:44:10Z</time>
  <course>0.0</course>
  <speed>0.0</speed>
  <fix>3d</fix>
</trkpt>
<trkpt lat="-27.274439" lon="151.290064">
  <ele>343.0</ele>
  <time>2026-08-29T20:44:10Z</time>
  <course>337.31</course>
  <speed>0.6168468205316454</speed>
  <fix>3d</fix>
</trkpt>
<trkpt lat="-27.274439" lon="151.290064">
  <ele>343.0</ele>
  <time>2026-08-29T20:44:10Z</time>
  <course>0.0</course>
  <speed>0.0</speed>
  <fix>3d</fix>
</trkpt>
<trkpt lat="-27.274439" lon="151.290064">
  <ele>343.0</ele>
  <time>2026-08-29T20:44:10Z</time>
  <course>346.22</course>
  <speed>0.6276941930590086</speed>
  <fix>3d</fix>
</trkpt>
<trkpt lat="-27.274439" lon="151.290064">
  <ele>343.0</ele>
  <time>2026-08-29T20:44:10Z</time>
  <course>0.0</course>
  <speed>0.0</speed>
  <fix>3d</fix>
</trkpt>
<trkpt lat="-27.274439" lon="151.290064">
  <ele>343.0</ele>
  <time>2026-08-29T20:44:10Z</time>
  <course>355.15</course>
  <speed>0.6217716622683925</speed>
  <fix>3d</fix>
</trkpt>
<trkpt lat="-27.274439" lon="151.290064">
  <ele>343.0</ele>
  <time>2026-08-29T20:44:10Z</time>
  <course>0.0</course>
  <speed>0.0</speed>
  <fix>3d</fix>
</trkpt>
<trkpt lat="-27.274439" lon="151.290064">
  <ele>343.0</ele>
  <time>2026-08-29T20:44:10Z</time>
  <course>4.14</course>
  <speed>0.6158733636065129</speed>
  <fix>3d</fix>
</trkpt>
<trkpt lat="-27.274439" lon="151.290064">
  <ele>343.0</ele>
  <time>2026-08-29T20:44:10Z</time>
  <course>0.0</course>
  <speed>0.0</speed>
  <fix>3d</fix>
</trkpt>
<trkpt lat="-27.274439" lon="151.290064">
  <ele>343.0</ele>
  <time>2026-08-29T20:44:10Z</time>
  <course>13.16</course>
  <speed>0.6140032573203501</speed>
  <fix>3d</fix>
</trkpt>
<trkpt lat="-27.274439" lon="151.290064">
  <ele>343.0</ele>
  <time>2026-08-29T20:44:10Z</time>
  <course>0.0</course>
  <speed>0.0</speed>
  <fix>3d</fix>
</trkpt>
<trkpt lat="-27.274439" lon="151.290064">
  <ele>343.0</ele>
  <time>2026-08-29T20:44:10Z</time>
  <course>18.01</course>
  <speed>0.608769250208977</speed>
  <fix>3d</fix>
</trkpt>
<trkpt lat="-27.274439" lon="151.290064">
  <ele>343.0</ele>
  <time>2026-08-29T20:44:10Z</time>
  <course>0.0</course>
  <speed>0.0</speed>
  <fix>3d</fix>
</trkpt>
<trkpt lat="-27.274439" lon="151.290064">
  <ele>343.0</ele>
  <time>2026-08-29T20:44:10Z</time>
  <course>9.21</course>
  <speed>0.6095900261651268</speed>
  <fix>3d</fix>
</trkpt>
<trkpt lat="-27.274439" lon="151.290064">
  <ele>343.0</ele>
  <time>2026-08-29T20:44:10Z</time>
  <course>0.0</course>
  <speed>0.0</speed>
  <fix>3d</fix>
</trkpt>
<trkpt lat="-27.274439" lon="151.290064">
  <ele>343.0</ele>
  <time>2026-08-29T20:44:10Z</time>
  <course>6.35</course>
  <speed>0.6185466837676846</speed>
  <fix>3d</fix>
</trkpt>
<trkpt lat="-27.274439" lon="151.290064">
  <ele>343.0</ele>
  <time>2026-08-29T20:44:10Z</time>
  <course>0.0</course>
  <speed>0.0</speed>
  <fix>3d</fix>
</trkpt>
<trkpt lat="-27.274439" lon="151.290064">
  <ele>343.0</ele>
  <time>2026-08-29T20:44:10Z</time>
  <course>6.56</course>
  <speed>0.6488451279003334</speed>
  <fix>3d</fix>
</trkpt>
<trkpt lat="-27.274439" lon="151.290064">
  <ele>343.0</ele>
  <time>2026-08-29T20:44:10Z</time>
  <course>0.0</course>
  <speed>0.0</speed>
  <fix>3d</fix>
</trkpt>
<trkpt lat="-27.274439" lon="151.290064">
  <ele>343.0</ele>
  <time>2026-08-29T20:44:10Z</time>
  <course>7.44</course>
  <speed>0.6815423684555495</speed>
  <fix>3d</fix>
</trkpt>
<trkpt lat="-27.274439" lon="151.290064">
  <ele>343.0</ele>
  <time>2026-08-29T20:44:10Z</time>
  <course>0.0</course>
  <speed>0.0</speed>
  <fix>3d</fix>
</trkpt>
<trkpt lat="-27.274439" lon="151.290064">
  <ele>343.0</ele>
  <time>2026-08-29T20:44:10Z</time>
  <course>8.27</course>
  <speed>0.7308214556237386</speed>
  <fix>3d</fix>
</trkpt>
<trkpt lat="-27.274439" lon="151.290064">
  <ele>343.0</ele>
  <time>2026-08-29T20:44:10Z</time>
  <course>0.0</course>
  <speed>0.0</speed>
  <fix>3d</fix>
</trkpt>
<trkpt lat="-27.274439" lon="151.290064">
  <ele>343.0</ele>
  <time>2026-08-29T20:44:10Z</time>
  <course>8.81</course>
  <speed>0.7864477096412705</speed>
  <fix>3d</fix>
</trkpt>
<trkpt lat="-27.274439" lon="151.290064">
  <ele>343.0</ele>
  <time>2026-08-29T20:44:10Z</time>
  <course>0.0</course>
  <speed>0.0</speed>
  <fix>3d</fix>
</trkpt>
<trkpt lat="-27.274439" lon="151.290064">
  <ele>343.0</ele>
  <time>2026-08-29T20:44:10Z</time>
  <course>9.12</course>
  <speed>0.8471717653463199</speed>
  <fix>3d</fix>
</trkpt>
<trkpt lat="-27.274439" lon="151.290064">
  <ele>343.0</ele>
  <time>2026-08-29T20:44:10Z</time>
  <course>0.0</course>
  <speed>0.0</speed>
  <fix>3d</fix>
</trkpt>
<trkpt lat="-27.2744396" lon="151.2900633">
  <ele>343.02</ele>
  <time>2026-08-29T20:44:10Z</time>
  <course>9.31</course>
  <speed>0.12165525060596438</speed>
  <fix>3d</fix>
</trkpt>
<trkpt lat="-27.274439" lon="151.290064">
  <ele>343.0</ele>
  <time>2026-08-29T20:44:10Z</time>
  <course>0.0</course>
  <speed>0.0</speed>
  <fix>3d</fix>
</trkpt>
<trkpt lat="-27.2744394" lon="151.2900643">
  <ele>343.02</ele>
  <time>2026-08-29T20:44:10Z</time>
  <course>9.22</course>
  <speed>0.191049731745428</speed>
  <fix>3d</fix>
</trkpt>
<trkpt lat="-27.274439" lon="151.290064">
  <ele>343.0</ele>
  <time>2026-08-29T20:44:10Z</time>
  <course>0.0</course>
  <speed>0.0</speed>
  <fix>3d</fix>
</trkpt>
<trkpt lat="-27.2744393" lon="151.2900644">
  <ele>343.01</ele>
  <time>2026-08-29T20:44:10Z</time>
  <course>9.06</course>
  <speed>0.13341664064126335</speed>
  <fix>3d</fix>
</trkpt>
<trkpt lat="-27.274439" lon="151.290064">
  <ele>343.0</ele>
  <time>2026-08-29T20:44:10Z</time>
  <course>0.0</course>
  <speed>0.0</speed>
  <fix>3d</fix>
</trkpt>
<trkpt lat="-27.2744393" lon="151.2900644">
  <ele>343.03</ele>
  <time>2026-08-29T20:44:10Z</time>
  <course>9.14</course>
  <speed>0.08944271909999159</speed>
  <fix>3d</fix>
</trkpt>
<trkpt lat="-27.274439" lon="151.290064">
  <ele>343.0</ele>
  <time>2026-08-29T20:44:10Z</time>
  <course>0.0</course>
  <speed>0.0</speed>
  <fix>3d</fix>
</trkpt>
<trkpt lat="-27.2744393" lon="151.2900643">
  <ele>343.06</ele>
  <time>2026-08-29T20:44:10Z</time>
  <course>9.29</course>
  <speed>0.06403124237432849</speed>
  <fix>3d</fix>
</trkpt>
<trkpt lat="-27.274439" lon="151.290064">
  <ele>343.0</ele>
  <time>2026-08-29T20:44:10Z</time>
  <course>0.0</course>
  <speed>0.0</speed>
  <fix>3d</fix>
</trkpt>
<trkpt lat="-27.2744393" lon="151.2900643">
  <ele>343.06</ele>
  <time>2026-08-29T20:44:10Z</time>
  <course>9.48</course>
  <speed>0.07071067811865475</speed>
  <fix>3d</fix>
</trkpt>
<trkpt lat="-27.274439" lon="151.290064">
  <ele>343.0</ele>
  <time>2026-08-29T20:44:10Z</time>
  <course>0.0</course>
  <speed>0.0</speed>
  <fix>3d</fix>
</trkpt>
<trkpt lat="-27.2744393" lon="151.2900643">
  <ele>343.05</ele>
  <time>2026-08-29T20:44:10Z</time>
  <course>9.52</course>
  <speed>0.07071067811865475</speed>
  <fix>3d</fix>
</trkpt>
<trkpt lat="-27.274439" lon="151.290064">
  <ele>343.0</ele>
  <time>2026-08-29T20:44:10Z</time>
  <course>0.0</course>
  <speed>0.0</speed>
  <fix>3d</fix>
</trkpt>
<trkpt lat="-27.2744394" lon="151.2900644">
  <ele>343.05</ele>
  <time>2026-08-29T20:44:10Z</time>
  <course>9.68</course>
  <speed>0.07810249675906654</speed>
  <fix>3d</fix>
</trkpt>
<trkpt lat="-27.274439" lon="151.290064">
  <ele>343.0</ele>
  <time>2026-08-29T20:44:10Z</time>
  <course>0.0</course>
  <speed>0.0</speed>
  <fix>3d</fix>
</trkpt>
<trkpt lat="-27.2744394" lon="151.2900644">
  <ele>343.06</ele>
  <time>2026-08-29T20:44:10Z</time>
  <course>7.69</course>
  <speed>0.07810249675906654</speed>
  <fix>3d</fix>
</trkpt>
<trkpt lat="-27.274439" lon="151.290064">
  <ele>343.0</ele>
  <time>2026-08-29T20:44:10Z</time>
  <course>0.0</course>
  <speed>0.0</speed>
  <fix>3d</fix>
</trkpt>
<trkpt lat="-27.2744394" lon="151.2900644">
  <ele>343.07</ele>
  <time>2026-08-29T20:44:10Z</time>
  <course>4.82</course>
  <speed>0.07810249675906654</speed>
  <fix>3d</fix>
</trkpt>
<trkpt lat="-27.274439" lon="151.290064">
  <ele>343.0</ele>
  <time>2026-08-29T20:44:10Z</time>
  <course>0.0</course>
  <speed>0.0</speed>
  <fix>3d</fix>
</trkpt>
<trkpt lat="-27.2744394" lon="151.2900644">
  <ele>343.04</ele>
  <time>2026-08-29T20:44:10Z</time>
  <course>2.5</course>
  <speed>0.07810249675906654</speed>
  <fix>3d</fix>
</trkpt>
<trkpt lat="-27.274439" lon="151.290064">
  <ele>343.0</ele>
  <time>2026-08-29T20:44:10Z</time>
  <course>0.0</course>
  <speed>0.0</speed>
  <fix>3d</fix>
</trkpt>
<trkpt lat="-27.2744394" lon="151.2900644">
  <ele>343.06</ele>
  <time>2026-08-29T20:44:10Z</time>
  <course>0.99</course>
  <speed>0.06403124237432849</speed>
  <fix>3d</fix>
</trkpt>
<trkpt lat="-27.274439" lon="151.290064">
  <ele>343.0</ele>
  <time>2026-08-29T20:44:10Z</time>
  <course>0.0</course>
  <speed>0.0</speed>
  <fix>3d</fix>
</trkpt>
<trkpt lat="-27.2744393" lon="151.2900644">
  <ele>343.05</ele>
  <time>2026-08-29T20:44:10Z</time>
  <course>0.23</course>
  <speed>0.05</speed>
  <fix>3d</fix>
</trkpt>
<trkpt lat="-27.274439" lon="151.290064">
  <ele>343.0</ele>
  <time>2026-08-29T20:44:10Z</time>
  <course>0.0</course>
  <speed>0.0</speed>
  <fix>3d</fix>
</trkpt>
<trkpt lat="-27.2744393" lon="151.2900644">
  <ele>343.07</ele>
  <time>2026-08-29T20:44:10Z</time>
  <course>359.93</course>
  <speed>0.04242640687119285</speed>
  <fix>3d</fix>
</trkpt>
<trkpt lat="-27.274439" lon="151.290064">
  <ele>343.0</ele>
  <time>2026-08-29T20:44:10Z</time>
  <course>0.0</course>
  <speed>0.0</speed>
  <fix>3d</fix>
</trkpt>
<trkpt lat="-27.2744393" lon="151.2900643">
  <ele>343.06</ele>
  <time>2026-08-29T20:44:10Z</time>
  <course>359.87</course>
  <speed>0.0282842712474619</speed>
  <fix>3d</fix>
</trkpt>
<trkpt lat="-27.274439" lon="151.290064">
  <ele>343.0</ele>
  <time>2026-08-29T20:44:10Z</time>
  <course>0.0</course>
  <speed>0.0</speed>
  <fix>3d</fix>
</trkpt>
<trkpt lat="-27.2744392" lon="151.2900643">
  <ele>343.05</ele>
  <time>2026-08-29T20:44:10Z</time>
  <course>359.86</course>
  <speed>0.022360679774997897</speed>
  <fix>3d</fix>
</trkpt>
<trkpt lat="-27.274439" lon="151.290064">
  <ele>343.0</ele>
  <time>2026-08-29T20:44:10Z</time>
  <course>0.0</course>
  <speed>0.0</speed>
  <fix>3d</fix>
</trkpt>
<trkpt lat="-27.2744392" lon="151.2900643">
  <ele>343.03</ele>
  <time>2026-08-29T20:44:10Z</time>
  <course>359.89</course>
  <speed>0.022360679774997897</speed>
  <fix>3d</fix>
</trkpt>
<trkpt lat="-27.274439" lon="151.290064">
  <ele>343.0</ele>
  <time>2026-08-29T20:44:10Z</time>
  <course>0.0</course>
  <speed>0.0</speed>
  <fix>3d</fix>
</trkpt>
<trkpt lat="-27.2744391" lon="151.2900642">
  <ele>343.04</ele>
  <time>2026-08-29T20:44:10Z</time>
  <course>359.92</course>
  <speed>0.01</speed>
  <fix>3d</fix>
</trkpt>
<trkpt lat="-27.274439" lon="151.290064">
  <ele>343.0</ele>
  <time>2026-08-29T20:44:10Z</time>
  <course>0.0</course>
  <speed>0.0</speed>
  <fix>3d</fix>
</trkpt>
<trkpt lat="-27.2744391" lon="151.2900642">
  <ele>343.07</ele>
  <time>2026-08-29T20:44:10Z</time>
  <course>359.97</course>
  <speed>0.01</speed>
  <fix>3d</fix>
</trkpt>
<trkpt lat="-27.274439" lon="151.290064">
  <ele>343.0</ele>
  <time>2026-08-29T20:44:10Z</time>
  <course>0.0</course>
  <speed>0.0</speed>
  <fix>3d</fix>
</trkpt>
<trkpt lat="-27.2744391" lon="151.2900642">
  <ele>343.07</ele>
  <time>2026-08-29T20:44:10Z</time>
  <course>0.01</course>
  <speed>0.01</speed>
  <fix>3d</fix>
</trkpt>
<trkpt lat="-27.274439" lon="151.290064">
  <ele>343.0</ele>
  <time>2026-08-29T20:44:10Z</time>
  <course>0.0</course>
  <speed>0.0</speed>
  <fix>3d</fix>
</trkpt>
<trkpt lat="-27.2744391" lon="151.2900642">
  <ele>343.07</ele>
  <time>2026-08-29T20:44:10Z</time>
  <course>0.06</course>
  <speed>0.01</speed>
  <fix>3d</fix>
</trkpt>
<trkpt lat="-27.274439" lon="151.290064">
  <ele>343.0</ele>
  <time>2026-08-29T20:44:10Z</time>
  <course>0.0</course>
  <speed>0.0</speed>
  <fix>3d</fix>
</trkpt>
<trkpt lat="-27.2744391" lon="151.2900642">
  <ele>343.07</ele>
  <time>2026-08-29T20:44:10Z</time>
  <course>0.11</course>
  <speed>0.0</speed>
  <fix>3d</fix>
</trkpt>
<trkpt lat="-27.274439" lon="151.290064">
  <ele>343.0</ele>
  <time>2026-08-29T20:44:10Z</time>
  <course>0.0</course>
  <speed>0.0</speed>
  <fix>3d</fix>
</trkpt>
<trkpt lat="-27.2744391" lon="151.2900642">
  <ele>343.05</ele>
  <time>2026-08-29T20:44:10Z</time>
  <course>0.16</course>
  <speed>0.0</speed>
  <fix>3d</fix>
</trkpt>
<trkpt lat="-27.274439" lon="151.290064">
  <ele>343.0</ele>
  <time>2026-08-29T20:44:10Z</time>
  <course>0.0</course>
  <speed>0.0</speed>
  <fix>3d</fix>
</trkpt>
<trkpt lat="-27.2744391" lon="151.2900641">
  <ele>343.04</ele>
  <time>2026-08-29T20:44:10Z</time>
  <course>0.08</course>
  <speed>0.0</speed>
  <fix>3d</fix>
</trkpt>
<trkpt lat="-27.274439" lon="151.290064">
  <ele>343.0</ele>
  <time>2026-08-29T20:44:10Z</time>
  <course>0.0</course>
  <speed>0.0</speed>
  <fix>3d</fix>
</trkpt>
<trkpt lat="-27.2744391" lon="151.2900641">
  <ele>343.06</ele>
  <time>2026-08-29T20:44:10Z</time>
  <course>0.0</course>
  <speed>0.0</speed>
  <fix>3d</fix>
</trkpt>
<trkpt lat="-27.274439" lon="151.290064">
  <ele>343.0</ele>
  <time>2026-08-29T20:44:10Z</time>
  <course>0.0</course>
  <speed>0.0</speed>
  <fix>3d</fix>
</trkpt>
<trkpt lat="-27.2744391" lon="151.2900641">
  <ele>343.05</ele>
  <time>2026-08-29T20:44:10Z</time>
  <course>359.99</course>
  <speed>0.0</speed>
  <fix>3d</fix>
</trkpt>
<trkpt lat="-27.274439" lon="151.290064">
  <ele>343.0</ele>
  <time>2026-08-29T20:44:10Z</time>
  <course>0.0</course>
  <speed>0.0</speed>
  <fix>3d</fix>
</trkpt>
<trkpt lat="-27.2744391" lon="151.2900641">
  <ele>343.06</ele>
  <time>2026-08-29T20:44:10Z</time>
  <course>0.01</course>
  <speed>0.01</speed>
  <fix>3d</fix>
</trkpt>
<trkpt lat="-27.274439" lon="151.290064">
  <ele>343.0</ele>
  <time>2026-08-29T20:44:10Z</time>
  <course>0.0</course>
  <speed>0.0</speed>
  <fix>3d</fix>
</trkpt>
<trkpt lat="-27.2744391" lon="151.2900641">
  <ele>343.04</ele>
  <time>2026-08-29T20:44:10Z</time>
  <course>0.04</course>
  <speed>0.01</speed>
  <fix>3d</fix>
</trkpt>
<trkpt lat="-27.274439" lon="151.290064">
  <ele>343.0</ele>
  <time>2026-08-29T20:44:10Z</time>
  <course>0.0</course>
  <speed>0.0</speed>
  <fix>3d</fix>
</trkpt>
<trkpt lat="-27.2744391" lon="151.2900641">
  <ele>343.02</ele>
  <time>2026-08-29T20:44:10Z</time>
  <course>0.08</course>
  <speed>0.01</speed>
  <fix>3d</fix>
</trkpt>
<trkpt lat="-27.274439" lon="151.290064">
  <ele>343.0</ele>
  <time>2026-08-29T20:44:10Z</time>
  <course>0.0</course>
  <speed>0.0</speed>
  <fix>3d</fix>
</trkpt>
<trkpt lat="-27.2744391" lon="151.2900641">
  <ele>343.02</ele>
  <time>2026-08-29T20:44:10Z</time>
  <course>0.11</course>
  <speed>0.01</speed>
  <fix>3d</fix>
</trkpt>
<trkpt lat="-27.274439" lon="151.290064">
  <ele>343.0</ele>
  <time>2026-08-29T20:44:10Z</time>
  <course>0.0</course>
  <speed>0.0</speed>
  <fix>3d</fix>
</trkpt>
<trkpt lat="-27.2744391" lon="151.2900641">
  <ele>343.02</ele>
  <time>2026-08-29T20:44:10Z</time>
  <course>0.15</course>
  <speed>0.01</speed>
  <fix>3d</fix>
</trkpt>
<trkpt lat="-27.274439" lon="151.290064">
  <ele>343.0</ele>
  <time>2026-08-29T20:44:10Z</time>
  <course>0.0</course>
  <speed>0.0</speed>
  <fix>3d</fix>
</trkpt>
<trkpt lat="-27.2744391" lon="151.2900641">
  <ele>343.0</ele>
  <time>2026-08-29T20:44:10Z</time>
  <course>0.03</course>
  <speed>0.01</speed>
  <fix>3d</fix>
</trkpt>
<trkpt lat="-27.274439" lon="151.290064">
  <ele>343.0</ele>
  <time>2026-08-29T20:44:10Z</time>
  <course>0.0</course>
  <speed>0.0</speed>
  <fix>3d</fix>
</trkpt>
<trkpt lat="-27.2744391" lon="151.2900641">
  <ele>342.99</ele>
  <time>2026-08-29T20:44:10Z</time>
  <course>359.95</course>
  <speed>0.01</speed>
  <fix>3d</fix>
</trkpt>
<trkpt lat="-27.274439" lon="151.290064">
  <ele>343.0</ele>
  <time>2026-08-29T20:44:10Z</time>
  <course>0.0</course>
  <speed>0.0</speed>
  <fix>3d</fix>
</trkpt>
<trkpt lat="-27.2744391" lon="151.2900641">
  <ele>343.01</ele>
  <time>2026-08-29T20:44:10Z</time>
  <course>0.0</course>
  <speed>0.01</speed>
  <fix>3d</fix>
</trkpt>
<trkpt lat="-27.274439" lon="151.290064">
  <ele>343.0</ele>
  <time>2026-08-29T20:44:10Z</time>
  <course>0.0</course>
  <speed>0.0</speed>
  <fix>3d</fix>
</trkpt>
<trkpt lat="-27.2744391" lon="151.2900641">
  <ele>342.98</ele>
  <time>2026-08-29T20:44:10Z</time>
  <course>359.99</course>
  <speed>0.01</speed>
  <fix>3d</fix>
</trkpt>
<trkpt lat="-27.274439" lon="151.290064">
  <ele>343.0</ele>
  <time>2026-08-29T20:44:10Z</time>
  <course>0.0</course>
  <speed>0.0</speed>
  <fix>3d</fix>
</trkpt>
<trkpt lat="-27.2744391" lon="151.2900641">
  <ele>342.98</ele>
  <time>2026-08-29T20:44:10Z</time>
  <course>359.99</course>
  <speed>0.01</speed>
  <fix>3d</fix>
</trkpt>
<trkpt lat="-27.274439" lon="151.290064">
  <ele>343.0</ele>
  <time>2026-08-29T20:44:10Z</time>
  <course>0.0</course>
  <speed>0.0</speed>
  <fix>3d</fix>
</trkpt>
<trkpt lat="-27.2744391" lon="151.2900641">
  <ele>342.98</ele>
  <time>2026-08-29T20:44:10Z</time>
  <course>0.0</course>
  <speed>0.01</speed>
  <fix>3d</fix>
</trkpt>
<trkpt lat="-27.274439" lon="151.290064">
  <ele>343.0</ele>
  <time>2026-08-29T20:44:10Z</time>
  <course>0.0</course>
  <speed>0.0</speed>
  <fix>3d</fix>
</trkpt>
<trkpt lat="-27.2744391" lon="151.290064">
  <ele>343.0</ele>
  <time>2026-08-29T20:44:10Z</time>
  <course>0.01</course>
  <speed>0.01</speed>
  <fix>3d</fix>
</trkpt>
<trkpt lat="-27.274439" lon="151.290064">
  <ele>343.0</ele>
  <time>2026-08-29T20:44:10Z</time>
  <course>0.0</course>
  <speed>0.0</speed>
  <fix>3d</fix>
</trkpt>
<trkpt lat="-27.2744391" lon="151.290064">
  <ele>343.0</ele>
  <time>2026-08-29T20:44:10Z</time>
  <course>0.03</course>
  <speed>0.01</speed>
  <fix>3d</fix>
</trkpt>
<trkpt lat="-27.274439" lon="151.290064">
  <ele>343.0</ele>
  <time>2026-08-29T20:44:10Z</time>
  <course>0.0</course>
  <speed>0.0</speed>
  <fix>3d</fix>
</trkpt>
<trkpt lat="-27.2744391" lon="151.290064">
  <ele>343.01</ele>
  <time>2026-08-29T20:44:10Z</time>
  <course>0.04</course>
  <speed>0.01</speed>
  <fix>3d</fix>
</trkpt>
<trkpt lat="-27.274439" lon="151.290064">
  <ele>343.0</ele>
  <time>2026-08-29T20:44:10Z</time>
  <course>0.0</course>
  <speed>0.0</speed>
  <fix>3d</fix>
</trkpt>
<trkpt lat="-27.2744391" lon="151.290064">
  <ele>343.0</ele>
  <time>2026-08-29T20:44:11Z</time>
  <course>0.06</course>
  <speed>0.01</speed>
  <fix>3d</fix>
</trkpt>
<trkpt lat="-27.274439" lon="151.290064">
  <ele>343.0</ele>
  <time>2026-08-29T20:44:11Z</time>
  <course>0.0</course>
  <speed>0.0</speed>
  <fix>3d</fix>
</trkpt>
<trkpt lat="-27.2744391" lon="151.290064">
  <ele>343.01</ele>
  <time>2026-08-29T20:44:11Z</time>
  <course>8.01</course>
  <speed>0.01</speed>
  <fix>3d</fix>
</trkpt>
<trkpt lat="-27.274439" lon="151.290064">
  <ele>343.0</ele>
  <time>2026-08-29T20:44:11Z</time>
  <course>0.0</course>
  <speed>0.0</speed>
  <fix>3d</fix>
</trkpt>
<trkpt lat="-27.2744391" lon="151.290064">
  <ele>343.04</ele>
  <time>2026-08-29T20:44:11Z</time>
  <course>17.02</course>
  <speed>0.02</speed>
  <fix>3d</fix>
</trkpt>
<trkpt lat="-27.274439" lon="151.290064">
  <ele>343.0</ele>
  <time>2026-08-29T20:44:11Z</time>
  <course>0.0</course>
  <speed>0.0</speed>
  <fix>3d</fix>
</trkpt>
<trkpt lat="-27.2744391" lon="151.290064">
  <ele>343.01</ele>
  <time>2026-08-29T20:44:11Z</time>
  <course>26.03</course>
  <speed>0.02</speed>
  <fix>3d</fix>
</trkpt>
<trkpt lat="-27.274439" lon="151.290064">
  <ele>343.0</ele>
  <time>2026-08-29T20:44:11Z</time>
  <course>0.0</course>
  <speed>0.0</speed>
  <fix>3d</fix>
</trkpt>
<trkpt lat="-27.2744391" lon="151.290064">
  <ele>343.03</ele>
  <time>2026-08-29T20:44:11Z</time>
  <course>35.04</course>
  <speed>0.02</speed>
  <fix>3d</fix>
</trkpt>
<trkpt lat="-27.274439" lon="151.290064">
  <ele>343.0</ele>
  <time>2026-08-29T20:44:11Z</time>
  <course>0.0</course>
  <speed>0.0</speed>
  <fix>3d</fix>
</trkpt>
<trkpt lat="-27.2744391" lon="151.290064">
  <ele>343.03</ele>
  <time>2026-08-29T20:44:11Z</time>
  <course>42.59</course>
  <speed>0.02</speed>
  <fix>3d</fix>
</trkpt>
<trkpt lat="-27.274439" lon="151.290064">
  <ele>343.0</ele>
  <time>2026-08-29T20:44:11Z</time>
  <course>0.0</course>
  <speed>0.0</speed>
  <fix>3d</fix>
</trkpt>
<trkpt lat="-27.2744391" lon="151.290064">
  <ele>343.02</ele>
  <time>2026-08-29T20:44:11Z</time>
  <course>45.48</course>
  <speed>0.01</speed>
  <fix>3d</fix>
</trkpt>
<trkpt lat="-27.274439" lon="151.290064">
  <ele>343.0</ele>
  <time>2026-08-29T20:44:11Z</time>
  <course>0.0</course>
  <speed>0.0</speed>
  <fix>3d</fix>
</trkpt>
<trkpt lat="-27.2744391" lon="151.290064">
  <ele>343.02</ele>
  <time>2026-08-29T20:44:11Z</time>
  <course>46.27</course>
  <speed>0.01</speed>
  <fix>3d</fix>
</trkpt>
<trkpt lat="-27.274439" lon="151.290064">
  <ele>343.0</ele>
  <time>2026-08-29T20:44:11Z</time>
  <course>0.0</course>
  <speed>0.0</speed>
  <fix>3d</fix>
</trkpt>
<trkpt lat="-27.2744391" lon="151.290064">
  <ele>343.01</ele>
  <time>2026-08-29T20:44:11Z</time>
  <course>46.15</course>
  <speed>0.01</speed>
  <fix>3d</fix>
</trkpt>
<trkpt lat="-27.274439" lon="151.290064">
  <ele>343.0</ele>
  <time>2026-08-29T20:44:11Z</time>
  <course>0.0</course>
  <speed>0.0</speed>
  <fix>3d</fix>
</trkpt>
<trkpt lat="-27.2744391" lon="151.290064">
  <ele>343.03</ele>
  <time>2026-08-29T20:44:11Z</time>
  <course>45.76</course>
  <speed>0.02</speed>
  <fix>3d</fix>
</trkpt>
<trkpt lat="-27.274439" lon="151.290064">
  <ele>343.0</ele>
  <time>2026-08-29T20:44:11Z</time>
  <course>0.0</course>
  <speed>0.0</speed>
  <fix>3d</fix>
</trkpt>
<trkpt lat="-27.2744391" lon="151.290064">
  <ele>343.02</ele>
  <time>2026-08-29T20:44:11Z</time>
  <course>45.39</course>
  <speed>0.02</speed>
  <fix>3d</fix>
</trkpt>
<trkpt lat="-27.274439" lon="151.290064">
  <ele>343.0</ele>
  <time>2026-08-29T20:44:11Z</time>
  <course>0.0</course>
  <speed>0.0</speed>
  <fix>3d</fix>
</trkpt>
<trkpt lat="-27.2744392" lon="151.290064">
  <ele>343.02</ele>
  <time>2026-08-29T20:44:11Z</time>
  <course>45.19</course>
  <speed>0.02</speed>
  <fix>3d</fix>
</trkpt>
<trkpt lat="-27.274439" lon="151.290064">
  <ele>343.0</ele>
  <time>2026-08-29T20:44:11Z</time>
  <course>0.0</course>
  <speed>0.0</speed>
  <fix>3d</fix>
</trkpt>
<trkpt lat="-27.2744392" lon="151.290064">
  <ele>343.05</ele>
  <time>2026-08-29T20:44:11Z</time>
  <course>45.12</course>
  <speed>0.03</speed>
  <fix>3d</fix>
</trkpt>
<trkpt lat="-27.274439" lon="151.290064">
  <ele>343.0</ele>
  <time>2026-08-29T20:44:11Z</time>
  <course>0.0</course>
  <speed>0.0</speed>
  <fix>3d</fix>
</trkpt>
<trkpt lat="-27.2744392" lon="151.290064">
  <ele>343.03</ele>
  <time>2026-08-29T20:44:11Z</time>
  <course>45.04</course>
  <speed>0.03</speed>
  <fix>3d</fix>
</trkpt>
<trkpt lat="-27.274439" lon="151.290064">
  <ele>343.0</ele>
  <time>2026-08-29T20:44:11Z</time>
  <course>0.0</course>
  <speed>0.0</speed>
  <fix>3d</fix>
</trkpt>
<trkpt lat="-27.2744392" lon="151.290064">
  <ele>343.01</ele>
  <time>2026-08-29T20:44:11Z</time>
  <course>45.0</course>
  <speed>0.03</speed>
  <fix>3d</fix>
</trkpt>
<trkpt lat="-27.274439" lon="151.290064">
  <ele>343.0</ele>
  <time>2026-08-29T20:44:11Z</time>
  <course>0.0</course>
  <speed>0.0</speed>
  <fix>3d</fix>
</trkpt>
<trkpt lat="-27.2744392" lon="151.290064">
  <ele>343.01</ele>
  <time>2026-08-29T20:44:11Z</time>
  <course>45.0</course>
  <speed>0.03</speed>
  <fix>3d</fix>
</trkpt>
<trkpt lat="-27.274439" lon="151.290064">
  <ele>343.0</ele>
  <time>2026-08-29T20:44:11Z</time>
  <course>0.0</course>
  <speed>0.0</speed>
  <fix>3d</fix>
</trkpt>
<trkpt lat="-27.2744392" lon="151.290064">
  <ele>343.01</ele>
  <time>2026-08-29T20:44:11Z</time>
  <course>36.94</course>
  <speed>0.03</speed>
  <fix>3d</fix>
</trkpt>
<trkpt lat="-27.274439" lon="151.290064">
  <ele>343.0</ele>
  <time>2026-08-29T20:44:11Z</time>
  <course>0.0</course>
  <speed>0.0</speed>
  <fix>3d</fix>
</trkpt>
<trkpt lat="-27.2744392" lon="151.290064">
  <ele>343.08</ele>
  <time>2026-08-29T20:44:11Z</time>
  <course>27.81</course>
  <speed>0.02</speed>
  <fix>3d</fix>
</trkpt>
<trkpt lat="-27.274439" lon="151.290064">
  <ele>343.0</ele>
  <time>2026-08-29T20:44:11Z</time>
  <course>0.0</course>
  <speed>0.0</speed>
  <fix>3d</fix>
</trkpt>
<trkpt lat="-27.2744392" lon="151.290064">
  <ele>343.11</ele>
  <time>2026-08-29T20:44:11Z</time>
  <course>18.73</course>
  <speed>0.02</speed>
  <fix>3d</fix>
</trkpt>
<trkpt lat="-27.274439" lon="151.290064">
  <ele>343.0</ele>
  <time>2026-08-29T20:44:11Z</time>
  <course>0.0</course>
  <speed>0.0</speed>
  <fix>3d</fix>
</trkpt>
<trkpt lat="-27.2744392" lon="151.290064">
  <ele>343.13</ele>
  <time>2026-08-29T20:44:11Z</time>
  <course>9.67</course>
  <speed>0.01</speed>
  <fix>3d</fix>
</trkpt>
<trkpt lat="-27.274439" lon="151.290064">
  <ele>343.0</ele>
  <time>2026-08-29T20:44:11Z</time>
  <course>0.0</course>
  <speed>0.0</speed>
  <fix>3d</fix>
</trkpt>
<trkpt lat="-27.274439" lon="151.290064">
  <ele>343.0</ele>
  <time>2026-08-29T20:44:11Z</time>
  <course>325.88</course>
  <speed>0.0</speed>
  <fix>3d</fix>
</trkpt>
<trkpt lat="-27.274439" lon="151.290064">
  <ele>343.0</ele>
  <time>2026-08-29T20:44:11Z</time>
  <course>324.43</course>
  <speed>0.0</speed>
  <fix>3d</fix>
</trkpt>
<trkpt lat="-27.274439" lon="151.290064">
  <ele>343.0</ele>
  <time>2026-08-29T20:44:11Z</time>
  <course>321.86</course>
  <speed>0.0</speed>
  <fix>3d</fix>
</trkpt>
<trkpt lat="-27.274439" lon="151.290064">
  <ele>343.0</ele>
  <time>2026-08-29T20:44:11Z</time>
  <course>295.0</course>
  <speed>0.0</speed>
  <fix>3d</fix>
</trkpt>
<trkpt lat="-27.274439" lon="151.290064">
  <ele>343.0</ele>
  <time>2026-08-29T20:44:11Z</time>
  <course>290.72</course>
  <speed>0.0</speed>
  <fix>3d</fix>
</trkpt>
<trkpt lat="-27.274439" lon="151.290064">
  <ele>343.0</ele>
  <time>2026-08-29T20:44:11Z</time>
  <course>284.84</course>
  <speed>0.0</speed>
  <fix>3d</fix>
</trkpt>
<trkpt lat="-27.274439" lon="151.290064">
  <ele>343.0</ele>
  <time>2026-08-29T20:44:11Z</time>
  <course>277.79</course>
  <speed>0.0</speed>
  <fix>3d</fix>
</trkpt>
<trkpt lat="-27.274439" lon="151.290064">
  <ele>343.0</ele>
  <time>2026-08-29T20:44:11Z</time>
  <course>269.55</course>
  <speed>0.0</speed>
  <fix>3d</fix>
</trkpt>
<trkpt lat="-27.274439" lon="151.290064">
  <ele>343.0</ele>
  <time>2026-08-29T20:44:11Z</time>
  <course>262.16</course>
  <speed>0.9176055797563569</speed>
  <fix>3d</fix>
</trkpt>
<trkpt lat="-27.274439" lon="151.290064">
  <ele>343.0</ele>
  <time>2026-08-29T20:44:11Z</time>
  <course>0.0</course>
  <speed>0.0</speed>
  <fix>3d</fix>
</trkpt>
<trkpt lat="-27.274439" lon="151.290064">
  <ele>343.0</ele>
  <time>2026-08-29T20:44:11Z</time>
  <course>256.4</course>
  <speed>0.9403190947758107</speed>
  <fix>3d</fix>
</trkpt>
<trkpt lat="-27.274439" lon="151.290064">
  <ele>343.0</ele>
  <time>2026-08-29T20:44:11Z</time>
  <course>0.0</course>
  <speed>0.0</speed>
  <fix>3d</fix>
</trkpt>
<trkpt lat="-27.274439" lon="151.290064">
  <ele>343.0</ele>
  <time>2026-08-29T20:44:11Z</time>
  <course>249.45</course>
  <speed>0.756042326857432</speed>
  <fix>3d</fix>
</trkpt>
<trkpt lat="-27.274439" lon="151.290064">
  <ele>343.0</ele>
  <time>2026-08-29T20:44:11Z</time>
  <course>0.0</course>
  <speed>0.0</speed>
  <fix>3d</fix>
</trkpt>
<trkpt lat="-27.274439" lon="151.290064">
  <ele>343.0</ele>
  <time>2026-08-29T20:44:11Z</time>
  <course>241.79</course>
  <speed>0.6596969000988256</speed>
  <fix>3d</fix>
</trkpt>
<trkpt lat="-27.274439" lon="151.290064">
  <ele>343.0</ele>
  <time>2026-08-29T20:44:11Z</time>
  <course>0.0</course>
  <speed>0.0</speed>
  <fix>3d</fix>
</trkpt>
<trkpt lat="-27.274439" lon="151.290064">
  <ele>343.0</ele>
  <time>2026-08-29T20:44:11Z</time>
  <course>233.59</course>
  <speed>0.6618912297349165</speed>
  <fix>3d</fix>
</trkpt>
<trkpt lat="-27.274439" lon="151.290064">
  <ele>343.0</ele>
  <time>2026-08-29T20:44:11Z</time>
  <course>0.0</course>
  <speed>0.0</speed>
  <fix>3d</fix>
</trkpt>
<trkpt lat="-27.274439" lon="151.290064">
  <ele>343.0</ele>
  <time>2026-08-29T20:44:11Z</time>
  <course>225.02</course>
  <speed>0.7034202158027589</speed>
  <fix>3d</fix>
</trkpt>
<trkpt lat="-27.274439" lon="151.290064">
  <ele>343.0</ele>
  <time>2026-08-29T20:44:11Z</time>
  <course>0.0</course>
  <speed>0.0</speed>
  <fix>3d</fix>
</trkpt>
<trkpt lat="-27.274439" lon="151.290064">
  <ele>343.0</ele>
  <time>2026-08-29T20:44:11Z</time>
  <course>207.13</course>
  <speed>0.8052949770115296</speed>
  <fix>3d</fix>
</trkpt>
<trkpt lat="-27.274439" lon="151.290064">
  <ele>343.0</ele>
  <time>2026-08-29T20:44:11Z</time>
  <course>0.0</course>
  <speed>0.0</speed>
  <fix>3d</fix>
</trkpt>
<trkpt lat="-27.274439" lon="151.290064">
  <ele>343.0</ele>
  <time>2026-08-29T20:44:11Z</time>
  <course>197.95</course>
  <speed>0.8453401682163222</speed>
  <fix>3d</fix>
</trkpt>
<trkpt lat="-27.274439" lon="151.290064">
  <ele>343.0</ele>
  <time>2026-08-29T20:44:11Z</time>
  <course>0.0</course>
  <speed>0.0</speed>
  <fix>3d</fix>
</trkpt>
<trkpt lat="-27.274439" lon="151.290064">
  <ele>343.0</ele>
  <time>2026-08-29T20:44:11Z</time>
  <course>188.67</course>
  <speed>0.878179936004006</speed>
  <fix>3d</fix>
</trkpt>
<trkpt lat="-27.274439" lon="151.290064">
  <ele>343.0</ele>
  <time>2026-08-29T20:44:11Z</time>
  <course>0.0</course>
  <speed>0.0</speed>
  <fix>3d</fix>
</trkpt>
<trkpt lat="-27.274439" lon="151.290064">
  <ele>343.0</ele>
  <time>2026-08-29T20:44:11Z</time>
  <course>179.31</course>
  <speed>0.8848163651289458</speed>
  <fix>3d</fix>
</trkpt>
<trkpt lat="-27.274439" lon="151.290064">
  <ele>343.0</ele>
  <time>2026-08-29T20:44:11Z</time>
  <course>0.0</course>
  <speed>0.0</speed>
  <fix>3d</fix>
</trkpt>
<trkpt lat="-27.274439" lon="151.290064">
  <ele>343.0</ele>
  <time>2026-08-29T20:44:11Z</time>
  <course>169.93</course>
  <speed>0.9140021881811882</speed>
  <fix>3d</fix>
</trkpt>
<trkpt lat="-27.274439" lon="151.290064">
  <ele>343.0</ele>
  <time>2026-08-29T20:44:11Z</time>
  <course>0.0</course>
  <speed>0.0</speed>
  <fix>3d</fix>
</trkpt>
<trkpt lat="-27.274439" lon="151.290064">
  <ele>343.0</ele>
  <time>2026-08-29T20:44:11Z</time>
  <course>161.9</course>
  <speed>0.9219544457292888</speed>
  <fix>3d</fix>
</trkpt>
<trkpt lat="-27.274439" lon="151.290064">
  <ele>343.0</ele>
  <time>2026-08-29T20:44:11Z</time>
  <course>0.0</course>
  <speed>0.0</speed>
  <fix>3d</fix>
</trkpt>
<trkpt lat="-27.274439" lon="151.290064">
  <ele>343.0</ele>
  <time>2026-08-29T20:44:11Z</time>
  <course>158.55</course>
  <speed>0.9411163583744573</speed>
  <fix>3d</fix>
</trkpt>
<trkpt lat="-27.274439" lon="151.290064">
  <ele>343.0</ele>
  <time>2026-08-29T20:44:11Z</time>
  <course>0.0</course>
  <speed>0.0</speed>
  <fix>3d</fix>
</trkpt>
<trkpt lat="-27.274439" lon="151.290064">
  <ele>343.0</ele>
  <time>2026-08-29T20:44:11Z</time>
  <course>166.19</course>
  <speed>0.9546203433826455</speed>
  <fix>3d</fix>
</trkpt>
<trkpt lat="-27.274439" lon="151.290064">
  <ele>343.0</ele>
  <time>2026-08-29T20:44:11Z</time>
  <course>0.0</course>
  <speed>0.0</speed>
  <fix>3d</fix>
</trkpt>
<trkpt lat="-27.274439" lon="151.290064">
  <ele>343.0</ele>
  <time>2026-08-29T20:44:11Z</time>
  <course>173.31</course>
  <speed>0.9567131231461183</speed>
  <fix>3d</fix>
</trkpt>
<trkpt lat="-27.274439" lon="151.290064">
  <ele>343.0</ele>
  <time>2026-08-29T20:44:11Z</time>
  <course>0.0</course>
  <speed>0.0</speed>
  <fix>3d</fix>
</trkpt>
<trkpt lat="-27.274439" lon="151.290064">
  <ele>343.0</ele>
  <time>2026-08-29T20:44:11Z</time>
  <course>175.9</course>
  <speed>0.9640020746865642</speed>
  <fix>3d</fix>
</trkpt>
<trkpt lat="-27.274439" lon="151.290064">
  <ele>343.0</ele>
  <time>2026-08-29T20:44:11Z</time>
  <course>0.0</course>
  <speed>0.0</speed>
  <fix>3d</fix>
</trkpt>
<trkpt lat="-27.274439" lon="151.290064">
  <ele>343.0</ele>
  <time>2026-08-29T20:44:11Z</time>
  <course>176.7</course>
  <speed>0.9596353474106714</speed>
  <fix>3d</fix>
</trkpt>
<trkpt lat="-27.274439" lon="151.290064">
  <ele>343.0</ele>
  <time>2026-08-29T20:44:11Z</time>
  <course>0.0</course>
  <speed>0.0</speed>
  <fix>3d</fix>
</trkpt>
<trkpt lat="-27.274439" lon="151.290064">
  <ele>343.0</ele>
  <time>2026-08-29T20:44:11Z</time>
  <course>184.74</course>
  <speed>0.9656603957913983</speed>
  <fix>3d</fix>
</trkpt>
<trkpt lat="-27.274439" lon="151.290064">
  <ele>343.0</ele>
  <time>2026-08-29T20:44:11Z</time>
  <course>0.0</course>
  <speed>0.0</speed>
  <fix>3d</fix>
</trkpt>
<trkpt lat="-27.274439" lon="151.290064">
  <ele>343.0</ele>
  <time>2026-08-29T20:44:11Z</time>
  <course>193.64</course>
  <speed>0.9794386147176352</speed>
  <fix>3d</fix>
</trkpt>
<trkpt lat="-27.274439" lon="151.290064">
  <ele>343.0</ele>
  <time>2026-08-29T20:44:11Z</time>
  <course>0.0</course>
  <speed>0.0</speed>
  <fix>3d</fix>
</trkpt>
<trkpt lat="-27.274439" lon="151.290064">
  <ele>343.0</ele>
  <time>2026-08-29T20:44:11Z</time>
  <course>202.51</course>
  <speed>0.9741663102366043</speed>
  <fix>3d</fix>
</trkpt>
<trkpt lat="-27.274439" lon="151.290064">
  <ele>343.0</ele>
  <time>2026-08-29T20:44:11Z</time>
  <course>0.0</course>
  <speed>0.0</speed>
  <fix>3d</fix>
</trkpt>
<trkpt lat="-27.274439" lon="151.290064">
  <ele>343.0</ele>
  <time>2026-08-29T20:44:11Z</time>
  <course>211.4</course>
  <speed>0.9501578816175763</speed>
  <fix>3d</fix>
</trkpt>
<trkpt lat="-27.274439" lon="151.290064">
  <ele>343.0</ele>
  <time>2026-08-29T20:44:11Z</time>
  <course>0.0</course>
  <speed>0.0</speed>
  <fix>3d</fix>
</trkpt>
<trkpt lat="-27.274439" lon="151.290064">
  <ele>343.0</ele>
  <time>2026-08-29T20:44:11Z</time>
  <course>220.26</course>
  <speed>0.885889383614004</speed>
  <fix>3d</fix>
</trkpt>
<trkpt lat="-27.274439" lon="151.290064">
  <ele>343.0</ele>
  <time>2026-08-29T20:44:11Z</time>
  <course>0.0</course>
  <speed>0.0</speed>
  <fix>3d</fix>
</trkpt>
<trkpt lat="-27.274439" lon="151.290064">
  <ele>343.0</ele>
  <time>2026-08-29T20:44:11Z</time>
  <course>227.71</course>
  <speed>0.8139410298049853</speed>
  <fix>3d</fix>
</trkpt>
<trkpt lat="-27.274439" lon="151.290064">
  <ele>343.0</ele>
  <time>2026-08-29T20:44:11Z</time>
  <course>0.0</course>
  <speed>0.0</speed>
  <fix>3d</fix>
</trkpt>
<trkpt lat="-27.274439" lon="151.290064">
  <ele>343.0</ele>
  <time>2026-08-29T20:44:11Z</time>
  <course>230.53</course>
  <speed>0.7382411530116699</speed>
  <fix>3d</fix>
</trkpt>
<trkpt lat="-27.274439" lon="151.290064">
  <ele>343.0</ele>
  <time>2026-08-29T20:44:11Z</time>
  <course>0.0</course>
  <speed>0.0</speed>
  <fix>3d</fix>
</trkpt>
<trkpt lat="-27.274439" lon="151.290064">
  <ele>343.0</ele>
  <time>2026-08-29T20:44:11Z</time>
  <course>231.4</course>
  <speed>0.6762396025078685</speed>
  <fix>3d</fix>
</trkpt>
<trkpt lat="-27.274439" lon="151.290064">
  <ele>343.0</ele>
  <time>2026-08-29T20:44:11Z</time>
  <course>0.0</course>
  <speed>0.0</speed>
  <fix>3d</fix>
</trkpt>
<trkpt lat="-27.274439" lon="151.290064">
  <ele>343.0</ele>
  <time>2026-08-29T20:44:11Z</time>
  <course>231.54</course>
  <speed>0.5923681287847955</speed>
  <fix>3d</fix>
</trkpt>
<trkpt lat="-27.274439" lon="151.290064">
  <ele>343.0</ele>
  <time>2026-08-29T20:44:11Z</time>
  <course>0.0</course>
  <speed>0.0</speed>
  <fix>3d</fix>
</trkpt>
<trkpt lat="-27.274439" lon="151.290064">
  <ele>343.0</ele>
  <time>2026-08-29T20:44:11Z</time>
  <course>231.44</course>
  <speed>0.5385164807134504</speed>
  <fix>3d</fix>
</trkpt>
<trkpt lat="-27.274439" lon="151.290064">
  <ele>343.0</ele>
  <time>2026-08-29T20:44:11Z</time>
  <course>0.0</course>
  <speed>0.0</speed>
  <fix>3d</fix>
</trkpt>
<trkpt lat="-27.274439" lon="151.290064">
  <ele>343.0</ele>
  <time>2026-08-29T20:44:11Z</time>
  <course>231.25</course>
  <speed>0.48466483264210536</speed>
  <fix>3d</fix>
</trkpt>
<trkpt lat="-27.274439" lon="151.290064">
  <ele>343.0</ele>
  <time>2026-08-29T20:44:11Z</time>
  <course>0.0</course>
  <speed>0.0</speed>
  <fix>3d</fix>
</trkpt>
<trkpt lat="-27.274439" lon="151.290064">
  <ele>343.0</ele>
  <time>2026-08-29T20:44:11Z</time>
  <course>231.03</course>
  <speed>0.44944410108488464</speed>
  <fix>3d</fix>
</trkpt>
<trkpt lat="-27.274439" lon="151.290064">
  <ele>343.0</ele>
  <time>2026-08-29T20:44:11Z</time>
  <course>0.0</course>
  <speed>0.0</speed>
  <fix>3d</fix>
</trkpt>
<trkpt lat="-27.274439" lon="151.290064">
  <ele>343.0</ele>
  <time>2026-08-29T20:44:12Z</time>
  <course>230.82</course>
  <speed>0.41785164831552357</speed>
  <fix>3d</fix>
</trkpt>
<trkpt lat="-27.274439" lon="151.290064">
  <ele>343.0</ele>
  <time>2026-08-29T20:44:12Z</time>
  <course>0.0</course>
  <speed>0.0</speed>
  <fix>3d</fix>
</trkpt>
<trkpt lat="-27.2744392" lon="151.2900647">
  <ele>343.04</ele>
  <time>2026-08-29T20:44:12Z</time>
  <course>230.61</course>
  <speed>0.0</speed>
  <fix>3d</fix>
</trkpt>
<trkpt lat="-27.274439" lon="151.290064">
  <ele>343.0</ele>
  <time>2026-08-29T20:44:12Z</time>
  <course>0.0</course>
  <speed>0.0</speed>
  <fix>3d</fix>
</trkpt>
<trkpt lat="-27.2744393" lon="151.2900648">
  <ele>343.03</ele>
  <time>2026-08-29T20:44:12Z</time>
  <course>230.42</course>
  <speed>0.03605551275463989</speed>
  <fix>3d</fix>
</trkpt>
<trkpt lat="-27.274439" lon="151.290064">
  <ele>343.0</ele>
  <time>2026-08-29T20:44:12Z</time>
  <course>0.0</course>
  <speed>0.0</speed>
  <fix>3d</fix>
</trkpt>
<trkpt lat="-27.2744391" lon="151.2900643">
  <ele>343.01</ele>
  <time>2026-08-29T20:44:12Z</time>
  <course>230.21</course>
  <speed>0.03605551275463989</speed>
  <fix>3d</fix>
</trkpt>
<trkpt lat="-27.274439" lon="151.290064">
  <ele>343.0</ele>
  <time>2026-08-29T20:44:12Z</time>
  <course>0.0</course>
  <speed>0.0</speed>
  <fix>3d</fix>
</trkpt>
<trkpt lat="-27.274439" lon="151.2900642">
  <ele>343.02</ele>
  <time>2026-08-29T20:44:12Z</time>
  <course>230.0</course>
  <speed>0.022360679774997897</speed>
  <fix>3d</fix>
</trkpt>
<trkpt lat="-27.274439" lon="151.290064">
  <ele>343.0</ele>
  <time>2026-08-29T20:44:12Z</time>
  <course>0.0</course>
  <speed>0.0</speed>
  <fix>3d</fix>
</trkpt>
<trkpt lat="-27.274439" lon="151.2900641">
  <ele>343.05</ele>
  <time>2026-08-29T20:44:12Z</time>
  <course>229.79</course>
  <speed>0.02</speed>
  <fix>3d</fix>
</trkpt>
<trkpt lat="-27.274439" lon="151.290064">
  <ele>343.0</ele>
  <time>2026-08-29T20:44:12Z</time>
  <course>0.0</course>
  <speed>0.0</speed>
  <fix>3d</fix>
</trkpt>
<trkpt lat="-27.274439" lon="151.2900641">
  <ele>343.04</ele>
  <time>2026-08-29T20:44:12Z</time>
  <course>229.61</course>
  <speed>0.02</speed>
  <fix>3d</fix>
</trkpt>
<trkpt lat="-27.274439" lon="151.290064">
  <ele>343.0</ele>
  <time>2026-08-29T20:44:12Z</time>
  <course>0.0</course>
  <speed>0.0</speed>
  <fix>3d</fix>
</trkpt>
<trkpt lat="-27.2744389" lon="151.2900641">
  <ele>343.03</ele>
  <time>2026-08-29T20:44:12Z</time>
  <course>229.42</course>
  <speed>0.02</speed>
  <fix>3d</fix>
</trkpt>
<trkpt lat="-27.274439" lon="151.290064">
  <ele>343.0</ele>
  <time>2026-08-29T20:44:12Z</time>
  <course>0.0</course>
  <speed>0.0</speed>
  <fix>3d</fix>
</trkpt>
<trkpt lat="-27.2744389" lon="151.2900641">
  <ele>343.03</ele>
  <time>2026-08-29T20:44:12Z</time>
  <course>229.25</course>
  <speed>0.022360679774997897</speed>
  <fix>3d</fix>
</trkpt>
<trkpt lat="-27.274439" lon="151.290064">
  <ele>343.0</ele>
  <time>2026-08-29T20:44:12Z</time>
  <course>0.0</course>
  <speed>0.0</speed>
  <fix>3d</fix>
</trkpt>
<trkpt lat="-27.2744388" lon="151.2900641">
  <ele>343.04</ele>
  <time>2026-08-29T20:44:12Z</time>
  <course>229.08</course>
  <speed>0.0316227766016838</speed>
  <fix>3d</fix>
</trkpt>
<trkpt lat="-27.274439" lon="151.290064">
  <ele>343.0</ele>
  <time>2026-08-29T20:44:12Z</time>
  <course>0.0</course>
  <speed>0.0</speed>
  <fix>3d</fix>
</trkpt>
<trkpt lat="-27.2744388" lon="151.2900641">
  <ele>343.03</ele>
  <time>2026-08-29T20:44:12Z</time>
  <course>228.78</course>
  <speed>0.022360679774997897</speed>
  <fix>3d</fix>
</trkpt>
<trkpt lat="-27.274439" lon="151.290064">
  <ele>343.0</ele>
  <time>2026-08-29T20:44:12Z</time>
  <course>0.0</course>
  <speed>0.0</speed>
  <fix>3d</fix>
</trkpt>
<trkpt lat="-27.2744388" lon="151.2900641">
  <ele>343.04</ele>
  <time>2026-08-29T20:44:12Z</time>
  <course>228.63</course>
  <speed>0.022360679774997897</speed>
  <fix>3d</fix>
</trkpt>
<trkpt lat="-27.274439" lon="151.290064">
  <ele>343.0</ele>
  <time>2026-08-29T20:44:12Z</time>
  <course>0.0</course>
  <speed>0.0</speed>
  <fix>3d</fix>
</trkpt>
<trkpt lat="-27.2744388" lon="151.2900641">
  <ele>343.03</ele>
  <time>2026-08-29T20:44:12Z</time>
  <course>236.59</course>
  <speed>0.0282842712474619</speed>
  <fix>3d</fix>
</trkpt>
<trkpt lat="-27.274439" lon="151.290064">
  <ele>343.0</ele>
  <time>2026-08-29T20:44:12Z</time>
  <course>0.0</course>
  <speed>0.0</speed>
  <fix>3d</fix>
</trkpt>
<trkpt lat="-27.2744389" lon="151.2900641">
  <ele>343.05</ele>
  <time>2026-08-29T20:44:12Z</time>
  <course>245.47</course>
  <speed>0.0282842712474619</speed>
  <fix>3d</fix>
</trkpt>
<trkpt lat="-27.274439" lon="151.290064">
  <ele>343.0</ele>
  <time>2026-08-29T20:44:12Z</time>
  <course>0.0</course>
  <speed>0.0</speed>
  <fix>3d</fix>
</trkpt>
<trkpt lat="-27.2744389" lon="151.2900641">
  <ele>343.04</ele>
  <time>2026-08-29T20:44:12Z</time>
  <course>254.36</course>
  <speed>0.022360679774997897</speed>
  <fix>3d</fix>
</trkpt>
<trkpt lat="-27.274439" lon="151.290064">
  <ele>343.0</ele>
  <time>2026-08-29T20:44:12Z</time>
  <course>0.0</course>
  <speed>0.0</speed>
  <fix>3d</fix>
</trkpt>
<trkpt lat="-27.2744389" lon="151.2900641">
  <ele>343.03</ele>
  <time>2026-08-29T20:44:12Z</time>
  <course>263.29</course>
  <speed>0.01414213562373095</speed>
  <fix>3d</fix>
</trkpt>
<trkpt lat="-27.274439" lon="151.290064">
  <ele>343.0</ele>
  <time>2026-08-29T20:44:12Z</time>
  <course>0.0</course>
  <speed>0.0</speed>
  <fix>3d</fix>
</trkpt>
<trkpt lat="-27.2744389" lon="151.2900641">
  <ele>343.01</ele>
  <time>2026-08-29T20:44:12Z</time>
  <course>269.54</course>
  <speed>0.01</speed>
  <fix>3d</fix>
</trkpt>
<trkpt lat="-27.274439" lon="151.290064">
  <ele>343.0</ele>
  <time>2026-08-29T20:44:12Z</time>
  <course>0.0</course>
  <speed>0.0</speed>
  <fix>3d</fix>
</trkpt>
<trkpt lat="-27.2744389" lon="151.2900641">
  <ele>343.02</ele>
  <time>2026-08-29T20:44:12Z</time>
  <course>277.85</course>
  <speed>0.0</speed>
  <fix>3d</fix>
</trkpt>
<trkpt lat="-27.274439" lon="151.290064">
  <ele>343.0</ele>
  <time>2026-08-29T20:44:12Z</time>
  <course>0.0</course>
  <speed>0.0</speed>
  <fix>3d</fix>
</trkpt>
<trkpt lat="-27.2744389" lon="151.2900641">
  <ele>343.05</ele>
  <time>2026-08-29T20:44:12Z</time>
  <course>286.85</course>
  <speed>0.0</speed>
  <fix>3d</fix>
</trkpt>
<trkpt lat="-27.274439" lon="151.290064">
  <ele>343.0</ele>
  <time>2026-08-29T20:44:12Z</time>
  <course>0.0</course>
  <speed>0.0</speed>
  <fix>3d</fix>
</trkpt>
<trkpt lat="-27.2744389" lon="151.2900641">
  <ele>343.05</ele>
  <time>2026-08-29T20:44:12Z</time>
  <course>295.87</course>
  <speed>0.0</speed>
  <fix>3d</fix>
</trkpt>
<trkpt lat="-27.274439" lon="151.290064">
  <ele>343.0</ele>
  <time>2026-08-29T20:44:12Z</time>
  <course>0.0</course>
  <speed>0.0</speed>
  <fix>3d</fix>
</trkpt>
<trkpt lat="-27.2744389" lon="151.2900641">
  <ele>343.05</ele>
  <time>2026-08-29T20:44:12Z</time>
  <course>288.54</course>
  <speed>0.0</speed>
  <fix>3d</fix>
</trkpt>
<trkpt lat="-27.274439" lon="151.290064">
  <ele>343.0</ele>
  <time>2026-08-29T20:44:12Z</time>
  <course>0.0</course>
  <speed>0.0</speed>
  <fix>3d</fix>
</trkpt>
<trkpt lat="-27.2744389" lon="151.2900641">
  <ele>343.05</ele>
  <time>2026-08-29T20:44:12Z</time>
  <course>279.35</course>
  <speed>0.01</speed>
  <fix>3d</fix>
</trkpt>
<trkpt lat="-27.274439" lon="151.290064">
  <ele>343.0</ele>
  <time>2026-08-29T20:44:12Z</time>
  <course>0.0</course>
  <speed>0.0</speed>
  <fix>3d</fix>
</trkpt>
<trkpt lat="-27.2744389" lon="151.2900641">
  <ele>343.03</ele>
  <time>2026-08-29T20:44:12Z</time>
  <course>270.16</course>
  <speed>0.03605551275463989</speed>
  <fix>3d</fix>
</trkpt>
<trkpt lat="-27.274439" lon="151.290064">
  <ele>343.0</ele>
  <time>2026-08-29T20:44:12Z</time>
  <course>0.0</course>
  <speed>0.0</speed>
  <fix>3d</fix>
</trkpt>
<trkpt lat="-27.2744389" lon="151.2900642">
  <ele>343.02</ele>
  <time>2026-08-29T20:44:12Z</time>
  <course>261.0</course>
  <speed>0.04242640687119285</speed>
  <fix>3d</fix>
</trkpt>
<trkpt lat="-27.274439" lon="151.290064">
  <ele>343.0</ele>
  <time>2026-08-29T20:44:12Z</time>
  <course>0.0</course>
  <speed>0.0</speed>
  <fix>3d</fix>
</trkpt>
<trkpt lat="-27.2744387" lon="151.2900643">
  <ele>343.04</ele>
  <time>2026-08-29T20:44:12Z</time>
  <course>251.88</course>
  <speed>0.0565685424949238</speed>
  <fix>3d</fix>
</trkpt>
<trkpt lat="-27.274439" lon="151.290064">
  <ele>343.0</ele>
  <time>2026-08-29T20:44:12Z</time>
  <course>0.0</course>
  <speed>0.0</speed>
  <fix>3d</fix>
</trkpt>
<trkpt lat="-27.2744387" lon="151.2900643">
  <ele>343.03</ele>
  <time>2026-08-29T20:44:12Z</time>
  <course>242.77</course>
  <speed>0.05830951894845301</speed>
  <fix>3d</fix>
</trkpt>
<trkpt lat="-27.274439" lon="151.290064">
  <ele>343.0</ele>
  <time>2026-08-29T20:44:12Z</time>
  <course>0.0</course>
  <speed>0.0</speed>
  <fix>3d</fix>
</trkpt>
<trkpt lat="-27.2744386" lon="151.2900643">
  <ele>343.04</ele>
  <time>2026-08-29T20:44:12Z</time>
  <course>233.64</course>
  <speed>0.05830951894845301</speed>
  <fix>3d</fix>
</trkpt>
<trkpt lat="-27.274439" lon="151.290064">
  <ele>343.0</ele>
  <time>2026-08-29T20:44:12Z</time>
  <course>0.0</course>
  <speed>0.0</speed>
  <fix>3d</fix>
</trkpt>
<trkpt lat="-27.2744387" lon="151.2900642">
  <ele>343.02</ele>
  <time>2026-08-29T20:44:12Z</time>
  <course>224.48</course>
  <speed>0.044721359549995794</speed>
  <fix>3d</fix>
</trkpt>
<trkpt lat="-27.274439" lon="151.290064">
  <ele>343.0</ele>
  <time>2026-08-29T20:44:12Z</time>
  <course>0.0</course>
  <speed>0.0</speed>
  <fix>3d</fix>
</trkpt>
<trkpt lat="-27.2744387" lon="151.2900642">
  <ele>343.01</ele>
  <time>2026-08-29T20:44:12Z</time>
  <course>215.32</course>
  <speed>0.0412310562561766</speed>
  <fix>3d</fix>
</trkpt>
<trkpt lat="-27.274439" lon="151.290064">
  <ele>343.0</ele>
  <time>2026-08-29T20:44:12Z</time>
  <course>0.0</course>
  <speed>0.0</speed>
  <fix>3d</fix>
</trkpt>
<trkpt lat="-27.2744388" lon="151.2900641">
  <ele>343.02</ele>
  <time>2026-08-29T20:44:12Z</time>
  <course>222.54</course>
  <speed>0.03</speed>
  <fix>3d</fix>
</trkpt>
<trkpt lat="-27.274439" lon="151.290064">
  <ele>343.0</ele>
  <time>2026-08-29T20:44:12Z</time>
  <course>0.0</course>
  <speed>0.0</speed>
  <fix>3d</fix>
</trkpt>
<trkpt lat="-27.2744388" lon="151.290064">
  <ele>343.02</ele>
  <time>2026-08-29T20:44:12Z</time>
  <course>231.64</course>
  <speed>0.03</speed>
  <fix>3d</fix>
</trkpt>
<trkpt lat="-27.274439" lon="151.290064">
  <ele>343.0</ele>
  <time>2026-08-29T20:44:12Z</time>
  <course>0.0</course>
  <speed>0.0</speed>
  <fix>3d</fix>
</trkpt>
<trkpt lat="-27.2744388" lon="151.290064">
  <ele>343.0</ele>
  <time>2026-08-29T20:44:12Z</time>
  <course>240.75</course>
  <speed>0.03</speed>
  <fix>3d</fix>
</trkpt>
<trkpt lat="-27.274439" lon="151.290064">
  <ele>343.0</ele>
  <time>2026-08-29T20:44:12Z</time>
  <course>0.0</course>
  <speed>0.0</speed>
  <fix>3d</fix>
</trkpt>
<trkpt lat="-27.2744388" lon="151.290064">
  <ele>343.0</ele>
  <time>2026-08-29T20:44:12Z</time>
  <course>233.38</course>
  <speed>0.03</speed>
  <fix>3d</fix>
</trkpt>
<trkpt lat="-27.274439" lon="151.290064">
  <ele>343.0</ele>
  <time>2026-08-29T20:44:12Z</time>
  <course>0.0</course>
  <speed>0.0</speed>
  <fix>3d</fix>
</trkpt>
<trkpt lat="-27.2744388" lon="151.290064">
  <ele>343.01</ele>
  <time>2026-08-29T20:44:12Z</time>
  <course>224.1</course>
  <speed>0.03</speed>
  <fix>3d</fix>
</trkpt>
<trkpt lat="-27.274439" lon="151.290064">
  <ele>343.0</ele>
  <time>2026-08-29T20:44:12Z</time>
  <course>0.0</course>
  <speed>0.0</speed>
  <fix>3d</fix>
</trkpt>
<trkpt lat="-27.2744387" lon="151.290064">
  <ele>342.99</ele>
  <time>2026-08-29T20:44:12Z</time>
  <course>214.77</course>
  <speed>0.03</speed>
  <fix>3d</fix>
</trkpt>
<trkpt lat="-27.274439" lon="151.290064">
  <ele>343.0</ele>
  <time>2026-08-29T20:44:12Z</time>
  <course>0.0</course>
  <speed>0.0</speed>
  <fix>3d</fix>
</trkpt>
<trkpt lat="-27.2744387" lon="151.290064">
  <ele>342.99</ele>
  <time>2026-08-29T20:44:12Z</time>
  <course>205.52</course>
  <speed>0.03</speed>
  <fix>3d</fix>
</trkpt>
<trkpt lat="-27.274439" lon="151.290064">
  <ele>343.0</ele>
  <time>2026-08-29T20:44:12Z</time>
  <course>0.0</course>
  <speed>0.0</speed>
  <fix>3d</fix>
</trkpt>
<trkpt lat="-27.2744387" lon="151.290064">
  <ele>342.99</ele>
  <time>2026-08-29T20:44:12Z</time>
  <course>196.31</course>
  <speed>0.0316227766016838</speed>
  <fix>3d</fix>
</trkpt>
<trkpt lat="-27.274439" lon="151.290064">
  <ele>343.0</ele>
  <time>2026-08-29T20:44:12Z</time>
  <course>0.0</course>
  <speed>0.0</speed>
  <fix>3d</fix>
</trkpt>
<trkpt lat="-27.2744388" lon="151.2900639">
  <ele>343.01</ele>
  <time>2026-08-29T20:44:12Z</time>
  <course>187.15</course>
  <speed>0.0316227766016838</speed>
  <fix>3d</fix>
</trkpt>
<trkpt lat="-27.274439" lon="151.290064">
  <ele>343.0</ele>
  <time>2026-08-29T20:44:12Z</time>
  <course>0.0</course>
  <speed>0.0</speed>
  <fix>3d</fix>
</trkpt>
<trkpt lat="-27.2744388" lon="151.2900639">
  <ele>343.01</ele>
  <time>2026-08-29T20:44:12Z</time>
  <course>177.99</course>
  <speed>0.022360679774997897</speed>
  <fix>3d</fix>
</trkpt>
<trkpt lat="-27.274439" lon="151.290064">
  <ele>343.0</ele>
  <time>2026-08-29T20:44:12Z</time>
  <course>0.0</course>
  <speed>0.0</speed>
  <fix>3d</fix>
</trkpt>
<trkpt lat="-27.2744388" lon="151.2900639">
  <ele>343.02</ele>
  <time>2026-08-29T20:44:12Z</time>
  <course>172.8</course>
  <speed>0.022360679774997897</speed>
  <fix>3d</fix>
</trkpt>
<trkpt lat="-27.274439" lon="151.290064">
  <ele>343.0</ele>
  <time>2026-08-29T20:44:12Z</time>
  <course>0.0</course>
  <speed>0.0</speed>
  <fix>3d</fix>
</trkpt>
<trkpt lat="-27.2744388" lon="151.2900639">
  <ele>343.01</ele>
  <time>2026-08-29T20:44:12Z</time>
  <course>170.91</course>
  <speed>0.0282842712474619</speed>
  <fix>3d</fix>
</trkpt>
<trkpt lat="-27.274439" lon="151.290064">
  <ele>343.0</ele>
  <time>2026-08-29T20:44:12Z</time>
  <course>0.0</course>
  <speed>0.0</speed>
  <fix>3d</fix>
</trkpt>
<trkpt lat="-27.2744388" lon="151.2900638">
  <ele>343.03</ele>
  <time>2026-08-29T20:44:12Z</time>
  <course>170.22</course>
  <speed>0.0282842712474619</speed>
  <fix>3d</fix>
</trkpt>
<trkpt lat="-27.274439" lon="151.290064">
  <ele>343.0</ele>
  <time>2026-08-29T20:44:12Z</time>
  <course>0.0</course>
  <speed>0.0</speed>
  <fix>3d</fix>
</trkpt>
<trkpt lat="-27.2744388" lon="151.2900638">
  <ele>343.03</ele>
  <time>2026-08-29T20:44:12Z</time>
  <course>169.84</course>
  <speed>0.0316227766016838</speed>
  <fix>3d</fix>
</trkpt>
<trkpt lat="-27.274439" lon="151.290064">
  <ele>343.0</ele>
  <time>2026-08-29T20:44:12Z</time>
  <course>0.0</course>
  <speed>0.0</speed>
  <fix>3d</fix>
</trkpt>
<trkpt lat="-27.2744388" lon="151.2900638">
  <ele>343.04</ele>
  <time>2026-08-29T20:44:12Z</time>
  <course>169.78</course>
  <speed>0.0316227766016838</speed>
  <fix>3d</fix>
</trkpt>
<trkpt lat="-27.274439" lon="151.290064">
  <ele>343.0</ele>
  <time>2026-08-29T20:44:12Z</time>
  <course>0.0</course>
  <speed>0.0</speed>
  <fix>3d</fix>
</trkpt>
<trkpt lat="-27.2744388" lon="151.2900637">
  <ele>343.04</ele>
  <time>2026-08-29T20:44:12Z</time>
  <course>169.75</course>
  <speed>0.03605551275463989</speed>
  <fix>3d</fix>
</trkpt>
<trkpt lat="-27.274439" lon="151.290064">
  <ele>343.0</ele>
  <time>2026-08-29T20:44:12Z</time>
  <course>0.0</course>
  <speed>0.0</speed>
  <fix>3d</fix>
</trkpt>
<trkpt lat="-27.2744388" lon="151.2900637">
  <ele>343.03</ele>
  <time>2026-08-29T20:44:12Z</time>
  <course>169.72</course>
  <speed>0.03605551275463989</speed>
  <fix>3d</fix>
</trkpt>
<trkpt lat="-27.274439" lon="151.290064">
  <ele>343.0</ele>
  <time>2026-08-29T20:44:12Z</time>
  <course>0.0</course>
  <speed>0.0</speed>
  <fix>3d</fix>
</trkpt>
<trkpt lat="-27.2744388" lon="151.2900637">
  <ele>343.03</ele>
  <time>2026-08-29T20:44:12Z</time>
  <course>169.69</course>
  <speed>0.044721359549995794</speed>
  <fix>3d</fix>
</trkpt>
<trkpt lat="-27.274439" lon="151.290064">
  <ele>343.0</ele>
  <time>2026-08-29T20:44:12Z</time>
  <course>0.0</course>
  <speed>0.0</speed>
  <fix>3d</fix>
</trkpt>
<trkpt lat="-27.2744388" lon="151.2900637">
  <ele>343.02</ele>
  <time>2026-08-29T20:44:12Z</time>
  <course>169.65</course>
  <speed>0.03605551275463989</speed>
  <fix>3d</fix>
</trkpt>
<trkpt lat="-27.274439" lon="151.290064">
  <ele>343.0</ele>
  <time>2026-08-29T20:44:12Z</time>
  <course>0.0</course>
  <speed>0.0</speed>
  <fix>3d</fix>
</trkpt>
<trkpt lat="-27.2744388" lon="151.2900636">
  <ele>343.04</ele>
  <time>2026-08-29T20:44:12Z</time>
  <course>178.03</course>
  <speed>0.0412310562561766</speed>
  <fix>3d</fix>
</trkpt>
<trkpt lat="-27.274439" lon="151.290064">
  <ele>343.0</ele>
  <time>2026-08-29T20:44:12Z</time>
  <course>0.0</course>
  <speed>0.0</speed>
  <fix>3d</fix>
</trkpt>
<trkpt lat="-27.2744388" lon="151.2900637">
  <ele>343.03</ele>
  <time>2026-08-29T20:44:12Z</time>
  <course>187.46</course>
  <speed>0.0412310562561766</speed>
  <fix>3d</fix>
</trkpt>
<trkpt lat="-27.274439" lon="151.290064">
  <ele>343.0</ele>
  <time>2026-08-29T20:44:12Z</time>
  <course>0.0</course>
  <speed>0.0</speed>
  <fix>3d</fix>
</trkpt>
<trkpt lat="-27.2744388" lon="151.2900637">
  <ele>343.02</ele>
  <time>2026-08-29T20:44:12Z</time>
  <course>196.79</course>
  <speed>0.0316227766016838</speed>
  <fix>3d</fix>
</trkpt>
<trkpt lat="-27.274439" lon="151.290064">
  <ele>343.0</ele>
  <time>2026-08-29T20:44:12Z</time>
  <course>0.0</course>
  <speed>0.0</speed>
  <fix>3d</fix>
</trkpt>
<trkpt lat="-27.2744388" lon="151.2900637">
  <ele>343.05</ele>
  <time>2026-08-29T20:44:12Z</time>
  <course>206.06</course>
  <speed>0.0282842712474619</speed>
  <fix>3d</fix>
</trkpt>
<trkpt lat="-27.274439" lon="151.290064">
  <ele>343.0</ele>
  <time>2026-08-29T20:44:12Z</time>
  <course>0.0</course>
  <speed>0.0</speed>
  <fix>3d</fix>
</trkpt>
<trkpt lat="-27.2744388" lon="151.2900637">
  <ele>343.03</ele>
  <time>2026-08-29T20:44:12Z</time>
  <course>215.26</course>
  <speed>0.0282842712474619</speed>
  <fix>3d</fix>
</trkpt>
<trkpt lat="-27.274439" lon="151.290064">
  <ele>343.0</ele>
  <time>2026-08-29T20:44:12Z</time>
  <course>0.0</course>
  <speed>0.0</speed>
  <fix>3d</fix>
</trkpt>
<trkpt lat="-27.2744388" lon="151.2900638">
  <ele>343.01</ele>
  <time>2026-08-29T20:44:12Z</time>
  <course>224.42</course>
  <speed>0.022360679774997897</speed>
  <fix>3d</fix>
</trkpt>
<trkpt lat="-27.274439" lon="151.290064">
  <ele>343.0</ele>
  <time>2026-08-29T20:44:12Z</time>
  <course>0.0</course>
  <speed>0.0</speed>
  <fix>3d</fix>
</trkpt>
<trkpt lat="-27.2744388" lon="151.2900638">
  <ele>343.01</ele>
  <time>2026-08-29T20:44:12Z</time>
  <course>233.54</course>
  <speed>0.02</speed>
  <fix>3d</fix>
</trkpt>
<trkpt lat="-27.274439" lon="151.290064">
  <ele>343.0</ele>
  <time>2026-08-29T20:44:12Z</time>
  <course>0.0</course>
  <speed>0.0</speed>
  <fix>3d</fix>
</trkpt>
<trkpt lat="-27.2744388" lon="151.2900639">
  <ele>342.99</ele>
  <time>2026-08-29T20:44:12Z</time>
  <course>242.63</course>
  <speed>0.02</speed>
  <fix>3d</fix>
</trkpt>
<trkpt lat="-27.274439" lon="151.290064">
  <ele>343.0</ele>
  <time>2026-08-29T20:44:12Z</time>
  <course>0.0</course>
  <speed>0.0</speed>
  <fix>3d</fix>
</trkpt>
<trkpt lat="-27.2744388" lon="151.290064">
  <ele>343.01</ele>
  <time>2026-08-29T20:44:13Z</time>
  <course>251.75</course>
  <speed>0.02</speed>
  <fix>3d</fix>
</trkpt>
<trkpt lat="-27.274439" lon="151.290064">
  <ele>343.0</ele>
  <time>2026-08-29T20:44:13Z</time>
  <course>0.0</course>
  <speed>0.0</speed>
  <fix>3d</fix>
</trkpt>
<trkpt lat="-27.2744388" lon="151.290064">
  <ele>343.0</ele>
  <time>2026-08-29T20:44:13Z</time>
  <course>260.85</course>
  <speed>0.01414213562373095</speed>
  <fix>3d</fix>
</trkpt>
<trkpt lat="-27.274439" lon="151.290064">
  <ele>343.0</ele>
  <time>2026-08-29T20:44:13Z</time>
  <course>0.0</course>
  <speed>0.0</speed>
  <fix>3d</fix>
</trkpt>
<trkpt lat="-27.2744388" lon="151.2900641">
  <ele>342.99</ele>
  <time>2026-08-29T20:44:13Z</time>
  <course>267.47</course>
  <speed>0.01414213562373095</speed>
  <fix>3d</fix>
</trkpt>
<trkpt lat="-27.274439" lon="151.290064">
  <ele>343.0</ele>
  <time>2026-08-29T20:44:13Z</time>
  <course>0.0</course>
  <speed>0.0</speed>
  <fix>3d</fix>
</trkpt>
<trkpt lat="-27.2744388" lon="151.2900641">
  <ele>342.99</ele>
  <time>2026-08-29T20:44:13Z</time>
  <course>269.9</course>
  <speed>0.01414213562373095</speed>
  <fix>3d</fix>
</trkpt>
<trkpt lat="-27.274439" lon="151.290064">
  <ele>343.0</ele>
  <time>2026-08-29T20:44:13Z</time>
  <course>0.0</course>
  <speed>0.0</speed>
  <fix>3d</fix>
</trkpt>
<trkpt lat="-27.2744389" lon="151.2900641">
  <ele>343.01</ele>
  <time>2026-08-29T20:44:13Z</time>
  <course>270.78</course>
  <speed>0.01414213562373095</speed>
  <fix>3d</fix>
</trkpt>
<trkpt lat="-27.274439" lon="151.290064">
  <ele>343.0</ele>
  <time>2026-08-29T20:44:13Z</time>
  <course>0.0</course>
  <speed>0.0</speed>
  <fix>3d</fix>
</trkpt>
<trkpt lat="-27.2744389" lon="151.2900641">
  <ele>343.01</ele>
  <time>2026-08-29T20:44:13Z</time>
  <course>271.09</course>
  <speed>0.01414213562373095</speed>
  <fix>3d</fix>
</trkpt>
<trkpt lat="-27.274439" lon="151.290064">
  <ele>343.0</ele>
  <time>2026-08-29T20:44:13Z</time>
  <course>0.0</course>
  <speed>0.0</speed>
  <fix>3d</fix>
</trkpt>
<trkpt lat="-27.2744389" lon="151.2900641">
  <ele>343.01</ele>
  <time>2026-08-29T20:44:13Z</time>
  <course>271.19</course>
  <speed>0.01414213562373095</speed>
  <fix>3d</fix>
</trkpt>
<trkpt lat="-27.274439" lon="151.290064">
  <ele>343.0</ele>
  <time>2026-08-29T20:44:13Z</time>
  <course>0.0</course>
  <speed>0.0</speed>
  <fix>3d</fix>
</trkpt>
<trkpt lat="-27.2744389" lon="151.2900641">
  <ele>343.0</ele>
  <time>2026-08-29T20:44:13Z</time>
  <course>271.22</course>
  <speed>0.01414213562373095</speed>
  <fix>3d</fix>
</trkpt>
<trkpt lat="-27.274439" lon="151.290064">
  <ele>343.0</ele>
  <time>2026-08-29T20:44:13Z</time>
  <course>0.0</course>
  <speed>0.0</speed>
  <fix>3d</fix>
</trkpt>
<trkpt lat="-27.2744389" lon="151.2900641">
  <ele>342.99</ele>
  <time>2026-08-29T20:44:13Z</time>
  <course>271.23</course>
  <speed>0.01414213562373095</speed>
  <fix>3d</fix>
</trkpt>
<trkpt lat="-27.274439" lon="151.290064">
  <ele>343.0</ele>
  <time>2026-08-29T20:44:13Z</time>
  <course>0.0</course>
  <speed>0.0</speed>
  <fix>3d</fix>
</trkpt>
<trkpt lat="-27.2744389" lon="151.2900641">
  <ele>343.0</ele>
  <time>2026-08-29T20:44:13Z</time>
  <course>271.23</course>
  <speed>0.022360679774997897</speed>
  <fix>3d</fix>
</trkpt>
<trkpt lat="-27.274439" lon="151.290064">
  <ele>343.0</ele>
  <time>2026-08-29T20:44:13Z</time>
  <course>0.0</course>
  <speed>0.0</speed>
  <fix>3d</fix>
</trkpt>
<trkpt lat="-27.2744389" lon="151.2900641">
  <ele>343.02</ele>
  <time>2026-08-29T20:44:13Z</time>
  <course>271.22</course>
  <speed>0.01414213562373095</speed>
  <fix>3d</fix>
</trkpt>
<trkpt lat="-27.274439" lon="151.290064">
  <ele>343.0</ele>
  <time>2026-08-29T20:44:13Z</time>
  <course>0.0</course>
  <speed>0.0</speed>
  <fix>3d</fix>
</trkpt>
<trkpt lat="-27.274439" lon="151.290064">
  <ele>343.0</ele>
  <time>2026-08-29T20:44:13Z</time>
  <course>325.88</course>
  <speed>0.0</speed>
  <fix>3d</fix>
</trkpt>
<trkpt lat="-27.274439" lon="151.290064">
  <ele>343.0</ele>
  <time>2026-08-29T20:44:13Z</time>
  <course>324.43</course>
  <speed>0.0</speed>
  <fix>3d</fix>
</trkpt>
<trkpt lat="-27.274439" lon="151.290064">
  <ele>343.0</ele>
  <time>2026-08-29T20:44:13Z</time>
  <course>321.85</course>
  <speed>0.0</speed>
  <fix>3d</fix>
</trkpt>
<trkpt lat="-27.274439" lon="151.290064">
  <ele>343.0</ele>
  <time>2026-08-29T20:44:13Z</time>
  <course>295.0</course>
  <speed>0.0</speed>
  <fix>3d</fix>
</trkpt>
<trkpt lat="-27.274439" lon="151.290064">
  <ele>343.0</ele>
  <time>2026-08-29T20:44:13Z</time>
  <course>290.72</course>
  <speed>0.0</speed>
  <fix>3d</fix>
</trkpt>
<trkpt lat="-27.274439" lon="151.290064">
  <ele>343.0</ele>
  <time>2026-08-29T20:44:13Z</time>
  <course>284.85</course>
  <speed>0.0</speed>
  <fix>3d</fix>
</trkpt>
<trkpt lat="-27.274439" lon="151.290064">
  <ele>343.0</ele>
  <time>2026-08-29T20:44:13Z</time>
  <course>277.8</course>
  <speed>0.0</speed>
  <fix>3d</fix>
</trkpt>
<trkpt lat="-27.274439" lon="151.290064">
  <ele>343.0</ele>
  <time>2026-08-29T20:44:13Z</time>
  <course>269.53</course>
  <speed>0.0</speed>
  <fix>3d</fix>
</trkpt>
<trkpt lat="-27.274439" lon="151.290064">
  <ele>343.0</ele>
  <time>2026-08-29T20:44:13Z</time>
  <course>262.12</course>
  <speed>0.93637599285757</speed>
  <fix>3d</fix>
</trkpt>
<trkpt lat="-27.274439" lon="151.290064">
  <ele>343.0</ele>
  <time>2026-08-29T20:44:13Z</time>
  <course>0.0</course>
  <speed>0.0</speed>
  <fix>3d</fix>
</trkpt>
<trkpt lat="-27.274439" lon="151.290064">
  <ele>343.0</ele>
  <time>2026-08-29T20:44:13Z</time>
  <course>256.38</course>
  <speed>0.9097252332435327</speed>
  <fix>3d</fix>
</trkpt>
<trkpt lat="-27.274439" lon="151.290064">
  <ele>343.0</ele>
  <time>2026-08-29T20:44:13Z</time>
  <course>0.0</course>
  <speed>0.0</speed>
  <fix>3d</fix>
</trkpt>
<trkpt lat="-27.274439" lon="151.290064">
  <ele>343.0</ele>
  <time>2026-08-29T20:44:13Z</time>
  <course>249.46</course>
  <speed>0.7360027173862879</speed>
  <fix>3d</fix>
</trkpt>
<trkpt lat="-27.274439" lon="151.290064">
  <ele>343.0</ele>
  <time>2026-08-29T20:44:13Z</time>
  <course>0.0</course>
  <speed>0.0</speed>
  <fix>3d</fix>
</trkpt>
<trkpt lat="-27.274439" lon="151.290064">
  <ele>343.0</ele>
  <time>2026-08-29T20:44:13Z</time>
  <course>241.81</course>
  <speed>0.6670832032063168</speed>
  <fix>3d</fix>
</trkpt>
<trkpt lat="-27.274439" lon="151.290064">
  <ele>343.0</ele>
  <time>2026-08-29T20:44:13Z</time>
  <course>0.0</course>
  <speed>0.0</speed>
  <fix>3d</fix>
</trkpt>
<trkpt lat="-27.274439" lon="151.290064">
  <ele>343.0</ele>
  <time>2026-08-29T20:44:13Z</time>
  <course>233.61</course>
  <speed>0.6612110101926616</speed>
  <fix>3d</fix>
</trkpt>
<trkpt lat="-27.274439" lon="151.290064">
  <ele>343.0</ele>
  <time>2026-08-29T20:44:13Z</time>
  <course>0.0</course>
  <speed>0.0</speed>
  <fix>3d</fix>
</trkpt>
<trkpt lat="-27.274439" lon="151.290064">
  <ele>343.0</ele>
  <time>2026-08-29T20:44:13Z</time>
  <course>225.03</course>
  <speed>0.6937578828380979</speed>
  <fix>3d</fix>
</trkpt>
<trkpt lat="-27.274439" lon="151.290064">
  <ele>343.0</ele>
  <time>2026-08-29T20:44:13Z</time>
  <course>0.0</course>
  <speed>0.0</speed>
  <fix>3d</fix>
</trkpt>
<trkpt lat="-27.274439" lon="151.290064">
  <ele>343.0</ele>
  <time>2026-08-29T20:44:13Z</time>
  <course>216.19</course>
  <speed>0.7689603370785778</speed>
  <fix>3d</fix>
</trkpt>
<trkpt lat="-27.274439" lon="151.290064">
  <ele>343.0</ele>
  <time>2026-08-29T20:44:13Z</time>
  <course>0.0</course>
  <speed>0.0</speed>
  <fix>3d</fix>
</trkpt>
<trkpt lat="-27.274439" lon="151.290064">
  <ele>343.0</ele>
  <time>2026-08-29T20:44:14Z</time>
  <course>261.98</course>
  <speed>1.283627671873741</speed>
  <fix>3d</fix>
</trkpt>
<trkpt lat="-27.274439" lon="151.290064">
  <ele>343.0</ele>
  <time>2026-08-29T20:44:14Z</time>
  <course>0.0</course>
  <speed>0.0</speed>
  <fix>3d</fix>
</trkpt>
<trkpt lat="-27.274439" lon="151.290064">
  <ele>343.0</ele>
  <time>2026-08-29T20:44:14Z</time>
  <course>255.57</course>
  <speed>1.5463828762631846</speed>
  <fix>3d</fix>
</trkpt>
<trkpt lat="-27.274439" lon="151.290064">
  <ele>343.0</ele>
  <time>2026-08-29T20:44:14Z</time>
  <course>0.0</course>
  <speed>0.0</speed>
  <fix>3d</fix>
</trkpt>
<trkpt lat="-27.274439" lon="151.290064">
  <ele>343.0</ele>
  <time>2026-08-29T20:44:14Z</time>
  <course>247.73</course>
  <speed>1.486371420607918</speed>
  <fix>3d</fix>
</trkpt>
<trkpt lat="-27.274439" lon="151.290064">
  <ele>343.0</ele>
  <time>2026-08-29T20:44:14Z</time>
  <course>0.0</course>
  <speed>0.0</speed>
  <fix>3d</fix>
</trkpt>
<trkpt lat="-27.274439" lon="151.290064">
  <ele>343.0</ele>
  <time>2026-08-29T20:44:14Z</time>
  <course>239.18</course>
  <speed>1.3601470508735443</speed>
  <fix>3d</fix>
</trkpt>
<trkpt lat="-27.274439" lon="151.290064">
  <ele>343.0</ele>
  <time>2026-08-29T20:44:14Z</time>
  <course>0.0</course>
  <speed>0.0</speed>
  <fix>3d</fix>
</trkpt>
<trkpt lat="-27.274439" lon="151.290064">
  <ele>343.0</ele>
  <time>2026-08-29T20:44:14Z</time>
  <course>230.14</course>
  <speed>1.2220065466273085</speed>
  <fix>3d</fix>
</trkpt>
<trkpt lat="-27.274439" lon="151.290064">
  <ele>343.0</ele>
  <time>2026-08-29T20:44:14Z</time>
  <course>0.0</course>
  <speed>0.0</speed>
  <fix>3d</fix>
</trkpt>
<trkpt lat="-27.274439" lon="151.290064">
  <ele>343.0</ele>
  <time>2026-08-29T20:44:14Z</time>
  <course>211.27</course>
  <speed>1.035857133006285</speed>
  <fix>3d</fix>
</trkpt>
<trkpt lat="-27.274439" lon="151.290064">
  <ele>343.0</ele>
  <time>2026-08-29T20:44:14Z</time>
  <course>0.0</course>
  <speed>0.0</speed>
  <fix>3d</fix>
</trkpt>
<trkpt lat="-27.274439" lon="151.290064">
  <ele>343.0</ele>
  <time>2026-08-29T20:44:14Z</time>
  <course>201.62</course>
  <speed>0.9832598842625484</speed>
  <fix>3d</fix>
</trkpt>
<trkpt lat="-27.274439" lon="151.290064">
  <ele>343.0</ele>
  <time>2026-08-29T20:44:14Z</time>
  <course>0.0</course>
  <speed>0.0</speed>
  <fix>3d</fix>
</trkpt>
<trkpt lat="-27.274439" lon="151.290064">
  <ele>343.0</ele>
  <time>2026-08-29T20:44:14Z</time>
  <course>191.86</course>
  <speed>0.9504735661763561</speed>
  <fix>3d</fix>
</trkpt>
<trkpt lat="-27.274439" lon="151.290064">
  <ele>343.0</ele>
  <time>2026-08-29T20:44:14Z</time>
  <course>0.0</course>
  <speed>0.0</speed>
  <fix>3d</fix>
</trkpt>
<trkpt lat="-27.274439" lon="151.290064">
  <ele>343.0</ele>
  <time>2026-08-29T20:44:14Z</time>
  <course>182.03</course>
  <speed>0.9000555538409837</speed>
  <fix>3d</fix>
</trkpt>
<trkpt lat="-27.274439" lon="151.290064">
  <ele>343.0</ele>
  <time>2026-08-29T20:44:14Z</time>
  <course>0.0</course>
  <speed>0.0</speed>
  <fix>3d</fix>
</trkpt>
<trkpt lat="-27.274439" lon="151.290064">
  <ele>343.0</ele>
  <time>2026-08-29T20:44:14Z</time>
  <course>172.16</course>
  <speed>0.8209750300709517</speed>
  <fix>3d</fix>
</trkpt>
<trkpt lat="-27.274439" lon="151.290064">
  <ele>343.0</ele>
  <time>2026-08-29T20:44:14Z</time>
  <course>0.0</course>
  <speed>0.0</speed>
  <fix>3d</fix>
</trkpt>
<trkpt lat="-27.274439" lon="151.290064">
  <ele>343.0</ele>
  <time>2026-08-29T20:44:14Z</time>
  <course>162.31</course>
  <speed>0.7752418977325722</speed>
  <fix>3d</fix>
</trkpt>
<trkpt lat="-27.274439" lon="151.290064">
  <ele>343.0</ele>
  <time>2026-08-29T20:44:14Z</time>
  <course>0.0</course>
  <speed>0.0</speed>
  <fix>3d</fix>
</trkpt>
<trkpt lat="-27.274439" lon="151.290064">
  <ele>343.0</ele>
  <time>2026-08-29T20:44:14Z</time>
  <course>152.45</course>
  <speed>0.71386273190299</speed>
  <fix>3d</fix>
</trkpt>
<trkpt lat="-27.274439" lon="151.290064">
  <ele>343.0</ele>
  <time>2026-08-29T20:44:14Z</time>
  <course>0.0</course>
  <speed>0.0</speed>
  <fix>3d</fix>
</trkpt>
<trkpt lat="-27.274439" lon="151.290064">
  <ele>343.0</ele>
  <time>2026-08-29T20:44:14Z</time>
  <course>159.35</course>
  <speed>0.648459713474939</speed>
  <fix>3d</fix>
</trkpt>
<trkpt lat="-27.274439" lon="151.290064">
  <ele>343.0</ele>
  <time>2026-08-29T20:44:14Z</time>
  <course>0.0</course>
  <speed>0.0</speed>
  <fix>3d</fix>
</trkpt>
<trkpt lat="-27.274439" lon="151.290064">
  <ele>343.0</ele>
  <time>2026-08-29T20:44:14Z</time>
  <course>168.41</course>
  <speed>0.5909314681077663</speed>
  <fix>3d</fix>
</trkpt>
<trkpt lat="-27.274439" lon="151.290064">
  <ele>343.0</ele>
  <time>2026-08-29T20:44:14Z</time>
  <course>0.0</course>
  <speed>0.0</speed>
  <fix>3d</fix>
</trkpt>
<trkpt lat="-27.274439" lon="151.290064">
  <ele>343.0</ele>
  <time>2026-08-29T20:44:14Z</time>
  <course>177.47</course>
  <speed>0.5024937810560445</speed>
  <fix>3d</fix>
</trkpt>
<trkpt lat="-27.274439" lon="151.290064">
  <ele>343.0</ele>
  <time>2026-08-29T20:44:14Z</time>
  <course>0.0</course>
  <speed>0.0</speed>
  <fix>3d</fix>
</trkpt>
<trkpt lat="-27.274439" lon="151.290064">
  <ele>343.0</ele>
  <time>2026-08-29T20:44:14Z</time>
  <course>186.48</course>
  <speed>0.41012193308819755</speed>
  <fix>3d</fix>
</trkpt>
<trkpt lat="-27.274439" lon="151.290064">
  <ele>343.0</ele>
  <time>2026-08-29T20:44:14Z</time>
  <course>0.0</course>
  <speed>0.0</speed>
  <fix>3d</fix>
</trkpt>
<trkpt lat="-27.274439" lon="151.290064">
  <ele>343.0</ele>
  <time>2026-08-29T20:44:14Z</time>
  <course>195.45</course>
  <speed>0.3624913792078372</speed>
  <fix>3d</fix>
</trkpt>
<trkpt lat="-27.274439" lon="151.290064">
  <ele>343.0</ele>
  <time>2026-08-29T20:44:14Z</time>
  <course>0.0</course>
  <speed>0.0</speed>
  <fix>3d</fix>
</trkpt>
<trkpt lat="-27.274439" lon="151.290064">
  <ele>343.0</ele>
  <time>2026-08-29T20:44:14Z</time>
  <course>204.33</course>
  <speed>0.382099463490856</speed>
  <fix>3d</fix>
</trkpt>
<trkpt lat="-27.274439" lon="151.290064">
  <ele>343.0</ele>
  <time>2026-08-29T20:44:14Z</time>
  <course>0.0</course>
  <speed>0.0</speed>
  <fix>3d</fix>
</trkpt>
<trkpt lat="-27.274439" lon="151.290064">
  <ele>343.0</ele>
  <time>2026-08-29T20:44:14Z</time>
  <course>213.18</course>
  <speed>0.42107006542854597</speed>
  <fix>3d</fix>
</trkpt>
<trkpt lat="-27.274439" lon="151.290064">
  <ele>343.0</ele>
  <time>2026-08-29T20:44:14Z</time>
  <course>0.0</course>
  <speed>0.0</speed>
  <fix>3d</fix>
</trkpt>
<trkpt lat="-27.274439" lon="151.290064">
  <ele>343.0</ele>
  <time>2026-08-29T20:44:14Z</time>
  <course>222.02</course>
  <speed>0.4729693436154187</speed>
  <fix>3d</fix>
</trkpt>
<trkpt lat="-27.274439" lon="151.290064">
  <ele>343.0</ele>
  <time>2026-08-29T20:44:14Z</time>
  <course>0.0</course>
  <speed>0.0</speed>
  <fix>3d</fix>
</trkpt>
<trkpt lat="-27.274439" lon="151.290064">
  <ele>343.0</ele>
  <time>2026-08-29T20:44:14Z</time>
  <course>230.9</course>
  <speed>0.5239274758971895</speed>
  <fix>3d</fix>
</trkpt>
<trkpt lat="-27.274439" lon="151.290064">
  <ele>343.0</ele>
  <time>2026-08-29T20:44:14Z</time>
  <course>0.0</course>
  <speed>0.0</speed>
  <fix>3d</fix>
</trkpt>
<trkpt lat="-27.274439" lon="151.290064">
  <ele>343.0</ele>
  <time>2026-08-29T20:44:14Z</time>
  <course>239.77</course>
  <speed>0.5693856338194704</speed>
  <fix>3d</fix>
</trkpt>
<trkpt lat="-27.274439" lon="151.290064">
  <ele>343.0</ele>
  <time>2026-08-29T20:44:14Z</time>
  <course>0.0</course>
  <speed>0.0</speed>
  <fix>3d</fix>
</trkpt>
<trkpt lat="-27.274439" lon="151.290064">
  <ele>343.0</ele>
  <time>2026-08-29T20:44:14Z</time>
  <course>248.67</course>
  <speed>0.5920304046246274</speed>
  <fix>3d</fix>
</trkpt>
<trkpt lat="-27.274439" lon="151.290064">
  <ele>343.0</ele>
  <time>2026-08-29T20:44:14Z</time>
  <course>0.0</course>
  <speed>0.0</speed>
  <fix>3d</fix>
</trkpt>
<trkpt lat="-27.274439" lon="151.290064">
  <ele>343.0</ele>
  <time>2026-08-29T20:44:14Z</time>
  <course>257.55</course>
  <speed>0.5966573556070519</speed>
  <fix>3d</fix>
</trkpt>
<trkpt lat="-27.274439" lon="151.290064">
  <ele>343.0</ele>
  <time>2026-08-29T20:44:14Z</time>
  <course>0.0</course>
  <speed>0.0</speed>
  <fix>3d</fix>
</trkpt>
<trkpt lat="-27.274439" lon="151.290064">
  <ele>343.0</ele>
  <time>2026-08-29T20:44:14Z</time>
  <course>266.44</course>
  <speed>0.5903388857258176</speed>
  <fix>3d</fix>
</trkpt>
<trkpt lat="-27.274439" lon="151.290064">
  <ele>343.0</ele>
  <time>2026-08-29T20:44:14Z</time>
  <course>0.0</course>
  <speed>0.0</speed>
  <fix>3d</fix>
</trkpt>
<trkpt lat="-27.274439" lon="151.290064">
  <ele>343.0</ele>
  <time>2026-08-29T20:44:14Z</time>
  <course>275.35</course>
  <speed>0.5590169943749475</speed>
  <fix>3d</fix>
</trkpt>
<trkpt lat="-27.274439" lon="151.290064">
  <ele>343.0</ele>
  <time>2026-08-29T20:44:14Z</time>
  <course>0.0</course>
  <speed>0.0</speed>
  <fix>3d</fix>
</trkpt>
<trkpt lat="-27.274439" lon="151.290064">
  <ele>343.0</ele>
  <time>2026-08-29T20:44:14Z</time>
  <course>284.27</course>
  <speed>0.5448853090330111</speed>
  <fix>3d</fix>
</trkpt>
<trkpt lat="-27.274439" lon="151.290064">
  <ele>343.0</ele>
  <time>2026-08-29T20:44:14Z</time>
  <course>0.0</course>
  <speed>0.0</speed>
  <fix>3d</fix>
</trkpt>
<trkpt lat="-27.274439" lon="151.290064">
  <ele>343.0</ele>
  <time>2026-08-29T20:44:14Z</time>
  <course>293.19</course>
  <speed>0.523450093132096</speed>
  <fix>3d</fix>
</trkpt>
<trkpt lat="-27.274439" lon="151.290064">
  <ele>343.0</ele>
  <time>2026-08-29T20:44:14Z</time>
  <course>0.0</course>
  <speed>0.0</speed>
  <fix>3d</fix>
</trkpt>
<trkpt lat="-27.274439" lon="151.290064">
  <ele>343.0</ele>
  <time>2026-08-29T20:44:14Z</time>
  <course>291.51</course>
  <speed>0.5093132631298737</speed>
  <fix>3d</fix>
</trkpt>
<trkpt lat="-27.274439" lon="151.290064">
  <ele>343.0</ele>
  <time>2026-08-29T20:44:14Z</time>
  <course>0.0</course>
  <speed>0.0</speed>
  <fix>3d</fix>
</trkpt>
<trkpt lat="-27.274439" lon="151.290064">
  <ele>343.0</ele>
  <time>2026-08-29T20:44:14Z</time>
  <course>282.46</course>
  <speed>0.5093132631298737</speed>
  <fix>3d</fix>
</trkpt>
<trkpt lat="-27.274439" lon="151.290064">
  <ele>343.0</ele>
  <time>2026-08-29T20:44:14Z</time>
  <course>0.0</course>
  <speed>0.0</speed>
  <fix>3d</fix>
</trkpt>
<trkpt lat="-27.274439" lon="151.290064">
  <ele>343.0</ele>
  <time>2026-08-29T20:44:14Z</time>
  <course>273.38</course>
  <speed>0.518555686498567</speed>
  <fix>3d</fix>
</trkpt>
<trkpt lat="-27.274439" lon="151.290064">
  <ele>343.0</ele>
  <time>2026-08-29T20:44:14Z</time>
  <course>0.0</course>
  <speed>0.0</speed>
  <fix>3d</fix>
</trkpt>
<trkpt lat="-27.274439" lon="151.290064">
  <ele>343.0</ele>
  <time>2026-08-29T20:44:14Z</time>
  <course>264.32</course>
  <speed>0.5300943312279428</speed>
  <fix>3d</fix>
</trkpt>
<trkpt lat="-27.274439" lon="151.290064">
  <ele>343.0</ele>
  <time>2026-08-29T20:44:14Z</time>
  <course>0.0</course>
  <speed>0.0</speed>
  <fix>3d</fix>
</trkpt>
<trkpt lat="-27.274439" lon="151.290064">
  <ele>343.0</ele>
  <time>2026-08-29T20:44:14Z</time>
  <course>255.24</course>
  <speed>0.5608029957123981</speed>
  <fix>3d</fix>
</trkpt>
<trkpt lat="-27.274439" lon="151.290064">
  <ele>343.0</ele>
  <time>2026-08-29T20:44:14Z</time>
  <course>0.0</course>
  <speed>0.0</speed>
  <fix>3d</fix>
</trkpt>
<trkpt lat="-27.274439" lon="151.290064">
  <ele>343.0</ele>
  <time>2026-08-29T20:44:14Z</time>
  <course>246.14</course>
  <speed>0.5860034129593444</speed>
  <fix>3d</fix>
</trkpt>
<trkpt lat="-27.274439" lon="151.290064">
  <ele>343.0</ele>
  <time>2026-08-29T20:44:14Z</time>
  <course>0.0</course>
  <speed>0.0</speed>
  <fix>3d</fix>
</trkpt>
<trkpt lat="-27.274439" lon="151.290064">
  <ele>343.0</ele>
  <time>2026-08-29T20:44:14Z</time>
  <course>237.01</course>
  <speed>0.6109828148156051</speed>
  <fix>3d</fix>
</trkpt>
<trkpt lat="-27.274439" lon="151.290064">
  <ele>343.0</ele>
  <time>2026-08-29T20:44:14Z</time>
  <course>0.0</course>
  <speed>0.0</speed>
  <fix>3d</fix>
</trkpt>
<trkpt lat="-27.274439" lon="151.290064">
  <ele>343.0</ele>
  <time>2026-08-29T20:44:14Z</time>
  <course>227.89</course>
  <speed>0.6456004956627589</speed>
  <fix>3d</fix>
</trkpt>
<trkpt lat="-27.274439" lon="151.290064">
  <ele>343.0</ele>
  <time>2026-08-29T20:44:14Z</time>
  <course>0.0</course>
  <speed>0.0</speed>
  <fix>3d</fix>
</trkpt>
<trkpt lat="-27.274439" lon="151.290064">
  <ele>343.0</ele>
  <time>2026-08-29T20:44:14Z</time>
  <course>218.76</course>
  <speed>0.6746851117373199</speed>
  <fix>3d</fix>
</trkpt>
<trkpt lat="-27.274439" lon="151.290064">
  <ele>343.0</ele>
  <time>2026-08-29T20:44:14Z</time>
  <course>0.0</course>
  <speed>0.0</speed>
  <fix>3d</fix>
</trkpt>
<trkpt lat="-27.274439" lon="151.290064">
  <ele>343.0</ele>
  <time>2026-08-29T20:44:14Z</time>
  <course>209.59</course>
  <speed>0.6946221994724903</speed>
  <fix>3d</fix>
</trkpt>
<trkpt lat="-27.274439" lon="151.290064">
  <ele>343.0</ele>
  <time>2026-08-29T20:44:14Z</time>
  <course>0.0</course>
  <speed>0.0</speed>
  <fix>3d</fix>
</trkpt>
<trkpt lat="-27.274439" lon="151.290064">
  <ele>343.0</ele>
  <time>2026-08-29T20:44:14Z</time>
  <course>200.42</course>
  <speed>0.7006425622241343</speed>
  <fix>3d</fix>
</trkpt>
<trkpt lat="-27.274439" lon="151.290064">
  <ele>343.0</ele>
  <time>2026-08-29T20:44:14Z</time>
  <course>0.0</course>
  <speed>0.0</speed>
  <fix>3d</fix>
</trkpt>
<trkpt lat="-27.274439" lon="151.290064">
  <ele>343.0</ele>
  <time>2026-08-29T20:44:14Z</time>
  <course>191.21</course>
  <speed>0.7106335201775947</speed>
  <fix>3d</fix>
</trkpt>
<trkpt lat="-27.274439" lon="151.290064">
  <ele>343.0</ele>
  <time>2026-08-29T20:44:14Z</time>
  <course>0.0</course>
  <speed>0.0</speed>
  <fix>3d</fix>
</trkpt>
<trkpt lat="-27.2744397" lon="151.2900634">
  <ele>343.03</ele>
  <time>2026-08-29T20:44:14Z</time>
  <course>182.0</course>
  <speed>0.09219544457292887</speed>
  <fix>3d</fix>
</trkpt>
<trkpt lat="-27.274439" lon="151.290064">
  <ele>343.0</ele>
  <time>2026-08-29T20:44:14Z</time>
  <course>0.0</course>
  <speed>0.0</speed>
  <fix>3d</fix>
</trkpt>
<trkpt lat="-27.274439" lon="151.2900633">
  <ele>343.07</ele>
  <time>2026-08-29T20:44:14Z</time>
  <course>172.62</course>
  <speed>0.14212670403551894</speed>
  <fix>3d</fix>
</trkpt>
<trkpt lat="-27.274439" lon="151.290064">
  <ele>343.0</ele>
  <time>2026-08-29T20:44:14Z</time>
  <course>0.0</course>
  <speed>0.0</speed>
  <fix>3d</fix>
</trkpt>
<trkpt lat="-27.2744387" lon="151.2900634">
  <ele>343.08</ele>
  <time>2026-08-29T20:44:14Z</time>
  <course>163.14</course>
  <speed>0.11401754250991379</speed>
  <fix>3d</fix>
</trkpt>
<trkpt lat="-27.274439" lon="151.290064">
  <ele>343.0</ele>
  <time>2026-08-29T20:44:14Z</time>
  <course>0.0</course>
  <speed>0.0</speed>
  <fix>3d</fix>
</trkpt>
<trkpt lat="-27.2744388" lon="151.2900636">
  <ele>343.12</ele>
  <time>2026-08-29T20:44:14Z</time>
  <course>153.68</course>
  <speed>0.07071067811865475</speed>
  <fix>3d</fix>
</trkpt>
<trkpt lat="-27.274439" lon="151.290064">
  <ele>343.0</ele>
  <time>2026-08-29T20:44:14Z</time>
  <course>0.0</course>
  <speed>0.0</speed>
  <fix>3d</fix>
</trkpt>
<trkpt lat="-27.2744389" lon="151.2900637">
  <ele>343.1</ele>
  <time>2026-08-29T20:44:15Z</time>
  <course>144.28</course>
  <speed>0.044721359549995794</speed>
  <fix>3d</fix>
</trkpt>
<trkpt lat="-27.274439" lon="151.290064">
  <ele>343.0</ele>
  <time>2026-08-29T20:44:15Z</time>
  <course>0.0</course>
  <speed>0.0</speed>
  <fix>3d</fix>
</trkpt>
<trkpt lat="-27.274439" lon="151.2900637">
  <ele>343.09</ele>
  <time>2026-08-29T20:44:15Z</time>
  <course>138.55</course>
  <speed>0.03</speed>
  <fix>3d</fix>
</trkpt>
<trkpt lat="-27.274439" lon="151.290064">
  <ele>343.0</ele>
  <time>2026-08-29T20:44:15Z</time>
  <course>0.0</course>
  <speed>0.0</speed>
  <fix>3d</fix>
</trkpt>
<trkpt lat="-27.274439" lon="151.2900637">
  <ele>343.06</ele>
  <time>2026-08-29T20:44:15Z</time>
  <course>136.5</course>
  <speed>0.03</speed>
  <fix>3d</fix>
</trkpt>
<trkpt lat="-27.274439" lon="151.290064">
  <ele>343.0</ele>
  <time>2026-08-29T20:44:15Z</time>
  <course>0.0</course>
  <speed>0.0</speed>
  <fix>3d</fix>
</trkpt>
<trkpt lat="-27.2744391" lon="151.2900637">
  <ele>343.07</ele>
  <time>2026-08-29T20:44:15Z</time>
  <course>135.75</course>
  <speed>0.0316227766016838</speed>
  <fix>3d</fix>
</trkpt>
<trkpt lat="-27.274439" lon="151.290064">
  <ele>343.0</ele>
  <time>2026-08-29T20:44:15Z</time>
  <course>0.0</course>
  <speed>0.0</speed>
  <fix>3d</fix>
</trkpt>
<trkpt lat="-27.2744391" lon="151.2900637">
  <ele>343.1</ele>
  <time>2026-08-29T20:44:15Z</time>
  <course>141.85</course>
  <speed>0.044721359549995794</speed>
  <fix>3d</fix>
</trkpt>
<trkpt lat="-27.274439" lon="151.290064">
  <ele>343.0</ele>
  <time>2026-08-29T20:44:15Z</time>
  <course>0.0</course>
  <speed>0.0</speed>
  <fix>3d</fix>
</trkpt>
<trkpt lat="-27.2744391" lon="151.2900637">
  <ele>343.09</ele>
  <time>2026-08-29T20:44:15Z</time>
  <course>151.04</course>
  <speed>0.05099019513592785</speed>
  <fix>3d</fix>
</trkpt>
<trkpt lat="-27.274439" lon="151.290064">
  <ele>343.0</ele>
  <time>2026-08-29T20:44:15Z</time>
  <course>0.0</course>
  <speed>0.0</speed>
  <fix>3d</fix>
</trkpt>
<trkpt lat="-27.2744391" lon="151.2900636">
  <ele>343.08</ele>
  <time>2026-08-29T20:44:15Z</time>
  <course>160.17</course>
  <speed>0.06</speed>
  <fix>3d</fix>
</trkpt>
<trkpt lat="-27.274439" lon="151.290064">
  <ele>343.0</ele>
  <time>2026-08-29T20:44:15Z</time>
  <course>0.0</course>
  <speed>0.0</speed>
  <fix>3d</fix>
</trkpt>
<trkpt lat="-27.274439" lon="151.2900636">
  <ele>343.08</ele>
  <time>2026-08-29T20:44:15Z</time>
  <course>169.26</course>
  <speed>0.06</speed>
  <fix>3d</fix>
</trkpt>
<trkpt lat="-27.274439" lon="151.290064">
  <ele>343.0</ele>
  <time>2026-08-29T20:44:15Z</time>
  <course>0.0</course>
  <speed>0.0</speed>
  <fix>3d</fix>
</trkpt>
<trkpt lat="-27.2744389" lon="151.2900636">
  <ele>343.05</ele>
  <time>2026-08-29T20:44:15Z</time>
  <course>187.39</course>
  <speed>0.044721359549995794</speed>
  <fix>3d</fix>
</trkpt>
<trkpt lat="-27.274439" lon="151.290064">
  <ele>343.0</ele>
  <time>2026-08-29T20:44:15Z</time>
  <course>0.0</course>
  <speed>0.0</speed>
  <fix>3d</fix>
</trkpt>
<trkpt lat="-27.2744388" lon="151.2900636">
  <ele>343.07</ele>
  <time>2026-08-29T20:44:15Z</time>
  <course>196.43</course>
  <speed>0.04242640687119285</speed>
  <fix>3d</fix>
</trkpt>
<trkpt lat="-27.274439" lon="151.290064">
  <ele>343.0</ele>
  <time>2026-08-29T20:44:15Z</time>
  <course>0.0</course>
  <speed>0.0</speed>
  <fix>3d</fix>
</trkpt>
<trkpt lat="-27.2744389" lon="151.2900637">
  <ele>343.06</ele>
  <time>2026-08-29T20:44:15Z</time>
  <course>205.46</course>
  <speed>0.0282842712474619</speed>
  <fix>3d</fix>
</trkpt>
<trkpt lat="-27.274439" lon="151.290064">
  <ele>343.0</ele>
  <time>2026-08-29T20:44:15Z</time>
  <course>0.0</course>
  <speed>0.0</speed>
  <fix>3d</fix>
</trkpt>
<trkpt lat="-27.2744388" lon="151.2900638">
  <ele>343.07</ele>
  <time>2026-08-29T20:44:15Z</time>
  <course>214.48</course>
  <speed>0.022360679774997897</speed>
  <fix>3d</fix>
</trkpt>
<trkpt lat="-27.274439" lon="151.290064">
  <ele>343.0</ele>
  <time>2026-08-29T20:44:15Z</time>
  <course>0.0</course>
  <speed>0.0</speed>
  <fix>3d</fix>
</trkpt>
<trkpt lat="-27.2744389" lon="151.2900639">
  <ele>343.05</ele>
  <time>2026-08-29T20:44:15Z</time>
  <course>220.17</course>
  <speed>0.02</speed>
  <fix>3d</fix>
</trkpt>
<trkpt lat="-27.274439" lon="151.290064">
  <ele>343.0</ele>
  <time>2026-08-29T20:44:15Z</time>
  <course>0.0</course>
  <speed>0.0</speed>
  <fix>3d</fix>
</trkpt>
<trkpt lat="-27.2744389" lon="151.2900639">
  <ele>343.04</ele>
  <time>2026-08-29T20:44:15Z</time>
  <course>211.16</course>
  <speed>0.02</speed>
  <fix>3d</fix>
</trkpt>
<trkpt lat="-27.274439" lon="151.290064">
  <ele>343.0</ele>
  <time>2026-08-29T20:44:15Z</time>
  <course>0.0</course>
  <speed>0.0</speed>
  <fix>3d</fix>
</trkpt>
<trkpt lat="-27.2744389" lon="151.290064">
  <ele>343.05</ele>
  <time>2026-08-29T20:44:15Z</time>
  <course>202.17</course>
  <speed>0.02</speed>
  <fix>3d</fix>
</trkpt>
<trkpt lat="-27.274439" lon="151.290064">
  <ele>343.0</ele>
  <time>2026-08-29T20:44:15Z</time>
  <course>0.0</course>
  <speed>0.0</speed>
  <fix>3d</fix>
</trkpt>
<trkpt lat="-27.2744389" lon="151.290064">
  <ele>343.05</ele>
  <time>2026-08-29T20:44:15Z</time>
  <course>193.19</course>
  <speed>0.02</speed>
  <fix>3d</fix>
</trkpt>
<trkpt lat="-27.274439" lon="151.290064">
  <ele>343.0</ele>
  <time>2026-08-29T20:44:15Z</time>
  <course>0.0</course>
  <speed>0.0</speed>
  <fix>3d</fix>
</trkpt>
<trkpt lat="-27.2744389" lon="151.290064">
  <ele>343.03</ele>
  <time>2026-08-29T20:44:15Z</time>
  <course>184.21</course>
  <speed>0.02</speed>
  <fix>3d</fix>
</trkpt>
<trkpt lat="-27.274439" lon="151.290064">
  <ele>343.0</ele>
  <time>2026-08-29T20:44:15Z</time>
  <course>0.0</course>
  <speed>0.0</speed>
  <fix>3d</fix>
</trkpt>
<trkpt lat="-27.2744389" lon="151.290064">
  <ele>342.99</ele>
  <time>2026-08-29T20:44:15Z</time>
  <course>175.2</course>
  <speed>0.02</speed>
  <fix>3d</fix>
</trkpt>
<trkpt lat="-27.274439" lon="151.290064">
  <ele>343.0</ele>
  <time>2026-08-29T20:44:15Z</time>
  <course>0.0</course>
  <speed>0.0</speed>
  <fix>3d</fix>
</trkpt>
<trkpt lat="-27.2744389" lon="151.290064">
  <ele>342.98</ele>
  <time>2026-08-29T20:44:15Z</time>
  <course>166.21</course>
  <speed>0.01</speed>
  <fix>3d</fix>
</trkpt>
<trkpt lat="-27.274439" lon="151.290064">
  <ele>343.0</ele>
  <time>2026-08-29T20:44:15Z</time>
  <course>0.0</course>
  <speed>0.0</speed>
  <fix>3d</fix>
</trkpt>
<trkpt lat="-27.2744389" lon="151.290064">
  <ele>342.94</ele>
  <time>2026-08-29T20:44:15Z</time>
  <course>157.2</course>
  <speed>0.01</speed>
  <fix>3d</fix>
</trkpt>
<trkpt lat="-27.274439" lon="151.290064">
  <ele>343.0</ele>
  <time>2026-08-29T20:44:15Z</time>
  <course>0.0</course>
  <speed>0.0</speed>
  <fix>3d</fix>
</trkpt>
<trkpt lat="-27.2744389" lon="151.290064">
  <ele>342.93</ele>
  <time>2026-08-29T20:44:15Z</time>
  <course>148.19</course>
  <speed>0.01</speed>
  <fix>3d</fix>
</trkpt>
<trkpt lat="-27.274439" lon="151.290064">
  <ele>343.0</ele>
  <time>2026-08-29T20:44:15Z</time>
  <course>0.0</course>
  <speed>0.0</speed>
  <fix>3d</fix>
</trkpt>
<trkpt lat="-27.274439" lon="151.290064">
  <ele>343.0</ele>
  <time>2026-08-29T20:44:15Z</time>
  <course>325.88</course>
  <speed>0.0</speed>
  <fix>3d</fix>
</trkpt>
<trkpt lat="-27.274439" lon="151.290064">
  <ele>343.0</ele>
  <time>2026-08-29T20:44:15Z</time>
  <course>324.43</course>
  <speed>0.0</speed>
  <fix>3d</fix>
</trkpt>
<trkpt lat="-27.274439" lon="151.290064">
  <ele>343.0</ele>
  <time>2026-08-29T20:44:15Z</time>
  <course>321.86</course>
  <speed>0.0</speed>
  <fix>3d</fix>
</trkpt>
<trkpt lat="-27.274439" lon="151.290064">
  <ele>343.0</ele>
  <time>2026-08-29T20:44:15Z</time>
  <course>295.0</course>
  <speed>0.0</speed>
  <fix>3d</fix>
</trkpt>
<trkpt lat="-27.274439" lon="151.290064">
  <ele>343.0</ele>
  <time>2026-08-29T20:44:15Z</time>
  <course>290.72</course>
  <speed>0.0</speed>
  <fix>3d</fix>
</trkpt>
<trkpt lat="-27.274439" lon="151.290064">
  <ele>343.0</ele>
  <time>2026-08-29T20:44:15Z</time>
  <course>284.84</course>
  <speed>0.0</speed>
  <fix>3d</fix>
</trkpt>
<trkpt lat="-27.274439" lon="151.290064">
  <ele>343.0</ele>
  <time>2026-08-29T20:44:15Z</time>
  <course>277.79</course>
  <speed>0.0</speed>
  <fix>3d</fix>
</trkpt>
<trkpt lat="-27.274439" lon="151.290064">
  <ele>343.0</ele>
  <time>2026-08-29T20:44:15Z</time>
  <course>269.55</course>
  <speed>0.0</speed>
  <fix>3d</fix>
</trkpt>
<trkpt lat="-27.274439" lon="151.290064">
  <ele>343.0</ele>
  <time>2026-08-29T20:44:15Z</time>
  <course>262.16</course>
  <speed>0.9176055797563569</speed>
  <fix>3d</fix>
</trkpt>
<trkpt lat="-27.274439" lon="151.290064">
  <ele>343.0</ele>
  <time>2026-08-29T20:44:15Z</time>
  <course>0.0</course>
  <speed>0.0</speed>
  <fix>3d</fix>
</trkpt>
<trkpt lat="-27.274439" lon="151.290064">
  <ele>343.0</ele>
  <time>2026-08-29T20:44:15Z</time>
  <course>256.4</course>
  <speed>0.9403190947758107</speed>
  <fix>3d</fix>
</trkpt>
<trkpt lat="-27.274439" lon="151.290064">
  <ele>343.0</ele>
  <time>2026-08-29T20:44:15Z</time>
  <course>0.0</course>
  <speed>0.0</speed>
  <fix>3d</fix>
</trkpt>
<trkpt lat="-27.274439" lon="151.290064">
  <ele>343.0</ele>
  <time>2026-08-29T20:44:15Z</time>
  <course>249.45</course>
  <speed>0.756042326857432</speed>
  <fix>3d</fix>
</trkpt>
<trkpt lat="-27.274439" lon="151.290064">
  <ele>343.0</ele>
  <time>2026-08-29T20:44:15Z</time>
  <course>0.0</course>
  <speed>0.0</speed>
  <fix>3d</fix>
</trkpt>
<trkpt lat="-27.274439" lon="151.290064">
  <ele>343.0</ele>
  <time>2026-08-29T20:44:15Z</time>
  <course>241.79</course>
  <speed>0.6596969000988256</speed>
  <fix>3d</fix>
</trkpt>
<trkpt lat="-27.274439" lon="151.290064">
  <ele>343.0</ele>
  <time>2026-08-29T20:44:15Z</time>
  <course>0.0</course>
  <speed>0.0</speed>
  <fix>3d</fix>
</trkpt>
<trkpt lat="-27.274439" lon="151.290064">
  <ele>343.0</ele>
  <time>2026-08-29T20:44:15Z</time>
  <course>233.59</course>
  <speed>0.6618912297349165</speed>
  <fix>3d</fix>
</trkpt>
<trkpt lat="-27.274439" lon="151.290064">
  <ele>343.0</ele>
  <time>2026-08-29T20:44:15Z</time>
  <course>0.0</course>
  <speed>0.0</speed>
  <fix>3d</fix>
</trkpt>
<trkpt lat="-27.274439" lon="151.290064">
  <ele>343.0</ele>
  <time>2026-08-29T20:44:15Z</time>
  <course>225.02</course>
  <speed>0.7034202158027589</speed>
  <fix>3d</fix>
</trkpt>
<trkpt lat="-27.274439" lon="151.290064">
  <ele>343.0</ele>
  <time>2026-08-29T20:44:15Z</time>
  <course>0.0</course>
  <speed>0.0</speed>
  <fix>3d</fix>
</trkpt>
<trkpt lat="-27.274439" lon="151.290064">
  <ele>343.0</ele>
  <time>2026-08-29T20:44:15Z</time>
  <course>216.17</course>
  <speed>0.7539230729988305</speed>
  <fix>3d</fix>
</trkpt>
<trkpt lat="-27.274439" lon="151.290064">
  <ele>343.0</ele>
  <time>2026-08-29T20:44:15Z</time>
  <course>0.0</course>
  <speed>0.0</speed>
  <fix>3d</fix>
</trkpt>
<trkpt lat="-27.274439" lon="151.290064">
  <ele>343.0</ele>
  <time>2026-08-29T20:44:15Z</time>
  <course>207.13</course>
  <speed>0.8052949770115296</speed>
  <fix>3d</fix>
</trkpt>
<trkpt lat="-27.274439" lon="151.290064">
  <ele>343.0</ele>
  <time>2026-08-29T20:44:15Z</time>
  <course>0.0</course>
  <speed>0.0</speed>
  <fix>3d</fix>
</trkpt>
<trkpt lat="-27.274439" lon="151.290064">
  <ele>343.0</ele>
  <time>2026-08-29T20:44:15Z</time>
  <course>197.74</course>
  <speed>0.39824615503479754</speed>
  <fix>3d</fix>
</trkpt>
<trkpt lat="-27.274439" lon="151.290064">
  <ele>343.0</ele>
  <time>2026-08-29T20:44:15Z</time>
  <course>0.0</course>
  <speed>0.0</speed>
  <fix>3d</fix>
</trkpt>
<trkpt lat="-27.274439" lon="151.290064">
  <ele>343.0</ele>
  <time>2026-08-29T20:44:15Z</time>
  <course>188.23</course>
  <speed>0.12529964086141668</speed>
  <fix>3d</fix>
</trkpt>
<trkpt lat="-27.274439" lon="151.290064">
  <ele>343.0</ele>
  <time>2026-08-29T20:44:15Z</time>
  <course>0.0</course>
  <speed>0.0</speed>
  <fix>3d</fix>
</trkpt>
<trkpt lat="-27.274439" lon="151.290064">
  <ele>343.0</ele>
  <time>2026-08-29T20:44:15Z</time>
  <course>178.75</course>
  <speed>0.1118033988749895</speed>
  <fix>3d</fix>
</trkpt>
<trkpt lat="-27.274439" lon="151.290064">
  <ele>343.0</ele>
  <time>2026-08-29T20:44:15Z</time>
  <course>0.0</course>
  <speed>0.0</speed>
  <fix>3d</fix>
</trkpt>
<trkpt lat="-27.274439" lon="151.290064">
  <ele>343.0</ele>
  <time>2026-08-29T20:44:15Z</time>
  <course>169.33</course>
  <speed>0.12529964086141668</speed>
  <fix>3d</fix>
</trkpt>
<trkpt lat="-27.274439" lon="151.290064">
  <ele>343.0</ele>
  <time>2026-08-29T20:44:15Z</time>
  <course>0.0</course>
  <speed>0.0</speed>
  <fix>3d</fix>
</trkpt>
<trkpt lat="-27.274439" lon="151.290064">
  <ele>343.0</ele>
  <time>2026-08-29T20:44:16Z</time>
  <course>325.88</course>
  <speed>0.0</speed>
  <fix>3d</fix>
</trkpt>
<trkpt lat="-27.274439" lon="151.290064">
  <ele>343.0</ele>
  <time>2026-08-29T20:44:16Z</time>
  <course>324.43</course>
  <speed>0.0</speed>
  <fix>3d</fix>
</trkpt>
<trkpt lat="-27.274439" lon="151.290064">
  <ele>343.0</ele>
  <time>2026-08-29T20:44:16Z</time>
  <course>321.86</course>
  <speed>0.0</speed>
  <fix>3d</fix>
</trkpt>
<trkpt lat="-27.274439" lon="151.290064">
  <ele>343.0</ele>
  <time>2026-08-29T20:44:16Z</time>
  <course>295.0</course>
  <speed>0.0</speed>
  <fix>3d</fix>
</trkpt>
<trkpt lat="-27.274439" lon="151.290064">
  <ele>343.0</ele>
  <time>2026-08-29T20:44:16Z</time>
  <course>290.72</course>
  <speed>0.0</speed>
  <fix>3d</fix>
</trkpt>
<trkpt lat="-27.274439" lon="151.290064">
  <ele>343.0</ele>
  <time>2026-08-29T20:44:16Z</time>
  <course>284.84</course>
  <speed>0.0</speed>
  <fix>3d</fix>
</trkpt>
<trkpt lat="-27.274439" lon="151.290064">
  <ele>343.0</ele>
  <time>2026-08-29T20:44:16Z</time>
  <course>277.79</course>
  <speed>0.0</speed>
  <fix>3d</fix>
</trkpt>
<trkpt lat="-27.274439" lon="151.290064">
  <ele>343.0</ele>
  <time>2026-08-29T20:44:16Z</time>
  <course>269.55</course>
  <speed>0.0</speed>
  <fix>3d</fix>
</trkpt>
<trkpt lat="-27.274439" lon="151.290064">
  <ele>343.0</ele>
  <time>2026-08-29T20:44:16Z</time>
  <course>262.16</course>
  <speed>0.9176055797563569</speed>
  <fix>3d</fix>
</trkpt>
<trkpt lat="-27.274439" lon="151.290064">
  <ele>343.0</ele>
  <time>2026-08-29T20:44:16Z</time>
  <course>0.0</course>
  <speed>0.0</speed>
  <fix>3d</fix>
</trkpt>
<trkpt lat="-27.274439" lon="151.290064">
  <ele>343.0</ele>
  <time>2026-08-29T20:44:16Z</time>
  <course>256.4</course>
  <speed>0.9403190947758107</speed>
  <fix>3d</fix>
</trkpt>
<trkpt lat="-27.274439" lon="151.290064">
  <ele>343.0</ele>
  <time>2026-08-29T20:44:16Z</time>
  <course>0.0</course>
  <speed>0.0</speed>
  <fix>3d</fix>
</trkpt>
<trkpt lat="-27.274439" lon="151.290064">
  <ele>343.0</ele>
  <time>2026-08-29T20:44:16Z</time>
  <course>249.45</course>
  <speed>0.756042326857432</speed>
  <fix>3d</fix>
</trkpt>
<trkpt lat="-27.274439" lon="151.290064">
  <ele>343.0</ele>
  <time>2026-08-29T20:44:16Z</time>
  <course>0.0</course>
  <speed>0.0</speed>
  <fix>3d</fix>
</trkpt>
<trkpt lat="-27.274439" lon="151.290064">
  <ele>343.0</ele>
  <time>2026-08-29T20:44:16Z</time>
  <course>241.79</course>
  <speed>0.6596969000988256</speed>
  <fix>3d</fix>
</trkpt>
<trkpt lat="-27.274439" lon="151.290064">
  <ele>343.0</ele>
  <time>2026-08-29T20:44:16Z</time>
  <course>0.0</course>
  <speed>0.0</speed>
  <fix>3d</fix>
</trkpt>
<trkpt lat="-27.274439" lon="151.290064">
  <ele>343.0</ele>
  <time>2026-08-29T20:44:16Z</time>
  <course>233.59</course>
  <speed>0.6618912297349165</speed>
  <fix>3d</fix>
</trkpt>
<trkpt lat="-27.274439" lon="151.290064">
  <ele>343.0</ele>
  <time>2026-08-29T20:44:16Z</time>
  <course>0.0</course>
  <speed>0.0</speed>
  <fix>3d</fix>
</trkpt>
<trkpt lat="-27.274439" lon="151.290064">
  <ele>343.0</ele>
  <time>2026-08-29T20:44:16Z</time>
  <course>225.02</course>
  <speed>0.7034202158027589</speed>
  <fix>3d</fix>
</trkpt>
<trkpt lat="-27.274439" lon="151.290064">
  <ele>343.0</ele>
  <time>2026-08-29T20:44:16Z</time>
  <course>0.0</course>
  <speed>0.0</speed>
  <fix>3d</fix>
</trkpt>
<trkpt lat="-27.274439" lon="151.290064">
  <ele>343.0</ele>
  <time>2026-08-29T20:44:16Z</time>
  <course>207.13</course>
  <speed>0.8052949770115296</speed>
  <fix>3d</fix>
</trkpt>
<trkpt lat="-27.274439" lon="151.290064">
  <ele>343.0</ele>
  <time>2026-08-29T20:44:16Z</time>
  <course>0.0</course>
  <speed>0.0</speed>
  <fix>3d</fix>
</trkpt>
<trkpt lat="-27.274439" lon="151.290064">
  <ele>343.0</ele>
  <time>2026-08-29T20:44:16Z</time>
  <course>197.95</course>
  <speed>0.8453401682163222</speed>
  <fix>3d</fix>
</trkpt>
<trkpt lat="-27.274439" lon="151.290064">
  <ele>343.0</ele>
  <time>2026-08-29T20:44:16Z</time>
  <course>0.0</course>
  <speed>0.0</speed>
  <fix>3d</fix>
</trkpt>
<trkpt lat="-27.274439" lon="151.290064">
  <ele>343.0</ele>
  <time>2026-08-29T20:44:16Z</time>
  <course>188.67</course>
  <speed>0.878179936004006</speed>
  <fix>3d</fix>
</trkpt>
<trkpt lat="-27.274439" lon="151.290064">
  <ele>343.0</ele>
  <time>2026-08-29T20:44:16Z</time>
  <course>0.0</course>
  <speed>0.0</speed>
  <fix>3d</fix>
</trkpt>
<trkpt lat="-27.274439" lon="151.290064">
  <ele>343.0</ele>
  <time>2026-08-29T20:44:16Z</time>
  <course>179.31</course>
  <speed>0.8848163651289458</speed>
  <fix>3d</fix>
</trkpt>
<trkpt lat="-27.274439" lon="151.290064">
  <ele>343.0</ele>
  <time>2026-08-29T20:44:16Z</time>
  <course>0.0</course>
  <speed>0.0</speed>
  <fix>3d</fix>
</trkpt>
<trkpt lat="-27.274439" lon="151.290064">
  <ele>343.0</ele>
  <time>2026-08-29T20:44:16Z</time>
  <course>169.93</course>
  <speed>0.9140021881811882</speed>
  <fix>3d</fix>
</trkpt>
<trkpt lat="-27.274439" lon="151.290064">
  <ele>343.0</ele>
  <time>2026-08-29T20:44:16Z</time>
  <course>0.0</course>
  <speed>0.0</speed>
  <fix>3d</fix>
</trkpt>
<trkpt lat="-27.274439" lon="151.290064">
  <ele>343.0</ele>
  <time>2026-08-29T20:44:16Z</time>
  <course>161.9</course>
  <speed>0.9219544457292888</speed>
  <fix>3d</fix>
</trkpt>
<trkpt lat="-27.274439" lon="151.290064">
  <ele>343.0</ele>
  <time>2026-08-29T20:44:16Z</time>
  <course>0.0</course>
  <speed>0.0</speed>
  <fix>3d</fix>
</trkpt>
<trkpt lat="-27.274439" lon="151.290064">
  <ele>343.0</ele>
  <time>2026-08-29T20:44:16Z</time>
  <course>158.55</course>
  <speed>0.9411163583744573</speed>
  <fix>3d</fix>
</trkpt>
<trkpt lat="-27.274439" lon="151.290064">
  <ele>343.0</ele>
  <time>2026-08-29T20:44:16Z</time>
  <course>0.0</course>
  <speed>0.0</speed>
  <fix>3d</fix>
</trkpt>
<trkpt lat="-27.274438" lon="151.2900657">
  <ele>342.99</ele>
  <time>2026-08-29T20:44:16Z</time>
  <course>158.26</course>
  <speed>0.9687620966986684</speed>
  <fix>3d</fix>
</trkpt>
<trkpt lat="-27.274438" lon="151.2900657">
  <ele>342.99</ele>
  <time>2026-08-29T20:44:16Z</time>
  <course>327.72</course>
  <speed>0.0</speed>
  <fix>3d</fix>
</trkpt>
<trkpt lat="-27.274438" lon="151.2900656">
  <ele>342.99</ele>
  <time>2026-08-29T20:44:16Z</time>
  <course>159.2</course>
  <speed>0.9859513172565875</speed>
  <fix>3d</fix>
</trkpt>
<trkpt lat="-27.274438" lon="151.2900656">
  <ele>342.99</ele>
  <time>2026-08-29T20:44:16Z</time>
  <course>327.07</course>
  <speed>0.0</speed>
  <fix>3d</fix>
</trkpt>
<trkpt lat="-27.2744379" lon="151.2900656">
  <ele>342.99</ele>
  <time>2026-08-29T20:44:16Z</time>
  <course>152.3</course>
  <speed>0.5521775076911409</speed>
  <fix>3d</fix>
</trkpt>
<trkpt lat="-27.2744378" lon="151.2900655">
  <ele>342.99</ele>
  <time>2026-08-29T20:44:16Z</time>
  <course>320.64</course>
  <speed>0.03</speed>
  <fix>3d</fix>
</trkpt>
<trkpt lat="-27.2744376" lon="151.2900653">
  <ele>342.99</ele>
  <time>2026-08-29T20:44:16Z</time>
  <course>144.37</course>
  <speed>0.24166091947189144</speed>
  <fix>3d</fix>
</trkpt>
<trkpt lat="-27.2744376" lon="151.2900653">
  <ele>342.99</ele>
  <time>2026-08-29T20:44:16Z</time>
  <course>311.62</course>
  <speed>0.03</speed>
  <fix>3d</fix>
</trkpt>
<trkpt lat="-27.2744375" lon="151.2900651">
  <ele>342.99</ele>
  <time>2026-08-29T20:44:16Z</time>
  <course>136.58</course>
  <speed>0.130384048104053</speed>
  <fix>3d</fix>
</trkpt>
<trkpt lat="-27.2744374" lon="151.290065">
  <ele>342.99</ele>
  <time>2026-08-29T20:44:16Z</time>
  <course>302.54</course>
  <speed>0.03</speed>
  <fix>3d</fix>
</trkpt>
<trkpt lat="-27.2744373" lon="151.2900648">
  <ele>342.99</ele>
  <time>2026-08-29T20:44:16Z</time>
  <course>128.82</course>
  <speed>0.11</speed>
  <fix>3d</fix>
</trkpt>
<trkpt lat="-27.2744373" lon="151.2900648">
  <ele>342.99</ele>
  <time>2026-08-29T20:44:16Z</time>
  <course>293.45</course>
  <speed>0.03</speed>
  <fix>3d</fix>
</trkpt>
<trkpt lat="-27.274439" lon="151.290064">
  <ele>343.0</ele>
  <time>2026-08-29T20:44:16Z</time>
  <course>325.88</course>
  <speed>0.0</speed>
  <fix>3d</fix>
</trkpt>
<trkpt lat="-27.274439" lon="151.290064">
  <ele>343.0</ele>
  <time>2026-08-29T20:44:16Z</time>
  <course>324.43</course>
  <speed>0.0</speed>
  <fix>3d</fix>
</trkpt>
<trkpt lat="-27.274439" lon="151.290064">
  <ele>343.0</ele>
  <time>2026-08-29T20:44:16Z</time>
  <course>321.86</course>
  <speed>0.0</speed>
  <fix>3d</fix>
</trkpt>
<trkpt lat="-27.274439" lon="151.290064">
  <ele>343.0</ele>
  <time>2026-08-29T20:44:16Z</time>
  <course>318.37</course>
  <speed>0.0</speed>
  <fix>3d</fix>
</trkpt>
<trkpt lat="-27.274439" lon="151.290064">
  <ele>343.0</ele>
  <time>2026-08-29T20:44:16Z</time>
  <course>314.12</course>
  <speed>0.0</speed>
  <fix>3d</fix>
</trkpt>
<trkpt lat="-27.274439" lon="151.290064">
  <ele>343.0</ele>
  <time>2026-08-29T20:44:16Z</time>
  <course>309.23</course>
  <speed>0.0</speed>
  <fix>3d</fix>
</trkpt>
<trkpt lat="-27.274439" lon="151.290064">
  <ele>343.0</ele>
  <time>2026-08-29T20:44:16Z</time>
  <course>303.85</course>
  <speed>0.0</speed>
  <fix>3d</fix>
</trkpt>
<trkpt lat="-27.274439" lon="151.290064">
  <ele>343.0</ele>
  <time>2026-08-29T20:44:16Z</time>
  <course>298.09</course>
  <speed>0.0</speed>
  <fix>3d</fix>
</trkpt>
<trkpt lat="-27.274439" lon="151.290064">
  <ele>343.0</ele>
  <time>2026-08-29T20:44:16Z</time>
  <course>292.03</course>
  <speed>0.0</speed>
  <fix>3d</fix>
</trkpt>
<trkpt lat="-27.2744407" lon="151.2900645">
  <ele>-0.14</ele>
  <time>2026-08-29T20:44:16Z</time>
  <course>285.91</course>
  <speed>0.03</speed>
  <fix>3d</fix>
</trkpt>
<trkpt lat="-27.2744407" lon="151.2900645">
  <ele>342.99</ele>
  <time>2026-08-29T20:44:16Z</time>
  <course>73.33</course>
  <speed>0.03</speed>
  <fix>3d</fix>
</trkpt>
<trkpt lat="-27.2744406" lon="151.2900648">
  <ele>-0.06</ele>
  <time>2026-08-29T20:44:16Z</time>
  <course>280.34</course>
  <speed>0.022360679774997897</speed>
  <fix>3d</fix>
</trkpt>
<trkpt lat="-27.2744405" lon="151.2900649">
  <ele>342.99</ele>
  <time>2026-08-29T20:44:16Z</time>
  <course>62.5</course>
  <speed>0.03</speed>
  <fix>3d</fix>
</trkpt>
<trkpt lat="-27.2744404" lon="151.2900651">
  <ele>342.99</ele>
  <time>2026-08-29T20:44:16Z</time>
  <course>0.0</course>
  <speed>0.2640075756488817</speed>
  <fix>3d</fix>
</trkpt>
<trkpt lat="-27.2744404" lon="151.2900651">
  <ele>342.99</ele>
  <time>2026-08-29T20:44:16Z</time>
  <course>55.27</course>
  <speed>0.03</speed>
  <fix>3d</fix>
</trkpt>
<trkpt lat="-27.2744402" lon="151.2900653">
  <ele>342.99</ele>
  <time>2026-08-29T20:44:16Z</time>
  <course>230.64</course>
  <speed>0.3138470965295043</speed>
  <fix>3d</fix>
</trkpt>
<trkpt lat="-27.2744402" lon="151.2900654">
  <ele>342.99</ele>
  <time>2026-08-29T20:44:16Z</time>
  <course>44.41</course>
  <speed>0.03</speed>
  <fix>3d</fix>
</trkpt>
<trkpt lat="-27.27444" lon="151.2900656">
  <ele>342.99</ele>
  <time>2026-08-29T20:44:16Z</time>
  <course>226.13</course>
  <speed>0.7647875521999558</speed>
  <fix>3d</fix>
</trkpt>
<trkpt lat="-27.27444" lon="151.2900656">
  <ele>342.99</ele>
  <time>2026-08-29T20:44:16Z</time>
  <course>37.16</course>
  <speed>0.03</speed>
  <fix>3d</fix>
</trkpt>
<trkpt lat="-27.2744398" lon="151.2900657">
  <ele>342.99</ele>
  <time>2026-08-29T20:44:16Z</time>
  <course>215.84</course>
  <speed>1.4937536610833797</speed>
  <fix>3d</fix>
</trkpt>
<trkpt lat="-27.2744397" lon="151.2900658">
  <ele>342.99</ele>
  <time>2026-08-29T20:44:16Z</time>
  <course>26.26</course>
  <speed>0.03</speed>
  <fix>3d</fix>
</trkpt>
<trkpt lat="-27.2744395" lon="151.2900659">
  <ele>342.99</ele>
  <time>2026-08-29T20:44:16Z</time>
  <course>202.56</course>
  <speed>2.4738633753705965</speed>
  <fix>3d</fix>
</trkpt>
<trkpt lat="-27.2744395" lon="151.2900659">
  <ele>342.99</ele>
  <time>2026-08-29T20:44:16Z</time>
  <course>18.98</course>
  <speed>0.03</speed>
  <fix>3d</fix>
</trkpt>
<trkpt lat="-27.2744393" lon="151.2900659">
  <ele>342.99</ele>
  <time>2026-08-29T20:44:16Z</time>
  <course>190.96</course>
  <speed>3.3148906467634793</speed>
  <fix>3d</fix>
</trkpt>
<trkpt lat="-27.2744392" lon="151.290066">
  <ele>342.99</ele>
  <time>2026-08-29T20:44:16Z</time>
  <course>8.04</course>
  <speed>0.03</speed>
  <fix>3d</fix>
</trkpt>
<trkpt lat="-27.274439" lon="151.290066">
  <ele>342.99</ele>
  <time>2026-08-29T20:44:16Z</time>
  <course>180.01</course>
  <speed>3.4461137532008426</speed>
  <fix>3d</fix>
</trkpt>
<trkpt lat="-27.274439" lon="151.290066">
  <ele>342.99</ele>
  <time>2026-08-29T20:44:16Z</time>
  <course>0.72</course>
  <speed>0.03</speed>
  <fix>3d</fix>
</trkpt>
<trkpt lat="-27.2744387" lon="151.290066">
  <ele>342.99</ele>
  <time>2026-08-29T20:44:16Z</time>
  <course>170.21</course>
  <speed>2.820815484926301</speed>
  <fix>3d</fix>
</trkpt>
<trkpt lat="-27.2744386" lon="151.2900659">
  <ele>342.99</ele>
  <time>2026-08-29T20:44:16Z</time>
  <course>349.73</course>
  <speed>0.03</speed>
  <fix>3d</fix>
</trkpt>
<trkpt lat="-27.2744384" lon="151.2900659">
  <ele>342.99</ele>
  <time>2026-08-29T20:44:16Z</time>
  <course>160.69</course>
  <speed>1.9504102132628407</speed>
  <fix>3d</fix>
</trkpt>
<trkpt lat="-27.2744384" lon="151.2900659">
  <ele>342.99</ele>
  <time>2026-08-29T20:44:16Z</time>
  <course>342.39</course>
  <speed>0.03</speed>
  <fix>3d</fix>
</trkpt>
<trkpt lat="-27.2744382" lon="151.2900658">
  <ele>342.99</ele>
  <time>2026-08-29T20:44:16Z</time>
  <course>152.95</course>
  <speed>1.2360016181219182</speed>
  <fix>3d</fix>
</trkpt>
<trkpt lat="-27.2744382" lon="151.2900658">
  <ele>342.99</ele>
  <time>2026-08-29T20:44:16Z</time>
  <course>333.77</course>
  <speed>0.02</speed>
  <fix>3d</fix>
</trkpt>
<trkpt lat="-27.274438" lon="151.2900657">
  <ele>342.99</ele>
  <time>2026-08-29T20:44:16Z</time>
  <course>149.77</course>
  <speed>0.7636753236814714</speed>
  <fix>3d</fix>
</trkpt>
<trkpt lat="-27.274438" lon="151.2900657">
  <ele>342.99</ele>
  <time>2026-08-29T20:44:16Z</time>
  <course>329.51</course>
  <speed>0.0</speed>
  <fix>3d</fix>
</trkpt>
<trkpt lat="-27.274438" lon="151.2900657">
  <ele>342.99</ele>
  <time>2026-08-29T20:44:16Z</time>
  <course>148.35</course>
  <speed>0.5682429058070149</speed>
  <fix>3d</fix>
</trkpt>
<trkpt lat="-27.274438" lon="151.2900657">
  <ele>342.99</ele>
  <time>2026-08-29T20:44:16Z</time>
  <course>327.82</course>
  <speed>0.0</speed>
  <fix>3d</fix>
</trkpt>
<trkpt lat="-27.274438" lon="151.2900656">
  <ele>342.99</ele>
  <time>2026-08-29T20:44:16Z</time>
  <course>147.61</course>
  <speed>0.5756735185849702</speed>
  <fix>3d</fix>
</trkpt>
<trkpt lat="-27.274438" lon="151.2900656">
  <ele>342.99</ele>
  <time>2026-08-29T20:44:16Z</time>
  <course>327.12</course>
  <speed>0.0</speed>
  <fix>3d</fix>
</trkpt>
<trkpt lat="-27.274438" lon="151.2900656">
  <ele>342.99</ele>
  <time>2026-08-29T20:44:16Z</time>
  <course>147.24</course>
  <speed>0.5608921464952064</speed>
  <fix>3d</fix>
</trkpt>
<trkpt lat="-27.274438" lon="151.2900656">
  <ele>342.99</ele>
  <time>2026-08-29T20:44:16Z</time>
  <course>326.81</course>
  <speed>0.0</speed>
  <fix>3d</fix>
</trkpt>
<trkpt lat="-27.274438" lon="151.2900656">
  <ele>342.99</ele>
  <time>2026-08-29T20:44:16Z</time>
  <course>146.99</course>
  <speed>0.5277309920783505</speed>
  <fix>3d</fix>
</trkpt>
<trkpt lat="-27.274438" lon="151.2900656">
  <ele>342.99</ele>
  <time>2026-08-29T20:44:16Z</time>
  <course>326.68</course>
  <speed>0.0</speed>
  <fix>3d</fix>
</trkpt>
<trkpt lat="-27.274438" lon="151.2900656">
  <ele>342.99</ele>
  <time>2026-08-29T20:44:16Z</time>
  <course>146.86</course>
  <speed>0.4219004621945798</speed>
  <fix>3d</fix>
</trkpt>
<trkpt lat="-27.274438" lon="151.2900656">
  <ele>342.99</ele>
  <time>2026-08-29T20:44:16Z</time>
  <course>326.62</course>
  <speed>0.0</speed>
  <fix>3d</fix>
</trkpt>
<trkpt lat="-27.274438" lon="151.2900656">
  <ele>342.99</ele>
  <time>2026-08-29T20:44:16Z</time>
  <course>146.78</course>
  <speed>0.3014962686336267</speed>
  <fix>3d</fix>
</trkpt>
<trkpt lat="-27.274438" lon="151.2900656">
  <ele>342.99</ele>
  <time>2026-08-29T20:44:16Z</time>
  <course>326.59</course>
  <speed>0.0</speed>
  <fix>3d</fix>
</trkpt>
<trkpt lat="-27.274438" lon="151.2900656">
  <ele>343.0</ele>
  <time>2026-08-29T20:44:16Z</time>
  <course>146.73</course>
  <speed>0.20124611797498107</speed>
  <fix>3d</fix>
</trkpt>
<trkpt lat="-27.274438" lon="151.2900656">
  <ele>343.0</ele>
  <time>2026-08-29T20:44:16Z</time>
  <course>326.58</course>
  <speed>0.0</speed>
  <fix>3d</fix>
</trkpt>
<trkpt lat="-27.274438" lon="151.2900656">
  <ele>343.0</ele>
  <time>2026-08-29T20:44:17Z</time>
  <course>146.69</course>
  <speed>0.16552945357246848</speed>
  <fix>3d</fix>
</trkpt>
<trkpt lat="-27.274438" lon="151.2900656">
  <ele>343.0</ele>
  <time>2026-08-29T20:44:17Z</time>
  <course>326.58</course>
  <speed>0.0</speed>
  <fix>3d</fix>
</trkpt>
<trkpt lat="-27.274438" lon="151.2900656">
  <ele>343.0</ele>
  <time>2026-08-29T20:44:17Z</time>
  <course>146.67</course>
  <speed>0.2009975124224178</speed>
  <fix>3d</fix>
</trkpt>
<trkpt lat="-27.274438" lon="151.2900656">
  <ele>343.0</ele>
  <time>2026-08-29T20:44:17Z</time>
  <course>326.58</course>
  <speed>0.0</speed>
  <fix>3d</fix>
</trkpt>
<trkpt lat="-27.274438" lon="151.2900656">
  <ele>343.0</ele>
  <time>2026-08-29T20:44:17Z</time>
  <course>146.65</course>
  <speed>0.26</speed>
  <fix>3d</fix>
</trkpt>
<trkpt lat="-27.274438" lon="151.2900656">
  <ele>343.0</ele>
  <time>2026-08-29T20:44:17Z</time>
  <course>326.58</course>
  <speed>0.0</speed>
  <fix>3d</fix>
</trkpt>
<trkpt lat="-27.274438" lon="151.2900656">
  <ele>343.0</ele>
  <time>2026-08-29T20:44:17Z</time>
  <course>146.63</course>
  <speed>0.2968164415931166</speed>
  <fix>3d</fix>
</trkpt>
<trkpt lat="-27.274438" lon="151.2900656">
  <ele>343.0</ele>
  <time>2026-08-29T20:44:17Z</time>
  <course>326.58</course>
  <speed>0.0</speed>
  <fix>3d</fix>
</trkpt>
<trkpt lat="-27.274438" lon="151.2900656">
  <ele>343.0</ele>
  <time>2026-08-29T20:44:17Z</time>
  <course>146.64</course>
  <speed>0.35805027579936316</speed>
  <fix>3d</fix>
</trkpt>
<trkpt lat="-27.274438" lon="151.2900656">
  <ele>343.0</ele>
  <time>2026-08-29T20:44:17Z</time>
  <course>326.58</course>
  <speed>0.0</speed>
  <fix>3d</fix>
</trkpt>
<trkpt lat="-27.274438" lon="151.2900656">
  <ele>343.0</ele>
  <time>2026-08-29T20:44:17Z</time>
  <course>146.63</course>
  <speed>0.3687817782917155</speed>
  <fix>3d</fix>
</trkpt>
<trkpt lat="-27.274438" lon="151.2900656">
  <ele>343.0</ele>
  <time>2026-08-29T20:44:17Z</time>
  <course>326.58</course>
  <speed>0.0</speed>
  <fix>3d</fix>
</trkpt>
<trkpt lat="-27.2744386" lon="151.2900636">
  <ele>342.9</ele>
  <time>2026-08-29T20:44:17Z</time>
  <course>146.64</course>
  <speed>0.07280109889280519</speed>
  <fix>3d</fix>
</trkpt>
<trkpt lat="-27.274438" lon="151.2900656">
  <ele>343.0</ele>
  <time>2026-08-29T20:44:17Z</time>
  <course>326.58</course>
  <speed>0.0</speed>
  <fix>3d</fix>
</trkpt>
<trkpt lat="-27.2744388" lon="151.2900634">
  <ele>342.88</ele>
  <time>2026-08-29T20:44:17Z</time>
  <course>146.64</course>
  <speed>0.0824621125123532</speed>
  <fix>3d</fix>
</trkpt>
<trkpt lat="-27.274438" lon="151.2900656">
  <ele>343.0</ele>
  <time>2026-08-29T20:44:17Z</time>
  <course>326.58</course>
  <speed>0.0</speed>
  <fix>3d</fix>
</trkpt>
<trkpt lat="-27.2744387" lon="151.2900635">
  <ele>342.86</ele>
  <time>2026-08-29T20:44:17Z</time>
  <course>146.64</course>
  <speed>0.04</speed>
  <fix>3d</fix>
</trkpt>
<trkpt lat="-27.274438" lon="151.2900656">
  <ele>343.0</ele>
  <time>2026-08-29T20:44:17Z</time>
  <course>326.58</course>
  <speed>0.0</speed>
  <fix>3d</fix>
</trkpt>
<trkpt lat="-27.2744387" lon="151.2900637">
  <ele>342.87</ele>
  <time>2026-08-29T20:44:17Z</time>
  <course>146.63</course>
  <speed>0.02</speed>
  <fix>3d</fix>
</trkpt>
<trkpt lat="-27.274438" lon="151.2900656">
  <ele>343.0</ele>
  <time>2026-08-29T20:44:17Z</time>
  <course>326.58</course>
  <speed>0.0</speed>
  <fix>3d</fix>
</trkpt>
<trkpt lat="-27.2744386" lon="151.2900642">
  <ele>342.88</ele>
  <time>2026-08-29T20:44:17Z</time>
  <course>146.39</course>
  <speed>0.0</speed>
  <fix>3d</fix>
</trkpt>
<trkpt lat="-27.274439" lon="151.290064">
  <ele>343.0</ele>
  <time>2026-08-29T20:44:17Z</time>
  <course>0.0</course>
  <speed>0.0</speed>
  <fix>3d</fix>
</trkpt>
<trkpt lat="-27.2744388" lon="151.2900641">
  <ele>342.89</ele>
  <time>2026-08-29T20:44:17Z</time>
  <course>146.41</course>
  <speed>0.0</speed>
  <fix>3d</fix>
</trkpt>
<trkpt lat="-27.274439" lon="151.290064">
  <ele>343.0</ele>
  <time>2026-08-29T20:44:17Z</time>
  <course>0.0</course>
  <speed>0.0</speed>
  <fix>3d</fix>
</trkpt>
<trkpt lat="-27.2744389" lon="151.2900641">
  <ele>342.98</ele>
  <time>2026-08-29T20:44:17Z</time>
  <course>138.52</course>
  <speed>0.0</speed>
  <fix>3d</fix>
</trkpt>
<trkpt lat="-27.274439" lon="151.290064">
  <ele>343.0</ele>
  <time>2026-08-29T20:44:17Z</time>
  <course>0.0</course>
  <speed>0.0</speed>
  <fix>3d</fix>
</trkpt>
<trkpt lat="-27.274439" lon="151.2900641">
  <ele>342.9</ele>
  <time>2026-08-29T20:44:17Z</time>
  <course>129.46</course>
  <speed>0.0</speed>
  <fix>3d</fix>
</trkpt>
<trkpt lat="-27.274439" lon="151.290064">
  <ele>343.0</ele>
  <time>2026-08-29T20:44:17Z</time>
  <course>0.0</course>
  <speed>0.0</speed>
  <fix>3d</fix>
</trkpt>
<trkpt lat="-27.274439" lon="151.290064">
  <ele>342.86</ele>
  <time>2026-08-29T20:44:17Z</time>
  <course>120.4</course>
  <speed>0.01</speed>
  <fix>3d</fix>
</trkpt>
<trkpt lat="-27.274439" lon="151.290064">
  <ele>343.0</ele>
  <time>2026-08-29T20:44:17Z</time>
  <course>0.0</course>
  <speed>0.0</speed>
  <fix>3d</fix>
</trkpt>
<trkpt lat="-27.274439" lon="151.2900639">
  <ele>342.84</ele>
  <time>2026-08-29T20:44:17Z</time>
  <course>111.36</course>
  <speed>0.022360679774997897</speed>
  <fix>3d</fix>
</trkpt>
<trkpt lat="-27.274439" lon="151.290064">
  <ele>343.0</ele>
  <time>2026-08-29T20:44:17Z</time>
  <course>0.0</course>
  <speed>0.0</speed>
  <fix>3d</fix>
</trkpt>
<trkpt lat="-27.2744381" lon="151.2900657">
  <ele>342.99</ele>
  <time>2026-08-29T20:44:17Z</time>
  <course>325.88</course>
  <speed>0.0</speed>
  <fix>3d</fix>
</trkpt>
<trkpt lat="-27.2744381" lon="151.2900657">
  <ele>342.99</ele>
  <time>2026-08-29T20:44:17Z</time>
  <course>324.43</course>
  <speed>0.0</speed>
  <fix>3d</fix>
</trkpt>
<trkpt lat="-27.2744381" lon="151.2900657">
  <ele>342.99</ele>
  <time>2026-08-29T20:44:17Z</time>
  <course>321.86</course>
  <speed>0.0</speed>
  <fix>3d</fix>
</trkpt>
<trkpt lat="-27.2744381" lon="151.2900657">
  <ele>342.99</ele>
  <time>2026-08-29T20:44:17Z</time>
  <course>295.0</course>
  <speed>0.0</speed>
  <fix>3d</fix>
</trkpt>
<trkpt lat="-27.2744381" lon="151.2900657">
  <ele>342.99</ele>
  <time>2026-08-29T20:44:17Z</time>
  <course>290.72</course>
  <speed>0.0</speed>
  <fix>3d</fix>
</trkpt>
<trkpt lat="-27.2744381" lon="151.2900657">
  <ele>342.99</ele>
  <time>2026-08-29T20:44:17Z</time>
  <course>284.84</course>
  <speed>0.0</speed>
  <fix>3d</fix>
</trkpt>
<trkpt lat="-27.2744381" lon="151.2900657">
  <ele>342.99</ele>
  <time>2026-08-29T20:44:17Z</time>
  <course>277.79</course>
  <speed>0.0</speed>
  <fix>3d</fix>
</trkpt>
<trkpt lat="-27.2744381" lon="151.2900657">
  <ele>342.99</ele>
  <time>2026-08-29T20:44:17Z</time>
  <course>269.55</course>
  <speed>0.0</speed>
  <fix>3d</fix>
</trkpt>
<trkpt lat="-27.274439" lon="151.290064">
  <ele>343.0</ele>
  <time>2026-08-29T20:44:17Z</time>
  <course>262.16</course>
  <speed>0.9176055797563569</speed>
  <fix>3d</fix>
</trkpt>
<trkpt lat="-27.274439" lon="151.290064">
  <ele>343.0</ele>
  <time>2026-08-29T20:44:17Z</time>
  <course>0.0</course>
  <speed>0.0</speed>
  <fix>3d</fix>
</trkpt>
<trkpt lat="-27.274439" lon="151.290064">
  <ele>343.0</ele>
  <time>2026-08-29T20:44:17Z</time>
  <course>256.4</course>
  <speed>0.9403190947758107</speed>
  <fix>3d</fix>
</trkpt>
<trkpt lat="-27.274439" lon="151.290064">
  <ele>343.0</ele>
  <time>2026-08-29T20:44:17Z</time>
  <course>0.0</course>
  <speed>0.0</speed>
  <fix>3d</fix>
</trkpt>
<trkpt lat="-27.274439" lon="151.290064">
  <ele>343.0</ele>
  <time>2026-08-29T20:44:17Z</time>
  <course>249.45</course>
  <speed>0.756042326857432</speed>
  <fix>3d</fix>
</trkpt>
<trkpt lat="-27.274439" lon="151.290064">
  <ele>343.0</ele>
  <time>2026-08-29T20:44:17Z</time>
  <course>0.0</course>
  <speed>0.0</speed>
  <fix>3d</fix>
</trkpt>
<trkpt lat="-27.274439" lon="151.290064">
  <ele>343.0</ele>
  <time>2026-08-29T20:44:17Z</time>
  <course>241.79</course>
  <speed>0.6596969000988256</speed>
  <fix>3d</fix>
</trkpt>
<trkpt lat="-27.274439" lon="151.290064">
  <ele>343.0</ele>
  <time>2026-08-29T20:44:17Z</time>
  <course>0.0</course>
  <speed>0.0</speed>
  <fix>3d</fix>
</trkpt>
<trkpt lat="-27.274439" lon="151.290064">
  <ele>343.0</ele>
  <time>2026-08-29T20:44:17Z</time>
  <course>233.59</course>
  <speed>0.6618912297349165</speed>
  <fix>3d</fix>
</trkpt>
<trkpt lat="-27.274439" lon="151.290064">
  <ele>343.0</ele>
  <time>2026-08-29T20:44:17Z</time>
  <course>0.0</course>
  <speed>0.0</speed>
  <fix>3d</fix>
</trkpt>
<trkpt lat="-27.274439" lon="151.290064">
  <ele>343.0</ele>
  <time>2026-08-29T20:44:17Z</time>
  <course>225.02</course>
  <speed>0.7034202158027589</speed>
  <fix>3d</fix>
</trkpt>
<trkpt lat="-27.274439" lon="151.290064">
  <ele>343.0</ele>
  <time>2026-08-29T20:44:17Z</time>
  <course>0.0</course>
  <speed>0.0</speed>
  <fix>3d</fix>
</trkpt>
<trkpt lat="-27.274439" lon="151.290064">
  <ele>343.0</ele>
  <time>2026-08-29T20:44:17Z</time>
  <course>207.13</course>
  <speed>0.8052949770115296</speed>
  <fix>3d</fix>
</trkpt>
<trkpt lat="-27.274439" lon="151.290064">
  <ele>343.0</ele>
  <time>2026-08-29T20:44:17Z</time>
  <course>0.0</course>
  <speed>0.0</speed>
  <fix>3d</fix>
</trkpt>
<trkpt lat="-27.274439" lon="151.290064">
  <ele>343.0</ele>
  <time>2026-08-29T20:44:17Z</time>
  <course>197.95</course>
  <speed>0.8453401682163222</speed>
  <fix>3d</fix>
</trkpt>
<trkpt lat="-27.274439" lon="151.290064">
  <ele>343.0</ele>
  <time>2026-08-29T20:44:17Z</time>
  <course>0.0</course>
  <speed>0.0</speed>
  <fix>3d</fix>
</trkpt>
<trkpt lat="-27.274439" lon="151.290064">
  <ele>343.0</ele>
  <time>2026-08-29T20:44:17Z</time>
  <course>188.67</course>
  <speed>0.878179936004006</speed>
  <fix>3d</fix>
</trkpt>
<trkpt lat="-27.274439" lon="151.290064">
  <ele>343.0</ele>
  <time>2026-08-29T20:44:17Z</time>
  <course>0.0</course>
  <speed>0.0</speed>
  <fix>3d</fix>
</trkpt>
<trkpt lat="-27.274439" lon="151.290064">
  <ele>343.0</ele>
  <time>2026-08-29T20:44:17Z</time>
  <course>179.31</course>
  <speed>0.8848163651289458</speed>
  <fix>3d</fix>
</trkpt>
<trkpt lat="-27.274439" lon="151.290064">
  <ele>343.0</ele>
  <time>2026-08-29T20:44:17Z</time>
  <course>0.0</course>
  <speed>0.0</speed>
  <fix>3d</fix>
</trkpt>
<trkpt lat="-27.274439" lon="151.290064">
  <ele>343.0</ele>
  <time>2026-08-29T20:44:17Z</time>
  <course>169.93</course>
  <speed>0.9140021881811882</speed>
  <fix>3d</fix>
</trkpt>
<trkpt lat="-27.274439" lon="151.290064">
  <ele>343.0</ele>
  <time>2026-08-29T20:44:17Z</time>
  <course>0.0</course>
  <speed>0.0</speed>
  <fix>3d</fix>
</trkpt>
<trkpt lat="-27.274439" lon="151.290064">
  <ele>343.0</ele>
  <time>2026-08-29T20:44:17Z</time>
  <course>161.9</course>
  <speed>0.9219544457292888</speed>
  <fix>3d</fix>
</trkpt>
<trkpt lat="-27.274439" lon="151.290064">
  <ele>343.0</ele>
  <time>2026-08-29T20:44:17Z</time>
  <course>0.0</course>
  <speed>0.0</speed>
  <fix>3d</fix>
</trkpt>
<trkpt lat="-27.274439" lon="151.290064">
  <ele>343.0</ele>
  <time>2026-08-29T20:44:17Z</time>
  <course>158.55</course>
  <speed>0.9411163583744573</speed>
  <fix>3d</fix>
</trkpt>
<trkpt lat="-27.274439" lon="151.290064">
  <ele>343.0</ele>
  <time>2026-08-29T20:44:17Z</time>
  <course>0.0</course>
  <speed>0.0</speed>
  <fix>3d</fix>
</trkpt>
<trkpt lat="-27.274439" lon="151.290064">
  <ele>343.0</ele>
  <time>2026-08-29T20:44:17Z</time>
  <course>157.2</course>
  <speed>0.9546203433826455</speed>
  <fix>3d</fix>
</trkpt>
<trkpt lat="-27.274439" lon="151.290064">
  <ele>343.0</ele>
  <time>2026-08-29T20:44:17Z</time>
  <course>0.0</course>
  <speed>0.0</speed>
  <fix>3d</fix>
</trkpt>
<trkpt lat="-27.274439" lon="151.290064">
  <ele>343.0</ele>
  <time>2026-08-29T20:44:17Z</time>
  <course>156.57</course>
  <speed>0.9642613753542137</speed>
  <fix>3d</fix>
</trkpt>
<trkpt lat="-27.274439" lon="151.290064">
  <ele>343.0</ele>
  <time>2026-08-29T20:44:17Z</time>
  <course>0.0</course>
  <speed>0.0</speed>
  <fix>3d</fix>
</trkpt>
<trkpt lat="-27.274439" lon="151.290064">
  <ele>343.0</ele>
  <time>2026-08-29T20:44:17Z</time>
  <course>156.21</course>
  <speed>0.9602083107326242</speed>
  <fix>3d</fix>
</trkpt>
<trkpt lat="-27.274439" lon="151.290064">
  <ele>343.0</ele>
  <time>2026-08-29T20:44:17Z</time>
  <course>0.0</course>
  <speed>0.0</speed>
  <fix>3d</fix>
</trkpt>
<trkpt lat="-27.274439" lon="151.290064">
  <ele>343.0</ele>
  <time>2026-08-29T20:44:17Z</time>
  <course>155.95</course>
  <speed>0.9689685237405805</speed>
  <fix>3d</fix>
</trkpt>
<trkpt lat="-27.274439" lon="151.290064">
  <ele>343.0</ele>
  <time>2026-08-29T20:44:17Z</time>
  <course>0.0</course>
  <speed>0.0</speed>
  <fix>3d</fix>
</trkpt>
<trkpt lat="-27.274439" lon="151.290064">
  <ele>343.0</ele>
  <time>2026-08-29T20:44:17Z</time>
  <course>155.71</course>
  <speed>0.9800510190801294</speed>
  <fix>3d</fix>
</trkpt>
<trkpt lat="-27.274439" lon="151.290064">
  <ele>343.0</ele>
  <time>2026-08-29T20:44:17Z</time>
  <course>0.0</course>
  <speed>0.0</speed>
  <fix>3d</fix>
</trkpt>
<trkpt lat="-27.274439" lon="151.290064">
  <ele>343.0</ele>
  <time>2026-08-29T20:44:17Z</time>
  <course>155.49</course>
  <speed>0.9972963451251589</speed>
  <fix>3d</fix>
</trkpt>
<trkpt lat="-27.274439" lon="151.290064">
  <ele>343.0</ele>
  <time>2026-08-29T20:44:17Z</time>
  <course>0.0</course>
  <speed>0.0</speed>
  <fix>3d</fix>
</trkpt>
<trkpt lat="-27.274439" lon="151.290064">
  <ele>343.0</ele>
  <time>2026-08-29T20:44:17Z</time>
  <course>155.27</course>
  <speed>1.0113357503816425</speed>
  <fix>3d</fix>
</trkpt>
<trkpt lat="-27.274439" lon="151.290064">
  <ele>343.0</ele>
  <time>2026-08-29T20:44:17Z</time>
  <course>0.0</course>
  <speed>0.0</speed>
  <fix>3d</fix>
</trkpt>
<trkpt lat="-27.274439" lon="151.290064">
  <ele>343.0</ele>
  <time>2026-08-29T20:44:17Z</time>
  <course>155.07</course>
  <speed>1.010198000393982</speed>
  <fix>3d</fix>
</trkpt>
<trkpt lat="-27.274439" lon="151.290064">
  <ele>343.0</ele>
  <time>2026-08-29T20:44:17Z</time>
  <course>0.0</course>
  <speed>0.0</speed>
  <fix>3d</fix>
</trkpt>
<trkpt lat="-27.274439" lon="151.290064">
  <ele>343.0</ele>
  <time>2026-08-29T20:44:17Z</time>
  <course>154.88</course>
  <speed>0.9962429422585637</speed>
  <fix>3d</fix>
</trkpt>
<trkpt lat="-27.274439" lon="151.290064">
  <ele>343.0</ele>
  <time>2026-08-29T20:44:17Z</time>
  <course>0.0</course>
  <speed>0.0</speed>
  <fix>3d</fix>
</trkpt>
<trkpt lat="-27.274439" lon="151.290064">
  <ele>343.0</ele>
  <time>2026-08-29T20:44:17Z</time>
  <course>154.68</course>
  <speed>0.9751410154434076</speed>
  <fix>3d</fix>
</trkpt>
<trkpt lat="-27.274439" lon="151.290064">
  <ele>343.0</ele>
  <time>2026-08-29T20:44:17Z</time>
  <course>0.0</course>
  <speed>0.0</speed>
  <fix>3d</fix>
</trkpt>
<trkpt lat="-27.274439" lon="151.290064">
  <ele>343.0</ele>
  <time>2026-08-29T20:44:17Z</time>
  <course>154.49</course>
  <speed>0.951892851112981</speed>
  <fix>3d</fix>
</trkpt>
<trkpt lat="-27.274439" lon="151.290064">
  <ele>343.0</ele>
  <time>2026-08-29T20:44:17Z</time>
  <course>0.0</course>
  <speed>0.0</speed>
  <fix>3d</fix>
</trkpt>
<trkpt lat="-27.274439" lon="151.290064">
  <ele>343.0</ele>
  <time>2026-08-29T20:44:17Z</time>
  <course>154.29</course>
  <speed>0.9243916918709297</speed>
  <fix>3d</fix>
</trkpt>
<trkpt lat="-27.274439" lon="151.290064">
  <ele>343.0</ele>
  <time>2026-08-29T20:44:17Z</time>
  <course>0.0</course>
  <speed>0.0</speed>
  <fix>3d</fix>
</trkpt>
<trkpt lat="-27.274439" lon="151.290064">
  <ele>343.0</ele>
  <time>2026-08-29T20:44:17Z</time>
  <course>154.09</course>
  <speed>0.8900561780022652</speed>
  <fix>3d</fix>
</trkpt>
<trkpt lat="-27.274439" lon="151.290064">
  <ele>343.0</ele>
  <time>2026-08-29T20:44:17Z</time>
  <course>0.0</course>
  <speed>0.0</speed>
  <fix>3d</fix>
</trkpt>
<trkpt lat="-27.274439" lon="151.290064">
  <ele>343.0</ele>
  <time>2026-08-29T20:44:17Z</time>
  <course>153.88</course>
  <speed>0.8514693182963201</speed>
  <fix>3d</fix>
</trkpt>
<trkpt lat="-27.274439" lon="151.290064">
  <ele>343.0</ele>
  <time>2026-08-29T20:44:17Z</time>
  <course>0.0</course>
  <speed>0.0</speed>
  <fix>3d</fix>
</trkpt>
<trkpt lat="-27.274439" lon="151.290064">
  <ele>343.0</ele>
  <time>2026-08-29T20:44:17Z</time>
  <course>145.67</course>
  <speed>0.3764306044943742</speed>
  <fix>3d</fix>
</trkpt>
<trkpt lat="-27.274439" lon="151.290064">
  <ele>343.0</ele>
  <time>2026-08-29T20:44:17Z</time>
  <course>0.0</course>
  <speed>0.0</speed>
  <fix>3d</fix>
</trkpt>
<trkpt lat="-27.274439" lon="151.290064">
  <ele>343.0</ele>
  <time>2026-08-29T20:44:17Z</time>
  <course>136.2</course>
  <speed>0.17029386365926402</speed>
  <fix>3d</fix>
</trkpt>
<trkpt lat="-27.274439" lon="151.290064">
  <ele>343.0</ele>
  <time>2026-08-29T20:44:17Z</time>
  <course>0.0</course>
  <speed>0.0</speed>
  <fix>3d</fix>
</trkpt>
<trkpt lat="-27.274439" lon="151.290064">
  <ele>343.0</ele>
  <time>2026-08-29T20:44:17Z</time>
  <course>126.79</course>
  <speed>0.12165525060596438</speed>
  <fix>3d</fix>
</trkpt>
<trkpt lat="-27.274439" lon="151.290064">
  <ele>343.0</ele>
  <time>2026-08-29T20:44:17Z</time>
  <course>0.0</course>
  <speed>0.0</speed>
  <fix>3d</fix>
</trkpt>
<trkpt lat="-27.274439" lon="151.2900643">
  <ele>343.09</ele>
  <time>2026-08-29T20:44:18Z</time>
  <course>117.42</course>
  <speed>0.01</speed>
  <fix>3d</fix>
</trkpt>
<trkpt lat="-27.274439" lon="151.290064">
  <ele>343.0</ele>
  <time>2026-08-29T20:44:18Z</time>
  <course>0.0</course>
  <speed>0.0</speed>
  <fix>3d</fix>
</trkpt>
<trkpt lat="-27.274439" lon="151.290064">
  <ele>343.0</ele>
  <time>2026-08-29T20:44:18Z</time>
  <course>325.88</course>
  <speed>0.0</speed>
  <fix>3d</fix>
</trkpt>
<trkpt lat="-27.274439" lon="151.290064">
  <ele>343.0</ele>
  <time>2026-08-29T20:44:18Z</time>
  <course>324.43</course>
  <speed>0.0</speed>
  <fix>3d</fix>
</trkpt>
<trkpt lat="-27.274439" lon="151.290064">
  <ele>343.0</ele>
  <time>2026-08-29T20:44:18Z</time>
  <course>321.86</course>
  <speed>0.0</speed>
  <fix>3d</fix>
</trkpt>
<trkpt lat="-27.274439" lon="151.290064">
  <ele>343.0</ele>
  <time>2026-08-29T20:44:18Z</time>
  <course>295.0</course>
  <speed>0.0</speed>
  <fix>3d</fix>
</trkpt>
<trkpt lat="-27.274439" lon="151.290064">
  <ele>343.0</ele>
  <time>2026-08-29T20:44:18Z</time>
  <course>290.72</course>
  <speed>0.0</speed>
  <fix>3d</fix>
</trkpt>
<trkpt lat="-27.274439" lon="151.290064">
  <ele>343.0</ele>
  <time>2026-08-29T20:44:18Z</time>
  <course>284.84</course>
  <speed>0.0</speed>
  <fix>3d</fix>
</trkpt>
<trkpt lat="-27.274439" lon="151.290064">
  <ele>343.0</ele>
  <time>2026-08-29T20:44:18Z</time>
  <course>277.79</course>
  <speed>0.0</speed>
  <fix>3d</fix>
</trkpt>
<trkpt lat="-27.274439" lon="151.290064">
  <ele>343.0</ele>
  <time>2026-08-29T20:44:18Z</time>
  <course>269.55</course>
  <speed>0.0</speed>
  <fix>3d</fix>
</trkpt>
<trkpt lat="-27.274439" lon="151.290064">
  <ele>343.0</ele>
  <time>2026-08-29T20:44:18Z</time>
  <course>262.16</course>
  <speed>0.9176055797563569</speed>
  <fix>3d</fix>
</trkpt>
<trkpt lat="-27.274439" lon="151.290064">
  <ele>343.0</ele>
  <time>2026-08-29T20:44:18Z</time>
  <course>0.0</course>
  <speed>0.0</speed>
  <fix>3d</fix>
</trkpt>
<trkpt lat="-27.274439" lon="151.290064">
  <ele>343.0</ele>
  <time>2026-08-29T20:44:18Z</time>
  <course>256.4</course>
  <speed>0.9403190947758107</speed>
  <fix>3d</fix>
</trkpt>
<trkpt lat="-27.274439" lon="151.290064">
  <ele>343.0</ele>
  <time>2026-08-29T20:44:18Z</time>
  <course>0.0</course>
  <speed>0.0</speed>
  <fix>3d</fix>
</trkpt>
<trkpt lat="-27.274439" lon="151.290064">
  <ele>343.0</ele>
  <time>2026-08-29T20:44:18Z</time>
  <course>249.45</course>
  <speed>0.756042326857432</speed>
  <fix>3d</fix>
</trkpt>
<trkpt lat="-27.274439" lon="151.290064">
  <ele>343.0</ele>
  <time>2026-08-29T20:44:18Z</time>
  <course>0.0</course>
  <speed>0.0</speed>
  <fix>3d</fix>
</trkpt>
<trkpt lat="-27.274439" lon="151.290064">
  <ele>343.0</ele>
  <time>2026-08-29T20:44:18Z</time>
  <course>241.79</course>
  <speed>0.6596969000988256</speed>
  <fix>3d</fix>
</trkpt>
<trkpt lat="-27.274439" lon="151.290064">
  <ele>343.0</ele>
  <time>2026-08-29T20:44:18Z</time>
  <course>0.0</course>
  <speed>0.0</speed>
  <fix>3d</fix>
</trkpt>
<trkpt lat="-27.274439" lon="151.290064">
  <ele>343.0</ele>
  <time>2026-08-29T20:44:18Z</time>
  <course>233.59</course>
  <speed>0.6618912297349165</speed>
  <fix>3d</fix>
</trkpt>
<trkpt lat="-27.274439" lon="151.290064">
  <ele>343.0</ele>
  <time>2026-08-29T20:44:18Z</time>
  <course>0.0</course>
  <speed>0.0</speed>
  <fix>3d</fix>
</trkpt>
<trkpt lat="-27.274439" lon="151.290064">
  <ele>343.0</ele>
  <time>2026-08-29T20:44:18Z</time>
  <course>225.02</course>
  <speed>0.7034202158027589</speed>
  <fix>3d</fix>
</trkpt>
<trkpt lat="-27.274439" lon="151.290064">
  <ele>343.0</ele>
  <time>2026-08-29T20:44:18Z</time>
  <course>0.0</course>
  <speed>0.0</speed>
  <fix>3d</fix>
</trkpt>
<trkpt lat="-27.274439" lon="151.290064">
  <ele>343.0</ele>
  <time>2026-08-29T20:44:18Z</time>
  <course>216.17</course>
  <speed>0.7539230729988305</speed>
  <fix>3d</fix>
</trkpt>
<trkpt lat="-27.274439" lon="151.290064">
  <ele>343.0</ele>
  <time>2026-08-29T20:44:18Z</time>
  <course>0.0</course>
  <speed>0.0</speed>
  <fix>3d</fix>
</trkpt>
<trkpt lat="-27.274439" lon="151.290064">
  <ele>343.0</ele>
  <time>2026-08-29T20:44:18Z</time>
  <course>207.13</course>
  <speed>0.8052949770115296</speed>
  <fix>3d</fix>
</trkpt>
<trkpt lat="-27.274439" lon="151.290064">
  <ele>343.0</ele>
  <time>2026-08-29T20:44:18Z</time>
  <course>0.0</course>
  <speed>0.0</speed>
  <fix>3d</fix>
</trkpt>
<trkpt lat="-27.274439" lon="151.290064">
  <ele>343.0</ele>
  <time>2026-08-29T20:44:18Z</time>
  <course>197.74</course>
  <speed>0.39824615503479754</speed>
  <fix>3d</fix>
</trkpt>
<trkpt lat="-27.274439" lon="151.290064">
  <ele>343.0</ele>
  <time>2026-08-29T20:44:18Z</time>
  <course>0.0</course>
  <speed>0.0</speed>
  <fix>3d</fix>
</trkpt>
<trkpt lat="-27.274439" lon="151.290064">
  <ele>343.0</ele>
  <time>2026-08-29T20:44:18Z</time>
  <course>188.23</course>
  <speed>0.12529964086141668</speed>
  <fix>3d</fix>
</trkpt>
<trkpt lat="-27.274439" lon="151.290064">
  <ele>343.0</ele>
  <time>2026-08-29T20:44:18Z</time>
  <course>0.0</course>
  <speed>0.0</speed>
  <fix>3d</fix>
</trkpt>
<trkpt lat="-27.274439" lon="151.290064">
  <ele>343.0</ele>
  <time>2026-08-29T20:44:18Z</time>
  <course>178.75</course>
  <speed>0.1118033988749895</speed>
  <fix>3d</fix>
</trkpt>
<trkpt lat="-27.274439" lon="151.290064">
  <ele>343.0</ele>
  <time>2026-08-29T20:44:18Z</time>
  <course>0.0</course>
  <speed>0.0</speed>
  <fix>3d</fix>
</trkpt>
<trkpt lat="-27.274439" lon="151.290064">
  <ele>343.0</ele>
  <time>2026-08-29T20:44:18Z</time>
  <course>169.33</course>
  <speed>0.12529964086141668</speed>
  <fix>3d</fix>
</trkpt>
<trkpt lat="-27.274439" lon="151.290064">
  <ele>343.0</ele>
  <time>2026-08-29T20:44:18Z</time>
  <course>0.0</course>
  <speed>0.0</speed>
  <fix>3d</fix>
</trkpt>
<trkpt lat="-27.274439" lon="151.290064">
  <ele>343.0</ele>
  <time>2026-08-29T20:44:18Z</time>
  <course>325.88</course>
  <speed>0.0</speed>
  <fix>3d</fix>
</trkpt>
<trkpt lat="-27.274439" lon="151.290064">
  <ele>343.0</ele>
  <time>2026-08-29T20:44:18Z</time>
  <course>324.43</course>
  <speed>0.0</speed>
  <fix>3d</fix>
</trkpt>
<trkpt lat="-27.274439" lon="151.290064">
  <ele>343.0</ele>
  <time>2026-08-29T20:44:18Z</time>
  <course>321.86</course>
  <speed>0.0</speed>
  <fix>3d</fix>
</trkpt>
<trkpt lat="-27.274439" lon="151.290064">
  <ele>343.0</ele>
  <time>2026-08-29T20:44:18Z</time>
  <course>295.0</course>
  <speed>0.0</speed>
  <fix>3d</fix>
</trkpt>
<trkpt lat="-27.274439" lon="151.290064">
  <ele>343.0</ele>
  <time>2026-08-29T20:44:18Z</time>
  <course>290.72</course>
  <speed>0.0</speed>
  <fix>3d</fix>
</trkpt>
<trkpt lat="-27.274439" lon="151.290064">
  <ele>343.0</ele>
  <time>2026-08-29T20:44:18Z</time>
  <course>284.84</course>
  <speed>0.0</speed>
  <fix>3d</fix>
</trkpt>
<trkpt lat="-27.274439" lon="151.290064">
  <ele>343.0</ele>
  <time>2026-08-29T20:44:18Z</time>
  <course>277.79</course>
  <speed>0.0</speed>
  <fix>3d</fix>
</trkpt>
<trkpt lat="-27.274439" lon="151.290064">
  <ele>343.0</ele>
  <time>2026-08-29T20:44:18Z</time>
  <course>269.55</course>
  <speed>0.0</speed>
  <fix>3d</fix>
</trkpt>
<trkpt lat="-27.274439" lon="151.290064">
  <ele>343.0</ele>
  <time>2026-08-29T20:44:18Z</time>
  <course>262.16</course>
  <speed>0.9176055797563569</speed>
  <fix>3d</fix>
</trkpt>
<trkpt lat="-27.274439" lon="151.290064">
  <ele>343.0</ele>
  <time>2026-08-29T20:44:18Z</time>
  <course>0.0</course>
  <speed>0.0</speed>
  <fix>3d</fix>
</trkpt>
<trkpt lat="-27.274439" lon="151.290064">
  <ele>343.0</ele>
  <time>2026-08-29T20:44:18Z</time>
  <course>256.4</course>
  <speed>0.9403190947758107</speed>
  <fix>3d</fix>
</trkpt>
<trkpt lat="-27.274439" lon="151.290064">
  <ele>343.0</ele>
  <time>2026-08-29T20:44:18Z</time>
  <course>0.0</course>
  <speed>0.0</speed>
  <fix>3d</fix>
</trkpt>
<trkpt lat="-27.274439" lon="151.290064">
  <ele>343.0</ele>
  <time>2026-08-29T20:44:18Z</time>
  <course>249.45</course>
  <speed>0.756042326857432</speed>
  <fix>3d</fix>
</trkpt>
<trkpt lat="-27.274439" lon="151.290064">
  <ele>343.0</ele>
  <time>2026-08-29T20:44:18Z</time>
  <course>0.0</course>
  <speed>0.0</speed>
  <fix>3d</fix>
</trkpt>
<trkpt lat="-27.274439" lon="151.290064">
  <ele>343.0</ele>
  <time>2026-08-29T20:44:18Z</time>
  <course>241.79</course>
  <speed>0.6596969000988256</speed>
  <fix>3d</fix>
</trkpt>
<trkpt lat="-27.274439" lon="151.290064">
  <ele>343.0</ele>
  <time>2026-08-29T20:44:18Z</time>
  <course>0.0</course>
  <speed>0.0</speed>
  <fix>3d</fix>
</trkpt>
<trkpt lat="-27.274439" lon="151.290064">
  <ele>343.0</ele>
  <time>2026-08-29T20:44:18Z</time>
  <course>233.59</course>
  <speed>0.6618912297349165</speed>
  <fix>3d</fix>
</trkpt>
<trkpt lat="-27.274439" lon="151.290064">
  <ele>343.0</ele>
  <time>2026-08-29T20:44:18Z</time>
  <course>0.0</course>
  <speed>0.0</speed>
  <fix>3d</fix>
</trkpt>
<trkpt lat="-27.274439" lon="151.290064">
  <ele>343.0</ele>
  <time>2026-08-29T20:44:18Z</time>
  <course>225.02</course>
  <speed>0.7034202158027589</speed>
  <fix>3d</fix>
</trkpt>
<trkpt lat="-27.274439" lon="151.290064">
  <ele>343.0</ele>
  <time>2026-08-29T20:44:18Z</time>
  <course>0.0</course>
  <speed>0.0</speed>
  <fix>3d</fix>
</trkpt>
<trkpt lat="-27.274439" lon="151.290064">
  <ele>343.0</ele>
  <time>2026-08-29T20:44:18Z</time>
  <course>207.13</course>
  <speed>0.8052949770115296</speed>
  <fix>3d</fix>
</trkpt>
<trkpt lat="-27.274439" lon="151.290064">
  <ele>343.0</ele>
  <time>2026-08-29T20:44:18Z</time>
  <course>0.0</course>
  <speed>0.0</speed>
  <fix>3d</fix>
</trkpt>
<trkpt lat="-27.274439" lon="151.290064">
  <ele>343.0</ele>
  <time>2026-08-29T20:44:18Z</time>
  <course>197.95</course>
  <speed>0.8453401682163222</speed>
  <fix>3d</fix>
</trkpt>
<trkpt lat="-27.274439" lon="151.290064">
  <ele>343.0</ele>
  <time>2026-08-29T20:44:18Z</time>
  <course>0.0</course>
  <speed>0.0</speed>
  <fix>3d</fix>
</trkpt>
<trkpt lat="-27.274439" lon="151.290064">
  <ele>343.0</ele>
  <time>2026-08-29T20:44:18Z</time>
  <course>188.67</course>
  <speed>0.878179936004006</speed>
  <fix>3d</fix>
</trkpt>
<trkpt lat="-27.274439" lon="151.290064">
  <ele>343.0</ele>
  <time>2026-08-29T20:44:18Z</time>
  <course>0.0</course>
  <speed>0.0</speed>
  <fix>3d</fix>
</trkpt>
<trkpt lat="-27.274439" lon="151.290064">
  <ele>343.0</ele>
  <time>2026-08-29T20:44:18Z</time>
  <course>179.31</course>
  <speed>0.8848163651289458</speed>
  <fix>3d</fix>
</trkpt>
<trkpt lat="-27.274439" lon="151.290064">
  <ele>343.0</ele>
  <time>2026-08-29T20:44:18Z</time>
  <course>0.0</course>
  <speed>0.0</speed>
  <fix>3d</fix>
</trkpt>
<trkpt lat="-27.274439" lon="151.290064">
  <ele>343.0</ele>
  <time>2026-08-29T20:44:18Z</time>
  <course>169.93</course>
  <speed>0.9140021881811882</speed>
  <fix>3d</fix>
</trkpt>
<trkpt lat="-27.274439" lon="151.290064">
  <ele>343.0</ele>
  <time>2026-08-29T20:44:18Z</time>
  <course>0.0</course>
  <speed>0.0</speed>
  <fix>3d</fix>
</trkpt>
<trkpt lat="-27.274439" lon="151.290064">
  <ele>343.0</ele>
  <time>2026-08-29T20:44:18Z</time>
  <course>161.9</course>
  <speed>0.9219544457292888</speed>
  <fix>3d</fix>
</trkpt>
<trkpt lat="-27.274439" lon="151.290064">
  <ele>343.0</ele>
  <time>2026-08-29T20:44:18Z</time>
  <course>0.0</course>
  <speed>0.0</speed>
  <fix>3d</fix>
</trkpt>
<trkpt lat="-27.274439" lon="151.290064">
  <ele>343.0</ele>
  <time>2026-08-29T20:44:18Z</time>
  <course>158.55</course>
  <speed>0.9411163583744573</speed>
  <fix>3d</fix>
</trkpt>
<trkpt lat="-27.274439" lon="151.290064">
  <ele>343.0</ele>
  <time>2026-08-29T20:44:18Z</time>
  <course>0.0</course>
  <speed>0.0</speed>
  <fix>3d</fix>
</trkpt>
<trkpt lat="-27.274439" lon="151.290064">
  <ele>342.99</ele>
  <time>2026-08-29T20:44:18Z</time>
  <course>157.2</course>
  <speed>0.9546203433826455</speed>
  <fix>3d</fix>
</trkpt>
<trkpt lat="-27.274439" lon="151.290064">
  <ele>343.21</ele>
  <time>2026-08-29T20:44:18Z</time>
  <course>156.57</course>
  <speed>0.9642613753542137</speed>
  <fix>3d</fix>
</trkpt>
<trkpt lat="-27.274439" lon="151.290064">
  <ele>343.01</ele>
  <time>2026-08-29T20:44:18Z</time>
  <course>148.09</course>
  <speed>0.5300943312279428</speed>
  <fix>3d</fix>
</trkpt>
<trkpt lat="-27.274439" lon="151.290064">
  <ele>342.83</ele>
  <time>2026-08-29T20:44:18Z</time>
  <course>138.52</course>
  <speed>0.223606797749979</speed>
  <fix>3d</fix>
</trkpt>
<trkpt lat="-27.274439" lon="151.290064">
  <ele>342.98</ele>
  <time>2026-08-29T20:44:18Z</time>
  <course>129.04</course>
  <speed>0.1</speed>
  <fix>3d</fix>
</trkpt>
<trkpt lat="-27.274439" lon="151.290064">
  <ele>343.05</ele>
  <time>2026-08-29T20:44:18Z</time>
  <course>119.59</course>
  <speed>0.08</speed>
  <fix>3d</fix>
</trkpt>
<trkpt lat="-27.274439" lon="151.290064">
  <ele>343.0</ele>
  <time>2026-08-29T20:44:19Z</time>
  <course>325.88</course>
  <speed>0.0</speed>
  <fix>3d</fix>
</trkpt>
<trkpt lat="-27.274439" lon="151.290064">
  <ele>343.0</ele>
  <time>2026-08-29T20:44:19Z</time>
  <course>324.43</course>
  <speed>0.0</speed>
  <fix>3d</fix>
</trkpt>
<trkpt lat="-27.274439" lon="151.290064">
  <ele>343.0</ele>
  <time>2026-08-29T20:44:19Z</time>
  <course>321.86</course>
  <speed>0.0</speed>
  <fix>3d</fix>
</trkpt>
<trkpt lat="-27.274439" lon="151.290064">
  <ele>343.0</ele>
  <time>2026-08-29T20:44:19Z</time>
  <course>294.93</course>
  <speed>0.0</speed>
  <fix>3d</fix>
</trkpt>
<trkpt lat="-27.274439" lon="151.290064">
  <ele>343.0</ele>
  <time>2026-08-29T20:44:19Z</time>
  <course>290.06</course>
  <speed>0.0</speed>
  <fix>3d</fix>
</trkpt>
<trkpt lat="-27.274439" lon="151.290064">
  <ele>343.0</ele>
  <time>2026-08-29T20:44:19Z</time>
  <course>284.12</course>
  <speed>0.0</speed>
  <fix>3d</fix>
</trkpt>
<trkpt lat="-27.274439" lon="151.290064">
  <ele>343.0</ele>
  <time>2026-08-29T20:44:19Z</time>
  <course>277.04</course>
  <speed>0.0</speed>
  <fix>3d</fix>
</trkpt>
<trkpt lat="-27.274439" lon="151.290064">
  <ele>343.0</ele>
  <time>2026-08-29T20:44:19Z</time>
  <course>268.85</course>
  <speed>0.0</speed>
  <fix>3d</fix>
</trkpt>
<trkpt lat="-27.274439" lon="151.290064">
  <ele>343.0</ele>
  <time>2026-08-29T20:44:19Z</time>
  <course>259.88</course>
  <speed>0.0</speed>
  <fix>3d</fix>
</trkpt>
<trkpt lat="-27.274439" lon="151.290064">
  <ele>343.0</ele>
  <time>2026-08-29T20:44:19Z</time>
  <course>250.47</course>
  <speed>0.0</speed>
  <fix>3d</fix>
</trkpt>
<trkpt lat="-27.274439" lon="151.290064">
  <ele>343.0</ele>
  <time>2026-08-29T20:44:19Z</time>
  <course>240.88</course>
  <speed>0.0</speed>
  <fix>3d</fix>
</trkpt>
<trkpt lat="-27.274439" lon="151.290064">
  <ele>343.0</ele>
  <time>2026-08-29T20:44:19Z</time>
  <course>231.22</course>
  <speed>0.0</speed>
  <fix>3d</fix>
</trkpt>
<trkpt lat="-27.274439" lon="151.290064">
  <ele>343.0</ele>
  <time>2026-08-29T20:44:19Z</time>
  <course>221.53</course>
  <speed>0.0</speed>
  <fix>3d</fix>
</trkpt>
<trkpt lat="-27.274439" lon="151.290064">
  <ele>343.0</ele>
  <time>2026-08-29T20:44:19Z</time>
  <course>211.86</course>
  <speed>0.0</speed>
  <fix>3d</fix>
</trkpt>
<trkpt lat="-27.274439" lon="151.290064">
  <ele>343.0</ele>
  <time>2026-08-29T20:44:19Z</time>
  <course>202.2</course>
  <speed>0.0</speed>
  <fix>3d</fix>
</trkpt>
<trkpt lat="-27.274439" lon="151.290064">
  <ele>343.0</ele>
  <time>2026-08-29T20:44:19Z</time>
  <course>192.58</course>
  <speed>0.0</speed>
  <fix>3d</fix>
</trkpt>
<trkpt lat="-27.274439" lon="151.290064">
  <ele>343.0</ele>
  <time>2026-08-29T20:44:19Z</time>
  <course>182.98</course>
  <speed>0.0</speed>
  <fix>3d</fix>
</trkpt>
<trkpt lat="-27.274439" lon="151.290064">
  <ele>343.0</ele>
  <time>2026-08-29T20:44:19Z</time>
  <course>173.41</course>
  <speed>0.0</speed>
  <fix>3d</fix>
</trkpt>
<trkpt lat="-27.274439" lon="151.290064">
  <ele>343.0</ele>
  <time>2026-08-29T20:44:19Z</time>
  <course>163.87</course>
  <speed>0.0</speed>
  <fix>3d</fix>
</trkpt>
<trkpt lat="-27.274439" lon="151.290064">
  <ele>343.0</ele>
  <time>2026-08-29T20:44:19Z</time>
  <course>154.31</course>
  <speed>0.0</speed>
  <fix>3d</fix>
</trkpt>
<trkpt lat="-27.274439" lon="151.290064">
  <ele>343.0</ele>
  <time>2026-08-29T20:44:19Z</time>
  <course>144.82</course>
  <speed>0.0</speed>
  <fix>3d</fix>
</trkpt>
<trkpt lat="-27.274439" lon="151.290064">
  <ele>343.0</ele>
  <time>2026-08-29T20:44:19Z</time>
  <course>135.4</course>
  <speed>0.0</speed>
  <fix>3d</fix>
</trkpt>
<trkpt lat="-27.274439" lon="151.290064">
  <ele>343.0</ele>
  <time>2026-08-29T20:44:19Z</time>
  <course>126.04</course>
  <speed>0.0</speed>
  <fix>3d</fix>
</trkpt>
<trkpt lat="-27.274439" lon="151.290064">
  <ele>343.0</ele>
  <time>2026-08-29T20:44:19Z</time>
  <course>325.88</course>
  <speed>0.0</speed>
  <fix>3d</fix>
</trkpt>
<trkpt lat="-27.274439" lon="151.290064">
  <ele>343.0</ele>
  <time>2026-08-29T20:44:19Z</time>
  <course>324.43</course>
  <speed>0.0</speed>
  <fix>3d</fix>
</trkpt>
<trkpt lat="-27.274439" lon="151.290064">
  <ele>343.0</ele>
  <time>2026-08-29T20:44:19Z</time>
  <course>321.86</course>
  <speed>0.0</speed>
  <fix>3d</fix>
</trkpt>
<trkpt lat="-27.274439" lon="151.290064">
  <ele>343.0</ele>
  <time>2026-08-29T20:44:19Z</time>
  <course>295.0</course>
  <speed>0.0</speed>
  <fix>3d</fix>
</trkpt>
<trkpt lat="-27.274439" lon="151.290064">
  <ele>343.0</ele>
  <time>2026-08-29T20:44:19Z</time>
  <course>290.72</course>
  <speed>0.0</speed>
  <fix>3d</fix>
</trkpt>
<trkpt lat="-27.274439" lon="151.290064">
  <ele>343.0</ele>
  <time>2026-08-29T20:44:19Z</time>
  <course>284.84</course>
  <speed>0.0</speed>
  <fix>3d</fix>
</trkpt>
<trkpt lat="-27.274439" lon="151.290064">
  <ele>343.0</ele>
  <time>2026-08-29T20:44:19Z</time>
  <course>277.79</course>
  <speed>0.0</speed>
  <fix>3d</fix>
</trkpt>
<trkpt lat="-27.274439" lon="151.290064">
  <ele>343.0</ele>
  <time>2026-08-29T20:44:19Z</time>
  <course>269.55</course>
  <speed>0.0</speed>
  <fix>3d</fix>
</trkpt>
<trkpt lat="-27.274439" lon="151.290064">
  <ele>343.0</ele>
  <time>2026-08-29T20:44:19Z</time>
  <course>262.16</course>
  <speed>0.9176055797563569</speed>
  <fix>3d</fix>
</trkpt>
<trkpt lat="-27.274439" lon="151.290064">
  <ele>343.0</ele>
  <time>2026-08-29T20:44:19Z</time>
  <course>0.0</course>
  <speed>0.0</speed>
  <fix>3d</fix>
</trkpt>
<trkpt lat="-27.274439" lon="151.290064">
  <ele>343.0</ele>
  <time>2026-08-29T20:44:19Z</time>
  <course>256.4</course>
  <speed>0.9403190947758107</speed>
  <fix>3d</fix>
</trkpt>
<trkpt lat="-27.274439" lon="151.290064">
  <ele>343.0</ele>
  <time>2026-08-29T20:44:19Z</time>
  <course>0.0</course>
  <speed>0.0</speed>
  <fix>3d</fix>
</trkpt>
<trkpt lat="-27.274439" lon="151.290064">
  <ele>343.0</ele>
  <time>2026-08-29T20:44:19Z</time>
  <course>249.45</course>
  <speed>0.756042326857432</speed>
  <fix>3d</fix>
</trkpt>
<trkpt lat="-27.274439" lon="151.290064">
  <ele>343.0</ele>
  <time>2026-08-29T20:44:19Z</time>
  <course>0.0</course>
  <speed>0.0</speed>
  <fix>3d</fix>
</trkpt>
<trkpt lat="-27.274439" lon="151.290064">
  <ele>343.0</ele>
  <time>2026-08-29T20:44:19Z</time>
  <course>241.79</course>
  <speed>0.6596969000988256</speed>
  <fix>3d</fix>
</trkpt>
<trkpt lat="-27.274439" lon="151.290064">
  <ele>343.0</ele>
  <time>2026-08-29T20:44:19Z</time>
  <course>0.0</course>
  <speed>0.0</speed>
  <fix>3d</fix>
</trkpt>
<trkpt lat="-27.274439" lon="151.290064">
  <ele>343.0</ele>
  <time>2026-08-29T20:44:19Z</time>
  <course>233.59</course>
  <speed>0.6618912297349165</speed>
  <fix>3d</fix>
</trkpt>
<trkpt lat="-27.274439" lon="151.290064">
  <ele>343.0</ele>
  <time>2026-08-29T20:44:19Z</time>
  <course>0.0</course>
  <speed>0.0</speed>
  <fix>3d</fix>
</trkpt>
<trkpt lat="-27.274439" lon="151.290064">
  <ele>343.0</ele>
  <time>2026-08-29T20:44:19Z</time>
  <course>225.02</course>
  <speed>0.7034202158027589</speed>
  <fix>3d</fix>
</trkpt>
<trkpt lat="-27.274439" lon="151.290064">
  <ele>343.0</ele>
  <time>2026-08-29T20:44:19Z</time>
  <course>0.0</course>
  <speed>0.0</speed>
  <fix>3d</fix>
</trkpt>
</trkseg>
</trk>
</gpx>
